<?xml version="1.0" encoding="UTF-8" standalone="no" ?>
<gpx xmlns="http://www.topografix.com/GPX/1/1" xmlns:xsi="http://www.w3.org/2001/XMLSchema-instance" xsi:schemaLocation="http://www.topografix.com/GPX/1/1 http://www.topografix.com/GPX/1/1/gpx.xsd" version="1.1" creator="VisuGPX - https://www.visugpx.com">
  <metadata>
    <name>Pic de Portarras</name>
    <desc><![CDATA[Départ du Virage du Garet (route du col du Tourmalet)]]></desc>
  </metadata>
  <trk>
    <name><![CDATA[Pic de Portarras]]></name>
    <extensions>
      <line xmlns="http://www.topografix.com/GPX/gpx_style/0/2">
        <width>4</width>
      </line>
    </extensions>
    <trkseg>
      <trkpt lat="42.91761" lon="0.20916">
        <ele>1454.4</ele>
        <time>2021-08-19T06:25:54.000Z</time>
      </trkpt>
      <trkpt lat="42.91761" lon="0.20916">
        <ele>1454.6</ele>
        <time>2021-08-19T06:25:55.000Z</time>
      </trkpt>
      <trkpt lat="42.91761" lon="0.20915">
        <ele>1454.9</ele>
        <time>2021-08-19T06:25:59.000Z</time>
      </trkpt>
      <trkpt lat="42.91761" lon="0.20915">
        <ele>1455.1</ele>
        <time>2021-08-19T06:26:00.000Z</time>
      </trkpt>
      <trkpt lat="42.91761" lon="0.20915">
        <ele>1455</ele>
        <time>2021-08-19T06:26:05.000Z</time>
      </trkpt>
      <trkpt lat="42.91761" lon="0.20915">
        <ele>1455.1</ele>
        <time>2021-08-19T06:26:06.000Z</time>
      </trkpt>
      <trkpt lat="42.91761" lon="0.20915">
        <ele>1455.5</ele>
        <time>2021-08-19T06:26:08.000Z</time>
      </trkpt>
      <trkpt lat="42.91761" lon="0.20915">
        <ele>1455.4</ele>
        <time>2021-08-19T06:26:09.000Z</time>
      </trkpt>
      <trkpt lat="42.91761" lon="0.20915">
        <ele>1455.4</ele>
        <time>2021-08-19T06:26:09.000Z</time>
      </trkpt>
      <trkpt lat="42.91761" lon="0.20915">
        <ele>1455</ele>
        <time>2021-08-19T06:26:27.000Z</time>
      </trkpt>
      <trkpt lat="42.91761" lon="0.20915">
        <ele>1454.8</ele>
        <time>2021-08-19T06:26:28.000Z</time>
      </trkpt>
      <trkpt lat="42.91761" lon="0.20915">
        <ele>1455.5</ele>
        <time>2021-08-19T06:26:40.000Z</time>
      </trkpt>
      <trkpt lat="42.91761" lon="0.20915">
        <ele>1454.9</ele>
        <time>2021-08-19T06:26:41.000Z</time>
      </trkpt>
      <trkpt lat="42.91761" lon="0.20915">
        <ele>1455.6</ele>
        <time>2021-08-19T06:26:53.000Z</time>
      </trkpt>
      <trkpt lat="42.91761" lon="0.20915">
        <ele>1455.7</ele>
        <time>2021-08-19T06:26:54.000Z</time>
      </trkpt>
      <trkpt lat="42.91761" lon="0.20915">
        <ele>1456</ele>
        <time>2021-08-19T06:26:55.000Z</time>
      </trkpt>
      <trkpt lat="42.91761" lon="0.20915">
        <ele>1456.2</ele>
        <time>2021-08-19T06:26:57.000Z</time>
      </trkpt>
      <trkpt lat="42.91761" lon="0.20915">
        <ele>1455.8</ele>
        <time>2021-08-19T06:26:58.000Z</time>
      </trkpt>
      <trkpt lat="42.91755" lon="0.20922">
        <ele>1455.6</ele>
        <time>2021-08-19T06:27:13.000Z</time>
      </trkpt>
      <trkpt lat="42.91754" lon="0.20922">
        <ele>1455.9</ele>
        <time>2021-08-19T06:27:15.000Z</time>
      </trkpt>
      <trkpt lat="42.9175" lon="0.20925">
        <ele>1456.6</ele>
        <time>2021-08-19T06:27:23.000Z</time>
      </trkpt>
      <trkpt lat="42.9175" lon="0.20925">
        <ele>1456.8</ele>
        <time>2021-08-19T06:27:24.000Z</time>
      </trkpt>
      <trkpt lat="42.91743" lon="0.20935">
        <ele>1456.9</ele>
        <time>2021-08-19T06:27:32.000Z</time>
      </trkpt>
      <trkpt lat="42.91735" lon="0.20942">
        <ele>1457.7</ele>
        <time>2021-08-19T06:27:39.000Z</time>
      </trkpt>
      <trkpt lat="42.91727" lon="0.20951">
        <ele>1458.9</ele>
        <time>2021-08-19T06:27:47.000Z</time>
      </trkpt>
      <trkpt lat="42.91718" lon="0.20955">
        <ele>1459.4</ele>
        <time>2021-08-19T06:27:54.000Z</time>
      </trkpt>
      <trkpt lat="42.91709" lon="0.20956">
        <ele>1460.5</ele>
        <time>2021-08-19T06:28:02.000Z</time>
      </trkpt>
      <trkpt lat="42.917" lon="0.2095">
        <ele>1461.5</ele>
        <time>2021-08-19T06:28:11.000Z</time>
      </trkpt>
      <trkpt lat="42.91691" lon="0.20951">
        <ele>1462.5</ele>
        <time>2021-08-19T06:28:21.000Z</time>
      </trkpt>
      <trkpt lat="42.91683" lon="0.20944">
        <ele>1463.7</ele>
        <time>2021-08-19T06:28:31.000Z</time>
      </trkpt>
      <trkpt lat="42.91682" lon="0.20944">
        <ele>1463.7</ele>
        <time>2021-08-19T06:28:33.000Z</time>
      </trkpt>
      <trkpt lat="42.91681" lon="0.20943">
        <ele>1463.8</ele>
        <time>2021-08-19T06:28:34.000Z</time>
      </trkpt>
      <trkpt lat="42.91673" lon="0.20937">
        <ele>1464.1</ele>
        <time>2021-08-19T06:28:43.000Z</time>
      </trkpt>
      <trkpt lat="42.91665" lon="0.2093">
        <ele>1464.4</ele>
        <time>2021-08-19T06:28:48.000Z</time>
      </trkpt>
      <trkpt lat="42.91657" lon="0.20921">
        <ele>1464.1</ele>
        <time>2021-08-19T06:28:55.000Z</time>
      </trkpt>
      <trkpt lat="42.91651" lon="0.2091">
        <ele>1461.6</ele>
        <time>2021-08-19T06:29:10.000Z</time>
      </trkpt>
      <trkpt lat="42.91652" lon="0.20923">
        <ele>1459.6</ele>
        <time>2021-08-19T06:29:28.000Z</time>
      </trkpt>
      <trkpt lat="42.91651" lon="0.20936">
        <ele>1457.6</ele>
        <time>2021-08-19T06:29:39.000Z</time>
      </trkpt>
      <trkpt lat="42.91649" lon="0.20937">
        <ele>1457.3</ele>
        <time>2021-08-19T06:29:49.000Z</time>
      </trkpt>
      <trkpt lat="42.91649" lon="0.20936">
        <ele>1457.5</ele>
        <time>2021-08-19T06:29:50.000Z</time>
      </trkpt>
      <trkpt lat="42.91646" lon="0.20937">
        <ele>1458.3</ele>
        <time>2021-08-19T06:29:57.000Z</time>
      </trkpt>
      <trkpt lat="42.91646" lon="0.20936">
        <ele>1458.5</ele>
        <time>2021-08-19T06:29:58.000Z</time>
      </trkpt>
      <trkpt lat="42.91637" lon="0.20931">
        <ele>1459.8</ele>
        <time>2021-08-19T06:30:09.000Z</time>
      </trkpt>
      <trkpt lat="42.91633" lon="0.20942">
        <ele>1460.4</ele>
        <time>2021-08-19T06:30:18.000Z</time>
      </trkpt>
      <trkpt lat="42.91635" lon="0.20956">
        <ele>1460.2</ele>
        <time>2021-08-19T06:30:26.000Z</time>
      </trkpt>
      <trkpt lat="42.91637" lon="0.20968">
        <ele>1458.9</ele>
        <time>2021-08-19T06:30:35.000Z</time>
      </trkpt>
      <trkpt lat="42.9164" lon="0.2098">
        <ele>1458.7</ele>
        <time>2021-08-19T06:30:43.000Z</time>
      </trkpt>
      <trkpt lat="42.91643" lon="0.20992">
        <ele>1459.2</ele>
        <time>2021-08-19T06:30:53.000Z</time>
      </trkpt>
      <trkpt lat="42.91635" lon="0.20999">
        <ele>1460.1</ele>
        <time>2021-08-19T06:31:02.000Z</time>
      </trkpt>
      <trkpt lat="42.91624" lon="0.20999">
        <ele>1461.6</ele>
        <time>2021-08-19T06:31:16.000Z</time>
      </trkpt>
      <trkpt lat="42.9162" lon="0.2101">
        <ele>1464.5</ele>
        <time>2021-08-19T06:31:32.000Z</time>
      </trkpt>
      <trkpt lat="42.91614" lon="0.21019">
        <ele>1464.3</ele>
        <time>2021-08-19T06:31:48.000Z</time>
      </trkpt>
      <trkpt lat="42.91614" lon="0.21019">
        <ele>1464.2</ele>
        <time>2021-08-19T06:31:52.000Z</time>
      </trkpt>
      <trkpt lat="42.91613" lon="0.2102">
        <ele>1463.7</ele>
        <time>2021-08-19T06:31:56.000Z</time>
      </trkpt>
      <trkpt lat="42.91613" lon="0.21021">
        <ele>1463</ele>
        <time>2021-08-19T06:31:57.000Z</time>
      </trkpt>
      <trkpt lat="42.91614" lon="0.21021">
        <ele>1462.8</ele>
        <time>2021-08-19T06:31:59.000Z</time>
      </trkpt>
      <trkpt lat="42.91614" lon="0.21021">
        <ele>1433.6</ele>
        <time>2021-08-19T06:32:22.000Z</time>
      </trkpt>
      <trkpt lat="42.91614" lon="0.21021">
        <ele>1433.8</ele>
        <time>2021-08-19T06:32:23.000Z</time>
      </trkpt>
      <trkpt lat="42.91614" lon="0.2102">
        <ele>1433.4</ele>
        <time>2021-08-19T06:32:28.000Z</time>
      </trkpt>
      <trkpt lat="42.91609" lon="0.21032">
        <ele>1433.7</ele>
        <time>2021-08-19T06:32:48.000Z</time>
      </trkpt>
      <trkpt lat="42.91608" lon="0.21044">
        <ele>1435.1</ele>
        <time>2021-08-19T06:32:57.000Z</time>
      </trkpt>
      <trkpt lat="42.91607" lon="0.21057">
        <ele>1437</ele>
        <time>2021-08-19T06:33:08.000Z</time>
      </trkpt>
      <trkpt lat="42.91602" lon="0.21068">
        <ele>1438.7</ele>
        <time>2021-08-19T06:33:17.000Z</time>
      </trkpt>
      <trkpt lat="42.91603" lon="0.2108">
        <ele>1440.2</ele>
        <time>2021-08-19T06:33:25.000Z</time>
      </trkpt>
      <trkpt lat="42.91608" lon="0.21092">
        <ele>1441.9</ele>
        <time>2021-08-19T06:33:35.000Z</time>
      </trkpt>
      <trkpt lat="42.91603" lon="0.21103">
        <ele>1443</ele>
        <time>2021-08-19T06:33:42.000Z</time>
      </trkpt>
      <trkpt lat="42.91597" lon="0.21113">
        <ele>1444.7</ele>
        <time>2021-08-19T06:33:52.000Z</time>
      </trkpt>
      <trkpt lat="42.91588" lon="0.21119">
        <ele>1445.8</ele>
        <time>2021-08-19T06:33:58.000Z</time>
      </trkpt>
      <trkpt lat="42.91581" lon="0.21128">
        <ele>1447.3</ele>
        <time>2021-08-19T06:34:05.000Z</time>
      </trkpt>
      <trkpt lat="42.91588" lon="0.21136">
        <ele>1449.7</ele>
        <time>2021-08-19T06:34:18.000Z</time>
      </trkpt>
      <trkpt lat="42.91587" lon="0.21149">
        <ele>1452.7</ele>
        <time>2021-08-19T06:34:34.000Z</time>
      </trkpt>
      <trkpt lat="42.91577" lon="0.2115">
        <ele>1455.8</ele>
        <time>2021-08-19T06:34:48.000Z</time>
      </trkpt>
      <trkpt lat="42.91576" lon="0.21152">
        <ele>1456.9</ele>
        <time>2021-08-19T06:34:54.000Z</time>
      </trkpt>
      <trkpt lat="42.91576" lon="0.21153">
        <ele>1456.9</ele>
        <time>2021-08-19T06:34:55.000Z</time>
      </trkpt>
      <trkpt lat="42.91575" lon="0.21165">
        <ele>1459.8</ele>
        <time>2021-08-19T06:35:09.000Z</time>
      </trkpt>
      <trkpt lat="42.91575" lon="0.21172">
        <ele>1461.3</ele>
        <time>2021-08-19T06:35:17.000Z</time>
      </trkpt>
      <trkpt lat="42.91575" lon="0.21173">
        <ele>1461.6</ele>
        <time>2021-08-19T06:35:18.000Z</time>
      </trkpt>
      <trkpt lat="42.91565" lon="0.21174">
        <ele>1464.6</ele>
        <time>2021-08-19T06:35:36.000Z</time>
      </trkpt>
      <trkpt lat="42.91565" lon="0.21173">
        <ele>1466.1</ele>
        <time>2021-08-19T06:35:45.000Z</time>
      </trkpt>
      <trkpt lat="42.91564" lon="0.21172">
        <ele>1466.3</ele>
        <time>2021-08-19T06:35:46.000Z</time>
      </trkpt>
      <trkpt lat="42.91565" lon="0.21185">
        <ele>1469.1</ele>
        <time>2021-08-19T06:36:05.000Z</time>
      </trkpt>
      <trkpt lat="42.9157" lon="0.2119">
        <ele>1470.9</ele>
        <time>2021-08-19T06:36:16.000Z</time>
      </trkpt>
      <trkpt lat="42.91569" lon="0.2119">
        <ele>1471.2</ele>
        <time>2021-08-19T06:36:17.000Z</time>
      </trkpt>
      <trkpt lat="42.91565" lon="0.21201">
        <ele>1474.9</ele>
        <time>2021-08-19T06:36:35.000Z</time>
      </trkpt>
      <trkpt lat="42.9156" lon="0.21207">
        <ele>1478.7</ele>
        <time>2021-08-19T06:36:58.000Z</time>
      </trkpt>
      <trkpt lat="42.9156" lon="0.21208">
        <ele>1478.9</ele>
        <time>2021-08-19T06:36:59.000Z</time>
      </trkpt>
      <trkpt lat="42.91567" lon="0.21216">
        <ele>1481.8</ele>
        <time>2021-08-19T06:37:16.000Z</time>
      </trkpt>
      <trkpt lat="42.91566" lon="0.21229">
        <ele>1485.3</ele>
        <time>2021-08-19T06:37:36.000Z</time>
      </trkpt>
      <trkpt lat="42.91562" lon="0.2124">
        <ele>1487.7</ele>
        <time>2021-08-19T06:37:50.000Z</time>
      </trkpt>
      <trkpt lat="42.91553" lon="0.2124">
        <ele>1489.5</ele>
        <time>2021-08-19T06:38:01.000Z</time>
      </trkpt>
      <trkpt lat="42.91548" lon="0.21252">
        <ele>1492.8</ele>
        <time>2021-08-19T06:38:25.000Z</time>
      </trkpt>
      <trkpt lat="42.91551" lon="0.21265">
        <ele>1494.6</ele>
        <time>2021-08-19T06:38:39.000Z</time>
      </trkpt>
      <trkpt lat="42.91557" lon="0.21276">
        <ele>1496.2</ele>
        <time>2021-08-19T06:38:50.000Z</time>
      </trkpt>
      <trkpt lat="42.91558" lon="0.21288">
        <ele>1499.2</ele>
        <time>2021-08-19T06:39:07.000Z</time>
      </trkpt>
      <trkpt lat="42.91565" lon="0.21297">
        <ele>1502.3</ele>
        <time>2021-08-19T06:39:24.000Z</time>
      </trkpt>
      <trkpt lat="42.91573" lon="0.21301">
        <ele>1504.6</ele>
        <time>2021-08-19T06:39:37.000Z</time>
      </trkpt>
      <trkpt lat="42.91567" lon="0.2131">
        <ele>1506.2</ele>
        <time>2021-08-19T06:39:44.000Z</time>
      </trkpt>
      <trkpt lat="42.91572" lon="0.21319">
        <ele>1508.7</ele>
        <time>2021-08-19T06:40:00.000Z</time>
      </trkpt>
      <trkpt lat="42.91573" lon="0.21319">
        <ele>1508.7</ele>
        <time>2021-08-19T06:40:01.000Z</time>
      </trkpt>
      <trkpt lat="42.91574" lon="0.21331">
        <ele>1512.8</ele>
        <time>2021-08-19T06:40:22.000Z</time>
      </trkpt>
      <trkpt lat="42.91574" lon="0.21331">
        <ele>1513.2</ele>
        <time>2021-08-19T06:40:23.000Z</time>
      </trkpt>
      <trkpt lat="42.91581" lon="0.21339">
        <ele>1517.3</ele>
        <time>2021-08-19T06:40:46.000Z</time>
      </trkpt>
      <trkpt lat="42.91576" lon="0.21351">
        <ele>1521.1</ele>
        <time>2021-08-19T06:41:11.000Z</time>
      </trkpt>
      <trkpt lat="42.91572" lon="0.21359">
        <ele>1524.2</ele>
        <time>2021-08-19T06:41:30.000Z</time>
      </trkpt>
      <trkpt lat="42.91572" lon="0.21359">
        <ele>1524.3</ele>
        <time>2021-08-19T06:41:31.000Z</time>
      </trkpt>
      <trkpt lat="42.9158" lon="0.21364">
        <ele>1528.3</ele>
        <time>2021-08-19T06:41:54.000Z</time>
      </trkpt>
      <trkpt lat="42.91587" lon="0.2137">
        <ele>1530.1</ele>
        <time>2021-08-19T06:42:04.000Z</time>
      </trkpt>
      <trkpt lat="42.91588" lon="0.21371">
        <ele>1530.5</ele>
        <time>2021-08-19T06:42:05.000Z</time>
      </trkpt>
      <trkpt lat="42.91592" lon="0.21382">
        <ele>1534.3</ele>
        <time>2021-08-19T06:42:28.000Z</time>
      </trkpt>
      <trkpt lat="42.91593" lon="0.21383">
        <ele>1535.1</ele>
        <time>2021-08-19T06:42:32.000Z</time>
      </trkpt>
      <trkpt lat="42.91593" lon="0.21384">
        <ele>1535.3</ele>
        <time>2021-08-19T06:42:33.000Z</time>
      </trkpt>
      <trkpt lat="42.91592" lon="0.21396">
        <ele>1538.5</ele>
        <time>2021-08-19T06:42:51.000Z</time>
      </trkpt>
      <trkpt lat="42.91588" lon="0.21407">
        <ele>1541.7</ele>
        <time>2021-08-19T06:43:11.000Z</time>
      </trkpt>
      <trkpt lat="42.91584" lon="0.21418">
        <ele>1544.9</ele>
        <time>2021-08-19T06:43:25.000Z</time>
      </trkpt>
      <trkpt lat="42.91578" lon="0.21429">
        <ele>1547.2</ele>
        <time>2021-08-19T06:43:38.000Z</time>
      </trkpt>
      <trkpt lat="42.91571" lon="0.21438">
        <ele>1549.2</ele>
        <time>2021-08-19T06:43:50.000Z</time>
      </trkpt>
      <trkpt lat="42.91571" lon="0.2145">
        <ele>1551</ele>
        <time>2021-08-19T06:44:00.000Z</time>
      </trkpt>
      <trkpt lat="42.9157" lon="0.21463">
        <ele>1552.2</ele>
        <time>2021-08-19T06:44:11.000Z</time>
      </trkpt>
      <trkpt lat="42.91566" lon="0.21475">
        <ele>1553</ele>
        <time>2021-08-19T06:44:20.000Z</time>
      </trkpt>
      <trkpt lat="42.91563" lon="0.21487">
        <ele>1553.1</ele>
        <time>2021-08-19T06:44:30.000Z</time>
      </trkpt>
      <trkpt lat="42.91564" lon="0.21489">
        <ele>1552</ele>
        <time>2021-08-19T06:44:35.000Z</time>
      </trkpt>
      <trkpt lat="42.91564" lon="0.21489">
        <ele>1551.4</ele>
        <time>2021-08-19T06:44:36.000Z</time>
      </trkpt>
      <trkpt lat="42.91564" lon="0.21489">
        <ele>1552.1</ele>
        <time>2021-08-19T06:44:38.000Z</time>
      </trkpt>
      <trkpt lat="42.91564" lon="0.21489">
        <ele>1554.1</ele>
        <time>2021-08-19T06:46:05.000Z</time>
      </trkpt>
      <trkpt lat="42.91556" lon="0.21496">
        <ele>1554.7</ele>
        <time>2021-08-19T06:46:16.000Z</time>
      </trkpt>
      <trkpt lat="42.91551" lon="0.21506">
        <ele>1555.2</ele>
        <time>2021-08-19T06:46:25.000Z</time>
      </trkpt>
      <trkpt lat="42.91544" lon="0.21515">
        <ele>1555.9</ele>
        <time>2021-08-19T06:46:34.000Z</time>
      </trkpt>
      <trkpt lat="42.91545" lon="0.21528">
        <ele>1556.6</ele>
        <time>2021-08-19T06:46:43.000Z</time>
      </trkpt>
      <trkpt lat="42.91543" lon="0.2154">
        <ele>1557.9</ele>
        <time>2021-08-19T06:46:53.000Z</time>
      </trkpt>
      <trkpt lat="42.9154" lon="0.21553">
        <ele>1558.5</ele>
        <time>2021-08-19T06:47:02.000Z</time>
      </trkpt>
      <trkpt lat="42.91537" lon="0.21566">
        <ele>1558.7</ele>
        <time>2021-08-19T06:47:10.000Z</time>
      </trkpt>
      <trkpt lat="42.91532" lon="0.21577">
        <ele>1559</ele>
        <time>2021-08-19T06:47:18.000Z</time>
      </trkpt>
      <trkpt lat="42.91529" lon="0.21589">
        <ele>1559.5</ele>
        <time>2021-08-19T06:47:27.000Z</time>
      </trkpt>
      <trkpt lat="42.91524" lon="0.21599">
        <ele>1559.6</ele>
        <time>2021-08-19T06:47:35.000Z</time>
      </trkpt>
      <trkpt lat="42.91518" lon="0.2161">
        <ele>1559.5</ele>
        <time>2021-08-19T06:47:43.000Z</time>
      </trkpt>
      <trkpt lat="42.91511" lon="0.21619">
        <ele>1559.2</ele>
        <time>2021-08-19T06:47:51.000Z</time>
      </trkpt>
      <trkpt lat="42.91502" lon="0.21622">
        <ele>1559.1</ele>
        <time>2021-08-19T06:47:58.000Z</time>
      </trkpt>
      <trkpt lat="42.91492" lon="0.21627">
        <ele>1559.2</ele>
        <time>2021-08-19T06:48:05.000Z</time>
      </trkpt>
      <trkpt lat="42.91482" lon="0.21627">
        <ele>1560</ele>
        <time>2021-08-19T06:48:13.000Z</time>
      </trkpt>
      <trkpt lat="42.91473" lon="0.21632">
        <ele>1560</ele>
        <time>2021-08-19T06:48:20.000Z</time>
      </trkpt>
      <trkpt lat="42.91468" lon="0.21642">
        <ele>1561.1</ele>
        <time>2021-08-19T06:48:30.000Z</time>
      </trkpt>
      <trkpt lat="42.91462" lon="0.21653">
        <ele>1561.4</ele>
        <time>2021-08-19T06:48:40.000Z</time>
      </trkpt>
      <trkpt lat="42.91454" lon="0.21661">
        <ele>1561.8</ele>
        <time>2021-08-19T06:48:47.000Z</time>
      </trkpt>
      <trkpt lat="42.91446" lon="0.21668">
        <ele>1561.2</ele>
        <time>2021-08-19T06:48:55.000Z</time>
      </trkpt>
      <trkpt lat="42.91437" lon="0.2167">
        <ele>1561.7</ele>
        <time>2021-08-19T06:49:07.000Z</time>
      </trkpt>
      <trkpt lat="42.91426" lon="0.21673">
        <ele>1561.6</ele>
        <time>2021-08-19T06:49:16.000Z</time>
      </trkpt>
      <trkpt lat="42.91417" lon="0.21673">
        <ele>1561.8</ele>
        <time>2021-08-19T06:49:24.000Z</time>
      </trkpt>
      <trkpt lat="42.91408" lon="0.21672">
        <ele>1561.8</ele>
        <time>2021-08-19T06:49:33.000Z</time>
      </trkpt>
      <trkpt lat="42.91399" lon="0.21671">
        <ele>1562</ele>
        <time>2021-08-19T06:49:41.000Z</time>
      </trkpt>
      <trkpt lat="42.91388" lon="0.21671">
        <ele>1562.7</ele>
        <time>2021-08-19T06:49:56.000Z</time>
      </trkpt>
      <trkpt lat="42.91382" lon="0.2167">
        <ele>1563</ele>
        <time>2021-08-19T06:50:06.000Z</time>
      </trkpt>
      <trkpt lat="42.91381" lon="0.2167">
        <ele>1563</ele>
        <time>2021-08-19T06:50:08.000Z</time>
      </trkpt>
      <trkpt lat="42.91373" lon="0.21666">
        <ele>1563.8</ele>
        <time>2021-08-19T06:50:19.000Z</time>
      </trkpt>
      <trkpt lat="42.91364" lon="0.21661">
        <ele>1564.1</ele>
        <time>2021-08-19T06:50:29.000Z</time>
      </trkpt>
      <trkpt lat="42.91355" lon="0.21655">
        <ele>1564.3</ele>
        <time>2021-08-19T06:50:38.000Z</time>
      </trkpt>
      <trkpt lat="42.91349" lon="0.21647">
        <ele>1563.9</ele>
        <time>2021-08-19T06:50:46.000Z</time>
      </trkpt>
      <trkpt lat="42.9134" lon="0.21642">
        <ele>1563.4</ele>
        <time>2021-08-19T06:50:54.000Z</time>
      </trkpt>
      <trkpt lat="42.91331" lon="0.21638">
        <ele>1563</ele>
        <time>2021-08-19T06:51:00.000Z</time>
      </trkpt>
      <trkpt lat="42.91322" lon="0.21633">
        <ele>1563</ele>
        <time>2021-08-19T06:51:08.000Z</time>
      </trkpt>
      <trkpt lat="42.91313" lon="0.21629">
        <ele>1562.7</ele>
        <time>2021-08-19T06:51:15.000Z</time>
      </trkpt>
      <trkpt lat="42.91302" lon="0.21627">
        <ele>1562.7</ele>
        <time>2021-08-19T06:51:24.000Z</time>
      </trkpt>
      <trkpt lat="42.91293" lon="0.21623">
        <ele>1563</ele>
        <time>2021-08-19T06:51:31.000Z</time>
      </trkpt>
      <trkpt lat="42.91285" lon="0.21616">
        <ele>1563.1</ele>
        <time>2021-08-19T06:51:39.000Z</time>
      </trkpt>
      <trkpt lat="42.91277" lon="0.21609">
        <ele>1562.5</ele>
        <time>2021-08-19T06:51:47.000Z</time>
      </trkpt>
      <trkpt lat="42.91268" lon="0.21603">
        <ele>1562.3</ele>
        <time>2021-08-19T06:51:55.000Z</time>
      </trkpt>
      <trkpt lat="42.91259" lon="0.21597">
        <ele>1562.3</ele>
        <time>2021-08-19T06:52:03.000Z</time>
      </trkpt>
      <trkpt lat="42.91248" lon="0.21592">
        <ele>1561.6</ele>
        <time>2021-08-19T06:52:12.000Z</time>
      </trkpt>
      <trkpt lat="42.91239" lon="0.21587">
        <ele>1561.3</ele>
        <time>2021-08-19T06:52:19.000Z</time>
      </trkpt>
      <trkpt lat="42.9123" lon="0.21583">
        <ele>1560.8</ele>
        <time>2021-08-19T06:52:26.000Z</time>
      </trkpt>
      <trkpt lat="42.91221" lon="0.21578">
        <ele>1559.8</ele>
        <time>2021-08-19T06:52:35.000Z</time>
      </trkpt>
      <trkpt lat="42.91212" lon="0.21572">
        <ele>1559.1</ele>
        <time>2021-08-19T06:52:43.000Z</time>
      </trkpt>
      <trkpt lat="42.91203" lon="0.21567">
        <ele>1558.6</ele>
        <time>2021-08-19T06:52:51.000Z</time>
      </trkpt>
      <trkpt lat="42.91196" lon="0.21559">
        <ele>1558.6</ele>
        <time>2021-08-19T06:52:58.000Z</time>
      </trkpt>
      <trkpt lat="42.91196" lon="0.21559">
        <ele>1558.6</ele>
        <time>2021-08-19T06:53:01.000Z</time>
      </trkpt>
      <trkpt lat="42.91196" lon="0.21559">
        <ele>1558.8</ele>
        <time>2021-08-19T06:53:05.000Z</time>
      </trkpt>
      <trkpt lat="42.91196" lon="0.21559">
        <ele>1558.7</ele>
        <time>2021-08-19T06:53:06.000Z</time>
      </trkpt>
      <trkpt lat="42.91196" lon="0.21558">
        <ele>1558.8</ele>
        <time>2021-08-19T06:53:08.000Z</time>
      </trkpt>
      <trkpt lat="42.91188" lon="0.2155">
        <ele>1559.8</ele>
        <time>2021-08-19T06:53:15.000Z</time>
      </trkpt>
      <trkpt lat="42.91189" lon="0.21551">
        <ele>1559.8</ele>
        <time>2021-08-19T06:53:17.000Z</time>
      </trkpt>
      <trkpt lat="42.91189" lon="0.2155">
        <ele>1560</ele>
        <time>2021-08-19T06:53:18.000Z</time>
      </trkpt>
      <trkpt lat="42.91185" lon="0.21546">
        <ele>1561.3</ele>
        <time>2021-08-19T06:53:26.000Z</time>
      </trkpt>
      <trkpt lat="42.91185" lon="0.21546">
        <ele>1561.4</ele>
        <time>2021-08-19T06:53:27.000Z</time>
      </trkpt>
      <trkpt lat="42.91182" lon="0.21534">
        <ele>1562.3</ele>
        <time>2021-08-19T06:53:35.000Z</time>
      </trkpt>
      <trkpt lat="42.91176" lon="0.21524">
        <ele>1562.5</ele>
        <time>2021-08-19T06:53:43.000Z</time>
      </trkpt>
      <trkpt lat="42.91175" lon="0.21522">
        <ele>1562.1</ele>
        <time>2021-08-19T06:53:47.000Z</time>
      </trkpt>
      <trkpt lat="42.91175" lon="0.21521">
        <ele>1562</ele>
        <time>2021-08-19T06:53:48.000Z</time>
      </trkpt>
      <trkpt lat="42.91166" lon="0.21515">
        <ele>1561.8</ele>
        <time>2021-08-19T06:53:56.000Z</time>
      </trkpt>
      <trkpt lat="42.91158" lon="0.21508">
        <ele>1561.8</ele>
        <time>2021-08-19T06:54:03.000Z</time>
      </trkpt>
      <trkpt lat="42.9115" lon="0.21499">
        <ele>1562.4</ele>
        <time>2021-08-19T06:54:10.000Z</time>
      </trkpt>
      <trkpt lat="42.91143" lon="0.21491">
        <ele>1563.1</ele>
        <time>2021-08-19T06:54:18.000Z</time>
      </trkpt>
      <trkpt lat="42.91134" lon="0.21484">
        <ele>1565.2</ele>
        <time>2021-08-19T06:54:30.000Z</time>
      </trkpt>
      <trkpt lat="42.91127" lon="0.21476">
        <ele>1567.2</ele>
        <time>2021-08-19T06:54:40.000Z</time>
      </trkpt>
      <trkpt lat="42.91118" lon="0.21484">
        <ele>1568.2</ele>
        <time>2021-08-19T06:54:54.000Z</time>
      </trkpt>
      <trkpt lat="42.91111" lon="0.21493">
        <ele>1567.5</ele>
        <time>2021-08-19T06:55:05.000Z</time>
      </trkpt>
      <trkpt lat="42.91103" lon="0.21497">
        <ele>1567.3</ele>
        <time>2021-08-19T06:55:12.000Z</time>
      </trkpt>
      <trkpt lat="42.91093" lon="0.215">
        <ele>1566.8</ele>
        <time>2021-08-19T06:55:20.000Z</time>
      </trkpt>
      <trkpt lat="42.91093" lon="0.21513">
        <ele>1565.3</ele>
        <time>2021-08-19T06:55:33.000Z</time>
      </trkpt>
      <trkpt lat="42.9109" lon="0.21524">
        <ele>1561.9</ele>
        <time>2021-08-19T06:55:48.000Z</time>
      </trkpt>
      <trkpt lat="42.91083" lon="0.21533">
        <ele>1559.8</ele>
        <time>2021-08-19T06:55:58.000Z</time>
      </trkpt>
      <trkpt lat="42.91074" lon="0.21536">
        <ele>1559.8</ele>
        <time>2021-08-19T06:56:06.000Z</time>
      </trkpt>
      <trkpt lat="42.91064" lon="0.21537">
        <ele>1560.3</ele>
        <time>2021-08-19T06:56:16.000Z</time>
      </trkpt>
      <trkpt lat="42.91055" lon="0.21534">
        <ele>1561.8</ele>
        <time>2021-08-19T06:56:26.000Z</time>
      </trkpt>
      <trkpt lat="42.91045" lon="0.2153">
        <ele>1563.5</ele>
        <time>2021-08-19T06:56:39.000Z</time>
      </trkpt>
      <trkpt lat="42.91037" lon="0.21524">
        <ele>1564.8</ele>
        <time>2021-08-19T06:56:52.000Z</time>
      </trkpt>
      <trkpt lat="42.91027" lon="0.21521">
        <ele>1565.3</ele>
        <time>2021-08-19T06:57:00.000Z</time>
      </trkpt>
      <trkpt lat="42.9102" lon="0.21513">
        <ele>1566.7</ele>
        <time>2021-08-19T06:57:16.000Z</time>
      </trkpt>
      <trkpt lat="42.91017" lon="0.21506">
        <ele>1568</ele>
        <time>2021-08-19T06:57:26.000Z</time>
      </trkpt>
      <trkpt lat="42.91017" lon="0.21506">
        <ele>1568.2</ele>
        <time>2021-08-19T06:57:27.000Z</time>
      </trkpt>
      <trkpt lat="42.91008" lon="0.21506">
        <ele>1569.6</ele>
        <time>2021-08-19T06:57:39.000Z</time>
      </trkpt>
      <trkpt lat="42.91001" lon="0.21497">
        <ele>1570.4</ele>
        <time>2021-08-19T06:57:48.000Z</time>
      </trkpt>
      <trkpt lat="42.90995" lon="0.21489">
        <ele>1570.8</ele>
        <time>2021-08-19T06:57:54.000Z</time>
      </trkpt>
      <trkpt lat="42.90985" lon="0.21483">
        <ele>1571</ele>
        <time>2021-08-19T06:58:06.000Z</time>
      </trkpt>
      <trkpt lat="42.90976" lon="0.21477">
        <ele>1571.7</ele>
        <time>2021-08-19T06:58:16.000Z</time>
      </trkpt>
      <trkpt lat="42.90968" lon="0.21473">
        <ele>1572.9</ele>
        <time>2021-08-19T06:58:26.000Z</time>
      </trkpt>
      <trkpt lat="42.90959" lon="0.21467">
        <ele>1573.8</ele>
        <time>2021-08-19T06:58:34.000Z</time>
      </trkpt>
      <trkpt lat="42.90955" lon="0.21464">
        <ele>1574.5</ele>
        <time>2021-08-19T06:58:39.000Z</time>
      </trkpt>
      <trkpt lat="42.90955" lon="0.21464">
        <ele>1574.8</ele>
        <time>2021-08-19T06:58:40.000Z</time>
      </trkpt>
      <trkpt lat="42.90948" lon="0.21455">
        <ele>1575.5</ele>
        <time>2021-08-19T06:58:53.000Z</time>
      </trkpt>
      <trkpt lat="42.90939" lon="0.2145">
        <ele>1576.8</ele>
        <time>2021-08-19T06:59:02.000Z</time>
      </trkpt>
      <trkpt lat="42.90936" lon="0.21448">
        <ele>1577.6</ele>
        <time>2021-08-19T06:59:09.000Z</time>
      </trkpt>
      <trkpt lat="42.90935" lon="0.21447">
        <ele>1577.8</ele>
        <time>2021-08-19T06:59:10.000Z</time>
      </trkpt>
      <trkpt lat="42.90927" lon="0.2144">
        <ele>1578.9</ele>
        <time>2021-08-19T06:59:17.000Z</time>
      </trkpt>
      <trkpt lat="42.90927" lon="0.21439">
        <ele>1579.1</ele>
        <time>2021-08-19T06:59:21.000Z</time>
      </trkpt>
      <trkpt lat="42.90926" lon="0.21439">
        <ele>1579.1</ele>
        <time>2021-08-19T06:59:22.000Z</time>
      </trkpt>
      <trkpt lat="42.90926" lon="0.21439">
        <ele>1579.2</ele>
        <time>2021-08-19T06:59:25.000Z</time>
      </trkpt>
      <trkpt lat="42.90926" lon="0.21438">
        <ele>1579.4</ele>
        <time>2021-08-19T06:59:27.000Z</time>
      </trkpt>
      <trkpt lat="42.90917" lon="0.21436">
        <ele>1579.3</ele>
        <time>2021-08-19T06:59:39.000Z</time>
      </trkpt>
      <trkpt lat="42.90908" lon="0.21432">
        <ele>1580.2</ele>
        <time>2021-08-19T06:59:47.000Z</time>
      </trkpt>
      <trkpt lat="42.909" lon="0.21424">
        <ele>1579.7</ele>
        <time>2021-08-19T06:59:59.000Z</time>
      </trkpt>
      <trkpt lat="42.90894" lon="0.21419">
        <ele>1580.4</ele>
        <time>2021-08-19T07:00:09.000Z</time>
      </trkpt>
      <trkpt lat="42.90894" lon="0.21419">
        <ele>1580.3</ele>
        <time>2021-08-19T07:00:10.000Z</time>
      </trkpt>
      <trkpt lat="42.90886" lon="0.2141">
        <ele>1580.5</ele>
        <time>2021-08-19T07:00:24.000Z</time>
      </trkpt>
      <trkpt lat="42.90882" lon="0.21398">
        <ele>1581.3</ele>
        <time>2021-08-19T07:00:32.000Z</time>
      </trkpt>
      <trkpt lat="42.90875" lon="0.2139">
        <ele>1582.4</ele>
        <time>2021-08-19T07:00:46.000Z</time>
      </trkpt>
      <trkpt lat="42.90866" lon="0.21388">
        <ele>1583.6</ele>
        <time>2021-08-19T07:00:57.000Z</time>
      </trkpt>
      <trkpt lat="42.90858" lon="0.21381">
        <ele>1584.7</ele>
        <time>2021-08-19T07:01:11.000Z</time>
      </trkpt>
      <trkpt lat="42.90853" lon="0.2137">
        <ele>1585.3</ele>
        <time>2021-08-19T07:01:24.000Z</time>
      </trkpt>
      <trkpt lat="42.90848" lon="0.21364">
        <ele>1586.1</ele>
        <time>2021-08-19T07:01:32.000Z</time>
      </trkpt>
      <trkpt lat="42.90847" lon="0.21363">
        <ele>1586.4</ele>
        <time>2021-08-19T07:01:33.000Z</time>
      </trkpt>
      <trkpt lat="42.90841" lon="0.21354">
        <ele>1587.3</ele>
        <time>2021-08-19T07:01:42.000Z</time>
      </trkpt>
      <trkpt lat="42.90837" lon="0.21349">
        <ele>1588.2</ele>
        <time>2021-08-19T07:01:49.000Z</time>
      </trkpt>
      <trkpt lat="42.90836" lon="0.21349">
        <ele>1588.4</ele>
        <time>2021-08-19T07:01:51.000Z</time>
      </trkpt>
      <trkpt lat="42.9083" lon="0.2134">
        <ele>1588.8</ele>
        <time>2021-08-19T07:01:58.000Z</time>
      </trkpt>
      <trkpt lat="42.90822" lon="0.21331">
        <ele>1589.5</ele>
        <time>2021-08-19T07:02:03.000Z</time>
      </trkpt>
      <trkpt lat="42.90816" lon="0.21319">
        <ele>1589.9</ele>
        <time>2021-08-19T07:02:09.000Z</time>
      </trkpt>
      <trkpt lat="42.90807" lon="0.21311">
        <ele>1590.8</ele>
        <time>2021-08-19T07:02:15.000Z</time>
      </trkpt>
      <trkpt lat="42.908" lon="0.21303">
        <ele>1591.2</ele>
        <time>2021-08-19T07:02:20.000Z</time>
      </trkpt>
      <trkpt lat="42.90791" lon="0.213">
        <ele>1591.4</ele>
        <time>2021-08-19T07:02:39.000Z</time>
      </trkpt>
      <trkpt lat="42.9079" lon="0.21301">
        <ele>1591</ele>
        <time>2021-08-19T07:02:44.000Z</time>
      </trkpt>
      <trkpt lat="42.90789" lon="0.21301">
        <ele>1590.7</ele>
        <time>2021-08-19T07:02:45.000Z</time>
      </trkpt>
      <trkpt lat="42.90781" lon="0.21293">
        <ele>1590.4</ele>
        <time>2021-08-19T07:02:55.000Z</time>
      </trkpt>
      <trkpt lat="42.90773" lon="0.21286">
        <ele>1591.1</ele>
        <time>2021-08-19T07:03:02.000Z</time>
      </trkpt>
      <trkpt lat="42.90764" lon="0.2128">
        <ele>1593.1</ele>
        <time>2021-08-19T07:03:15.000Z</time>
      </trkpt>
      <trkpt lat="42.90758" lon="0.2127">
        <ele>1593.6</ele>
        <time>2021-08-19T07:03:28.000Z</time>
      </trkpt>
      <trkpt lat="42.90753" lon="0.21259">
        <ele>1593.8</ele>
        <time>2021-08-19T07:03:39.000Z</time>
      </trkpt>
      <trkpt lat="42.90751" lon="0.21246">
        <ele>1594.7</ele>
        <time>2021-08-19T07:03:53.000Z</time>
      </trkpt>
      <trkpt lat="42.90746" lon="0.21232">
        <ele>1594.8</ele>
        <time>2021-08-19T07:04:00.000Z</time>
      </trkpt>
      <trkpt lat="42.90745" lon="0.21226">
        <ele>1596.1</ele>
        <time>2021-08-19T07:04:07.000Z</time>
      </trkpt>
      <trkpt lat="42.90745" lon="0.21226">
        <ele>1596.4</ele>
        <time>2021-08-19T07:04:10.000Z</time>
      </trkpt>
      <trkpt lat="42.90743" lon="0.21223">
        <ele>1596.8</ele>
        <time>2021-08-19T07:04:15.000Z</time>
      </trkpt>
      <trkpt lat="42.90743" lon="0.21222">
        <ele>1596.8</ele>
        <time>2021-08-19T07:04:16.000Z</time>
      </trkpt>
      <trkpt lat="42.90738" lon="0.21212">
        <ele>1597.2</ele>
        <time>2021-08-19T07:04:24.000Z</time>
      </trkpt>
      <trkpt lat="42.9073" lon="0.21203">
        <ele>1597.8</ele>
        <time>2021-08-19T07:04:30.000Z</time>
      </trkpt>
      <trkpt lat="42.90722" lon="0.21195">
        <ele>1598.3</ele>
        <time>2021-08-19T07:04:38.000Z</time>
      </trkpt>
      <trkpt lat="42.90715" lon="0.21185">
        <ele>1599</ele>
        <time>2021-08-19T07:04:47.000Z</time>
      </trkpt>
      <trkpt lat="42.90712" lon="0.21172">
        <ele>1599.1</ele>
        <time>2021-08-19T07:04:55.000Z</time>
      </trkpt>
      <trkpt lat="42.90711" lon="0.21159">
        <ele>1599.5</ele>
        <time>2021-08-19T07:05:10.000Z</time>
      </trkpt>
      <trkpt lat="42.90711" lon="0.21155">
        <ele>1600.7</ele>
        <time>2021-08-19T07:05:17.000Z</time>
      </trkpt>
      <trkpt lat="42.90711" lon="0.21155">
        <ele>1601</ele>
        <time>2021-08-19T07:05:18.000Z</time>
      </trkpt>
      <trkpt lat="42.90711" lon="0.21155">
        <ele>1601.2</ele>
        <time>2021-08-19T07:05:20.000Z</time>
      </trkpt>
      <trkpt lat="42.90711" lon="0.21154">
        <ele>1601.3</ele>
        <time>2021-08-19T07:05:21.000Z</time>
      </trkpt>
      <trkpt lat="42.90703" lon="0.21145">
        <ele>1603.1</ele>
        <time>2021-08-19T07:05:31.000Z</time>
      </trkpt>
      <trkpt lat="42.90704" lon="0.21145">
        <ele>1603.4</ele>
        <time>2021-08-19T07:05:33.000Z</time>
      </trkpt>
      <trkpt lat="42.90704" lon="0.21145">
        <ele>1603.4</ele>
        <time>2021-08-19T07:05:34.000Z</time>
      </trkpt>
      <trkpt lat="42.90696" lon="0.21137">
        <ele>1604.8</ele>
        <time>2021-08-19T07:05:42.000Z</time>
      </trkpt>
      <trkpt lat="42.9069" lon="0.21127">
        <ele>1606.2</ele>
        <time>2021-08-19T07:05:51.000Z</time>
      </trkpt>
      <trkpt lat="42.90681" lon="0.21123">
        <ele>1609</ele>
        <time>2021-08-19T07:06:02.000Z</time>
      </trkpt>
      <trkpt lat="42.90672" lon="0.21122">
        <ele>1610.4</ele>
        <time>2021-08-19T07:06:13.000Z</time>
      </trkpt>
      <trkpt lat="42.90665" lon="0.21114">
        <ele>1611.6</ele>
        <time>2021-08-19T07:06:23.000Z</time>
      </trkpt>
      <trkpt lat="42.90657" lon="0.21106">
        <ele>1612.2</ele>
        <time>2021-08-19T07:06:30.000Z</time>
      </trkpt>
      <trkpt lat="42.90648" lon="0.21102">
        <ele>1613.6</ele>
        <time>2021-08-19T07:06:40.000Z</time>
      </trkpt>
      <trkpt lat="42.90639" lon="0.211">
        <ele>1615.5</ele>
        <time>2021-08-19T07:06:52.000Z</time>
      </trkpt>
      <trkpt lat="42.90633" lon="0.21089">
        <ele>1617</ele>
        <time>2021-08-19T07:07:02.000Z</time>
      </trkpt>
      <trkpt lat="42.90626" lon="0.2108">
        <ele>1618</ele>
        <time>2021-08-19T07:07:10.000Z</time>
      </trkpt>
      <trkpt lat="42.90619" lon="0.21071">
        <ele>1621</ele>
        <time>2021-08-19T07:07:26.000Z</time>
      </trkpt>
      <trkpt lat="42.9061" lon="0.21064">
        <ele>1622.2</ele>
        <time>2021-08-19T07:07:36.000Z</time>
      </trkpt>
      <trkpt lat="42.90601" lon="0.21063">
        <ele>1622.8</ele>
        <time>2021-08-19T07:07:43.000Z</time>
      </trkpt>
      <trkpt lat="42.90592" lon="0.21062">
        <ele>1625.3</ele>
        <time>2021-08-19T07:07:57.000Z</time>
      </trkpt>
      <trkpt lat="42.90582" lon="0.21062">
        <ele>1627</ele>
        <time>2021-08-19T07:08:07.000Z</time>
      </trkpt>
      <trkpt lat="42.90573" lon="0.21063">
        <ele>1628.4</ele>
        <time>2021-08-19T07:08:16.000Z</time>
      </trkpt>
      <trkpt lat="42.90564" lon="0.21065">
        <ele>1630.4</ele>
        <time>2021-08-19T07:08:26.000Z</time>
      </trkpt>
      <trkpt lat="42.90555" lon="0.21066">
        <ele>1632.4</ele>
        <time>2021-08-19T07:08:41.000Z</time>
      </trkpt>
      <trkpt lat="42.90545" lon="0.21069">
        <ele>1633.9</ele>
        <time>2021-08-19T07:09:01.000Z</time>
      </trkpt>
      <trkpt lat="42.9054" lon="0.2108">
        <ele>1634.7</ele>
        <time>2021-08-19T07:09:11.000Z</time>
      </trkpt>
      <trkpt lat="42.90531" lon="0.21082">
        <ele>1636</ele>
        <time>2021-08-19T07:09:21.000Z</time>
      </trkpt>
      <trkpt lat="42.90522" lon="0.21079">
        <ele>1638.1</ele>
        <time>2021-08-19T07:09:32.000Z</time>
      </trkpt>
      <trkpt lat="42.90517" lon="0.21068">
        <ele>1639.8</ele>
        <time>2021-08-19T07:09:43.000Z</time>
      </trkpt>
      <trkpt lat="42.90515" lon="0.21056">
        <ele>1642.9</ele>
        <time>2021-08-19T07:10:00.000Z</time>
      </trkpt>
      <trkpt lat="42.9052" lon="0.21044">
        <ele>1645.7</ele>
        <time>2021-08-19T07:10:16.000Z</time>
      </trkpt>
      <trkpt lat="42.90521" lon="0.21032">
        <ele>1648.2</ele>
        <time>2021-08-19T07:10:29.000Z</time>
      </trkpt>
      <trkpt lat="42.90527" lon="0.21023">
        <ele>1650.2</ele>
        <time>2021-08-19T07:10:43.000Z</time>
      </trkpt>
      <trkpt lat="42.9053" lon="0.21011">
        <ele>1652.6</ele>
        <time>2021-08-19T07:10:58.000Z</time>
      </trkpt>
      <trkpt lat="42.90532" lon="0.20999">
        <ele>1654.6</ele>
        <time>2021-08-19T07:11:10.000Z</time>
      </trkpt>
      <trkpt lat="42.90533" lon="0.20986">
        <ele>1655.9</ele>
        <time>2021-08-19T07:11:20.000Z</time>
      </trkpt>
      <trkpt lat="42.90536" lon="0.20975">
        <ele>1658.1</ele>
        <time>2021-08-19T07:11:35.000Z</time>
      </trkpt>
      <trkpt lat="42.90536" lon="0.20973">
        <ele>1658.7</ele>
        <time>2021-08-19T07:11:38.000Z</time>
      </trkpt>
      <trkpt lat="42.90536" lon="0.20972">
        <ele>1659</ele>
        <time>2021-08-19T07:11:39.000Z</time>
      </trkpt>
      <trkpt lat="42.90535" lon="0.20962">
        <ele>1661.8</ele>
        <time>2021-08-19T07:11:54.000Z</time>
      </trkpt>
      <trkpt lat="42.90535" lon="0.20961">
        <ele>1661.9</ele>
        <time>2021-08-19T07:11:55.000Z</time>
      </trkpt>
      <trkpt lat="42.90535" lon="0.2096">
        <ele>1662.3</ele>
        <time>2021-08-19T07:11:59.000Z</time>
      </trkpt>
      <trkpt lat="42.90535" lon="0.2096">
        <ele>1662.4</ele>
        <time>2021-08-19T07:12:00.000Z</time>
      </trkpt>
      <trkpt lat="42.90538" lon="0.20948">
        <ele>1665.1</ele>
        <time>2021-08-19T07:12:15.000Z</time>
      </trkpt>
      <trkpt lat="42.90546" lon="0.20941">
        <ele>1666.7</ele>
        <time>2021-08-19T07:12:26.000Z</time>
      </trkpt>
      <trkpt lat="42.90551" lon="0.2093">
        <ele>1668.1</ele>
        <time>2021-08-19T07:12:37.000Z</time>
      </trkpt>
      <trkpt lat="42.90555" lon="0.20919">
        <ele>1671.9</ele>
        <time>2021-08-19T07:12:52.000Z</time>
      </trkpt>
      <trkpt lat="42.90554" lon="0.20906">
        <ele>1675</ele>
        <time>2021-08-19T07:13:13.000Z</time>
      </trkpt>
      <trkpt lat="42.90549" lon="0.20907">
        <ele>1676.9</ele>
        <time>2021-08-19T07:13:24.000Z</time>
      </trkpt>
      <trkpt lat="42.90549" lon="0.20906">
        <ele>1677.1</ele>
        <time>2021-08-19T07:13:25.000Z</time>
      </trkpt>
      <trkpt lat="42.9054" lon="0.20906">
        <ele>1680.4</ele>
        <time>2021-08-19T07:13:41.000Z</time>
      </trkpt>
      <trkpt lat="42.90532" lon="0.20913">
        <ele>1682.9</ele>
        <time>2021-08-19T07:13:57.000Z</time>
      </trkpt>
      <trkpt lat="42.90524" lon="0.20919">
        <ele>1686.8</ele>
        <time>2021-08-19T07:14:18.000Z</time>
      </trkpt>
      <trkpt lat="42.90515" lon="0.2092">
        <ele>1690</ele>
        <time>2021-08-19T07:14:38.000Z</time>
      </trkpt>
      <trkpt lat="42.90511" lon="0.20918">
        <ele>1691.9</ele>
        <time>2021-08-19T07:14:47.000Z</time>
      </trkpt>
      <trkpt lat="42.90511" lon="0.20918">
        <ele>1692.3</ele>
        <time>2021-08-19T07:14:49.000Z</time>
      </trkpt>
      <trkpt lat="42.90507" lon="0.20921">
        <ele>1694.3</ele>
        <time>2021-08-19T07:15:02.000Z</time>
      </trkpt>
      <trkpt lat="42.90507" lon="0.20921">
        <ele>1694.1</ele>
        <time>2021-08-19T07:15:03.000Z</time>
      </trkpt>
      <trkpt lat="42.90505" lon="0.20928">
        <ele>1697.9</ele>
        <time>2021-08-19T07:15:24.000Z</time>
      </trkpt>
      <trkpt lat="42.90505" lon="0.20928">
        <ele>1698.2</ele>
        <time>2021-08-19T07:15:25.000Z</time>
      </trkpt>
      <trkpt lat="42.90505" lon="0.20928">
        <ele>1698.6</ele>
        <time>2021-08-19T07:15:28.000Z</time>
      </trkpt>
      <trkpt lat="42.90505" lon="0.20928">
        <ele>1698.9</ele>
        <time>2021-08-19T07:15:29.000Z</time>
      </trkpt>
      <trkpt lat="42.90502" lon="0.2094">
        <ele>1701.6</ele>
        <time>2021-08-19T07:15:48.000Z</time>
      </trkpt>
      <trkpt lat="42.90494" lon="0.20947">
        <ele>1703.9</ele>
        <time>2021-08-19T07:16:02.000Z</time>
      </trkpt>
      <trkpt lat="42.90488" lon="0.20956">
        <ele>1706.4</ele>
        <time>2021-08-19T07:16:18.000Z</time>
      </trkpt>
      <trkpt lat="42.90479" lon="0.20954">
        <ele>1710.1</ele>
        <time>2021-08-19T07:16:34.000Z</time>
      </trkpt>
      <trkpt lat="42.90479" lon="0.20953">
        <ele>1710.4</ele>
        <time>2021-08-19T07:16:36.000Z</time>
      </trkpt>
      <trkpt lat="42.90479" lon="0.20953">
        <ele>1710.6</ele>
        <time>2021-08-19T07:16:38.000Z</time>
      </trkpt>
      <trkpt lat="42.90479" lon="0.20953">
        <ele>1710.9</ele>
        <time>2021-08-19T07:16:39.000Z</time>
      </trkpt>
      <trkpt lat="42.90478" lon="0.20952">
        <ele>1711.2</ele>
        <time>2021-08-19T07:16:40.000Z</time>
      </trkpt>
      <trkpt lat="42.9047" lon="0.2095">
        <ele>1715.1</ele>
        <time>2021-08-19T07:16:59.000Z</time>
      </trkpt>
      <trkpt lat="42.90462" lon="0.20943">
        <ele>1719.4</ele>
        <time>2021-08-19T07:17:27.000Z</time>
      </trkpt>
      <trkpt lat="42.90457" lon="0.20953">
        <ele>1722.6</ele>
        <time>2021-08-19T07:17:48.000Z</time>
      </trkpt>
      <trkpt lat="42.90457" lon="0.20966">
        <ele>1724.1</ele>
        <time>2021-08-19T07:18:02.000Z</time>
      </trkpt>
      <trkpt lat="42.90448" lon="0.20968">
        <ele>1728.1</ele>
        <time>2021-08-19T07:18:24.000Z</time>
      </trkpt>
      <trkpt lat="42.90444" lon="0.20957">
        <ele>1729.8</ele>
        <time>2021-08-19T07:18:35.000Z</time>
      </trkpt>
      <trkpt lat="42.90436" lon="0.20949">
        <ele>1730.7</ele>
        <time>2021-08-19T07:18:45.000Z</time>
      </trkpt>
      <trkpt lat="42.90428" lon="0.20944">
        <ele>1731.8</ele>
        <time>2021-08-19T07:18:56.000Z</time>
      </trkpt>
      <trkpt lat="42.90419" lon="0.20941">
        <ele>1733.1</ele>
        <time>2021-08-19T07:19:05.000Z</time>
      </trkpt>
      <trkpt lat="42.90411" lon="0.20936">
        <ele>1736</ele>
        <time>2021-08-19T07:19:18.000Z</time>
      </trkpt>
      <trkpt lat="42.9041" lon="0.20935">
        <ele>1736.5</ele>
        <time>2021-08-19T07:19:22.000Z</time>
      </trkpt>
      <trkpt lat="42.9041" lon="0.20934">
        <ele>1736.5</ele>
        <time>2021-08-19T07:19:23.000Z</time>
      </trkpt>
      <trkpt lat="42.90401" lon="0.2093">
        <ele>1738.6</ele>
        <time>2021-08-19T07:19:34.000Z</time>
      </trkpt>
      <trkpt lat="42.90392" lon="0.20924">
        <ele>1740.9</ele>
        <time>2021-08-19T07:19:48.000Z</time>
      </trkpt>
      <trkpt lat="42.9039" lon="0.20923">
        <ele>1742.1</ele>
        <time>2021-08-19T07:19:54.000Z</time>
      </trkpt>
      <trkpt lat="42.9039" lon="0.20923">
        <ele>1742.1</ele>
        <time>2021-08-19T07:19:55.000Z</time>
      </trkpt>
      <trkpt lat="42.9039" lon="0.20922">
        <ele>1742.4</ele>
        <time>2021-08-19T07:19:58.000Z</time>
      </trkpt>
      <trkpt lat="42.90389" lon="0.20922">
        <ele>1742.7</ele>
        <time>2021-08-19T07:19:59.000Z</time>
      </trkpt>
      <trkpt lat="42.90383" lon="0.20913">
        <ele>1746</ele>
        <time>2021-08-19T07:20:18.000Z</time>
      </trkpt>
      <trkpt lat="42.90375" lon="0.20907">
        <ele>1747.5</ele>
        <time>2021-08-19T07:20:28.000Z</time>
      </trkpt>
      <trkpt lat="42.90366" lon="0.20902">
        <ele>1749.8</ele>
        <time>2021-08-19T07:20:40.000Z</time>
      </trkpt>
      <trkpt lat="42.90358" lon="0.20894">
        <ele>1751.6</ele>
        <time>2021-08-19T07:20:50.000Z</time>
      </trkpt>
      <trkpt lat="42.90353" lon="0.2089">
        <ele>1753</ele>
        <time>2021-08-19T07:21:00.000Z</time>
      </trkpt>
      <trkpt lat="42.90352" lon="0.2089">
        <ele>1753.2</ele>
        <time>2021-08-19T07:21:01.000Z</time>
      </trkpt>
      <trkpt lat="42.90344" lon="0.20884">
        <ele>1754.8</ele>
        <time>2021-08-19T07:21:11.000Z</time>
      </trkpt>
      <trkpt lat="42.90336" lon="0.20876">
        <ele>1757.5</ele>
        <time>2021-08-19T07:21:27.000Z</time>
      </trkpt>
      <trkpt lat="42.90328" lon="0.20872">
        <ele>1759.8</ele>
        <time>2021-08-19T07:21:41.000Z</time>
      </trkpt>
      <trkpt lat="42.90318" lon="0.20871">
        <ele>1762</ele>
        <time>2021-08-19T07:22:00.000Z</time>
      </trkpt>
      <trkpt lat="42.90313" lon="0.20866">
        <ele>1762.5</ele>
        <time>2021-08-19T07:22:13.000Z</time>
      </trkpt>
      <trkpt lat="42.90313" lon="0.20866">
        <ele>1762.3</ele>
        <time>2021-08-19T07:22:14.000Z</time>
      </trkpt>
      <trkpt lat="42.90305" lon="0.20858">
        <ele>1761.2</ele>
        <time>2021-08-19T07:22:25.000Z</time>
      </trkpt>
      <trkpt lat="42.90297" lon="0.20853">
        <ele>1761.2</ele>
        <time>2021-08-19T07:22:35.000Z</time>
      </trkpt>
      <trkpt lat="42.90287" lon="0.20852">
        <ele>1762</ele>
        <time>2021-08-19T07:22:45.000Z</time>
      </trkpt>
      <trkpt lat="42.90279" lon="0.20846">
        <ele>1766.5</ele>
        <time>2021-08-19T07:23:10.000Z</time>
      </trkpt>
      <trkpt lat="42.90277" lon="0.20845">
        <ele>1767.3</ele>
        <time>2021-08-19T07:23:16.000Z</time>
      </trkpt>
      <trkpt lat="42.90276" lon="0.20845">
        <ele>1767.4</ele>
        <time>2021-08-19T07:23:17.000Z</time>
      </trkpt>
      <trkpt lat="42.90272" lon="0.20834">
        <ele>1771.2</ele>
        <time>2021-08-19T07:23:37.000Z</time>
      </trkpt>
      <trkpt lat="42.90266" lon="0.20832">
        <ele>1774.7</ele>
        <time>2021-08-19T07:23:58.000Z</time>
      </trkpt>
      <trkpt lat="42.90265" lon="0.20832">
        <ele>1774.9</ele>
        <time>2021-08-19T07:24:01.000Z</time>
      </trkpt>
      <trkpt lat="42.90259" lon="0.20831">
        <ele>1777.9</ele>
        <time>2021-08-19T07:24:22.000Z</time>
      </trkpt>
      <trkpt lat="42.90259" lon="0.20831">
        <ele>1778.6</ele>
        <time>2021-08-19T07:24:26.000Z</time>
      </trkpt>
      <trkpt lat="42.90255" lon="0.2083">
        <ele>1781.1</ele>
        <time>2021-08-19T07:24:40.000Z</time>
      </trkpt>
      <trkpt lat="42.90255" lon="0.2083">
        <ele>1781.4</ele>
        <time>2021-08-19T07:24:41.000Z</time>
      </trkpt>
      <trkpt lat="42.90246" lon="0.20834">
        <ele>1786.5</ele>
        <time>2021-08-19T07:25:18.000Z</time>
      </trkpt>
      <trkpt lat="42.90237" lon="0.20836">
        <ele>1787.7</ele>
        <time>2021-08-19T07:25:31.000Z</time>
      </trkpt>
      <trkpt lat="42.90228" lon="0.20835">
        <ele>1789.9</ele>
        <time>2021-08-19T07:25:46.000Z</time>
      </trkpt>
      <trkpt lat="42.90219" lon="0.20832">
        <ele>1793.5</ele>
        <time>2021-08-19T07:26:04.000Z</time>
      </trkpt>
      <trkpt lat="42.90212" lon="0.20824">
        <ele>1798.2</ele>
        <time>2021-08-19T07:26:29.000Z</time>
      </trkpt>
      <trkpt lat="42.90213" lon="0.20811">
        <ele>1800.5</ele>
        <time>2021-08-19T07:26:42.000Z</time>
      </trkpt>
      <trkpt lat="42.90206" lon="0.20803">
        <ele>1803.4</ele>
        <time>2021-08-19T07:26:59.000Z</time>
      </trkpt>
      <trkpt lat="42.90202" lon="0.20792">
        <ele>1806.9</ele>
        <time>2021-08-19T07:27:18.000Z</time>
      </trkpt>
      <trkpt lat="42.90193" lon="0.2079">
        <ele>1809.9</ele>
        <time>2021-08-19T07:27:38.000Z</time>
      </trkpt>
      <trkpt lat="42.90184" lon="0.20791">
        <ele>1812.7</ele>
        <time>2021-08-19T07:27:55.000Z</time>
      </trkpt>
      <trkpt lat="42.90175" lon="0.20785">
        <ele>1816.1</ele>
        <time>2021-08-19T07:28:11.000Z</time>
      </trkpt>
      <trkpt lat="42.90166" lon="0.20787">
        <ele>1817.7</ele>
        <time>2021-08-19T07:28:25.000Z</time>
      </trkpt>
      <trkpt lat="42.90157" lon="0.20786">
        <ele>1820.6</ele>
        <time>2021-08-19T07:28:42.000Z</time>
      </trkpt>
      <trkpt lat="42.90149" lon="0.20779">
        <ele>1823.3</ele>
        <time>2021-08-19T07:28:57.000Z</time>
      </trkpt>
      <trkpt lat="42.90153" lon="0.20768">
        <ele>1827.3</ele>
        <time>2021-08-19T07:29:26.000Z</time>
      </trkpt>
      <trkpt lat="42.90161" lon="0.2076">
        <ele>1827.7</ele>
        <time>2021-08-19T07:29:38.000Z</time>
      </trkpt>
      <trkpt lat="42.9017" lon="0.20758">
        <ele>1829.8</ele>
        <time>2021-08-19T07:29:51.000Z</time>
      </trkpt>
      <trkpt lat="42.90179" lon="0.20752">
        <ele>1831.8</ele>
        <time>2021-08-19T07:30:04.000Z</time>
      </trkpt>
      <trkpt lat="42.90179" lon="0.2074">
        <ele>1835.2</ele>
        <time>2021-08-19T07:30:24.000Z</time>
      </trkpt>
      <trkpt lat="42.90171" lon="0.20735">
        <ele>1837.8</ele>
        <time>2021-08-19T07:30:41.000Z</time>
      </trkpt>
      <trkpt lat="42.90165" lon="0.20728">
        <ele>1840.2</ele>
        <time>2021-08-19T07:30:55.000Z</time>
      </trkpt>
      <trkpt lat="42.90165" lon="0.20727">
        <ele>1840.3</ele>
        <time>2021-08-19T07:30:56.000Z</time>
      </trkpt>
      <trkpt lat="42.90165" lon="0.20727">
        <ele>1840.4</ele>
        <time>2021-08-19T07:30:57.000Z</time>
      </trkpt>
      <trkpt lat="42.90165" lon="0.20727">
        <ele>1840.5</ele>
        <time>2021-08-19T07:30:58.000Z</time>
      </trkpt>
      <trkpt lat="42.90158" lon="0.20718">
        <ele>1843.4</ele>
        <time>2021-08-19T07:31:17.000Z</time>
      </trkpt>
      <trkpt lat="42.90155" lon="0.20705">
        <ele>1846.1</ele>
        <time>2021-08-19T07:31:32.000Z</time>
      </trkpt>
      <trkpt lat="42.9015" lon="0.20694">
        <ele>1848</ele>
        <time>2021-08-19T07:31:45.000Z</time>
      </trkpt>
      <trkpt lat="42.90147" lon="0.20682">
        <ele>1850.3</ele>
        <time>2021-08-19T07:31:59.000Z</time>
      </trkpt>
      <trkpt lat="42.90141" lon="0.20673">
        <ele>1852</ele>
        <time>2021-08-19T07:32:10.000Z</time>
      </trkpt>
      <trkpt lat="42.90136" lon="0.20661">
        <ele>1854.2</ele>
        <time>2021-08-19T07:32:23.000Z</time>
      </trkpt>
      <trkpt lat="42.90133" lon="0.20658">
        <ele>1855.3</ele>
        <time>2021-08-19T07:32:32.000Z</time>
      </trkpt>
      <trkpt lat="42.90133" lon="0.20658">
        <ele>1855.4</ele>
        <time>2021-08-19T07:32:33.000Z</time>
      </trkpt>
      <trkpt lat="42.90133" lon="0.20658">
        <ele>1855.7</ele>
        <time>2021-08-19T07:32:34.000Z</time>
      </trkpt>
      <trkpt lat="42.90133" lon="0.20658">
        <ele>1855.9</ele>
        <time>2021-08-19T07:32:35.000Z</time>
      </trkpt>
      <trkpt lat="42.90133" lon="0.20658">
        <ele>1856</ele>
        <time>2021-08-19T07:32:38.000Z</time>
      </trkpt>
      <trkpt lat="42.90133" lon="0.20658">
        <ele>1855.9</ele>
        <time>2021-08-19T07:32:40.000Z</time>
      </trkpt>
      <trkpt lat="42.90133" lon="0.20659">
        <ele>1855.7</ele>
        <time>2021-08-19T07:32:43.000Z</time>
      </trkpt>
      <trkpt lat="42.90133" lon="0.20659">
        <ele>1855.6</ele>
        <time>2021-08-19T07:32:59.000Z</time>
      </trkpt>
      <trkpt lat="42.90128" lon="0.20648">
        <ele>1857.2</ele>
        <time>2021-08-19T07:33:12.000Z</time>
      </trkpt>
      <trkpt lat="42.90127" lon="0.20635">
        <ele>1859.7</ele>
        <time>2021-08-19T07:33:24.000Z</time>
      </trkpt>
      <trkpt lat="42.90122" lon="0.20624">
        <ele>1862.3</ele>
        <time>2021-08-19T07:33:39.000Z</time>
      </trkpt>
      <trkpt lat="42.90117" lon="0.20614">
        <ele>1865</ele>
        <time>2021-08-19T07:33:52.000Z</time>
      </trkpt>
      <trkpt lat="42.90114" lon="0.20602">
        <ele>1866.4</ele>
        <time>2021-08-19T07:34:02.000Z</time>
      </trkpt>
      <trkpt lat="42.90109" lon="0.20591">
        <ele>1868.8</ele>
        <time>2021-08-19T07:34:13.000Z</time>
      </trkpt>
      <trkpt lat="42.90107" lon="0.20586">
        <ele>1870.3</ele>
        <time>2021-08-19T07:34:20.000Z</time>
      </trkpt>
      <trkpt lat="42.90107" lon="0.20586">
        <ele>1870.5</ele>
        <time>2021-08-19T07:34:21.000Z</time>
      </trkpt>
      <trkpt lat="42.90104" lon="0.20578">
        <ele>1873.3</ele>
        <time>2021-08-19T07:34:35.000Z</time>
      </trkpt>
      <trkpt lat="42.90104" lon="0.20577">
        <ele>1873.8</ele>
        <time>2021-08-19T07:34:37.000Z</time>
      </trkpt>
      <trkpt lat="42.90102" lon="0.20571">
        <ele>1875.7</ele>
        <time>2021-08-19T07:34:47.000Z</time>
      </trkpt>
      <trkpt lat="42.90102" lon="0.20571">
        <ele>1875.8</ele>
        <time>2021-08-19T07:34:48.000Z</time>
      </trkpt>
      <trkpt lat="42.90097" lon="0.2056">
        <ele>1877.9</ele>
        <time>2021-08-19T07:34:59.000Z</time>
      </trkpt>
      <trkpt lat="42.90091" lon="0.20549">
        <ele>1879.7</ele>
        <time>2021-08-19T07:35:10.000Z</time>
      </trkpt>
      <trkpt lat="42.90088" lon="0.20537">
        <ele>1884</ele>
        <time>2021-08-19T07:35:29.000Z</time>
      </trkpt>
      <trkpt lat="42.90083" lon="0.20526">
        <ele>1886</ele>
        <time>2021-08-19T07:35:41.000Z</time>
      </trkpt>
      <trkpt lat="42.90077" lon="0.20517">
        <ele>1888.2</ele>
        <time>2021-08-19T07:35:56.000Z</time>
      </trkpt>
      <trkpt lat="42.90071" lon="0.20506">
        <ele>1890.6</ele>
        <time>2021-08-19T07:36:11.000Z</time>
      </trkpt>
      <trkpt lat="42.90064" lon="0.20499">
        <ele>1892.8</ele>
        <time>2021-08-19T07:36:25.000Z</time>
      </trkpt>
      <trkpt lat="42.9006" lon="0.20491">
        <ele>1895.1</ele>
        <time>2021-08-19T07:36:42.000Z</time>
      </trkpt>
      <trkpt lat="42.9006" lon="0.20491">
        <ele>1895.3</ele>
        <time>2021-08-19T07:36:43.000Z</time>
      </trkpt>
      <trkpt lat="42.90054" lon="0.20481">
        <ele>1898.2</ele>
        <time>2021-08-19T07:37:04.000Z</time>
      </trkpt>
      <trkpt lat="42.90049" lon="0.20471">
        <ele>1900.3</ele>
        <time>2021-08-19T07:37:18.000Z</time>
      </trkpt>
      <trkpt lat="42.90043" lon="0.20461">
        <ele>1902.6</ele>
        <time>2021-08-19T07:37:33.000Z</time>
      </trkpt>
      <trkpt lat="42.90035" lon="0.20452">
        <ele>1904.8</ele>
        <time>2021-08-19T07:37:47.000Z</time>
      </trkpt>
      <trkpt lat="42.90028" lon="0.20444">
        <ele>1906.3</ele>
        <time>2021-08-19T07:37:57.000Z</time>
      </trkpt>
      <trkpt lat="42.90024" lon="0.20442">
        <ele>1907.6</ele>
        <time>2021-08-19T07:38:05.000Z</time>
      </trkpt>
      <trkpt lat="42.90024" lon="0.20442">
        <ele>1907.8</ele>
        <time>2021-08-19T07:38:06.000Z</time>
      </trkpt>
      <trkpt lat="42.90016" lon="0.20436">
        <ele>1910.5</ele>
        <time>2021-08-19T07:38:25.000Z</time>
      </trkpt>
      <trkpt lat="42.90014" lon="0.20437">
        <ele>1912</ele>
        <time>2021-08-19T07:38:33.000Z</time>
      </trkpt>
      <trkpt lat="42.90013" lon="0.20437">
        <ele>1912.1</ele>
        <time>2021-08-19T07:38:34.000Z</time>
      </trkpt>
      <trkpt lat="42.90004" lon="0.20437">
        <ele>1913.5</ele>
        <time>2021-08-19T07:38:46.000Z</time>
      </trkpt>
      <trkpt lat="42.89996" lon="0.20434">
        <ele>1915.9</ele>
        <time>2021-08-19T07:39:01.000Z</time>
      </trkpt>
      <trkpt lat="42.89996" lon="0.20435">
        <ele>1916.1</ele>
        <time>2021-08-19T07:39:02.000Z</time>
      </trkpt>
      <trkpt lat="42.89989" lon="0.20426">
        <ele>1918.7</ele>
        <time>2021-08-19T07:39:19.000Z</time>
      </trkpt>
      <trkpt lat="42.89989" lon="0.20425">
        <ele>1919.3</ele>
        <time>2021-08-19T07:39:22.000Z</time>
      </trkpt>
      <trkpt lat="42.89988" lon="0.20425">
        <ele>1919.4</ele>
        <time>2021-08-19T07:39:23.000Z</time>
      </trkpt>
      <trkpt lat="42.89982" lon="0.20415">
        <ele>1921.2</ele>
        <time>2021-08-19T07:39:38.000Z</time>
      </trkpt>
      <trkpt lat="42.89974" lon="0.20409">
        <ele>1924.2</ele>
        <time>2021-08-19T07:39:55.000Z</time>
      </trkpt>
      <trkpt lat="42.89969" lon="0.20399">
        <ele>1924.9</ele>
        <time>2021-08-19T07:40:05.000Z</time>
      </trkpt>
      <trkpt lat="42.89967" lon="0.20387">
        <ele>1927</ele>
        <time>2021-08-19T07:40:16.000Z</time>
      </trkpt>
      <trkpt lat="42.89966" lon="0.2038">
        <ele>1928.1</ele>
        <time>2021-08-19T07:40:26.000Z</time>
      </trkpt>
      <trkpt lat="42.89966" lon="0.20379">
        <ele>1928.4</ele>
        <time>2021-08-19T07:40:27.000Z</time>
      </trkpt>
      <trkpt lat="42.89963" lon="0.20368">
        <ele>1930.4</ele>
        <time>2021-08-19T07:40:40.000Z</time>
      </trkpt>
      <trkpt lat="42.89958" lon="0.20356">
        <ele>1931.7</ele>
        <time>2021-08-19T07:40:50.000Z</time>
      </trkpt>
      <trkpt lat="42.89955" lon="0.20344">
        <ele>1933.1</ele>
        <time>2021-08-19T07:41:00.000Z</time>
      </trkpt>
      <trkpt lat="42.89951" lon="0.20333">
        <ele>1934.4</ele>
        <time>2021-08-19T07:41:10.000Z</time>
      </trkpt>
      <trkpt lat="42.8995" lon="0.20332">
        <ele>1935</ele>
        <time>2021-08-19T07:41:14.000Z</time>
      </trkpt>
      <trkpt lat="42.89951" lon="0.20331">
        <ele>1935.2</ele>
        <time>2021-08-19T07:41:15.000Z</time>
      </trkpt>
      <trkpt lat="42.89948" lon="0.20319">
        <ele>1937.4</ele>
        <time>2021-08-19T07:41:31.000Z</time>
      </trkpt>
      <trkpt lat="42.89945" lon="0.20307">
        <ele>1938.8</ele>
        <time>2021-08-19T07:41:41.000Z</time>
      </trkpt>
      <trkpt lat="42.89944" lon="0.20295">
        <ele>1940</ele>
        <time>2021-08-19T07:41:51.000Z</time>
      </trkpt>
      <trkpt lat="42.8994" lon="0.20283">
        <ele>1941.6</ele>
        <time>2021-08-19T07:42:04.000Z</time>
      </trkpt>
      <trkpt lat="42.89934" lon="0.20274">
        <ele>1942.4</ele>
        <time>2021-08-19T07:42:15.000Z</time>
      </trkpt>
      <trkpt lat="42.89925" lon="0.2027">
        <ele>1942.8</ele>
        <time>2021-08-19T07:42:24.000Z</time>
      </trkpt>
      <trkpt lat="42.89918" lon="0.20262">
        <ele>1942.5</ele>
        <time>2021-08-19T07:42:32.000Z</time>
      </trkpt>
      <trkpt lat="42.89911" lon="0.20254">
        <ele>1943.2</ele>
        <time>2021-08-19T07:42:43.000Z</time>
      </trkpt>
      <trkpt lat="42.89904" lon="0.20245">
        <ele>1944.5</ele>
        <time>2021-08-19T07:42:54.000Z</time>
      </trkpt>
      <trkpt lat="42.89896" lon="0.20239">
        <ele>1944.7</ele>
        <time>2021-08-19T07:43:03.000Z</time>
      </trkpt>
      <trkpt lat="42.89891" lon="0.20228">
        <ele>1944.9</ele>
        <time>2021-08-19T07:43:10.000Z</time>
      </trkpt>
      <trkpt lat="42.89885" lon="0.20218">
        <ele>1945.4</ele>
        <time>2021-08-19T07:43:19.000Z</time>
      </trkpt>
      <trkpt lat="42.89879" lon="0.20208">
        <ele>1946.1</ele>
        <time>2021-08-19T07:43:28.000Z</time>
      </trkpt>
      <trkpt lat="42.89872" lon="0.202">
        <ele>1947.1</ele>
        <time>2021-08-19T07:43:39.000Z</time>
      </trkpt>
      <trkpt lat="42.89866" lon="0.20192">
        <ele>1948</ele>
        <time>2021-08-19T07:43:47.000Z</time>
      </trkpt>
      <trkpt lat="42.89859" lon="0.20182">
        <ele>1949.2</ele>
        <time>2021-08-19T07:43:56.000Z</time>
      </trkpt>
      <trkpt lat="42.89856" lon="0.2017">
        <ele>1949.2</ele>
        <time>2021-08-19T07:44:05.000Z</time>
      </trkpt>
      <trkpt lat="42.89854" lon="0.20157">
        <ele>1950.2</ele>
        <time>2021-08-19T07:44:18.000Z</time>
      </trkpt>
      <trkpt lat="42.89854" lon="0.20144">
        <ele>1952.1</ele>
        <time>2021-08-19T07:44:31.000Z</time>
      </trkpt>
      <trkpt lat="42.89856" lon="0.20131">
        <ele>1953.7</ele>
        <time>2021-08-19T07:44:46.000Z</time>
      </trkpt>
      <trkpt lat="42.8986" lon="0.20127">
        <ele>1955.4</ele>
        <time>2021-08-19T07:44:58.000Z</time>
      </trkpt>
      <trkpt lat="42.8986" lon="0.20127">
        <ele>1955.6</ele>
        <time>2021-08-19T07:44:59.000Z</time>
      </trkpt>
      <trkpt lat="42.8986" lon="0.20127">
        <ele>1955.7</ele>
        <time>2021-08-19T07:45:01.000Z</time>
      </trkpt>
      <trkpt lat="42.8986" lon="0.20127">
        <ele>1955.8</ele>
        <time>2021-08-19T07:45:03.000Z</time>
      </trkpt>
      <trkpt lat="42.89864" lon="0.20121">
        <ele>1957.2</ele>
        <time>2021-08-19T07:45:14.000Z</time>
      </trkpt>
      <trkpt lat="42.89865" lon="0.2012">
        <ele>1957.2</ele>
        <time>2021-08-19T07:45:15.000Z</time>
      </trkpt>
      <trkpt lat="42.89871" lon="0.2011">
        <ele>1959.8</ele>
        <time>2021-08-19T07:45:29.000Z</time>
      </trkpt>
      <trkpt lat="42.89874" lon="0.20098">
        <ele>1962.1</ele>
        <time>2021-08-19T07:45:45.000Z</time>
      </trkpt>
      <trkpt lat="42.89873" lon="0.20091">
        <ele>1964.9</ele>
        <time>2021-08-19T07:46:03.000Z</time>
      </trkpt>
      <trkpt lat="42.89873" lon="0.20091">
        <ele>1965.3</ele>
        <time>2021-08-19T07:46:06.000Z</time>
      </trkpt>
      <trkpt lat="42.89877" lon="0.20079">
        <ele>1966.7</ele>
        <time>2021-08-19T07:46:19.000Z</time>
      </trkpt>
      <trkpt lat="42.8988" lon="0.20067">
        <ele>1969.4</ele>
        <time>2021-08-19T07:46:37.000Z</time>
      </trkpt>
      <trkpt lat="42.89882" lon="0.20055">
        <ele>1972.6</ele>
        <time>2021-08-19T07:46:57.000Z</time>
      </trkpt>
      <trkpt lat="42.89883" lon="0.20045">
        <ele>1975.7</ele>
        <time>2021-08-19T07:47:19.000Z</time>
      </trkpt>
      <trkpt lat="42.89883" lon="0.20045">
        <ele>1976.2</ele>
        <time>2021-08-19T07:47:20.000Z</time>
      </trkpt>
      <trkpt lat="42.89874" lon="0.20047">
        <ele>1978.8</ele>
        <time>2021-08-19T07:47:40.000Z</time>
      </trkpt>
      <trkpt lat="42.89865" lon="0.20053">
        <ele>1979.3</ele>
        <time>2021-08-19T07:47:54.000Z</time>
      </trkpt>
      <trkpt lat="42.8986" lon="0.20064">
        <ele>1976.2</ele>
        <time>2021-08-19T07:48:10.000Z</time>
      </trkpt>
      <trkpt lat="42.89851" lon="0.20064">
        <ele>1975.5</ele>
        <time>2021-08-19T07:48:21.000Z</time>
      </trkpt>
      <trkpt lat="42.89842" lon="0.20061">
        <ele>1977.1</ele>
        <time>2021-08-19T07:48:32.000Z</time>
      </trkpt>
      <trkpt lat="42.89841" lon="0.20061">
        <ele>1978.1</ele>
        <time>2021-08-19T07:48:36.000Z</time>
      </trkpt>
      <trkpt lat="42.89841" lon="0.20061">
        <ele>1978.1</ele>
        <time>2021-08-19T07:48:37.000Z</time>
      </trkpt>
      <trkpt lat="42.89832" lon="0.20057">
        <ele>1980.7</ele>
        <time>2021-08-19T07:48:50.000Z</time>
      </trkpt>
      <trkpt lat="42.89823" lon="0.20053">
        <ele>1983.1</ele>
        <time>2021-08-19T07:49:03.000Z</time>
      </trkpt>
      <trkpt lat="42.89814" lon="0.20052">
        <ele>1985.2</ele>
        <time>2021-08-19T07:49:16.000Z</time>
      </trkpt>
      <trkpt lat="42.89804" lon="0.20049">
        <ele>1987.3</ele>
        <time>2021-08-19T07:49:29.000Z</time>
      </trkpt>
      <trkpt lat="42.89795" lon="0.20046">
        <ele>1989.4</ele>
        <time>2021-08-19T07:49:41.000Z</time>
      </trkpt>
      <trkpt lat="42.89796" lon="0.20046">
        <ele>1990.1</ele>
        <time>2021-08-19T07:49:43.000Z</time>
      </trkpt>
      <trkpt lat="42.89795" lon="0.20046">
        <ele>1990.2</ele>
        <time>2021-08-19T07:49:44.000Z</time>
      </trkpt>
      <trkpt lat="42.89787" lon="0.2004">
        <ele>1991.7</ele>
        <time>2021-08-19T07:49:56.000Z</time>
      </trkpt>
      <trkpt lat="42.89778" lon="0.20034">
        <ele>1994</ele>
        <time>2021-08-19T07:50:08.000Z</time>
      </trkpt>
      <trkpt lat="42.8977" lon="0.20029">
        <ele>1996.6</ele>
        <time>2021-08-19T07:50:21.000Z</time>
      </trkpt>
      <trkpt lat="42.89761" lon="0.20025">
        <ele>1999.1</ele>
        <time>2021-08-19T07:50:36.000Z</time>
      </trkpt>
      <trkpt lat="42.89759" lon="0.20022">
        <ele>2000.1</ele>
        <time>2021-08-19T07:50:44.000Z</time>
      </trkpt>
      <trkpt lat="42.89758" lon="0.20022">
        <ele>2000.4</ele>
        <time>2021-08-19T07:50:46.000Z</time>
      </trkpt>
      <trkpt lat="42.89751" lon="0.20015">
        <ele>2003.4</ele>
        <time>2021-08-19T07:51:04.000Z</time>
      </trkpt>
      <trkpt lat="42.89742" lon="0.20012">
        <ele>2006.2</ele>
        <time>2021-08-19T07:51:22.000Z</time>
      </trkpt>
      <trkpt lat="42.89732" lon="0.20009">
        <ele>2006.1</ele>
        <time>2021-08-19T07:51:33.000Z</time>
      </trkpt>
      <trkpt lat="42.89723" lon="0.20014">
        <ele>2006.1</ele>
        <time>2021-08-19T07:51:41.000Z</time>
      </trkpt>
      <trkpt lat="42.89714" lon="0.20017">
        <ele>2006.5</ele>
        <time>2021-08-19T07:51:51.000Z</time>
      </trkpt>
      <trkpt lat="42.89705" lon="0.20019">
        <ele>2007.3</ele>
        <time>2021-08-19T07:52:02.000Z</time>
      </trkpt>
      <trkpt lat="42.89695" lon="0.20022">
        <ele>2008.4</ele>
        <time>2021-08-19T07:52:14.000Z</time>
      </trkpt>
      <trkpt lat="42.89687" lon="0.20028">
        <ele>2009.6</ele>
        <time>2021-08-19T07:52:24.000Z</time>
      </trkpt>
      <trkpt lat="42.89678" lon="0.20031">
        <ele>2010.4</ele>
        <time>2021-08-19T07:52:35.000Z</time>
      </trkpt>
      <trkpt lat="42.89672" lon="0.20041">
        <ele>2010.2</ele>
        <time>2021-08-19T07:52:43.000Z</time>
      </trkpt>
      <trkpt lat="42.89663" lon="0.20045">
        <ele>2011.2</ele>
        <time>2021-08-19T07:52:53.000Z</time>
      </trkpt>
      <trkpt lat="42.89659" lon="0.20034">
        <ele>2013.6</ele>
        <time>2021-08-19T07:53:09.000Z</time>
      </trkpt>
      <trkpt lat="42.89657" lon="0.20021">
        <ele>2016.4</ele>
        <time>2021-08-19T07:53:23.000Z</time>
      </trkpt>
      <trkpt lat="42.89654" lon="0.20015">
        <ele>2017.4</ele>
        <time>2021-08-19T07:53:32.000Z</time>
      </trkpt>
      <trkpt lat="42.89654" lon="0.20015">
        <ele>2017.6</ele>
        <time>2021-08-19T07:53:33.000Z</time>
      </trkpt>
      <trkpt lat="42.89655" lon="0.20002">
        <ele>2020.5</ele>
        <time>2021-08-19T07:53:51.000Z</time>
      </trkpt>
      <trkpt lat="42.89654" lon="0.19993">
        <ele>2023.4</ele>
        <time>2021-08-19T07:54:10.000Z</time>
      </trkpt>
      <trkpt lat="42.89654" lon="0.19993">
        <ele>2023.4</ele>
        <time>2021-08-19T07:54:11.000Z</time>
      </trkpt>
      <trkpt lat="42.89654" lon="0.19993">
        <ele>2023.3</ele>
        <time>2021-08-19T07:54:15.000Z</time>
      </trkpt>
      <trkpt lat="42.89654" lon="0.19992">
        <ele>2023.8</ele>
        <time>2021-08-19T07:54:22.000Z</time>
      </trkpt>
      <trkpt lat="42.89652" lon="0.19989">
        <ele>2023.5</ele>
        <time>2021-08-19T07:54:30.000Z</time>
      </trkpt>
      <trkpt lat="42.89652" lon="0.19988">
        <ele>2023.3</ele>
        <time>2021-08-19T07:54:32.000Z</time>
      </trkpt>
      <trkpt lat="42.89652" lon="0.19985">
        <ele>2023.7</ele>
        <time>2021-08-19T07:54:38.000Z</time>
      </trkpt>
      <trkpt lat="42.89652" lon="0.19985">
        <ele>2022.7</ele>
        <time>2021-08-19T07:54:40.000Z</time>
      </trkpt>
      <trkpt lat="42.89651" lon="0.19983">
        <ele>2022.3</ele>
        <time>2021-08-19T07:54:43.000Z</time>
      </trkpt>
      <trkpt lat="42.89651" lon="0.19982">
        <ele>2024.1</ele>
        <time>2021-08-19T07:54:53.000Z</time>
      </trkpt>
      <trkpt lat="42.89651" lon="0.19981">
        <ele>2021.5</ele>
        <time>2021-08-19T07:55:00.000Z</time>
      </trkpt>
      <trkpt lat="42.89651" lon="0.19981">
        <ele>2021.3</ele>
        <time>2021-08-19T07:55:46.000Z</time>
      </trkpt>
      <trkpt lat="42.89651" lon="0.19981">
        <ele>2021.3</ele>
        <time>2021-08-19T07:55:47.000Z</time>
      </trkpt>
      <trkpt lat="42.89651" lon="0.19981">
        <ele>2022.6</ele>
        <time>2021-08-19T07:56:05.000Z</time>
      </trkpt>
      <trkpt lat="42.89651" lon="0.19981">
        <ele>2022.1</ele>
        <time>2021-08-19T07:56:06.000Z</time>
      </trkpt>
      <trkpt lat="42.89651" lon="0.1998">
        <ele>2021.5</ele>
        <time>2021-08-19T07:56:08.000Z</time>
      </trkpt>
      <trkpt lat="42.89651" lon="0.1998">
        <ele>2021.7</ele>
        <time>2021-08-19T07:56:09.000Z</time>
      </trkpt>
      <trkpt lat="42.89651" lon="0.1998">
        <ele>2022.4</ele>
        <time>2021-08-19T07:56:25.000Z</time>
      </trkpt>
      <trkpt lat="42.89651" lon="0.1998">
        <ele>2022.6</ele>
        <time>2021-08-19T07:56:27.000Z</time>
      </trkpt>
      <trkpt lat="42.89651" lon="0.19979">
        <ele>2022.5</ele>
        <time>2021-08-19T07:56:31.000Z</time>
      </trkpt>
      <trkpt lat="42.89651" lon="0.19979">
        <ele>2021.7</ele>
        <time>2021-08-19T07:56:36.000Z</time>
      </trkpt>
      <trkpt lat="42.8965" lon="0.19978">
        <ele>2021.9</ele>
        <time>2021-08-19T07:56:37.000Z</time>
      </trkpt>
      <trkpt lat="42.8965" lon="0.19978">
        <ele>2021.9</ele>
        <time>2021-08-19T07:56:38.000Z</time>
      </trkpt>
      <trkpt lat="42.89651" lon="0.19978">
        <ele>2022.2</ele>
        <time>2021-08-19T07:56:39.000Z</time>
      </trkpt>
      <trkpt lat="42.89651" lon="0.19979">
        <ele>2022.9</ele>
        <time>2021-08-19T07:56:40.000Z</time>
      </trkpt>
      <trkpt lat="42.89651" lon="0.19979">
        <ele>2023.4</ele>
        <time>2021-08-19T07:56:41.000Z</time>
      </trkpt>
      <trkpt lat="42.89651" lon="0.19978">
        <ele>2021.9</ele>
        <time>2021-08-19T07:56:43.000Z</time>
      </trkpt>
      <trkpt lat="42.89651" lon="0.19978">
        <ele>2022.1</ele>
        <time>2021-08-19T07:58:05.000Z</time>
      </trkpt>
      <trkpt lat="42.89651" lon="0.19978">
        <ele>2022</ele>
        <time>2021-08-19T07:58:06.000Z</time>
      </trkpt>
      <trkpt lat="42.89651" lon="0.19978">
        <ele>2022.5</ele>
        <time>2021-08-19T07:59:33.000Z</time>
      </trkpt>
      <trkpt lat="42.89651" lon="0.19978">
        <ele>2022.5</ele>
        <time>2021-08-19T07:59:34.000Z</time>
      </trkpt>
      <trkpt lat="42.89652" lon="0.19978">
        <ele>2021</ele>
        <time>2021-08-19T08:01:52.000Z</time>
      </trkpt>
      <trkpt lat="42.89652" lon="0.19978">
        <ele>2021.2</ele>
        <time>2021-08-19T08:01:53.000Z</time>
      </trkpt>
      <trkpt lat="42.89652" lon="0.19978">
        <ele>2021.1</ele>
        <time>2021-08-19T08:02:24.000Z</time>
      </trkpt>
      <trkpt lat="42.89652" lon="0.19978">
        <ele>2021.1</ele>
        <time>2021-08-19T08:02:25.000Z</time>
      </trkpt>
      <trkpt lat="42.89652" lon="0.19978">
        <ele>2021.9</ele>
        <time>2021-08-19T08:05:45.000Z</time>
      </trkpt>
      <trkpt lat="42.89652" lon="0.19978">
        <ele>2022.1</ele>
        <time>2021-08-19T08:05:46.000Z</time>
      </trkpt>
      <trkpt lat="42.89652" lon="0.19978">
        <ele>2021.7</ele>
        <time>2021-08-19T08:05:49.000Z</time>
      </trkpt>
      <trkpt lat="42.89652" lon="0.19978">
        <ele>2021.6</ele>
        <time>2021-08-19T08:05:50.000Z</time>
      </trkpt>
      <trkpt lat="42.89652" lon="0.19978">
        <ele>2021.6</ele>
        <time>2021-08-19T08:05:51.000Z</time>
      </trkpt>
      <trkpt lat="42.89652" lon="0.19978">
        <ele>2021.8</ele>
        <time>2021-08-19T08:05:52.000Z</time>
      </trkpt>
      <trkpt lat="42.89652" lon="0.19978">
        <ele>2021.7</ele>
        <time>2021-08-19T08:05:54.000Z</time>
      </trkpt>
      <trkpt lat="42.89652" lon="0.19978">
        <ele>2022.1</ele>
        <time>2021-08-19T08:05:56.000Z</time>
      </trkpt>
      <trkpt lat="42.89652" lon="0.19978">
        <ele>2021.9</ele>
        <time>2021-08-19T08:05:57.000Z</time>
      </trkpt>
      <trkpt lat="42.89648" lon="0.19965">
        <ele>2022.6</ele>
        <time>2021-08-19T08:06:14.000Z</time>
      </trkpt>
      <trkpt lat="42.89644" lon="0.19953">
        <ele>2023.3</ele>
        <time>2021-08-19T08:06:24.000Z</time>
      </trkpt>
      <trkpt lat="42.89644" lon="0.19953">
        <ele>2023.6</ele>
        <time>2021-08-19T08:06:27.000Z</time>
      </trkpt>
      <trkpt lat="42.89644" lon="0.19952">
        <ele>2023.6</ele>
        <time>2021-08-19T08:06:28.000Z</time>
      </trkpt>
      <trkpt lat="42.89637" lon="0.19943">
        <ele>2023.6</ele>
        <time>2021-08-19T08:06:36.000Z</time>
      </trkpt>
      <trkpt lat="42.89631" lon="0.19933">
        <ele>2023</ele>
        <time>2021-08-19T08:06:47.000Z</time>
      </trkpt>
      <trkpt lat="42.89627" lon="0.19924">
        <ele>2023.3</ele>
        <time>2021-08-19T08:06:55.000Z</time>
      </trkpt>
      <trkpt lat="42.89627" lon="0.19924">
        <ele>2023.4</ele>
        <time>2021-08-19T08:06:56.000Z</time>
      </trkpt>
      <trkpt lat="42.89624" lon="0.19911">
        <ele>2023.4</ele>
        <time>2021-08-19T08:07:07.000Z</time>
      </trkpt>
      <trkpt lat="42.89619" lon="0.19901">
        <ele>2023.4</ele>
        <time>2021-08-19T08:07:22.000Z</time>
      </trkpt>
      <trkpt lat="42.89613" lon="0.1989">
        <ele>2023.1</ele>
        <time>2021-08-19T08:07:38.000Z</time>
      </trkpt>
      <trkpt lat="42.89606" lon="0.19883">
        <ele>2022.3</ele>
        <time>2021-08-19T08:07:50.000Z</time>
      </trkpt>
      <trkpt lat="42.89598" lon="0.19875">
        <ele>2022.5</ele>
        <time>2021-08-19T08:08:00.000Z</time>
      </trkpt>
      <trkpt lat="42.89594" lon="0.19868">
        <ele>2023</ele>
        <time>2021-08-19T08:08:14.000Z</time>
      </trkpt>
      <trkpt lat="42.89594" lon="0.19867">
        <ele>2023.2</ele>
        <time>2021-08-19T08:08:15.000Z</time>
      </trkpt>
      <trkpt lat="42.89587" lon="0.19859">
        <ele>2024</ele>
        <time>2021-08-19T08:08:25.000Z</time>
      </trkpt>
      <trkpt lat="42.89578" lon="0.19858">
        <ele>2023.6</ele>
        <time>2021-08-19T08:08:36.000Z</time>
      </trkpt>
      <trkpt lat="42.89569" lon="0.19858">
        <ele>2023.6</ele>
        <time>2021-08-19T08:08:47.000Z</time>
      </trkpt>
      <trkpt lat="42.8956" lon="0.19854">
        <ele>2023.4</ele>
        <time>2021-08-19T08:08:59.000Z</time>
      </trkpt>
      <trkpt lat="42.89554" lon="0.19848">
        <ele>2023</ele>
        <time>2021-08-19T08:09:10.000Z</time>
      </trkpt>
      <trkpt lat="42.89554" lon="0.19848">
        <ele>2023</ele>
        <time>2021-08-19T08:09:11.000Z</time>
      </trkpt>
      <trkpt lat="42.89545" lon="0.19844">
        <ele>2023.1</ele>
        <time>2021-08-19T08:09:22.000Z</time>
      </trkpt>
      <trkpt lat="42.89536" lon="0.19839">
        <ele>2022.6</ele>
        <time>2021-08-19T08:09:36.000Z</time>
      </trkpt>
      <trkpt lat="42.89527" lon="0.19837">
        <ele>2021</ele>
        <time>2021-08-19T08:09:50.000Z</time>
      </trkpt>
      <trkpt lat="42.89526" lon="0.19837">
        <ele>2021.4</ele>
        <time>2021-08-19T08:09:54.000Z</time>
      </trkpt>
      <trkpt lat="42.89526" lon="0.19836">
        <ele>2021.6</ele>
        <time>2021-08-19T08:09:55.000Z</time>
      </trkpt>
      <trkpt lat="42.89526" lon="0.19836">
        <ele>2021.6</ele>
        <time>2021-08-19T08:09:56.000Z</time>
      </trkpt>
      <trkpt lat="42.89526" lon="0.19835">
        <ele>2021.8</ele>
        <time>2021-08-19T08:09:58.000Z</time>
      </trkpt>
      <trkpt lat="42.89519" lon="0.19826">
        <ele>2023</ele>
        <time>2021-08-19T08:10:14.000Z</time>
      </trkpt>
      <trkpt lat="42.8951" lon="0.19822">
        <ele>2022.5</ele>
        <time>2021-08-19T08:10:24.000Z</time>
      </trkpt>
      <trkpt lat="42.89501" lon="0.19816">
        <ele>2022.9</ele>
        <time>2021-08-19T08:10:36.000Z</time>
      </trkpt>
      <trkpt lat="42.89495" lon="0.19806">
        <ele>2023.8</ele>
        <time>2021-08-19T08:10:48.000Z</time>
      </trkpt>
      <trkpt lat="42.89486" lon="0.19808">
        <ele>2023</ele>
        <time>2021-08-19T08:10:58.000Z</time>
      </trkpt>
      <trkpt lat="42.8948" lon="0.19798">
        <ele>2022.7</ele>
        <time>2021-08-19T08:11:09.000Z</time>
      </trkpt>
      <trkpt lat="42.89472" lon="0.19791">
        <ele>2022.8</ele>
        <time>2021-08-19T08:11:20.000Z</time>
      </trkpt>
      <trkpt lat="42.89465" lon="0.19783">
        <ele>2022.5</ele>
        <time>2021-08-19T08:11:29.000Z</time>
      </trkpt>
      <trkpt lat="42.89457" lon="0.19777">
        <ele>2022.4</ele>
        <time>2021-08-19T08:11:41.000Z</time>
      </trkpt>
      <trkpt lat="42.8945" lon="0.19769">
        <ele>2023.1</ele>
        <time>2021-08-19T08:11:54.000Z</time>
      </trkpt>
      <trkpt lat="42.89445" lon="0.19757">
        <ele>2024.9</ele>
        <time>2021-08-19T08:12:09.000Z</time>
      </trkpt>
      <trkpt lat="42.8944" lon="0.19749">
        <ele>2026.2</ele>
        <time>2021-08-19T08:12:21.000Z</time>
      </trkpt>
      <trkpt lat="42.8944" lon="0.19749">
        <ele>2026.4</ele>
        <time>2021-08-19T08:12:23.000Z</time>
      </trkpt>
      <trkpt lat="42.89436" lon="0.19741">
        <ele>2027.9</ele>
        <time>2021-08-19T08:12:34.000Z</time>
      </trkpt>
      <trkpt lat="42.89436" lon="0.19741">
        <ele>2027.9</ele>
        <time>2021-08-19T08:12:35.000Z</time>
      </trkpt>
      <trkpt lat="42.89428" lon="0.19734">
        <ele>2028.4</ele>
        <time>2021-08-19T08:12:46.000Z</time>
      </trkpt>
      <trkpt lat="42.8942" lon="0.19728">
        <ele>2029.1</ele>
        <time>2021-08-19T08:12:55.000Z</time>
      </trkpt>
      <trkpt lat="42.89414" lon="0.19717">
        <ele>2031.1</ele>
        <time>2021-08-19T08:13:09.000Z</time>
      </trkpt>
      <trkpt lat="42.89406" lon="0.19711">
        <ele>2032.1</ele>
        <time>2021-08-19T08:13:22.000Z</time>
      </trkpt>
      <trkpt lat="42.89398" lon="0.19716">
        <ele>2033.1</ele>
        <time>2021-08-19T08:13:38.000Z</time>
      </trkpt>
      <trkpt lat="42.89391" lon="0.19725">
        <ele>2033.2</ele>
        <time>2021-08-19T08:13:50.000Z</time>
      </trkpt>
      <trkpt lat="42.89383" lon="0.1973">
        <ele>2035.3</ele>
        <time>2021-08-19T08:14:08.000Z</time>
      </trkpt>
      <trkpt lat="42.89374" lon="0.19734">
        <ele>2037</ele>
        <time>2021-08-19T08:14:25.000Z</time>
      </trkpt>
      <trkpt lat="42.89365" lon="0.19735">
        <ele>2036.5</ele>
        <time>2021-08-19T08:14:39.000Z</time>
      </trkpt>
      <trkpt lat="42.89357" lon="0.19744">
        <ele>2035.8</ele>
        <time>2021-08-19T08:14:50.000Z</time>
      </trkpt>
      <trkpt lat="42.89348" lon="0.19744">
        <ele>2035.6</ele>
        <time>2021-08-19T08:15:04.000Z</time>
      </trkpt>
      <trkpt lat="42.89338" lon="0.19742">
        <ele>2036.8</ele>
        <time>2021-08-19T08:15:15.000Z</time>
      </trkpt>
      <trkpt lat="42.89329" lon="0.19741">
        <ele>2038.4</ele>
        <time>2021-08-19T08:15:25.000Z</time>
      </trkpt>
      <trkpt lat="42.89325" lon="0.19753">
        <ele>2041.8</ele>
        <time>2021-08-19T08:15:47.000Z</time>
      </trkpt>
      <trkpt lat="42.89316" lon="0.19751">
        <ele>2045.5</ele>
        <time>2021-08-19T08:16:06.000Z</time>
      </trkpt>
      <trkpt lat="42.89308" lon="0.19745">
        <ele>2048</ele>
        <time>2021-08-19T08:16:23.000Z</time>
      </trkpt>
      <trkpt lat="42.89301" lon="0.19736">
        <ele>2050.4</ele>
        <time>2021-08-19T08:16:38.000Z</time>
      </trkpt>
      <trkpt lat="42.89293" lon="0.19742">
        <ele>2052.5</ele>
        <time>2021-08-19T08:16:54.000Z</time>
      </trkpt>
      <trkpt lat="42.89287" lon="0.19751">
        <ele>2054.5</ele>
        <time>2021-08-19T08:17:06.000Z</time>
      </trkpt>
      <trkpt lat="42.89279" lon="0.19759">
        <ele>2055.2</ele>
        <time>2021-08-19T08:17:19.000Z</time>
      </trkpt>
      <trkpt lat="42.89277" lon="0.19763">
        <ele>2055.1</ele>
        <time>2021-08-19T08:17:25.000Z</time>
      </trkpt>
      <trkpt lat="42.89277" lon="0.19764">
        <ele>2054.9</ele>
        <time>2021-08-19T08:17:26.000Z</time>
      </trkpt>
      <trkpt lat="42.89273" lon="0.19776">
        <ele>2055.2</ele>
        <time>2021-08-19T08:17:35.000Z</time>
      </trkpt>
      <trkpt lat="42.89265" lon="0.19782">
        <ele>2057.9</ele>
        <time>2021-08-19T08:17:44.000Z</time>
      </trkpt>
      <trkpt lat="42.89257" lon="0.19789">
        <ele>2056.9</ele>
        <time>2021-08-19T08:17:54.000Z</time>
      </trkpt>
      <trkpt lat="42.8925" lon="0.19798">
        <ele>2058.3</ele>
        <time>2021-08-19T08:18:05.000Z</time>
      </trkpt>
      <trkpt lat="42.89245" lon="0.19808">
        <ele>2058.2</ele>
        <time>2021-08-19T08:18:13.000Z</time>
      </trkpt>
      <trkpt lat="42.89241" lon="0.1982">
        <ele>2058.1</ele>
        <time>2021-08-19T08:18:22.000Z</time>
      </trkpt>
      <trkpt lat="42.89236" lon="0.19831">
        <ele>2058.2</ele>
        <time>2021-08-19T08:18:31.000Z</time>
      </trkpt>
      <trkpt lat="42.89233" lon="0.19843">
        <ele>2060.1</ele>
        <time>2021-08-19T08:18:46.000Z</time>
      </trkpt>
      <trkpt lat="42.89241" lon="0.1985">
        <ele>2061.6</ele>
        <time>2021-08-19T08:18:57.000Z</time>
      </trkpt>
      <trkpt lat="42.89247" lon="0.1986">
        <ele>2062.3</ele>
        <time>2021-08-19T08:19:05.000Z</time>
      </trkpt>
      <trkpt lat="42.89251" lon="0.19871">
        <ele>2063.4</ele>
        <time>2021-08-19T08:19:13.000Z</time>
      </trkpt>
      <trkpt lat="42.89258" lon="0.19879">
        <ele>2065.5</ele>
        <time>2021-08-19T08:19:24.000Z</time>
      </trkpt>
      <trkpt lat="42.89264" lon="0.19888">
        <ele>2066.9</ele>
        <time>2021-08-19T08:19:34.000Z</time>
      </trkpt>
      <trkpt lat="42.89272" lon="0.19896">
        <ele>2067</ele>
        <time>2021-08-19T08:19:42.000Z</time>
      </trkpt>
      <trkpt lat="42.89277" lon="0.19906">
        <ele>2066.7</ele>
        <time>2021-08-19T08:19:50.000Z</time>
      </trkpt>
      <trkpt lat="42.89283" lon="0.19916">
        <ele>2067</ele>
        <time>2021-08-19T08:19:59.000Z</time>
      </trkpt>
      <trkpt lat="42.8928" lon="0.19928">
        <ele>2069</ele>
        <time>2021-08-19T08:20:14.000Z</time>
      </trkpt>
      <trkpt lat="42.89278" lon="0.1994">
        <ele>2070.5</ele>
        <time>2021-08-19T08:20:29.000Z</time>
      </trkpt>
      <trkpt lat="42.89273" lon="0.19951">
        <ele>2073.2</ele>
        <time>2021-08-19T08:20:44.000Z</time>
      </trkpt>
      <trkpt lat="42.89269" lon="0.19955">
        <ele>2074.8</ele>
        <time>2021-08-19T08:20:53.000Z</time>
      </trkpt>
      <trkpt lat="42.8927" lon="0.19955">
        <ele>2074.9</ele>
        <time>2021-08-19T08:20:54.000Z</time>
      </trkpt>
      <trkpt lat="42.89279" lon="0.19956">
        <ele>2077.2</ele>
        <time>2021-08-19T08:21:10.000Z</time>
      </trkpt>
      <trkpt lat="42.89288" lon="0.19962">
        <ele>2078.4</ele>
        <time>2021-08-19T08:21:22.000Z</time>
      </trkpt>
      <trkpt lat="42.89292" lon="0.19973">
        <ele>2078.4</ele>
        <time>2021-08-19T08:21:32.000Z</time>
      </trkpt>
      <trkpt lat="42.89298" lon="0.19984">
        <ele>2079.1</ele>
        <time>2021-08-19T08:21:42.000Z</time>
      </trkpt>
      <trkpt lat="42.89299" lon="0.19997">
        <ele>2080.8</ele>
        <time>2021-08-19T08:21:56.000Z</time>
      </trkpt>
      <trkpt lat="42.8929" lon="0.20002">
        <ele>2083.8</ele>
        <time>2021-08-19T08:22:14.000Z</time>
      </trkpt>
      <trkpt lat="42.89283" lon="0.20009">
        <ele>2087.2</ele>
        <time>2021-08-19T08:22:31.000Z</time>
      </trkpt>
      <trkpt lat="42.8928" lon="0.20013">
        <ele>2089.6</ele>
        <time>2021-08-19T08:22:42.000Z</time>
      </trkpt>
      <trkpt lat="42.8928" lon="0.20013">
        <ele>2089.3</ele>
        <time>2021-08-19T08:22:43.000Z</time>
      </trkpt>
      <trkpt lat="42.89283" lon="0.20025">
        <ele>2093.7</ele>
        <time>2021-08-19T08:23:17.000Z</time>
      </trkpt>
      <trkpt lat="42.89281" lon="0.20026">
        <ele>2094.7</ele>
        <time>2021-08-19T08:23:24.000Z</time>
      </trkpt>
      <trkpt lat="42.8928" lon="0.20027">
        <ele>2094.7</ele>
        <time>2021-08-19T08:23:25.000Z</time>
      </trkpt>
      <trkpt lat="42.8928" lon="0.20027">
        <ele>2095.4</ele>
        <time>2021-08-19T08:23:31.000Z</time>
      </trkpt>
      <trkpt lat="42.8928" lon="0.20026">
        <ele>2095.5</ele>
        <time>2021-08-19T08:23:32.000Z</time>
      </trkpt>
      <trkpt lat="42.89271" lon="0.20029">
        <ele>2097</ele>
        <time>2021-08-19T08:23:50.000Z</time>
      </trkpt>
      <trkpt lat="42.8927" lon="0.20029">
        <ele>2097</ele>
        <time>2021-08-19T08:23:52.000Z</time>
      </trkpt>
      <trkpt lat="42.8927" lon="0.20029">
        <ele>2097.2</ele>
        <time>2021-08-19T08:23:53.000Z</time>
      </trkpt>
      <trkpt lat="42.89271" lon="0.20033">
        <ele>2099</ele>
        <time>2021-08-19T08:24:06.000Z</time>
      </trkpt>
      <trkpt lat="42.89271" lon="0.20033">
        <ele>2099.2</ele>
        <time>2021-08-19T08:24:07.000Z</time>
      </trkpt>
      <trkpt lat="42.89274" lon="0.20045">
        <ele>2100.8</ele>
        <time>2021-08-19T08:24:21.000Z</time>
      </trkpt>
      <trkpt lat="42.89271" lon="0.20056">
        <ele>2102</ele>
        <time>2021-08-19T08:24:35.000Z</time>
      </trkpt>
      <trkpt lat="42.89268" lon="0.20068">
        <ele>2104.9</ele>
        <time>2021-08-19T08:24:50.000Z</time>
      </trkpt>
      <trkpt lat="42.89261" lon="0.20076">
        <ele>2106.9</ele>
        <time>2021-08-19T08:25:09.000Z</time>
      </trkpt>
      <trkpt lat="42.89252" lon="0.20079">
        <ele>2106.1</ele>
        <time>2021-08-19T08:25:22.000Z</time>
      </trkpt>
      <trkpt lat="42.89242" lon="0.20083">
        <ele>2106</ele>
        <time>2021-08-19T08:25:36.000Z</time>
      </trkpt>
      <trkpt lat="42.89233" lon="0.20087">
        <ele>2106.8</ele>
        <time>2021-08-19T08:25:47.000Z</time>
      </trkpt>
      <trkpt lat="42.89224" lon="0.20084">
        <ele>2107.4</ele>
        <time>2021-08-19T08:25:59.000Z</time>
      </trkpt>
      <trkpt lat="42.89215" lon="0.20087">
        <ele>2106.8</ele>
        <time>2021-08-19T08:26:11.000Z</time>
      </trkpt>
      <trkpt lat="42.89208" lon="0.20094">
        <ele>2106.1</ele>
        <time>2021-08-19T08:26:22.000Z</time>
      </trkpt>
      <trkpt lat="42.892" lon="0.201">
        <ele>2105.6</ele>
        <time>2021-08-19T08:26:34.000Z</time>
      </trkpt>
      <trkpt lat="42.8919" lon="0.201">
        <ele>2106.1</ele>
        <time>2021-08-19T08:26:44.000Z</time>
      </trkpt>
      <trkpt lat="42.8918" lon="0.201">
        <ele>2106.3</ele>
        <time>2021-08-19T08:26:54.000Z</time>
      </trkpt>
      <trkpt lat="42.89171" lon="0.20096">
        <ele>2108.5</ele>
        <time>2021-08-19T08:27:10.000Z</time>
      </trkpt>
      <trkpt lat="42.89162" lon="0.20094">
        <ele>2111.5</ele>
        <time>2021-08-19T08:27:32.000Z</time>
      </trkpt>
      <trkpt lat="42.8916" lon="0.20091">
        <ele>2112.6</ele>
        <time>2021-08-19T08:27:41.000Z</time>
      </trkpt>
      <trkpt lat="42.8916" lon="0.2009">
        <ele>2112.9</ele>
        <time>2021-08-19T08:27:42.000Z</time>
      </trkpt>
      <trkpt lat="42.89152" lon="0.20085">
        <ele>2116.1</ele>
        <time>2021-08-19T08:28:02.000Z</time>
      </trkpt>
      <trkpt lat="42.89143" lon="0.20085">
        <ele>2119.1</ele>
        <time>2021-08-19T08:28:23.000Z</time>
      </trkpt>
      <trkpt lat="42.89138" lon="0.20087">
        <ele>2121.9</ele>
        <time>2021-08-19T08:28:37.000Z</time>
      </trkpt>
      <trkpt lat="42.89138" lon="0.20087">
        <ele>2121.8</ele>
        <time>2021-08-19T08:28:38.000Z</time>
      </trkpt>
      <trkpt lat="42.89134" lon="0.20099">
        <ele>2123.9</ele>
        <time>2021-08-19T08:28:56.000Z</time>
      </trkpt>
      <trkpt lat="42.89127" lon="0.20106">
        <ele>2125.5</ele>
        <time>2021-08-19T08:29:12.000Z</time>
      </trkpt>
      <trkpt lat="42.89127" lon="0.20106">
        <ele>2126</ele>
        <time>2021-08-19T08:29:15.000Z</time>
      </trkpt>
      <trkpt lat="42.89126" lon="0.20106">
        <ele>2126.1</ele>
        <time>2021-08-19T08:29:16.000Z</time>
      </trkpt>
      <trkpt lat="42.89118" lon="0.2011">
        <ele>2129.1</ele>
        <time>2021-08-19T08:29:38.000Z</time>
      </trkpt>
      <trkpt lat="42.89116" lon="0.20122">
        <ele>2130.3</ele>
        <time>2021-08-19T08:29:52.000Z</time>
      </trkpt>
      <trkpt lat="42.89109" lon="0.20131">
        <ele>2133</ele>
        <time>2021-08-19T08:30:08.000Z</time>
      </trkpt>
      <trkpt lat="42.89101" lon="0.20138">
        <ele>2134.4</ele>
        <time>2021-08-19T08:30:22.000Z</time>
      </trkpt>
      <trkpt lat="42.89096" lon="0.20149">
        <ele>2134.7</ele>
        <time>2021-08-19T08:30:41.000Z</time>
      </trkpt>
      <trkpt lat="42.89088" lon="0.20157">
        <ele>2134.5</ele>
        <time>2021-08-19T08:30:55.000Z</time>
      </trkpt>
      <trkpt lat="42.89082" lon="0.20166">
        <ele>2134.6</ele>
        <time>2021-08-19T08:31:09.000Z</time>
      </trkpt>
      <trkpt lat="42.89081" lon="0.20166">
        <ele>2134.7</ele>
        <time>2021-08-19T08:31:12.000Z</time>
      </trkpt>
      <trkpt lat="42.89081" lon="0.20165">
        <ele>2134.4</ele>
        <time>2021-08-19T08:31:14.000Z</time>
      </trkpt>
      <trkpt lat="42.89075" lon="0.20164">
        <ele>2132.5</ele>
        <time>2021-08-19T08:31:29.000Z</time>
      </trkpt>
      <trkpt lat="42.89075" lon="0.20164">
        <ele>2132.5</ele>
        <time>2021-08-19T08:31:33.000Z</time>
      </trkpt>
      <trkpt lat="42.89075" lon="0.20164">
        <ele>2132.6</ele>
        <time>2021-08-19T08:31:35.000Z</time>
      </trkpt>
      <trkpt lat="42.89074" lon="0.20164">
        <ele>2132.5</ele>
        <time>2021-08-19T08:31:38.000Z</time>
      </trkpt>
      <trkpt lat="42.89073" lon="0.20171">
        <ele>2130.6</ele>
        <time>2021-08-19T08:31:50.000Z</time>
      </trkpt>
      <trkpt lat="42.89073" lon="0.20171">
        <ele>2130</ele>
        <time>2021-08-19T08:32:02.000Z</time>
      </trkpt>
      <trkpt lat="42.89073" lon="0.20171">
        <ele>2129.9</ele>
        <time>2021-08-19T08:32:03.000Z</time>
      </trkpt>
      <trkpt lat="42.89073" lon="0.20172">
        <ele>2129.7</ele>
        <time>2021-08-19T08:32:04.000Z</time>
      </trkpt>
      <trkpt lat="42.89071" lon="0.2018">
        <ele>2129</ele>
        <time>2021-08-19T08:32:16.000Z</time>
      </trkpt>
      <trkpt lat="42.89071" lon="0.2018">
        <ele>2128.9</ele>
        <time>2021-08-19T08:32:17.000Z</time>
      </trkpt>
      <trkpt lat="42.89066" lon="0.20191">
        <ele>2128.1</ele>
        <time>2021-08-19T08:32:28.000Z</time>
      </trkpt>
      <trkpt lat="42.89061" lon="0.20202">
        <ele>2129.8</ele>
        <time>2021-08-19T08:32:44.000Z</time>
      </trkpt>
      <trkpt lat="42.89053" lon="0.20208">
        <ele>2132.1</ele>
        <time>2021-08-19T08:33:00.000Z</time>
      </trkpt>
      <trkpt lat="42.89046" lon="0.20218">
        <ele>2132.3</ele>
        <time>2021-08-19T08:33:11.000Z</time>
      </trkpt>
      <trkpt lat="42.89039" lon="0.20227">
        <ele>2131.1</ele>
        <time>2021-08-19T08:33:24.000Z</time>
      </trkpt>
      <trkpt lat="42.8904" lon="0.20238">
        <ele>2130.2</ele>
        <time>2021-08-19T08:33:36.000Z</time>
      </trkpt>
      <trkpt lat="42.8904" lon="0.20238">
        <ele>2130.2</ele>
        <time>2021-08-19T08:33:37.000Z</time>
      </trkpt>
      <trkpt lat="42.89032" lon="0.20245">
        <ele>2128</ele>
        <time>2021-08-19T08:33:53.000Z</time>
      </trkpt>
      <trkpt lat="42.89028" lon="0.20251">
        <ele>2127.6</ele>
        <time>2021-08-19T08:34:03.000Z</time>
      </trkpt>
      <trkpt lat="42.89028" lon="0.20251">
        <ele>2127.5</ele>
        <time>2021-08-19T08:34:04.000Z</time>
      </trkpt>
      <trkpt lat="42.89022" lon="0.20261">
        <ele>2125.9</ele>
        <time>2021-08-19T08:34:17.000Z</time>
      </trkpt>
      <trkpt lat="42.89022" lon="0.20261">
        <ele>2125.8</ele>
        <time>2021-08-19T08:34:19.000Z</time>
      </trkpt>
      <trkpt lat="42.89021" lon="0.20261">
        <ele>2125</ele>
        <time>2021-08-19T08:34:25.000Z</time>
      </trkpt>
      <trkpt lat="42.8902" lon="0.20261">
        <ele>2124.9</ele>
        <time>2021-08-19T08:34:27.000Z</time>
      </trkpt>
      <trkpt lat="42.89017" lon="0.20262">
        <ele>2123.7</ele>
        <time>2021-08-19T08:34:36.000Z</time>
      </trkpt>
      <trkpt lat="42.89017" lon="0.20262">
        <ele>2124.2</ele>
        <time>2021-08-19T08:34:38.000Z</time>
      </trkpt>
      <trkpt lat="42.89016" lon="0.20262">
        <ele>2124.4</ele>
        <time>2021-08-19T08:34:40.000Z</time>
      </trkpt>
      <trkpt lat="42.89016" lon="0.20262">
        <ele>2124.3</ele>
        <time>2021-08-19T08:34:42.000Z</time>
      </trkpt>
      <trkpt lat="42.89008" lon="0.20269">
        <ele>2122.6</ele>
        <time>2021-08-19T08:34:54.000Z</time>
      </trkpt>
      <trkpt lat="42.89" lon="0.20276">
        <ele>2120.1</ele>
        <time>2021-08-19T08:35:09.000Z</time>
      </trkpt>
      <trkpt lat="42.88994" lon="0.20285">
        <ele>2118.7</ele>
        <time>2021-08-19T08:35:20.000Z</time>
      </trkpt>
      <trkpt lat="42.88988" lon="0.20295">
        <ele>2118.4</ele>
        <time>2021-08-19T08:35:30.000Z</time>
      </trkpt>
      <trkpt lat="42.88982" lon="0.20305">
        <ele>2118.3</ele>
        <time>2021-08-19T08:35:42.000Z</time>
      </trkpt>
      <trkpt lat="42.88977" lon="0.20316">
        <ele>2116.2</ele>
        <time>2021-08-19T08:35:59.000Z</time>
      </trkpt>
      <trkpt lat="42.88977" lon="0.20317">
        <ele>2116</ele>
        <time>2021-08-19T08:36:02.000Z</time>
      </trkpt>
      <trkpt lat="42.88977" lon="0.20317">
        <ele>2116</ele>
        <time>2021-08-19T08:36:03.000Z</time>
      </trkpt>
      <trkpt lat="42.88975" lon="0.20319">
        <ele>2115.1</ele>
        <time>2021-08-19T08:36:12.000Z</time>
      </trkpt>
      <trkpt lat="42.88974" lon="0.20319">
        <ele>2115.3</ele>
        <time>2021-08-19T08:36:14.000Z</time>
      </trkpt>
      <trkpt lat="42.88969" lon="0.2033">
        <ele>2112.2</ele>
        <time>2021-08-19T08:36:29.000Z</time>
      </trkpt>
      <trkpt lat="42.88967" lon="0.20337">
        <ele>2111.5</ele>
        <time>2021-08-19T08:36:39.000Z</time>
      </trkpt>
      <trkpt lat="42.88967" lon="0.20336">
        <ele>2111</ele>
        <time>2021-08-19T08:36:40.000Z</time>
      </trkpt>
      <trkpt lat="42.88964" lon="0.20339">
        <ele>2109.4</ele>
        <time>2021-08-19T08:36:50.000Z</time>
      </trkpt>
      <trkpt lat="42.88964" lon="0.20339">
        <ele>2108.5</ele>
        <time>2021-08-19T08:37:00.000Z</time>
      </trkpt>
      <trkpt lat="42.88964" lon="0.20339">
        <ele>2108.4</ele>
        <time>2021-08-19T08:37:02.000Z</time>
      </trkpt>
      <trkpt lat="42.88964" lon="0.2034">
        <ele>2108.6</ele>
        <time>2021-08-19T08:37:05.000Z</time>
      </trkpt>
      <trkpt lat="42.88964" lon="0.2034">
        <ele>2108.7</ele>
        <time>2021-08-19T08:37:06.000Z</time>
      </trkpt>
      <trkpt lat="42.88964" lon="0.2034">
        <ele>2108.6</ele>
        <time>2021-08-19T08:37:08.000Z</time>
      </trkpt>
      <trkpt lat="42.88963" lon="0.20347">
        <ele>2108.1</ele>
        <time>2021-08-19T08:37:20.000Z</time>
      </trkpt>
      <trkpt lat="42.88963" lon="0.20347">
        <ele>2108.1</ele>
        <time>2021-08-19T08:37:21.000Z</time>
      </trkpt>
      <trkpt lat="42.88962" lon="0.2035">
        <ele>2107.7</ele>
        <time>2021-08-19T08:37:26.000Z</time>
      </trkpt>
      <trkpt lat="42.88962" lon="0.2035">
        <ele>2107.6</ele>
        <time>2021-08-19T08:37:27.000Z</time>
      </trkpt>
      <trkpt lat="42.88956" lon="0.20361">
        <ele>2105.1</ele>
        <time>2021-08-19T08:37:44.000Z</time>
      </trkpt>
      <trkpt lat="42.88956" lon="0.20361">
        <ele>2105.4</ele>
        <time>2021-08-19T08:37:47.000Z</time>
      </trkpt>
      <trkpt lat="42.88956" lon="0.20361">
        <ele>2105.4</ele>
        <time>2021-08-19T08:37:48.000Z</time>
      </trkpt>
      <trkpt lat="42.8895" lon="0.2037">
        <ele>2103.6</ele>
        <time>2021-08-19T08:38:04.000Z</time>
      </trkpt>
      <trkpt lat="42.88945" lon="0.20371">
        <ele>2102.1</ele>
        <time>2021-08-19T08:38:17.000Z</time>
      </trkpt>
      <trkpt lat="42.88945" lon="0.20371">
        <ele>2101.4</ele>
        <time>2021-08-19T08:38:20.000Z</time>
      </trkpt>
      <trkpt lat="42.88939" lon="0.20381">
        <ele>2100.6</ele>
        <time>2021-08-19T08:38:36.000Z</time>
      </trkpt>
      <trkpt lat="42.88933" lon="0.20391">
        <ele>2098.9</ele>
        <time>2021-08-19T08:38:51.000Z</time>
      </trkpt>
      <trkpt lat="42.8893" lon="0.20379">
        <ele>2097.1</ele>
        <time>2021-08-19T08:39:06.000Z</time>
      </trkpt>
      <trkpt lat="42.88925" lon="0.2039">
        <ele>2094.6</ele>
        <time>2021-08-19T08:39:20.000Z</time>
      </trkpt>
      <trkpt lat="42.8892" lon="0.20402">
        <ele>2093.4</ele>
        <time>2021-08-19T08:39:32.000Z</time>
      </trkpt>
      <trkpt lat="42.88915" lon="0.20412">
        <ele>2092.9</ele>
        <time>2021-08-19T08:39:42.000Z</time>
      </trkpt>
      <trkpt lat="42.88912" lon="0.20419">
        <ele>2093.6</ele>
        <time>2021-08-19T08:39:52.000Z</time>
      </trkpt>
      <trkpt lat="42.88912" lon="0.20419">
        <ele>2093.8</ele>
        <time>2021-08-19T08:39:53.000Z</time>
      </trkpt>
      <trkpt lat="42.88905" lon="0.20426">
        <ele>2094.6</ele>
        <time>2021-08-19T08:40:06.000Z</time>
      </trkpt>
      <trkpt lat="42.889" lon="0.20437">
        <ele>2095</ele>
        <time>2021-08-19T08:40:15.000Z</time>
      </trkpt>
      <trkpt lat="42.889" lon="0.20449">
        <ele>2094.4</ele>
        <time>2021-08-19T08:40:29.000Z</time>
      </trkpt>
      <trkpt lat="42.88899" lon="0.20462">
        <ele>2094.9</ele>
        <time>2021-08-19T08:40:43.000Z</time>
      </trkpt>
      <trkpt lat="42.88894" lon="0.20472">
        <ele>2093.9</ele>
        <time>2021-08-19T08:40:54.000Z</time>
      </trkpt>
      <trkpt lat="42.88893" lon="0.20475">
        <ele>2093.6</ele>
        <time>2021-08-19T08:41:01.000Z</time>
      </trkpt>
      <trkpt lat="42.88893" lon="0.20475">
        <ele>2094</ele>
        <time>2021-08-19T08:41:14.000Z</time>
      </trkpt>
      <trkpt lat="42.88893" lon="0.20488">
        <ele>2095</ele>
        <time>2021-08-19T08:41:29.000Z</time>
      </trkpt>
      <trkpt lat="42.88887" lon="0.20498">
        <ele>2096.7</ele>
        <time>2021-08-19T08:41:43.000Z</time>
      </trkpt>
      <trkpt lat="42.88882" lon="0.20509">
        <ele>2098.3</ele>
        <time>2021-08-19T08:41:56.000Z</time>
      </trkpt>
      <trkpt lat="42.88875" lon="0.20518">
        <ele>2099.7</ele>
        <time>2021-08-19T08:42:11.000Z</time>
      </trkpt>
      <trkpt lat="42.88866" lon="0.2052">
        <ele>2101</ele>
        <time>2021-08-19T08:42:23.000Z</time>
      </trkpt>
      <trkpt lat="42.88857" lon="0.20515">
        <ele>2101.6</ele>
        <time>2021-08-19T08:42:34.000Z</time>
      </trkpt>
      <trkpt lat="42.88848" lon="0.20513">
        <ele>2102.3</ele>
        <time>2021-08-19T08:42:44.000Z</time>
      </trkpt>
      <trkpt lat="42.88839" lon="0.20514">
        <ele>2102.8</ele>
        <time>2021-08-19T08:43:01.000Z</time>
      </trkpt>
      <trkpt lat="42.8883" lon="0.20519">
        <ele>2102</ele>
        <time>2021-08-19T08:43:15.000Z</time>
      </trkpt>
      <trkpt lat="42.88821" lon="0.20518">
        <ele>2102.5</ele>
        <time>2021-08-19T08:43:25.000Z</time>
      </trkpt>
      <trkpt lat="42.88811" lon="0.20515">
        <ele>2101.8</ele>
        <time>2021-08-19T08:43:34.000Z</time>
      </trkpt>
      <trkpt lat="42.88805" lon="0.20516">
        <ele>2101.3</ele>
        <time>2021-08-19T08:43:42.000Z</time>
      </trkpt>
      <trkpt lat="42.88805" lon="0.20516">
        <ele>2101.3</ele>
        <time>2021-08-19T08:43:44.000Z</time>
      </trkpt>
      <trkpt lat="42.88804" lon="0.20516">
        <ele>2101.3</ele>
        <time>2021-08-19T08:43:49.000Z</time>
      </trkpt>
      <trkpt lat="42.88804" lon="0.20516">
        <ele>2101.4</ele>
        <time>2021-08-19T08:43:51.000Z</time>
      </trkpt>
      <trkpt lat="42.88804" lon="0.20517">
        <ele>2101.3</ele>
        <time>2021-08-19T08:43:52.000Z</time>
      </trkpt>
      <trkpt lat="42.88804" lon="0.20517">
        <ele>2101.2</ele>
        <time>2021-08-19T08:43:53.000Z</time>
      </trkpt>
      <trkpt lat="42.88804" lon="0.20517">
        <ele>2101.3</ele>
        <time>2021-08-19T08:43:54.000Z</time>
      </trkpt>
      <trkpt lat="42.88804" lon="0.20517">
        <ele>2101.6</ele>
        <time>2021-08-19T08:44:03.000Z</time>
      </trkpt>
      <trkpt lat="42.88804" lon="0.20517">
        <ele>2101.6</ele>
        <time>2021-08-19T08:44:04.000Z</time>
      </trkpt>
      <trkpt lat="42.88804" lon="0.20517">
        <ele>2101.1</ele>
        <time>2021-08-19T08:44:15.000Z</time>
      </trkpt>
      <trkpt lat="42.88795" lon="0.20522">
        <ele>2101.4</ele>
        <time>2021-08-19T08:44:29.000Z</time>
      </trkpt>
      <trkpt lat="42.88786" lon="0.20521">
        <ele>2101.6</ele>
        <time>2021-08-19T08:44:39.000Z</time>
      </trkpt>
      <trkpt lat="42.88777" lon="0.20519">
        <ele>2101.5</ele>
        <time>2021-08-19T08:44:50.000Z</time>
      </trkpt>
      <trkpt lat="42.88768" lon="0.2052">
        <ele>2103.5</ele>
        <time>2021-08-19T08:45:09.000Z</time>
      </trkpt>
      <trkpt lat="42.88758" lon="0.2052">
        <ele>2105.9</ele>
        <time>2021-08-19T08:45:27.000Z</time>
      </trkpt>
      <trkpt lat="42.8875" lon="0.20524">
        <ele>2106.4</ele>
        <time>2021-08-19T08:45:43.000Z</time>
      </trkpt>
      <trkpt lat="42.88743" lon="0.20532">
        <ele>2106.7</ele>
        <time>2021-08-19T08:45:58.000Z</time>
      </trkpt>
      <trkpt lat="42.88734" lon="0.20534">
        <ele>2105.4</ele>
        <time>2021-08-19T08:46:11.000Z</time>
      </trkpt>
      <trkpt lat="42.88729" lon="0.20534">
        <ele>2104.3</ele>
        <time>2021-08-19T08:46:20.000Z</time>
      </trkpt>
      <trkpt lat="42.88728" lon="0.20534">
        <ele>2104.4</ele>
        <time>2021-08-19T08:46:21.000Z</time>
      </trkpt>
      <trkpt lat="42.88719" lon="0.20532">
        <ele>2103</ele>
        <time>2021-08-19T08:46:35.000Z</time>
      </trkpt>
      <trkpt lat="42.8871" lon="0.20534">
        <ele>2100.5</ele>
        <time>2021-08-19T08:46:50.000Z</time>
      </trkpt>
      <trkpt lat="42.88701" lon="0.20538">
        <ele>2099.4</ele>
        <time>2021-08-19T08:47:04.000Z</time>
      </trkpt>
      <trkpt lat="42.88692" lon="0.20535">
        <ele>2098.5</ele>
        <time>2021-08-19T08:47:17.000Z</time>
      </trkpt>
      <trkpt lat="42.88683" lon="0.20539">
        <ele>2096.9</ele>
        <time>2021-08-19T08:47:27.000Z</time>
      </trkpt>
      <trkpt lat="42.88674" lon="0.20541">
        <ele>2096</ele>
        <time>2021-08-19T08:47:42.000Z</time>
      </trkpt>
      <trkpt lat="42.88665" lon="0.20541">
        <ele>2094.7</ele>
        <time>2021-08-19T08:47:52.000Z</time>
      </trkpt>
      <trkpt lat="42.88658" lon="0.20548">
        <ele>2094.9</ele>
        <time>2021-08-19T08:48:07.000Z</time>
      </trkpt>
      <trkpt lat="42.88651" lon="0.20559">
        <ele>2095.6</ele>
        <time>2021-08-19T08:48:21.000Z</time>
      </trkpt>
      <trkpt lat="42.88651" lon="0.20559">
        <ele>2095.6</ele>
        <time>2021-08-19T08:48:24.000Z</time>
      </trkpt>
      <trkpt lat="42.88651" lon="0.2056">
        <ele>2095.9</ele>
        <time>2021-08-19T08:48:26.000Z</time>
      </trkpt>
      <trkpt lat="42.88647" lon="0.20571">
        <ele>2097.4</ele>
        <time>2021-08-19T08:48:39.000Z</time>
      </trkpt>
      <trkpt lat="42.88641" lon="0.20581">
        <ele>2096.7</ele>
        <time>2021-08-19T08:48:52.000Z</time>
      </trkpt>
      <trkpt lat="42.88635" lon="0.20591">
        <ele>2096.2</ele>
        <time>2021-08-19T08:49:02.000Z</time>
      </trkpt>
      <trkpt lat="42.88629" lon="0.20601">
        <ele>2097.4</ele>
        <time>2021-08-19T08:49:14.000Z</time>
      </trkpt>
      <trkpt lat="42.88625" lon="0.20613">
        <ele>2099</ele>
        <time>2021-08-19T08:49:26.000Z</time>
      </trkpt>
      <trkpt lat="42.88623" lon="0.2062">
        <ele>2099.8</ele>
        <time>2021-08-19T08:49:36.000Z</time>
      </trkpt>
      <trkpt lat="42.88622" lon="0.2062">
        <ele>2099.8</ele>
        <time>2021-08-19T08:49:37.000Z</time>
      </trkpt>
      <trkpt lat="42.88616" lon="0.20628">
        <ele>2099.9</ele>
        <time>2021-08-19T08:49:54.000Z</time>
      </trkpt>
      <trkpt lat="42.88607" lon="0.20634">
        <ele>2096.8</ele>
        <time>2021-08-19T08:50:10.000Z</time>
      </trkpt>
      <trkpt lat="42.88599" lon="0.20634">
        <ele>2095.9</ele>
        <time>2021-08-19T08:50:26.000Z</time>
      </trkpt>
      <trkpt lat="42.88599" lon="0.20634">
        <ele>2095.6</ele>
        <time>2021-08-19T08:50:28.000Z</time>
      </trkpt>
      <trkpt lat="42.8859" lon="0.20635">
        <ele>2093.2</ele>
        <time>2021-08-19T08:50:41.000Z</time>
      </trkpt>
      <trkpt lat="42.88581" lon="0.20634">
        <ele>2092.6</ele>
        <time>2021-08-19T08:50:52.000Z</time>
      </trkpt>
      <trkpt lat="42.88573" lon="0.20641">
        <ele>2093.4</ele>
        <time>2021-08-19T08:51:08.000Z</time>
      </trkpt>
      <trkpt lat="42.88566" lon="0.2065">
        <ele>2094.2</ele>
        <time>2021-08-19T08:51:19.000Z</time>
      </trkpt>
      <trkpt lat="42.88557" lon="0.20651">
        <ele>2095.5</ele>
        <time>2021-08-19T08:51:28.000Z</time>
      </trkpt>
      <trkpt lat="42.88547" lon="0.20651">
        <ele>2096.3</ele>
        <time>2021-08-19T08:51:38.000Z</time>
      </trkpt>
      <trkpt lat="42.88537" lon="0.20651">
        <ele>2096.5</ele>
        <time>2021-08-19T08:51:48.000Z</time>
      </trkpt>
      <trkpt lat="42.8853" lon="0.20644">
        <ele>2096.7</ele>
        <time>2021-08-19T08:52:04.000Z</time>
      </trkpt>
      <trkpt lat="42.88531" lon="0.20631">
        <ele>2097.4</ele>
        <time>2021-08-19T08:52:23.000Z</time>
      </trkpt>
      <trkpt lat="42.88529" lon="0.20618">
        <ele>2098.4</ele>
        <time>2021-08-19T08:52:35.000Z</time>
      </trkpt>
      <trkpt lat="42.88527" lon="0.20606">
        <ele>2099.7</ele>
        <time>2021-08-19T08:52:51.000Z</time>
      </trkpt>
      <trkpt lat="42.88524" lon="0.20594">
        <ele>2100.9</ele>
        <time>2021-08-19T08:53:05.000Z</time>
      </trkpt>
      <trkpt lat="42.8852" lon="0.20582">
        <ele>2100.7</ele>
        <time>2021-08-19T08:53:16.000Z</time>
      </trkpt>
      <trkpt lat="42.88518" lon="0.2057">
        <ele>2102</ele>
        <time>2021-08-19T08:53:29.000Z</time>
      </trkpt>
      <trkpt lat="42.88516" lon="0.20557">
        <ele>2104.9</ele>
        <time>2021-08-19T08:53:54.000Z</time>
      </trkpt>
      <trkpt lat="42.88507" lon="0.20552">
        <ele>2105</ele>
        <time>2021-08-19T08:54:07.000Z</time>
      </trkpt>
      <trkpt lat="42.88505" lon="0.20554">
        <ele>2104.5</ele>
        <time>2021-08-19T08:54:17.000Z</time>
      </trkpt>
      <trkpt lat="42.88505" lon="0.20555">
        <ele>2104.3</ele>
        <time>2021-08-19T08:54:18.000Z</time>
      </trkpt>
      <trkpt lat="42.88502" lon="0.20555">
        <ele>2103.9</ele>
        <time>2021-08-19T08:54:25.000Z</time>
      </trkpt>
      <trkpt lat="42.88502" lon="0.20555">
        <ele>2104</ele>
        <time>2021-08-19T08:54:26.000Z</time>
      </trkpt>
      <trkpt lat="42.88497" lon="0.2055">
        <ele>2103.7</ele>
        <time>2021-08-19T08:54:37.000Z</time>
      </trkpt>
      <trkpt lat="42.88497" lon="0.2055">
        <ele>2103.7</ele>
        <time>2021-08-19T08:54:38.000Z</time>
      </trkpt>
      <trkpt lat="42.88489" lon="0.20542">
        <ele>2103.5</ele>
        <time>2021-08-19T08:54:48.000Z</time>
      </trkpt>
      <trkpt lat="42.88488" lon="0.20539">
        <ele>2104.2</ele>
        <time>2021-08-19T08:54:58.000Z</time>
      </trkpt>
      <trkpt lat="42.88489" lon="0.20538">
        <ele>2104.4</ele>
        <time>2021-08-19T08:55:04.000Z</time>
      </trkpt>
      <trkpt lat="42.88482" lon="0.20529">
        <ele>2104.2</ele>
        <time>2021-08-19T08:55:22.000Z</time>
      </trkpt>
      <trkpt lat="42.88474" lon="0.20523">
        <ele>2106.8</ele>
        <time>2021-08-19T08:55:40.000Z</time>
      </trkpt>
      <trkpt lat="42.88474" lon="0.20522">
        <ele>2107.3</ele>
        <time>2021-08-19T08:55:43.000Z</time>
      </trkpt>
      <trkpt lat="42.88474" lon="0.20522">
        <ele>2107.9</ele>
        <time>2021-08-19T08:55:48.000Z</time>
      </trkpt>
      <trkpt lat="42.88466" lon="0.20516">
        <ele>2110.6</ele>
        <time>2021-08-19T08:56:07.000Z</time>
      </trkpt>
      <trkpt lat="42.88464" lon="0.20512">
        <ele>2112.9</ele>
        <time>2021-08-19T08:56:17.000Z</time>
      </trkpt>
      <trkpt lat="42.88463" lon="0.20512">
        <ele>2113.2</ele>
        <time>2021-08-19T08:56:18.000Z</time>
      </trkpt>
      <trkpt lat="42.88471" lon="0.20505">
        <ele>2114.5</ele>
        <time>2021-08-19T08:56:29.000Z</time>
      </trkpt>
      <trkpt lat="42.88475" lon="0.20494">
        <ele>2115.6</ele>
        <time>2021-08-19T08:56:39.000Z</time>
      </trkpt>
      <trkpt lat="42.88475" lon="0.20489">
        <ele>2116.8</ele>
        <time>2021-08-19T08:56:47.000Z</time>
      </trkpt>
      <trkpt lat="42.88475" lon="0.20489">
        <ele>2117.1</ele>
        <time>2021-08-19T08:56:50.000Z</time>
      </trkpt>
      <trkpt lat="42.88467" lon="0.20483">
        <ele>2120.3</ele>
        <time>2021-08-19T08:57:15.000Z</time>
      </trkpt>
      <trkpt lat="42.88458" lon="0.20483">
        <ele>2123.6</ele>
        <time>2021-08-19T08:57:31.000Z</time>
      </trkpt>
      <trkpt lat="42.8845" lon="0.20475">
        <ele>2126.2</ele>
        <time>2021-08-19T08:57:49.000Z</time>
      </trkpt>
      <trkpt lat="42.88441" lon="0.2047">
        <ele>2129.3</ele>
        <time>2021-08-19T08:58:08.000Z</time>
      </trkpt>
      <trkpt lat="42.88441" lon="0.20458">
        <ele>2132.9</ele>
        <time>2021-08-19T08:58:30.000Z</time>
      </trkpt>
      <trkpt lat="42.88441" lon="0.20458">
        <ele>2132.9</ele>
        <time>2021-08-19T08:58:32.000Z</time>
      </trkpt>
      <trkpt lat="42.88441" lon="0.20458">
        <ele>2133.2</ele>
        <time>2021-08-19T08:58:34.000Z</time>
      </trkpt>
      <trkpt lat="42.88448" lon="0.20449">
        <ele>2135.7</ele>
        <time>2021-08-19T08:58:48.000Z</time>
      </trkpt>
      <trkpt lat="42.88441" lon="0.20441">
        <ele>2139.4</ele>
        <time>2021-08-19T08:59:15.000Z</time>
      </trkpt>
      <trkpt lat="42.88432" lon="0.20438">
        <ele>2141.6</ele>
        <time>2021-08-19T08:59:31.000Z</time>
      </trkpt>
      <trkpt lat="42.88427" lon="0.20437">
        <ele>2143.4</ele>
        <time>2021-08-19T08:59:41.000Z</time>
      </trkpt>
      <trkpt lat="42.88427" lon="0.20437">
        <ele>2143.6</ele>
        <time>2021-08-19T08:59:42.000Z</time>
      </trkpt>
      <trkpt lat="42.88422" lon="0.20435">
        <ele>2145.9</ele>
        <time>2021-08-19T08:59:54.000Z</time>
      </trkpt>
      <trkpt lat="42.88422" lon="0.20434">
        <ele>2145.8</ele>
        <time>2021-08-19T08:59:55.000Z</time>
      </trkpt>
      <trkpt lat="42.88415" lon="0.20426">
        <ele>2149.4</ele>
        <time>2021-08-19T09:00:12.000Z</time>
      </trkpt>
      <trkpt lat="42.88414" lon="0.20423">
        <ele>2151.2</ele>
        <time>2021-08-19T09:00:23.000Z</time>
      </trkpt>
      <trkpt lat="42.88413" lon="0.20422">
        <ele>2151.3</ele>
        <time>2021-08-19T09:00:24.000Z</time>
      </trkpt>
      <trkpt lat="42.88406" lon="0.20429">
        <ele>2153.2</ele>
        <time>2021-08-19T09:00:41.000Z</time>
      </trkpt>
      <trkpt lat="42.88403" lon="0.20432">
        <ele>2152.9</ele>
        <time>2021-08-19T09:00:49.000Z</time>
      </trkpt>
      <trkpt lat="42.88403" lon="0.20433">
        <ele>2152.6</ele>
        <time>2021-08-19T09:00:50.000Z</time>
      </trkpt>
      <trkpt lat="42.88401" lon="0.20445">
        <ele>2151</ele>
        <time>2021-08-19T09:01:02.000Z</time>
      </trkpt>
      <trkpt lat="42.88394" lon="0.20454">
        <ele>2152.3</ele>
        <time>2021-08-19T09:01:15.000Z</time>
      </trkpt>
      <trkpt lat="42.88394" lon="0.20454">
        <ele>2152.4</ele>
        <time>2021-08-19T09:01:17.000Z</time>
      </trkpt>
      <trkpt lat="42.88394" lon="0.20454">
        <ele>2152.6</ele>
        <time>2021-08-19T09:01:24.000Z</time>
      </trkpt>
      <trkpt lat="42.88388" lon="0.20465">
        <ele>2152.1</ele>
        <time>2021-08-19T09:01:34.000Z</time>
      </trkpt>
      <trkpt lat="42.88387" lon="0.20477">
        <ele>2152.4</ele>
        <time>2021-08-19T09:01:45.000Z</time>
      </trkpt>
      <trkpt lat="42.88385" lon="0.20489">
        <ele>2152</ele>
        <time>2021-08-19T09:01:55.000Z</time>
      </trkpt>
      <trkpt lat="42.88379" lon="0.205">
        <ele>2153.4</ele>
        <time>2021-08-19T09:02:05.000Z</time>
      </trkpt>
      <trkpt lat="42.8837" lon="0.20502">
        <ele>2156.5</ele>
        <time>2021-08-19T09:02:20.000Z</time>
      </trkpt>
      <trkpt lat="42.8837" lon="0.20502">
        <ele>2156.7</ele>
        <time>2021-08-19T09:02:22.000Z</time>
      </trkpt>
      <trkpt lat="42.8837" lon="0.20502">
        <ele>2156.6</ele>
        <time>2021-08-19T09:02:23.000Z</time>
      </trkpt>
      <trkpt lat="42.88362" lon="0.20507">
        <ele>2158.2</ele>
        <time>2021-08-19T09:02:38.000Z</time>
      </trkpt>
      <trkpt lat="42.88362" lon="0.20507">
        <ele>2158.3</ele>
        <time>2021-08-19T09:02:40.000Z</time>
      </trkpt>
      <trkpt lat="42.88362" lon="0.20507">
        <ele>2158.2</ele>
        <time>2021-08-19T09:02:41.000Z</time>
      </trkpt>
      <trkpt lat="42.88362" lon="0.20507">
        <ele>2158.5</ele>
        <time>2021-08-19T09:02:44.000Z</time>
      </trkpt>
      <trkpt lat="42.88352" lon="0.20509">
        <ele>2162</ele>
        <time>2021-08-19T09:03:00.000Z</time>
      </trkpt>
      <trkpt lat="42.88343" lon="0.2051">
        <ele>2164</ele>
        <time>2021-08-19T09:03:17.000Z</time>
      </trkpt>
      <trkpt lat="42.88339" lon="0.20512">
        <ele>2164.7</ele>
        <time>2021-08-19T09:03:23.000Z</time>
      </trkpt>
      <trkpt lat="42.88339" lon="0.20511">
        <ele>2165.2</ele>
        <time>2021-08-19T09:03:25.000Z</time>
      </trkpt>
      <trkpt lat="42.88339" lon="0.2051">
        <ele>2165.5</ele>
        <time>2021-08-19T09:03:28.000Z</time>
      </trkpt>
      <trkpt lat="42.88339" lon="0.2051">
        <ele>2165.6</ele>
        <time>2021-08-19T09:03:29.000Z</time>
      </trkpt>
      <trkpt lat="42.88329" lon="0.2051">
        <ele>2168.1</ele>
        <time>2021-08-19T09:03:49.000Z</time>
      </trkpt>
      <trkpt lat="42.88319" lon="0.20512">
        <ele>2169.4</ele>
        <time>2021-08-19T09:04:02.000Z</time>
      </trkpt>
      <trkpt lat="42.8831" lon="0.20512">
        <ele>2169.9</ele>
        <time>2021-08-19T09:04:12.000Z</time>
      </trkpt>
      <trkpt lat="42.883" lon="0.20512">
        <ele>2171.9</ele>
        <time>2021-08-19T09:04:26.000Z</time>
      </trkpt>
      <trkpt lat="42.88291" lon="0.20515">
        <ele>2171.7</ele>
        <time>2021-08-19T09:04:37.000Z</time>
      </trkpt>
      <trkpt lat="42.88282" lon="0.20519">
        <ele>2172.1</ele>
        <time>2021-08-19T09:04:48.000Z</time>
      </trkpt>
      <trkpt lat="42.88274" lon="0.20513">
        <ele>2173.7</ele>
        <time>2021-08-19T09:05:00.000Z</time>
      </trkpt>
      <trkpt lat="42.88266" lon="0.20506">
        <ele>2174.8</ele>
        <time>2021-08-19T09:05:09.000Z</time>
      </trkpt>
      <trkpt lat="42.88259" lon="0.20497">
        <ele>2176.2</ele>
        <time>2021-08-19T09:05:21.000Z</time>
      </trkpt>
      <trkpt lat="42.88251" lon="0.20491">
        <ele>2177.3</ele>
        <time>2021-08-19T09:05:33.000Z</time>
      </trkpt>
      <trkpt lat="42.88246" lon="0.2048">
        <ele>2178.7</ele>
        <time>2021-08-19T09:05:44.000Z</time>
      </trkpt>
      <trkpt lat="42.88238" lon="0.20471">
        <ele>2180.2</ele>
        <time>2021-08-19T09:05:58.000Z</time>
      </trkpt>
      <trkpt lat="42.88233" lon="0.2046">
        <ele>2182.9</ele>
        <time>2021-08-19T09:06:18.000Z</time>
      </trkpt>
      <trkpt lat="42.8823" lon="0.20448">
        <ele>2185.3</ele>
        <time>2021-08-19T09:06:33.000Z</time>
      </trkpt>
      <trkpt lat="42.88223" lon="0.2044">
        <ele>2186.8</ele>
        <time>2021-08-19T09:06:47.000Z</time>
      </trkpt>
      <trkpt lat="42.88216" lon="0.20431">
        <ele>2188</ele>
        <time>2021-08-19T09:07:02.000Z</time>
      </trkpt>
      <trkpt lat="42.88215" lon="0.2043">
        <ele>2188.6</ele>
        <time>2021-08-19T09:07:07.000Z</time>
      </trkpt>
      <trkpt lat="42.88214" lon="0.2043">
        <ele>2188.8</ele>
        <time>2021-08-19T09:07:10.000Z</time>
      </trkpt>
      <trkpt lat="42.88214" lon="0.2043">
        <ele>2188.8</ele>
        <time>2021-08-19T09:07:13.000Z</time>
      </trkpt>
      <trkpt lat="42.88215" lon="0.2043">
        <ele>2189</ele>
        <time>2021-08-19T09:07:17.000Z</time>
      </trkpt>
      <trkpt lat="42.88206" lon="0.20426">
        <ele>2187.7</ele>
        <time>2021-08-19T09:07:31.000Z</time>
      </trkpt>
      <trkpt lat="42.88198" lon="0.20431">
        <ele>2186.1</ele>
        <time>2021-08-19T09:07:43.000Z</time>
      </trkpt>
      <trkpt lat="42.88191" lon="0.20439">
        <ele>2186</ele>
        <time>2021-08-19T09:07:57.000Z</time>
      </trkpt>
      <trkpt lat="42.88184" lon="0.20448">
        <ele>2186</ele>
        <time>2021-08-19T09:08:12.000Z</time>
      </trkpt>
      <trkpt lat="42.88176" lon="0.20455">
        <ele>2185.6</ele>
        <time>2021-08-19T09:08:27.000Z</time>
      </trkpt>
      <trkpt lat="42.88166" lon="0.20457">
        <ele>2185.8</ele>
        <time>2021-08-19T09:08:39.000Z</time>
      </trkpt>
      <trkpt lat="42.88158" lon="0.2046">
        <ele>2185.5</ele>
        <time>2021-08-19T09:08:55.000Z</time>
      </trkpt>
      <trkpt lat="42.88157" lon="0.2046">
        <ele>2185.1</ele>
        <time>2021-08-19T09:08:59.000Z</time>
      </trkpt>
      <trkpt lat="42.88157" lon="0.20461">
        <ele>2185.3</ele>
        <time>2021-08-19T09:09:00.000Z</time>
      </trkpt>
      <trkpt lat="42.88153" lon="0.20472">
        <ele>2185.5</ele>
        <time>2021-08-19T09:09:16.000Z</time>
      </trkpt>
      <trkpt lat="42.88153" lon="0.20473">
        <ele>2185.2</ele>
        <time>2021-08-19T09:09:19.000Z</time>
      </trkpt>
      <trkpt lat="42.88153" lon="0.20473">
        <ele>2185.4</ele>
        <time>2021-08-19T09:09:22.000Z</time>
      </trkpt>
      <trkpt lat="42.88153" lon="0.20474">
        <ele>2185.4</ele>
        <time>2021-08-19T09:09:25.000Z</time>
      </trkpt>
      <trkpt lat="42.88152" lon="0.20474">
        <ele>2185.4</ele>
        <time>2021-08-19T09:09:26.000Z</time>
      </trkpt>
      <trkpt lat="42.88152" lon="0.20474">
        <ele>2185.4</ele>
        <time>2021-08-19T09:09:27.000Z</time>
      </trkpt>
      <trkpt lat="42.88152" lon="0.20475">
        <ele>2185.4</ele>
        <time>2021-08-19T09:09:28.000Z</time>
      </trkpt>
      <trkpt lat="42.88149" lon="0.20486">
        <ele>2186</ele>
        <time>2021-08-19T09:09:42.000Z</time>
      </trkpt>
      <trkpt lat="42.88145" lon="0.20499">
        <ele>2186.6</ele>
        <time>2021-08-19T09:09:54.000Z</time>
      </trkpt>
      <trkpt lat="42.88139" lon="0.20509">
        <ele>2187</ele>
        <time>2021-08-19T09:10:06.000Z</time>
      </trkpt>
      <trkpt lat="42.88138" lon="0.20511">
        <ele>2186.7</ele>
        <time>2021-08-19T09:10:12.000Z</time>
      </trkpt>
      <trkpt lat="42.88138" lon="0.20511">
        <ele>2187.3</ele>
        <time>2021-08-19T09:10:17.000Z</time>
      </trkpt>
      <trkpt lat="42.88138" lon="0.20511">
        <ele>2187.3</ele>
        <time>2021-08-19T09:10:18.000Z</time>
      </trkpt>
      <trkpt lat="42.88138" lon="0.20512">
        <ele>2187.2</ele>
        <time>2021-08-19T09:10:19.000Z</time>
      </trkpt>
      <trkpt lat="42.88132" lon="0.20522">
        <ele>2188.3</ele>
        <time>2021-08-19T09:10:35.000Z</time>
      </trkpt>
      <trkpt lat="42.88127" lon="0.20531">
        <ele>2189</ele>
        <time>2021-08-19T09:10:52.000Z</time>
      </trkpt>
      <trkpt lat="42.88127" lon="0.20532">
        <ele>2189.4</ele>
        <time>2021-08-19T09:10:53.000Z</time>
      </trkpt>
      <trkpt lat="42.88121" lon="0.20541">
        <ele>2190.7</ele>
        <time>2021-08-19T09:11:06.000Z</time>
      </trkpt>
      <trkpt lat="42.88114" lon="0.20549">
        <ele>2191.3</ele>
        <time>2021-08-19T09:11:18.000Z</time>
      </trkpt>
      <trkpt lat="42.88113" lon="0.20551">
        <ele>2191</ele>
        <time>2021-08-19T09:11:24.000Z</time>
      </trkpt>
      <trkpt lat="42.88113" lon="0.20551">
        <ele>2190.9</ele>
        <time>2021-08-19T09:11:25.000Z</time>
      </trkpt>
      <trkpt lat="42.88114" lon="0.20552">
        <ele>2191.3</ele>
        <time>2021-08-19T09:11:30.000Z</time>
      </trkpt>
      <trkpt lat="42.88114" lon="0.20553">
        <ele>2191.1</ele>
        <time>2021-08-19T09:11:41.000Z</time>
      </trkpt>
      <trkpt lat="42.88114" lon="0.20558">
        <ele>2192.3</ele>
        <time>2021-08-19T09:11:48.000Z</time>
      </trkpt>
      <trkpt lat="42.88114" lon="0.20558">
        <ele>2191.9</ele>
        <time>2021-08-19T09:11:52.000Z</time>
      </trkpt>
      <trkpt lat="42.88115" lon="0.20558">
        <ele>2192</ele>
        <time>2021-08-19T09:12:01.000Z</time>
      </trkpt>
      <trkpt lat="42.88115" lon="0.20558">
        <ele>2192.8</ele>
        <time>2021-08-19T09:12:09.000Z</time>
      </trkpt>
      <trkpt lat="42.88112" lon="0.2055">
        <ele>2193.2</ele>
        <time>2021-08-19T09:12:21.000Z</time>
      </trkpt>
      <trkpt lat="42.88112" lon="0.2055">
        <ele>2192.9</ele>
        <time>2021-08-19T09:12:22.000Z</time>
      </trkpt>
      <trkpt lat="42.8811" lon="0.20552">
        <ele>2193.1</ele>
        <time>2021-08-19T09:12:28.000Z</time>
      </trkpt>
      <trkpt lat="42.8811" lon="0.20552">
        <ele>2193</ele>
        <time>2021-08-19T09:12:29.000Z</time>
      </trkpt>
      <trkpt lat="42.88106" lon="0.20563">
        <ele>2193.1</ele>
        <time>2021-08-19T09:12:45.000Z</time>
      </trkpt>
      <trkpt lat="42.88106" lon="0.20562">
        <ele>2193.2</ele>
        <time>2021-08-19T09:12:46.000Z</time>
      </trkpt>
      <trkpt lat="42.88106" lon="0.20562">
        <ele>2193.4</ele>
        <time>2021-08-19T09:12:47.000Z</time>
      </trkpt>
      <trkpt lat="42.88106" lon="0.20561">
        <ele>2193.6</ele>
        <time>2021-08-19T09:12:56.000Z</time>
      </trkpt>
      <trkpt lat="42.88106" lon="0.20561">
        <ele>2193.6</ele>
        <time>2021-08-19T09:12:57.000Z</time>
      </trkpt>
      <trkpt lat="42.88106" lon="0.20561">
        <ele>2193.3</ele>
        <time>2021-08-19T09:12:59.000Z</time>
      </trkpt>
      <trkpt lat="42.88104" lon="0.20559">
        <ele>2193.4</ele>
        <time>2021-08-19T09:13:05.000Z</time>
      </trkpt>
      <trkpt lat="42.88104" lon="0.20559">
        <ele>2192.6</ele>
        <time>2021-08-19T09:13:07.000Z</time>
      </trkpt>
      <trkpt lat="42.88104" lon="0.20559">
        <ele>2191.9</ele>
        <time>2021-08-19T09:13:10.000Z</time>
      </trkpt>
      <trkpt lat="42.88103" lon="0.20559">
        <ele>2194</ele>
        <time>2021-08-19T09:13:19.000Z</time>
      </trkpt>
      <trkpt lat="42.88103" lon="0.20559">
        <ele>2194</ele>
        <time>2021-08-19T09:13:21.000Z</time>
      </trkpt>
      <trkpt lat="42.88103" lon="0.2056">
        <ele>2193.2</ele>
        <time>2021-08-19T09:13:23.000Z</time>
      </trkpt>
      <trkpt lat="42.88098" lon="0.20563">
        <ele>2194.7</ele>
        <time>2021-08-19T09:13:38.000Z</time>
      </trkpt>
      <trkpt lat="42.88098" lon="0.20564">
        <ele>2195.5</ele>
        <time>2021-08-19T09:13:39.000Z</time>
      </trkpt>
      <trkpt lat="42.8809" lon="0.2057">
        <ele>2196.5</ele>
        <time>2021-08-19T09:13:53.000Z</time>
      </trkpt>
      <trkpt lat="42.88081" lon="0.20573">
        <ele>2199.1</ele>
        <time>2021-08-19T09:14:10.000Z</time>
      </trkpt>
      <trkpt lat="42.88072" lon="0.2057">
        <ele>2200.7</ele>
        <time>2021-08-19T09:14:24.000Z</time>
      </trkpt>
      <trkpt lat="42.88063" lon="0.20566">
        <ele>2200.9</ele>
        <time>2021-08-19T09:14:36.000Z</time>
      </trkpt>
      <trkpt lat="42.88053" lon="0.20564">
        <ele>2201.3</ele>
        <time>2021-08-19T09:14:47.000Z</time>
      </trkpt>
      <trkpt lat="42.88044" lon="0.20566">
        <ele>2201.7</ele>
        <time>2021-08-19T09:14:59.000Z</time>
      </trkpt>
      <trkpt lat="42.88035" lon="0.20568">
        <ele>2202.7</ele>
        <time>2021-08-19T09:15:12.000Z</time>
      </trkpt>
      <trkpt lat="42.88027" lon="0.20575">
        <ele>2202.6</ele>
        <time>2021-08-19T09:15:22.000Z</time>
      </trkpt>
      <trkpt lat="42.88018" lon="0.20579">
        <ele>2201.9</ele>
        <time>2021-08-19T09:15:32.000Z</time>
      </trkpt>
      <trkpt lat="42.88017" lon="0.20577">
        <ele>2201.6</ele>
        <time>2021-08-19T09:15:35.000Z</time>
      </trkpt>
      <trkpt lat="42.88017" lon="0.20576">
        <ele>2201.7</ele>
        <time>2021-08-19T09:15:36.000Z</time>
      </trkpt>
      <trkpt lat="42.8801" lon="0.20572">
        <ele>2203.8</ele>
        <time>2021-08-19T09:15:52.000Z</time>
      </trkpt>
      <trkpt lat="42.88009" lon="0.20571">
        <ele>2203.9</ele>
        <time>2021-08-19T09:15:53.000Z</time>
      </trkpt>
      <trkpt lat="42.88" lon="0.20567">
        <ele>2205.1</ele>
        <time>2021-08-19T09:16:03.000Z</time>
      </trkpt>
      <trkpt lat="42.8799" lon="0.2057">
        <ele>2206</ele>
        <time>2021-08-19T09:16:15.000Z</time>
      </trkpt>
      <trkpt lat="42.87981" lon="0.20568">
        <ele>2206.5</ele>
        <time>2021-08-19T09:16:24.000Z</time>
      </trkpt>
      <trkpt lat="42.87974" lon="0.20561">
        <ele>2206.3</ele>
        <time>2021-08-19T09:16:34.000Z</time>
      </trkpt>
      <trkpt lat="42.87969" lon="0.20551">
        <ele>2205.8</ele>
        <time>2021-08-19T09:16:44.000Z</time>
      </trkpt>
      <trkpt lat="42.87965" lon="0.20539">
        <ele>2205.9</ele>
        <time>2021-08-19T09:16:56.000Z</time>
      </trkpt>
      <trkpt lat="42.87961" lon="0.20527">
        <ele>2206.7</ele>
        <time>2021-08-19T09:17:08.000Z</time>
      </trkpt>
      <trkpt lat="42.87957" lon="0.20516">
        <ele>2208.5</ele>
        <time>2021-08-19T09:17:19.000Z</time>
      </trkpt>
      <trkpt lat="42.87955" lon="0.20504">
        <ele>2210.5</ele>
        <time>2021-08-19T09:17:32.000Z</time>
      </trkpt>
      <trkpt lat="42.87947" lon="0.20498">
        <ele>2210.7</ele>
        <time>2021-08-19T09:17:46.000Z</time>
      </trkpt>
      <trkpt lat="42.87944" lon="0.20491">
        <ele>2210.4</ele>
        <time>2021-08-19T09:17:56.000Z</time>
      </trkpt>
      <trkpt lat="42.87944" lon="0.2049">
        <ele>2210.6</ele>
        <time>2021-08-19T09:17:58.000Z</time>
      </trkpt>
      <trkpt lat="42.87944" lon="0.20478">
        <ele>2212.4</ele>
        <time>2021-08-19T09:18:11.000Z</time>
      </trkpt>
      <trkpt lat="42.8794" lon="0.20467">
        <ele>2216.3</ele>
        <time>2021-08-19T09:18:31.000Z</time>
      </trkpt>
      <trkpt lat="42.87936" lon="0.20455">
        <ele>2218.6</ele>
        <time>2021-08-19T09:18:45.000Z</time>
      </trkpt>
      <trkpt lat="42.87935" lon="0.20442">
        <ele>2220.3</ele>
        <time>2021-08-19T09:19:01.000Z</time>
      </trkpt>
      <trkpt lat="42.8793" lon="0.20431">
        <ele>2222</ele>
        <time>2021-08-19T09:19:18.000Z</time>
      </trkpt>
      <trkpt lat="42.87924" lon="0.20422">
        <ele>2224</ele>
        <time>2021-08-19T09:19:35.000Z</time>
      </trkpt>
      <trkpt lat="42.87915" lon="0.20422">
        <ele>2228.5</ele>
        <time>2021-08-19T09:20:02.000Z</time>
      </trkpt>
      <trkpt lat="42.87916" lon="0.20409">
        <ele>2230.4</ele>
        <time>2021-08-19T09:20:19.000Z</time>
      </trkpt>
      <trkpt lat="42.87916" lon="0.20406">
        <ele>2231.1</ele>
        <time>2021-08-19T09:20:24.000Z</time>
      </trkpt>
      <trkpt lat="42.87916" lon="0.20406">
        <ele>2231.6</ele>
        <time>2021-08-19T09:20:29.000Z</time>
      </trkpt>
      <trkpt lat="42.87911" lon="0.20406">
        <ele>2232.3</ele>
        <time>2021-08-19T09:20:41.000Z</time>
      </trkpt>
      <trkpt lat="42.8791" lon="0.20406">
        <ele>2232.2</ele>
        <time>2021-08-19T09:20:43.000Z</time>
      </trkpt>
      <trkpt lat="42.87901" lon="0.20411">
        <ele>2233.8</ele>
        <time>2021-08-19T09:20:57.000Z</time>
      </trkpt>
      <trkpt lat="42.87895" lon="0.20402">
        <ele>2236.4</ele>
        <time>2021-08-19T09:21:15.000Z</time>
      </trkpt>
      <trkpt lat="42.87886" lon="0.20399">
        <ele>2237.4</ele>
        <time>2021-08-19T09:21:27.000Z</time>
      </trkpt>
      <trkpt lat="42.87877" lon="0.20403">
        <ele>2237.4</ele>
        <time>2021-08-19T09:21:36.000Z</time>
      </trkpt>
      <trkpt lat="42.87868" lon="0.20406">
        <ele>2237.6</ele>
        <time>2021-08-19T09:21:45.000Z</time>
      </trkpt>
      <trkpt lat="42.8786" lon="0.20412">
        <ele>2237.9</ele>
        <time>2021-08-19T09:21:56.000Z</time>
      </trkpt>
      <trkpt lat="42.87854" lon="0.20419">
        <ele>2238.7</ele>
        <time>2021-08-19T09:22:09.000Z</time>
      </trkpt>
      <trkpt lat="42.87853" lon="0.20419">
        <ele>2238.7</ele>
        <time>2021-08-19T09:22:10.000Z</time>
      </trkpt>
      <trkpt lat="42.87851" lon="0.20423">
        <ele>2239.9</ele>
        <time>2021-08-19T09:22:17.000Z</time>
      </trkpt>
      <trkpt lat="42.8785" lon="0.20423">
        <ele>2240</ele>
        <time>2021-08-19T09:22:18.000Z</time>
      </trkpt>
      <trkpt lat="42.87843" lon="0.20432">
        <ele>2241</ele>
        <time>2021-08-19T09:22:27.000Z</time>
      </trkpt>
      <trkpt lat="42.87836" lon="0.20441">
        <ele>2242.8</ele>
        <time>2021-08-19T09:22:36.000Z</time>
      </trkpt>
      <trkpt lat="42.87827" lon="0.20444">
        <ele>2245.5</ele>
        <time>2021-08-19T09:22:50.000Z</time>
      </trkpt>
      <trkpt lat="42.87818" lon="0.20446">
        <ele>2248.3</ele>
        <time>2021-08-19T09:23:09.000Z</time>
      </trkpt>
      <trkpt lat="42.87814" lon="0.20448">
        <ele>2250.4</ele>
        <time>2021-08-19T09:23:23.000Z</time>
      </trkpt>
      <trkpt lat="42.87814" lon="0.20448">
        <ele>2250.6</ele>
        <time>2021-08-19T09:23:25.000Z</time>
      </trkpt>
      <trkpt lat="42.87808" lon="0.20457">
        <ele>2253.5</ele>
        <time>2021-08-19T09:23:42.000Z</time>
      </trkpt>
      <trkpt lat="42.87807" lon="0.20458">
        <ele>2254.5</ele>
        <time>2021-08-19T09:23:48.000Z</time>
      </trkpt>
      <trkpt lat="42.87806" lon="0.20459">
        <ele>2254.5</ele>
        <time>2021-08-19T09:23:49.000Z</time>
      </trkpt>
      <trkpt lat="42.87797" lon="0.20461">
        <ele>2256</ele>
        <time>2021-08-19T09:24:02.000Z</time>
      </trkpt>
      <trkpt lat="42.87787" lon="0.20462">
        <ele>2255.3</ele>
        <time>2021-08-19T09:24:11.000Z</time>
      </trkpt>
      <trkpt lat="42.87778" lon="0.20466">
        <ele>2254.9</ele>
        <time>2021-08-19T09:24:19.000Z</time>
      </trkpt>
      <trkpt lat="42.87771" lon="0.20473">
        <ele>2255.2</ele>
        <time>2021-08-19T09:24:30.000Z</time>
      </trkpt>
      <trkpt lat="42.87763" lon="0.20482">
        <ele>2256.6</ele>
        <time>2021-08-19T09:24:43.000Z</time>
      </trkpt>
      <trkpt lat="42.87757" lon="0.20491">
        <ele>2258.6</ele>
        <time>2021-08-19T09:24:56.000Z</time>
      </trkpt>
      <trkpt lat="42.87749" lon="0.20499">
        <ele>2260.1</ele>
        <time>2021-08-19T09:25:06.000Z</time>
      </trkpt>
      <trkpt lat="42.87742" lon="0.20509">
        <ele>2261.7</ele>
        <time>2021-08-19T09:25:16.000Z</time>
      </trkpt>
      <trkpt lat="42.87733" lon="0.20513">
        <ele>2264.3</ele>
        <time>2021-08-19T09:25:32.000Z</time>
      </trkpt>
      <trkpt lat="42.87725" lon="0.20518">
        <ele>2266.8</ele>
        <time>2021-08-19T09:25:49.000Z</time>
      </trkpt>
      <trkpt lat="42.87717" lon="0.20524">
        <ele>2268.3</ele>
        <time>2021-08-19T09:26:04.000Z</time>
      </trkpt>
      <trkpt lat="42.87714" lon="0.20532">
        <ele>2269.4</ele>
        <time>2021-08-19T09:26:17.000Z</time>
      </trkpt>
      <trkpt lat="42.87713" lon="0.20532">
        <ele>2269.7</ele>
        <time>2021-08-19T09:26:18.000Z</time>
      </trkpt>
      <trkpt lat="42.87708" lon="0.20543">
        <ele>2271.9</ele>
        <time>2021-08-19T09:26:33.000Z</time>
      </trkpt>
      <trkpt lat="42.87701" lon="0.20545">
        <ele>2274.4</ele>
        <time>2021-08-19T09:26:48.000Z</time>
      </trkpt>
      <trkpt lat="42.87701" lon="0.20545">
        <ele>2274.4</ele>
        <time>2021-08-19T09:26:49.000Z</time>
      </trkpt>
      <trkpt lat="42.87696" lon="0.20556">
        <ele>2278.4</ele>
        <time>2021-08-19T09:27:09.000Z</time>
      </trkpt>
      <trkpt lat="42.87692" lon="0.20564">
        <ele>2281</ele>
        <time>2021-08-19T09:27:29.000Z</time>
      </trkpt>
      <trkpt lat="42.87692" lon="0.20564">
        <ele>2281.4</ele>
        <time>2021-08-19T09:27:30.000Z</time>
      </trkpt>
      <trkpt lat="42.87683" lon="0.20569">
        <ele>2284.1</ele>
        <time>2021-08-19T09:27:48.000Z</time>
      </trkpt>
      <trkpt lat="42.87675" lon="0.20576">
        <ele>2284.7</ele>
        <time>2021-08-19T09:27:58.000Z</time>
      </trkpt>
      <trkpt lat="42.87666" lon="0.20578">
        <ele>2285.3</ele>
        <time>2021-08-19T09:28:11.000Z</time>
      </trkpt>
      <trkpt lat="42.87662" lon="0.20579">
        <ele>2285.6</ele>
        <time>2021-08-19T09:28:19.000Z</time>
      </trkpt>
      <trkpt lat="42.87662" lon="0.20579">
        <ele>2285.7</ele>
        <time>2021-08-19T09:28:20.000Z</time>
      </trkpt>
      <trkpt lat="42.87661" lon="0.20581">
        <ele>2287.3</ele>
        <time>2021-08-19T09:28:28.000Z</time>
      </trkpt>
      <trkpt lat="42.87661" lon="0.20582">
        <ele>2287.5</ele>
        <time>2021-08-19T09:28:29.000Z</time>
      </trkpt>
      <trkpt lat="42.87653" lon="0.20587">
        <ele>2289</ele>
        <time>2021-08-19T09:28:46.000Z</time>
      </trkpt>
      <trkpt lat="42.87644" lon="0.2059">
        <ele>2290.4</ele>
        <time>2021-08-19T09:28:58.000Z</time>
      </trkpt>
      <trkpt lat="42.87635" lon="0.20592">
        <ele>2291.1</ele>
        <time>2021-08-19T09:29:09.000Z</time>
      </trkpt>
      <trkpt lat="42.87625" lon="0.20592">
        <ele>2291.6</ele>
        <time>2021-08-19T09:29:22.000Z</time>
      </trkpt>
      <trkpt lat="42.87615" lon="0.20592">
        <ele>2292.9</ele>
        <time>2021-08-19T09:29:33.000Z</time>
      </trkpt>
      <trkpt lat="42.87607" lon="0.20586">
        <ele>2295</ele>
        <time>2021-08-19T09:29:47.000Z</time>
      </trkpt>
      <trkpt lat="42.87606" lon="0.20583">
        <ele>2296.3</ele>
        <time>2021-08-19T09:29:53.000Z</time>
      </trkpt>
      <trkpt lat="42.87606" lon="0.20583">
        <ele>2296.5</ele>
        <time>2021-08-19T09:29:54.000Z</time>
      </trkpt>
      <trkpt lat="42.87598" lon="0.20574">
        <ele>2298.4</ele>
        <time>2021-08-19T09:30:07.000Z</time>
      </trkpt>
      <trkpt lat="42.87594" lon="0.20564">
        <ele>2299.8</ele>
        <time>2021-08-19T09:30:21.000Z</time>
      </trkpt>
      <trkpt lat="42.87587" lon="0.20555">
        <ele>2301.5</ele>
        <time>2021-08-19T09:30:36.000Z</time>
      </trkpt>
      <trkpt lat="42.87578" lon="0.2055">
        <ele>2302.6</ele>
        <time>2021-08-19T09:30:48.000Z</time>
      </trkpt>
      <trkpt lat="42.8757" lon="0.20545">
        <ele>2302.7</ele>
        <time>2021-08-19T09:30:57.000Z</time>
      </trkpt>
      <trkpt lat="42.87561" lon="0.20539">
        <ele>2302.4</ele>
        <time>2021-08-19T09:31:06.000Z</time>
      </trkpt>
      <trkpt lat="42.87552" lon="0.20537">
        <ele>2302.1</ele>
        <time>2021-08-19T09:31:16.000Z</time>
      </trkpt>
      <trkpt lat="42.87543" lon="0.2054">
        <ele>2301.8</ele>
        <time>2021-08-19T09:31:26.000Z</time>
      </trkpt>
      <trkpt lat="42.87535" lon="0.20547">
        <ele>2302.2</ele>
        <time>2021-08-19T09:31:37.000Z</time>
      </trkpt>
      <trkpt lat="42.87526" lon="0.20553">
        <ele>2301.9</ele>
        <time>2021-08-19T09:31:47.000Z</time>
      </trkpt>
      <trkpt lat="42.87517" lon="0.20557">
        <ele>2302</ele>
        <time>2021-08-19T09:31:59.000Z</time>
      </trkpt>
      <trkpt lat="42.8751" lon="0.20563">
        <ele>2302.5</ele>
        <time>2021-08-19T09:32:10.000Z</time>
      </trkpt>
      <trkpt lat="42.87509" lon="0.20564">
        <ele>2302.4</ele>
        <time>2021-08-19T09:32:11.000Z</time>
      </trkpt>
      <trkpt lat="42.875" lon="0.20559">
        <ele>2302.7</ele>
        <time>2021-08-19T09:32:23.000Z</time>
      </trkpt>
      <trkpt lat="42.87491" lon="0.20555">
        <ele>2302.6</ele>
        <time>2021-08-19T09:32:33.000Z</time>
      </trkpt>
      <trkpt lat="42.87483" lon="0.20549">
        <ele>2301.7</ele>
        <time>2021-08-19T09:32:41.000Z</time>
      </trkpt>
      <trkpt lat="42.87474" lon="0.20547">
        <ele>2302.6</ele>
        <time>2021-08-19T09:32:52.000Z</time>
      </trkpt>
      <trkpt lat="42.87466" lon="0.20539">
        <ele>2303.2</ele>
        <time>2021-08-19T09:33:02.000Z</time>
      </trkpt>
      <trkpt lat="42.87458" lon="0.20533">
        <ele>2305.7</ele>
        <time>2021-08-19T09:33:14.000Z</time>
      </trkpt>
      <trkpt lat="42.87448" lon="0.20532">
        <ele>2306</ele>
        <time>2021-08-19T09:33:26.000Z</time>
      </trkpt>
      <trkpt lat="42.87446" lon="0.2052">
        <ele>2307.6</ele>
        <time>2021-08-19T09:33:41.000Z</time>
      </trkpt>
      <trkpt lat="42.87448" lon="0.20515">
        <ele>2309.1</ele>
        <time>2021-08-19T09:33:50.000Z</time>
      </trkpt>
      <trkpt lat="42.87448" lon="0.20514">
        <ele>2309.3</ele>
        <time>2021-08-19T09:33:51.000Z</time>
      </trkpt>
      <trkpt lat="42.87448" lon="0.20513">
        <ele>2309.7</ele>
        <time>2021-08-19T09:33:54.000Z</time>
      </trkpt>
      <trkpt lat="42.87449" lon="0.20513">
        <ele>2310.2</ele>
        <time>2021-08-19T09:33:55.000Z</time>
      </trkpt>
      <trkpt lat="42.87447" lon="0.20507">
        <ele>2312.3</ele>
        <time>2021-08-19T09:34:13.000Z</time>
      </trkpt>
      <trkpt lat="42.87447" lon="0.20507">
        <ele>2313</ele>
        <time>2021-08-19T09:34:15.000Z</time>
      </trkpt>
      <trkpt lat="42.87447" lon="0.20507">
        <ele>2313.2</ele>
        <time>2021-08-19T09:34:17.000Z</time>
      </trkpt>
      <trkpt lat="42.87447" lon="0.20507">
        <ele>2313.1</ele>
        <time>2021-08-19T09:34:19.000Z</time>
      </trkpt>
      <trkpt lat="42.87447" lon="0.20507">
        <ele>2313.5</ele>
        <time>2021-08-19T09:34:20.000Z</time>
      </trkpt>
      <trkpt lat="42.87447" lon="0.20508">
        <ele>2313.7</ele>
        <time>2021-08-19T09:34:21.000Z</time>
      </trkpt>
      <trkpt lat="42.87437" lon="0.2051">
        <ele>2314.8</ele>
        <time>2021-08-19T09:34:33.000Z</time>
      </trkpt>
      <trkpt lat="42.87434" lon="0.2051">
        <ele>2316</ele>
        <time>2021-08-19T09:34:41.000Z</time>
      </trkpt>
      <trkpt lat="42.87433" lon="0.2051">
        <ele>2316</ele>
        <time>2021-08-19T09:34:42.000Z</time>
      </trkpt>
      <trkpt lat="42.87427" lon="0.20519">
        <ele>2317</ele>
        <time>2021-08-19T09:34:52.000Z</time>
      </trkpt>
      <trkpt lat="42.87422" lon="0.20531">
        <ele>2318.7</ele>
        <time>2021-08-19T09:35:03.000Z</time>
      </trkpt>
      <trkpt lat="42.87421" lon="0.20531">
        <ele>2318.5</ele>
        <time>2021-08-19T09:35:05.000Z</time>
      </trkpt>
      <trkpt lat="42.87421" lon="0.20531">
        <ele>2319</ele>
        <time>2021-08-19T09:35:08.000Z</time>
      </trkpt>
      <trkpt lat="42.87421" lon="0.20531">
        <ele>2319.5</ele>
        <time>2021-08-19T09:35:09.000Z</time>
      </trkpt>
      <trkpt lat="42.87421" lon="0.2053">
        <ele>2319.8</ele>
        <time>2021-08-19T09:35:10.000Z</time>
      </trkpt>
      <trkpt lat="42.87414" lon="0.20539">
        <ele>2322.3</ele>
        <time>2021-08-19T09:35:26.000Z</time>
      </trkpt>
      <trkpt lat="42.87409" lon="0.20542">
        <ele>2324</ele>
        <time>2021-08-19T09:35:36.000Z</time>
      </trkpt>
      <trkpt lat="42.87409" lon="0.20542">
        <ele>2324.2</ele>
        <time>2021-08-19T09:35:37.000Z</time>
      </trkpt>
      <trkpt lat="42.87407" lon="0.20544">
        <ele>2326.1</ele>
        <time>2021-08-19T09:35:46.000Z</time>
      </trkpt>
      <trkpt lat="42.87407" lon="0.20544">
        <ele>2326.3</ele>
        <time>2021-08-19T09:35:47.000Z</time>
      </trkpt>
      <trkpt lat="42.87404" lon="0.20546">
        <ele>2328.7</ele>
        <time>2021-08-19T09:35:57.000Z</time>
      </trkpt>
      <trkpt lat="42.87404" lon="0.20546">
        <ele>2328.8</ele>
        <time>2021-08-19T09:35:58.000Z</time>
      </trkpt>
      <trkpt lat="42.87405" lon="0.20547">
        <ele>2329.6</ele>
        <time>2021-08-19T09:36:02.000Z</time>
      </trkpt>
      <trkpt lat="42.87404" lon="0.20547">
        <ele>2329.8</ele>
        <time>2021-08-19T09:36:03.000Z</time>
      </trkpt>
      <trkpt lat="42.87399" lon="0.2055">
        <ele>2333.4</ele>
        <time>2021-08-19T09:36:23.000Z</time>
      </trkpt>
      <trkpt lat="42.87399" lon="0.2055">
        <ele>2333.3</ele>
        <time>2021-08-19T09:36:24.000Z</time>
      </trkpt>
      <trkpt lat="42.87399" lon="0.2055">
        <ele>2334.2</ele>
        <time>2021-08-19T09:36:28.000Z</time>
      </trkpt>
      <trkpt lat="42.87399" lon="0.20551">
        <ele>2334.5</ele>
        <time>2021-08-19T09:36:29.000Z</time>
      </trkpt>
      <trkpt lat="42.8739" lon="0.20556">
        <ele>2336.4</ele>
        <time>2021-08-19T09:36:42.000Z</time>
      </trkpt>
      <trkpt lat="42.87382" lon="0.20561">
        <ele>2336.7</ele>
        <time>2021-08-19T09:36:51.000Z</time>
      </trkpt>
      <trkpt lat="42.87373" lon="0.20563">
        <ele>2337</ele>
        <time>2021-08-19T09:37:00.000Z</time>
      </trkpt>
      <trkpt lat="42.87365" lon="0.20556">
        <ele>2338.1</ele>
        <time>2021-08-19T09:37:13.000Z</time>
      </trkpt>
      <trkpt lat="42.87358" lon="0.20547">
        <ele>2340</ele>
        <time>2021-08-19T09:37:27.000Z</time>
      </trkpt>
      <trkpt lat="42.8735" lon="0.2054">
        <ele>2341</ele>
        <time>2021-08-19T09:37:38.000Z</time>
      </trkpt>
      <trkpt lat="42.87341" lon="0.20536">
        <ele>2342.4</ele>
        <time>2021-08-19T09:37:50.000Z</time>
      </trkpt>
      <trkpt lat="42.87334" lon="0.20546">
        <ele>2343.3</ele>
        <time>2021-08-19T09:38:01.000Z</time>
      </trkpt>
      <trkpt lat="42.87326" lon="0.20551">
        <ele>2344.3</ele>
        <time>2021-08-19T09:38:14.000Z</time>
      </trkpt>
      <trkpt lat="42.87318" lon="0.20543">
        <ele>2348</ele>
        <time>2021-08-19T09:38:31.000Z</time>
      </trkpt>
      <trkpt lat="42.87313" lon="0.20534">
        <ele>2352.1</ele>
        <time>2021-08-19T09:38:52.000Z</time>
      </trkpt>
      <trkpt lat="42.87314" lon="0.20521">
        <ele>2353.9</ele>
        <time>2021-08-19T09:39:06.000Z</time>
      </trkpt>
      <trkpt lat="42.87308" lon="0.20512">
        <ele>2355.8</ele>
        <time>2021-08-19T09:39:23.000Z</time>
      </trkpt>
      <trkpt lat="42.87304" lon="0.205">
        <ele>2357.7</ele>
        <time>2021-08-19T09:39:37.000Z</time>
      </trkpt>
      <trkpt lat="42.87299" lon="0.20498">
        <ele>2360</ele>
        <time>2021-08-19T09:39:51.000Z</time>
      </trkpt>
      <trkpt lat="42.87298" lon="0.20499">
        <ele>2360</ele>
        <time>2021-08-19T09:39:52.000Z</time>
      </trkpt>
      <trkpt lat="42.87293" lon="0.20503">
        <ele>2362.6</ele>
        <time>2021-08-19T09:40:07.000Z</time>
      </trkpt>
      <trkpt lat="42.87292" lon="0.20503">
        <ele>2362.7</ele>
        <time>2021-08-19T09:40:08.000Z</time>
      </trkpt>
      <trkpt lat="42.87285" lon="0.20511">
        <ele>2365.4</ele>
        <time>2021-08-19T09:40:23.000Z</time>
      </trkpt>
      <trkpt lat="42.87285" lon="0.20512">
        <ele>2365.5</ele>
        <time>2021-08-19T09:40:24.000Z</time>
      </trkpt>
      <trkpt lat="42.87285" lon="0.20512">
        <ele>2365.8</ele>
        <time>2021-08-19T09:40:25.000Z</time>
      </trkpt>
      <trkpt lat="42.87288" lon="0.20524">
        <ele>2368.2</ele>
        <time>2021-08-19T09:40:40.000Z</time>
      </trkpt>
      <trkpt lat="42.87291" lon="0.20531">
        <ele>2369.8</ele>
        <time>2021-08-19T09:40:52.000Z</time>
      </trkpt>
      <trkpt lat="42.87291" lon="0.20531">
        <ele>2369.9</ele>
        <time>2021-08-19T09:40:53.000Z</time>
      </trkpt>
      <trkpt lat="42.87282" lon="0.20535">
        <ele>2374.2</ele>
        <time>2021-08-19T09:41:16.000Z</time>
      </trkpt>
      <trkpt lat="42.8728" lon="0.20538">
        <ele>2375.2</ele>
        <time>2021-08-19T09:41:23.000Z</time>
      </trkpt>
      <trkpt lat="42.87279" lon="0.20539">
        <ele>2375.2</ele>
        <time>2021-08-19T09:41:24.000Z</time>
      </trkpt>
      <trkpt lat="42.87279" lon="0.2054">
        <ele>2375.6</ele>
        <time>2021-08-19T09:41:28.000Z</time>
      </trkpt>
      <trkpt lat="42.87279" lon="0.2054">
        <ele>2376</ele>
        <time>2021-08-19T09:41:29.000Z</time>
      </trkpt>
      <trkpt lat="42.87278" lon="0.20541">
        <ele>2376.9</ele>
        <time>2021-08-19T09:41:37.000Z</time>
      </trkpt>
      <trkpt lat="42.87278" lon="0.20541">
        <ele>2377.3</ele>
        <time>2021-08-19T09:41:38.000Z</time>
      </trkpt>
      <trkpt lat="42.87271" lon="0.2055">
        <ele>2377.6</ele>
        <time>2021-08-19T09:41:53.000Z</time>
      </trkpt>
      <trkpt lat="42.87263" lon="0.20544">
        <ele>2377.8</ele>
        <time>2021-08-19T09:42:07.000Z</time>
      </trkpt>
      <trkpt lat="42.87255" lon="0.20537">
        <ele>2378.1</ele>
        <time>2021-08-19T09:42:17.000Z</time>
      </trkpt>
      <trkpt lat="42.87245" lon="0.20534">
        <ele>2378.4</ele>
        <time>2021-08-19T09:42:28.000Z</time>
      </trkpt>
      <trkpt lat="42.87243" lon="0.20533">
        <ele>2378.3</ele>
        <time>2021-08-19T09:42:34.000Z</time>
      </trkpt>
      <trkpt lat="42.87243" lon="0.20533">
        <ele>2378.8</ele>
        <time>2021-08-19T09:42:36.000Z</time>
      </trkpt>
      <trkpt lat="42.8724" lon="0.20531">
        <ele>2379</ele>
        <time>2021-08-19T09:42:43.000Z</time>
      </trkpt>
      <trkpt lat="42.8724" lon="0.20531">
        <ele>2379</ele>
        <time>2021-08-19T09:42:44.000Z</time>
      </trkpt>
      <trkpt lat="42.87232" lon="0.20524">
        <ele>2380</ele>
        <time>2021-08-19T09:42:53.000Z</time>
      </trkpt>
      <trkpt lat="42.87222" lon="0.20522">
        <ele>2380.1</ele>
        <time>2021-08-19T09:43:01.000Z</time>
      </trkpt>
      <trkpt lat="42.87212" lon="0.20524">
        <ele>2380.8</ele>
        <time>2021-08-19T09:43:10.000Z</time>
      </trkpt>
      <trkpt lat="42.87203" lon="0.20528">
        <ele>2380.3</ele>
        <time>2021-08-19T09:43:18.000Z</time>
      </trkpt>
      <trkpt lat="42.87194" lon="0.20536">
        <ele>2379.7</ele>
        <time>2021-08-19T09:43:26.000Z</time>
      </trkpt>
      <trkpt lat="42.87186" lon="0.20541">
        <ele>2379.8</ele>
        <time>2021-08-19T09:43:33.000Z</time>
      </trkpt>
      <trkpt lat="42.87176" lon="0.20542">
        <ele>2381.5</ele>
        <time>2021-08-19T09:43:42.000Z</time>
      </trkpt>
      <trkpt lat="42.87168" lon="0.20535">
        <ele>2382.9</ele>
        <time>2021-08-19T09:43:52.000Z</time>
      </trkpt>
      <trkpt lat="42.8716" lon="0.20528">
        <ele>2383.8</ele>
        <time>2021-08-19T09:44:01.000Z</time>
      </trkpt>
      <trkpt lat="42.87151" lon="0.20529">
        <ele>2383.1</ele>
        <time>2021-08-19T09:44:11.000Z</time>
      </trkpt>
      <trkpt lat="42.87148" lon="0.20532">
        <ele>2382.5</ele>
        <time>2021-08-19T09:44:17.000Z</time>
      </trkpt>
      <trkpt lat="42.87148" lon="0.20532">
        <ele>2382.9</ele>
        <time>2021-08-19T09:44:25.000Z</time>
      </trkpt>
      <trkpt lat="42.87148" lon="0.20532">
        <ele>2382.8</ele>
        <time>2021-08-19T09:44:26.000Z</time>
      </trkpt>
      <trkpt lat="42.87148" lon="0.20532">
        <ele>2382.9</ele>
        <time>2021-08-19T09:44:41.000Z</time>
      </trkpt>
      <trkpt lat="42.87148" lon="0.20532">
        <ele>2383</ele>
        <time>2021-08-19T09:44:42.000Z</time>
      </trkpt>
      <trkpt lat="42.87148" lon="0.20532">
        <ele>2383.2</ele>
        <time>2021-08-19T09:44:48.000Z</time>
      </trkpt>
      <trkpt lat="42.87148" lon="0.20532">
        <ele>2383.3</ele>
        <time>2021-08-19T09:44:49.000Z</time>
      </trkpt>
      <trkpt lat="42.87148" lon="0.20532">
        <ele>2384.2</ele>
        <time>2021-08-19T09:44:59.000Z</time>
      </trkpt>
      <trkpt lat="42.87148" lon="0.20532">
        <ele>2384</ele>
        <time>2021-08-19T09:45:00.000Z</time>
      </trkpt>
      <trkpt lat="42.87147" lon="0.20533">
        <ele>2383.7</ele>
        <time>2021-08-19T09:45:01.000Z</time>
      </trkpt>
      <trkpt lat="42.87147" lon="0.20533">
        <ele>2383.5</ele>
        <time>2021-08-19T09:45:03.000Z</time>
      </trkpt>
      <trkpt lat="42.87146" lon="0.20534">
        <ele>2383.5</ele>
        <time>2021-08-19T09:45:06.000Z</time>
      </trkpt>
      <trkpt lat="42.87138" lon="0.20541">
        <ele>2382.5</ele>
        <time>2021-08-19T09:45:15.000Z</time>
      </trkpt>
      <trkpt lat="42.87129" lon="0.20541">
        <ele>2383.2</ele>
        <time>2021-08-19T09:45:24.000Z</time>
      </trkpt>
      <trkpt lat="42.87119" lon="0.20541">
        <ele>2383.4</ele>
        <time>2021-08-19T09:45:34.000Z</time>
      </trkpt>
      <trkpt lat="42.8711" lon="0.20541">
        <ele>2383.9</ele>
        <time>2021-08-19T09:45:45.000Z</time>
      </trkpt>
      <trkpt lat="42.87101" lon="0.20543">
        <ele>2384.8</ele>
        <time>2021-08-19T09:45:56.000Z</time>
      </trkpt>
      <trkpt lat="42.87091" lon="0.20543">
        <ele>2386.2</ele>
        <time>2021-08-19T09:46:09.000Z</time>
      </trkpt>
      <trkpt lat="42.87091" lon="0.20543">
        <ele>2386.1</ele>
        <time>2021-08-19T09:46:12.000Z</time>
      </trkpt>
      <trkpt lat="42.87091" lon="0.20543">
        <ele>2386</ele>
        <time>2021-08-19T09:46:13.000Z</time>
      </trkpt>
      <trkpt lat="42.87084" lon="0.20552">
        <ele>2385.4</ele>
        <time>2021-08-19T09:46:22.000Z</time>
      </trkpt>
      <trkpt lat="42.87084" lon="0.20551">
        <ele>2385.3</ele>
        <time>2021-08-19T09:46:24.000Z</time>
      </trkpt>
      <trkpt lat="42.87084" lon="0.20552">
        <ele>2385.3</ele>
        <time>2021-08-19T09:46:25.000Z</time>
      </trkpt>
      <trkpt lat="42.87075" lon="0.20559">
        <ele>2384.9</ele>
        <time>2021-08-19T09:46:33.000Z</time>
      </trkpt>
      <trkpt lat="42.87067" lon="0.20567">
        <ele>2384.5</ele>
        <time>2021-08-19T09:46:41.000Z</time>
      </trkpt>
      <trkpt lat="42.8706" lon="0.20574">
        <ele>2384.5</ele>
        <time>2021-08-19T09:46:49.000Z</time>
      </trkpt>
      <trkpt lat="42.87051" lon="0.20578">
        <ele>2384.4</ele>
        <time>2021-08-19T09:46:57.000Z</time>
      </trkpt>
      <trkpt lat="42.87042" lon="0.20581">
        <ele>2385</ele>
        <time>2021-08-19T09:47:05.000Z</time>
      </trkpt>
      <trkpt lat="42.87035" lon="0.2059">
        <ele>2384.5</ele>
        <time>2021-08-19T09:47:15.000Z</time>
      </trkpt>
      <trkpt lat="42.87033" lon="0.20602">
        <ele>2384.9</ele>
        <time>2021-08-19T09:47:28.000Z</time>
      </trkpt>
      <trkpt lat="42.87031" lon="0.20615">
        <ele>2385.5</ele>
        <time>2021-08-19T09:47:41.000Z</time>
      </trkpt>
      <trkpt lat="42.87022" lon="0.20618">
        <ele>2387.8</ele>
        <time>2021-08-19T09:47:53.000Z</time>
      </trkpt>
      <trkpt lat="42.87014" lon="0.20626">
        <ele>2387.6</ele>
        <time>2021-08-19T09:48:02.000Z</time>
      </trkpt>
      <trkpt lat="42.87009" lon="0.20636">
        <ele>2387</ele>
        <time>2021-08-19T09:48:11.000Z</time>
      </trkpt>
      <trkpt lat="42.87004" lon="0.20646">
        <ele>2386.5</ele>
        <time>2021-08-19T09:48:19.000Z</time>
      </trkpt>
      <trkpt lat="42.86996" lon="0.20655">
        <ele>2386.9</ele>
        <time>2021-08-19T09:48:29.000Z</time>
      </trkpt>
      <trkpt lat="42.86989" lon="0.20662">
        <ele>2387.5</ele>
        <time>2021-08-19T09:48:37.000Z</time>
      </trkpt>
      <trkpt lat="42.86984" lon="0.20673">
        <ele>2388.4</ele>
        <time>2021-08-19T09:48:47.000Z</time>
      </trkpt>
      <trkpt lat="42.86978" lon="0.20683">
        <ele>2389.5</ele>
        <time>2021-08-19T09:48:55.000Z</time>
      </trkpt>
      <trkpt lat="42.86974" lon="0.20695">
        <ele>2390.9</ele>
        <time>2021-08-19T09:49:09.000Z</time>
      </trkpt>
      <trkpt lat="42.86968" lon="0.20704">
        <ele>2391.3</ele>
        <time>2021-08-19T09:49:18.000Z</time>
      </trkpt>
      <trkpt lat="42.86966" lon="0.20707">
        <ele>2391.6</ele>
        <time>2021-08-19T09:49:23.000Z</time>
      </trkpt>
      <trkpt lat="42.86965" lon="0.20707">
        <ele>2391.7</ele>
        <time>2021-08-19T09:49:24.000Z</time>
      </trkpt>
      <trkpt lat="42.86956" lon="0.2071">
        <ele>2392.1</ele>
        <time>2021-08-19T09:49:35.000Z</time>
      </trkpt>
      <trkpt lat="42.86947" lon="0.20706">
        <ele>2393.3</ele>
        <time>2021-08-19T09:49:46.000Z</time>
      </trkpt>
      <trkpt lat="42.8694" lon="0.20698">
        <ele>2395.8</ele>
        <time>2021-08-19T09:50:00.000Z</time>
      </trkpt>
      <trkpt lat="42.86933" lon="0.20688">
        <ele>2398.9</ele>
        <time>2021-08-19T09:50:17.000Z</time>
      </trkpt>
      <trkpt lat="42.86923" lon="0.20687">
        <ele>2401.2</ele>
        <time>2021-08-19T09:50:36.000Z</time>
      </trkpt>
      <trkpt lat="42.86914" lon="0.20688">
        <ele>2404.4</ele>
        <time>2021-08-19T09:50:54.000Z</time>
      </trkpt>
      <trkpt lat="42.86907" lon="0.20686">
        <ele>2408.2</ele>
        <time>2021-08-19T09:51:13.000Z</time>
      </trkpt>
      <trkpt lat="42.86906" lon="0.20686">
        <ele>2408.2</ele>
        <time>2021-08-19T09:51:14.000Z</time>
      </trkpt>
      <trkpt lat="42.86898" lon="0.20679">
        <ele>2412.4</ele>
        <time>2021-08-19T09:51:31.000Z</time>
      </trkpt>
      <trkpt lat="42.86897" lon="0.20676">
        <ele>2413.7</ele>
        <time>2021-08-19T09:51:40.000Z</time>
      </trkpt>
      <trkpt lat="42.86896" lon="0.20675">
        <ele>2413.9</ele>
        <time>2021-08-19T09:51:41.000Z</time>
      </trkpt>
      <trkpt lat="42.8689" lon="0.2068">
        <ele>2418.2</ele>
        <time>2021-08-19T09:52:01.000Z</time>
      </trkpt>
      <trkpt lat="42.8689" lon="0.20681">
        <ele>2418.4</ele>
        <time>2021-08-19T09:52:02.000Z</time>
      </trkpt>
      <trkpt lat="42.86884" lon="0.20691">
        <ele>2421.5</ele>
        <time>2021-08-19T09:52:16.000Z</time>
      </trkpt>
      <trkpt lat="42.8688" lon="0.20702">
        <ele>2422.7</ele>
        <time>2021-08-19T09:52:33.000Z</time>
      </trkpt>
      <trkpt lat="42.86878" lon="0.20705">
        <ele>2423.2</ele>
        <time>2021-08-19T09:52:39.000Z</time>
      </trkpt>
      <trkpt lat="42.86878" lon="0.20705">
        <ele>2423.6</ele>
        <time>2021-08-19T09:52:41.000Z</time>
      </trkpt>
      <trkpt lat="42.8687" lon="0.2071">
        <ele>2427.4</ele>
        <time>2021-08-19T09:53:00.000Z</time>
      </trkpt>
      <trkpt lat="42.86866" lon="0.20717">
        <ele>2429</ele>
        <time>2021-08-19T09:53:11.000Z</time>
      </trkpt>
      <trkpt lat="42.86866" lon="0.20717">
        <ele>2429.4</ele>
        <time>2021-08-19T09:53:12.000Z</time>
      </trkpt>
      <trkpt lat="42.86866" lon="0.20716">
        <ele>2430.5</ele>
        <time>2021-08-19T09:53:16.000Z</time>
      </trkpt>
      <trkpt lat="42.86866" lon="0.20716">
        <ele>2430.8</ele>
        <time>2021-08-19T09:53:17.000Z</time>
      </trkpt>
      <trkpt lat="42.86862" lon="0.2071">
        <ele>2434.4</ele>
        <time>2021-08-19T09:53:38.000Z</time>
      </trkpt>
      <trkpt lat="42.86862" lon="0.20709">
        <ele>2435.4</ele>
        <time>2021-08-19T09:53:40.000Z</time>
      </trkpt>
      <trkpt lat="42.86854" lon="0.20716">
        <ele>2437.7</ele>
        <time>2021-08-19T09:53:59.000Z</time>
      </trkpt>
      <trkpt lat="42.86846" lon="0.20722">
        <ele>2441.9</ele>
        <time>2021-08-19T09:54:16.000Z</time>
      </trkpt>
      <trkpt lat="42.86837" lon="0.20718">
        <ele>2444.7</ele>
        <time>2021-08-19T09:54:36.000Z</time>
      </trkpt>
      <trkpt lat="42.86829" lon="0.20723">
        <ele>2446.1</ele>
        <time>2021-08-19T09:54:52.000Z</time>
      </trkpt>
      <trkpt lat="42.86824" lon="0.20733">
        <ele>2447.7</ele>
        <time>2021-08-19T09:55:06.000Z</time>
      </trkpt>
      <trkpt lat="42.86818" lon="0.20724">
        <ele>2450.6</ele>
        <time>2021-08-19T09:55:22.000Z</time>
      </trkpt>
      <trkpt lat="42.86809" lon="0.20726">
        <ele>2451.5</ele>
        <time>2021-08-19T09:55:31.000Z</time>
      </trkpt>
      <trkpt lat="42.86801" lon="0.20719">
        <ele>2454.4</ele>
        <time>2021-08-19T09:55:45.000Z</time>
      </trkpt>
      <trkpt lat="42.86792" lon="0.20717">
        <ele>2457.3</ele>
        <time>2021-08-19T09:56:02.000Z</time>
      </trkpt>
      <trkpt lat="42.86789" lon="0.20715">
        <ele>2458.4</ele>
        <time>2021-08-19T09:56:10.000Z</time>
      </trkpt>
      <trkpt lat="42.86789" lon="0.20715">
        <ele>2458.4</ele>
        <time>2021-08-19T09:56:11.000Z</time>
      </trkpt>
      <trkpt lat="42.86781" lon="0.2071">
        <ele>2461.5</ele>
        <time>2021-08-19T09:56:28.000Z</time>
      </trkpt>
      <trkpt lat="42.86771" lon="0.20711">
        <ele>2464.7</ele>
        <time>2021-08-19T09:56:47.000Z</time>
      </trkpt>
      <trkpt lat="42.86769" lon="0.2071">
        <ele>2465.4</ele>
        <time>2021-08-19T09:56:51.000Z</time>
      </trkpt>
      <trkpt lat="42.86769" lon="0.20711">
        <ele>2465.6</ele>
        <time>2021-08-19T09:56:52.000Z</time>
      </trkpt>
      <trkpt lat="42.86766" lon="0.20713">
        <ele>2467.4</ele>
        <time>2021-08-19T09:57:00.000Z</time>
      </trkpt>
      <trkpt lat="42.86766" lon="0.20713">
        <ele>2467.6</ele>
        <time>2021-08-19T09:57:01.000Z</time>
      </trkpt>
      <trkpt lat="42.86759" lon="0.20706">
        <ele>2471.5</ele>
        <time>2021-08-19T09:57:21.000Z</time>
      </trkpt>
      <trkpt lat="42.86755" lon="0.20705">
        <ele>2475.8</ele>
        <time>2021-08-19T09:57:38.000Z</time>
      </trkpt>
      <trkpt lat="42.86755" lon="0.20704">
        <ele>2475.9</ele>
        <time>2021-08-19T09:57:40.000Z</time>
      </trkpt>
      <trkpt lat="42.8675" lon="0.20702">
        <ele>2478.1</ele>
        <time>2021-08-19T09:57:54.000Z</time>
      </trkpt>
      <trkpt lat="42.8675" lon="0.20702">
        <ele>2478.6</ele>
        <time>2021-08-19T09:57:57.000Z</time>
      </trkpt>
      <trkpt lat="42.86745" lon="0.20701">
        <ele>2480</ele>
        <time>2021-08-19T09:58:06.000Z</time>
      </trkpt>
      <trkpt lat="42.86745" lon="0.20701">
        <ele>2480.5</ele>
        <time>2021-08-19T09:58:42.000Z</time>
      </trkpt>
      <trkpt lat="42.86743" lon="0.20701">
        <ele>2481.8</ele>
        <time>2021-08-19T09:58:51.000Z</time>
      </trkpt>
      <trkpt lat="42.86743" lon="0.20701">
        <ele>2482.1</ele>
        <time>2021-08-19T09:58:52.000Z</time>
      </trkpt>
      <trkpt lat="42.86735" lon="0.20695">
        <ele>2485.2</ele>
        <time>2021-08-19T09:59:06.000Z</time>
      </trkpt>
      <trkpt lat="42.86728" lon="0.20688">
        <ele>2490.1</ele>
        <time>2021-08-19T09:59:26.000Z</time>
      </trkpt>
      <trkpt lat="42.86727" lon="0.20687">
        <ele>2490.9</ele>
        <time>2021-08-19T09:59:30.000Z</time>
      </trkpt>
      <trkpt lat="42.86727" lon="0.20687">
        <ele>2491.2</ele>
        <time>2021-08-19T09:59:31.000Z</time>
      </trkpt>
      <trkpt lat="42.86724" lon="0.20683">
        <ele>2492.7</ele>
        <time>2021-08-19T09:59:42.000Z</time>
      </trkpt>
      <trkpt lat="42.86724" lon="0.20682">
        <ele>2492.9</ele>
        <time>2021-08-19T09:59:43.000Z</time>
      </trkpt>
      <trkpt lat="42.86727" lon="0.20671">
        <ele>2494.8</ele>
        <time>2021-08-19T10:00:00.000Z</time>
      </trkpt>
      <trkpt lat="42.86727" lon="0.20658">
        <ele>2496</ele>
        <time>2021-08-19T10:00:12.000Z</time>
      </trkpt>
      <trkpt lat="42.86721" lon="0.20648">
        <ele>2497.8</ele>
        <time>2021-08-19T10:00:26.000Z</time>
      </trkpt>
      <trkpt lat="42.8672" lon="0.20649">
        <ele>2498</ele>
        <time>2021-08-19T10:00:32.000Z</time>
      </trkpt>
      <trkpt lat="42.86719" lon="0.20649">
        <ele>2498.4</ele>
        <time>2021-08-19T10:00:39.000Z</time>
      </trkpt>
      <trkpt lat="42.86717" lon="0.20646">
        <ele>2499.2</ele>
        <time>2021-08-19T10:00:46.000Z</time>
      </trkpt>
      <trkpt lat="42.86717" lon="0.20646">
        <ele>2499.7</ele>
        <time>2021-08-19T10:00:51.000Z</time>
      </trkpt>
      <trkpt lat="42.86717" lon="0.20646">
        <ele>2499.6</ele>
        <time>2021-08-19T10:00:52.000Z</time>
      </trkpt>
      <trkpt lat="42.86717" lon="0.20646">
        <ele>2499.6</ele>
        <time>2021-08-19T10:00:53.000Z</time>
      </trkpt>
      <trkpt lat="42.86717" lon="0.20645">
        <ele>2499.7</ele>
        <time>2021-08-19T10:00:58.000Z</time>
      </trkpt>
      <trkpt lat="42.86717" lon="0.20645">
        <ele>2499.8</ele>
        <time>2021-08-19T10:00:59.000Z</time>
      </trkpt>
      <trkpt lat="42.86717" lon="0.20645">
        <ele>2499.9</ele>
        <time>2021-08-19T10:01:00.000Z</time>
      </trkpt>
      <trkpt lat="42.86717" lon="0.20646">
        <ele>2499.9</ele>
        <time>2021-08-19T10:01:01.000Z</time>
      </trkpt>
      <trkpt lat="42.86717" lon="0.20648">
        <ele>2499.4</ele>
        <time>2021-08-19T10:01:05.000Z</time>
      </trkpt>
      <trkpt lat="42.86717" lon="0.20648">
        <ele>2499.9</ele>
        <time>2021-08-19T10:01:21.000Z</time>
      </trkpt>
      <trkpt lat="42.86717" lon="0.20648">
        <ele>2500.1</ele>
        <time>2021-08-19T10:01:22.000Z</time>
      </trkpt>
      <trkpt lat="42.86717" lon="0.20648">
        <ele>2499.5</ele>
        <time>2021-08-19T10:01:28.000Z</time>
      </trkpt>
      <trkpt lat="42.86717" lon="0.20649">
        <ele>2499</ele>
        <time>2021-08-19T10:01:31.000Z</time>
      </trkpt>
      <trkpt lat="42.86717" lon="0.2065">
        <ele>2499.1</ele>
        <time>2021-08-19T10:01:48.000Z</time>
      </trkpt>
      <trkpt lat="42.86715" lon="0.20662">
        <ele>2500.2</ele>
        <time>2021-08-19T10:02:00.000Z</time>
      </trkpt>
      <trkpt lat="42.86715" lon="0.20675">
        <ele>2503</ele>
        <time>2021-08-19T10:02:16.000Z</time>
      </trkpt>
      <trkpt lat="42.86715" lon="0.20679">
        <ele>2504.3</ele>
        <time>2021-08-19T10:02:22.000Z</time>
      </trkpt>
      <trkpt lat="42.86714" lon="0.2068">
        <ele>2504.2</ele>
        <time>2021-08-19T10:02:23.000Z</time>
      </trkpt>
      <trkpt lat="42.86713" lon="0.20692">
        <ele>2505.6</ele>
        <time>2021-08-19T10:02:41.000Z</time>
      </trkpt>
      <trkpt lat="42.86712" lon="0.207">
        <ele>2506.8</ele>
        <time>2021-08-19T10:02:52.000Z</time>
      </trkpt>
      <trkpt lat="42.86712" lon="0.207">
        <ele>2507.3</ele>
        <time>2021-08-19T10:02:53.000Z</time>
      </trkpt>
      <trkpt lat="42.86713" lon="0.20713">
        <ele>2508.2</ele>
        <time>2021-08-19T10:03:15.000Z</time>
      </trkpt>
      <trkpt lat="42.86711" lon="0.20725">
        <ele>2509.9</ele>
        <time>2021-08-19T10:03:29.000Z</time>
      </trkpt>
      <trkpt lat="42.86711" lon="0.20728">
        <ele>2512.6</ele>
        <time>2021-08-19T10:03:43.000Z</time>
      </trkpt>
      <trkpt lat="42.86711" lon="0.20729">
        <ele>2512.7</ele>
        <time>2021-08-19T10:03:44.000Z</time>
      </trkpt>
      <trkpt lat="42.86707" lon="0.2074">
        <ele>2517.4</ele>
        <time>2021-08-19T10:04:02.000Z</time>
      </trkpt>
      <trkpt lat="42.86707" lon="0.20742">
        <ele>2518.4</ele>
        <time>2021-08-19T10:04:08.000Z</time>
      </trkpt>
      <trkpt lat="42.86707" lon="0.20742">
        <ele>2518.5</ele>
        <time>2021-08-19T10:04:09.000Z</time>
      </trkpt>
      <trkpt lat="42.86702" lon="0.20753">
        <ele>2523.6</ele>
        <time>2021-08-19T10:04:34.000Z</time>
      </trkpt>
      <trkpt lat="42.86702" lon="0.20765">
        <ele>2529.2</ele>
        <time>2021-08-19T10:05:06.000Z</time>
      </trkpt>
      <trkpt lat="42.867" lon="0.20778">
        <ele>2533.4</ele>
        <time>2021-08-19T10:05:30.000Z</time>
      </trkpt>
      <trkpt lat="42.86697" lon="0.20784">
        <ele>2536</ele>
        <time>2021-08-19T10:05:42.000Z</time>
      </trkpt>
      <trkpt lat="42.86697" lon="0.20785">
        <ele>2536.1</ele>
        <time>2021-08-19T10:05:43.000Z</time>
      </trkpt>
      <trkpt lat="42.86697" lon="0.20788">
        <ele>2536.6</ele>
        <time>2021-08-19T10:05:50.000Z</time>
      </trkpt>
      <trkpt lat="42.86696" lon="0.20789">
        <ele>2536.9</ele>
        <time>2021-08-19T10:05:51.000Z</time>
      </trkpt>
      <trkpt lat="42.86696" lon="0.2079">
        <ele>2537.1</ele>
        <time>2021-08-19T10:05:55.000Z</time>
      </trkpt>
      <trkpt lat="42.86695" lon="0.2079">
        <ele>2536.8</ele>
        <time>2021-08-19T10:05:57.000Z</time>
      </trkpt>
      <trkpt lat="42.86686" lon="0.20791">
        <ele>2540.4</ele>
        <time>2021-08-19T10:06:16.000Z</time>
      </trkpt>
      <trkpt lat="42.86685" lon="0.20795">
        <ele>2543.2</ele>
        <time>2021-08-19T10:06:25.000Z</time>
      </trkpt>
      <trkpt lat="42.86685" lon="0.20796">
        <ele>2543.5</ele>
        <time>2021-08-19T10:06:26.000Z</time>
      </trkpt>
      <trkpt lat="42.86689" lon="0.20802">
        <ele>2545.3</ele>
        <time>2021-08-19T10:06:45.000Z</time>
      </trkpt>
      <trkpt lat="42.86689" lon="0.20802">
        <ele>2545.5</ele>
        <time>2021-08-19T10:06:46.000Z</time>
      </trkpt>
      <trkpt lat="42.86687" lon="0.20813">
        <ele>2550</ele>
        <time>2021-08-19T10:07:12.000Z</time>
      </trkpt>
      <trkpt lat="42.86687" lon="0.20814">
        <ele>2550.4</ele>
        <time>2021-08-19T10:07:14.000Z</time>
      </trkpt>
      <trkpt lat="42.86691" lon="0.20819">
        <ele>2552.2</ele>
        <time>2021-08-19T10:07:30.000Z</time>
      </trkpt>
      <trkpt lat="42.86691" lon="0.20819">
        <ele>2552.6</ele>
        <time>2021-08-19T10:07:32.000Z</time>
      </trkpt>
      <trkpt lat="42.86689" lon="0.20825">
        <ele>2553.3</ele>
        <time>2021-08-19T10:07:43.000Z</time>
      </trkpt>
      <trkpt lat="42.86689" lon="0.20824">
        <ele>2554.2</ele>
        <time>2021-08-19T10:07:46.000Z</time>
      </trkpt>
      <trkpt lat="42.86689" lon="0.20824">
        <ele>2554.4</ele>
        <time>2021-08-19T10:07:47.000Z</time>
      </trkpt>
      <trkpt lat="42.86689" lon="0.20824">
        <ele>2554.2</ele>
        <time>2021-08-19T10:07:49.000Z</time>
      </trkpt>
      <trkpt lat="42.86689" lon="0.20824">
        <ele>2554.2</ele>
        <time>2021-08-19T10:07:50.000Z</time>
      </trkpt>
      <trkpt lat="42.86689" lon="0.20824">
        <ele>2554.4</ele>
        <time>2021-08-19T10:07:54.000Z</time>
      </trkpt>
      <trkpt lat="42.86687" lon="0.20829">
        <ele>2556.4</ele>
        <time>2021-08-19T10:08:09.000Z</time>
      </trkpt>
      <trkpt lat="42.86687" lon="0.2083">
        <ele>2557</ele>
        <time>2021-08-19T10:08:11.000Z</time>
      </trkpt>
      <trkpt lat="42.86691" lon="0.20841">
        <ele>2561</ele>
        <time>2021-08-19T10:08:33.000Z</time>
      </trkpt>
      <trkpt lat="42.86691" lon="0.20841">
        <ele>2561</ele>
        <time>2021-08-19T10:08:34.000Z</time>
      </trkpt>
      <trkpt lat="42.8669" lon="0.20842">
        <ele>2561.4</ele>
        <time>2021-08-19T10:08:35.000Z</time>
      </trkpt>
      <trkpt lat="42.8669" lon="0.20842">
        <ele>2561.8</ele>
        <time>2021-08-19T10:08:37.000Z</time>
      </trkpt>
      <trkpt lat="42.86691" lon="0.20842">
        <ele>2561.7</ele>
        <time>2021-08-19T10:08:38.000Z</time>
      </trkpt>
      <trkpt lat="42.86691" lon="0.20842">
        <ele>2561.6</ele>
        <time>2021-08-19T10:08:39.000Z</time>
      </trkpt>
      <trkpt lat="42.86691" lon="0.20842">
        <ele>2562.4</ele>
        <time>2021-08-19T10:08:47.000Z</time>
      </trkpt>
      <trkpt lat="42.86691" lon="0.20842">
        <ele>2562.5</ele>
        <time>2021-08-19T10:08:48.000Z</time>
      </trkpt>
      <trkpt lat="42.86691" lon="0.20842">
        <ele>2562.6</ele>
        <time>2021-08-19T10:08:56.000Z</time>
      </trkpt>
      <trkpt lat="42.86682" lon="0.20847">
        <ele>2565.7</ele>
        <time>2021-08-19T10:09:21.000Z</time>
      </trkpt>
      <trkpt lat="42.86676" lon="0.20851">
        <ele>2568.7</ele>
        <time>2021-08-19T10:09:38.000Z</time>
      </trkpt>
      <trkpt lat="42.86676" lon="0.20851">
        <ele>2568.8</ele>
        <time>2021-08-19T10:09:39.000Z</time>
      </trkpt>
      <trkpt lat="42.86675" lon="0.20852">
        <ele>2569.8</ele>
        <time>2021-08-19T10:09:45.000Z</time>
      </trkpt>
      <trkpt lat="42.86675" lon="0.20852">
        <ele>2569.9</ele>
        <time>2021-08-19T10:09:46.000Z</time>
      </trkpt>
      <trkpt lat="42.86675" lon="0.20851">
        <ele>2570</ele>
        <time>2021-08-19T10:09:47.000Z</time>
      </trkpt>
      <trkpt lat="42.86675" lon="0.20851">
        <ele>2570.2</ele>
        <time>2021-08-19T10:09:48.000Z</time>
      </trkpt>
      <trkpt lat="42.86675" lon="0.20851">
        <ele>2570.3</ele>
        <time>2021-08-19T10:09:49.000Z</time>
      </trkpt>
      <trkpt lat="42.86675" lon="0.20852">
        <ele>2570.7</ele>
        <time>2021-08-19T10:09:51.000Z</time>
      </trkpt>
      <trkpt lat="42.86674" lon="0.20852">
        <ele>2571.6</ele>
        <time>2021-08-19T10:09:56.000Z</time>
      </trkpt>
      <trkpt lat="42.86674" lon="0.20853">
        <ele>2572.7</ele>
        <time>2021-08-19T10:09:59.000Z</time>
      </trkpt>
      <trkpt lat="42.86672" lon="0.20865">
        <ele>2576.5</ele>
        <time>2021-08-19T10:10:24.000Z</time>
      </trkpt>
      <trkpt lat="42.86672" lon="0.20865">
        <ele>2577</ele>
        <time>2021-08-19T10:10:26.000Z</time>
      </trkpt>
      <trkpt lat="42.86672" lon="0.20865">
        <ele>2577.4</ele>
        <time>2021-08-19T10:10:28.000Z</time>
      </trkpt>
      <trkpt lat="42.86672" lon="0.20865">
        <ele>2577.1</ele>
        <time>2021-08-19T10:10:31.000Z</time>
      </trkpt>
      <trkpt lat="42.86671" lon="0.20865">
        <ele>2578.8</ele>
        <time>2021-08-19T10:10:56.000Z</time>
      </trkpt>
      <trkpt lat="42.86673" lon="0.20877">
        <ele>2581.4</ele>
        <time>2021-08-19T10:11:17.000Z</time>
      </trkpt>
      <trkpt lat="42.86673" lon="0.2088">
        <ele>2582.1</ele>
        <time>2021-08-19T10:11:21.000Z</time>
      </trkpt>
      <trkpt lat="42.86673" lon="0.2088">
        <ele>2582.4</ele>
        <time>2021-08-19T10:11:22.000Z</time>
      </trkpt>
      <trkpt lat="42.86677" lon="0.20888">
        <ele>2585</ele>
        <time>2021-08-19T10:11:42.000Z</time>
      </trkpt>
      <trkpt lat="42.86677" lon="0.20888">
        <ele>2585.1</ele>
        <time>2021-08-19T10:11:43.000Z</time>
      </trkpt>
      <trkpt lat="42.86677" lon="0.20888">
        <ele>2585.3</ele>
        <time>2021-08-19T10:11:44.000Z</time>
      </trkpt>
      <trkpt lat="42.86677" lon="0.20889">
        <ele>2585.6</ele>
        <time>2021-08-19T10:11:46.000Z</time>
      </trkpt>
      <trkpt lat="42.86676" lon="0.20894">
        <ele>2589.5</ele>
        <time>2021-08-19T10:11:58.000Z</time>
      </trkpt>
      <trkpt lat="42.86676" lon="0.20895">
        <ele>2589.7</ele>
        <time>2021-08-19T10:11:59.000Z</time>
      </trkpt>
      <trkpt lat="42.86678" lon="0.209">
        <ele>2592.8</ele>
        <time>2021-08-19T10:12:18.000Z</time>
      </trkpt>
      <trkpt lat="42.86678" lon="0.209">
        <ele>2592.9</ele>
        <time>2021-08-19T10:12:19.000Z</time>
      </trkpt>
      <trkpt lat="42.86678" lon="0.209">
        <ele>2592.9</ele>
        <time>2021-08-19T10:12:20.000Z</time>
      </trkpt>
      <trkpt lat="42.86678" lon="0.209">
        <ele>2594</ele>
        <time>2021-08-19T10:12:32.000Z</time>
      </trkpt>
      <trkpt lat="42.86678" lon="0.209">
        <ele>2594.3</ele>
        <time>2021-08-19T10:12:35.000Z</time>
      </trkpt>
      <trkpt lat="42.86678" lon="0.209">
        <ele>2594.4</ele>
        <time>2021-08-19T10:12:36.000Z</time>
      </trkpt>
      <trkpt lat="42.86673" lon="0.20912">
        <ele>2598.3</ele>
        <time>2021-08-19T10:12:52.000Z</time>
      </trkpt>
      <trkpt lat="42.8667" lon="0.20924">
        <ele>2601.4</ele>
        <time>2021-08-19T10:13:05.000Z</time>
      </trkpt>
      <trkpt lat="42.86667" lon="0.20936">
        <ele>2603</ele>
        <time>2021-08-19T10:13:20.000Z</time>
      </trkpt>
      <trkpt lat="42.86667" lon="0.20938">
        <ele>2603.6</ele>
        <time>2021-08-19T10:13:24.000Z</time>
      </trkpt>
      <trkpt lat="42.86667" lon="0.20938">
        <ele>2603.7</ele>
        <time>2021-08-19T10:13:26.000Z</time>
      </trkpt>
      <trkpt lat="42.86666" lon="0.2094">
        <ele>2604.6</ele>
        <time>2021-08-19T10:13:37.000Z</time>
      </trkpt>
      <trkpt lat="42.86667" lon="0.20941">
        <ele>2605</ele>
        <time>2021-08-19T10:13:40.000Z</time>
      </trkpt>
      <trkpt lat="42.86665" lon="0.20953">
        <ele>2607.5</ele>
        <time>2021-08-19T10:13:57.000Z</time>
      </trkpt>
      <trkpt lat="42.86662" lon="0.20964">
        <ele>2610.9</ele>
        <time>2021-08-19T10:14:16.000Z</time>
      </trkpt>
      <trkpt lat="42.86663" lon="0.20967">
        <ele>2611.8</ele>
        <time>2021-08-19T10:14:24.000Z</time>
      </trkpt>
      <trkpt lat="42.86663" lon="0.20968">
        <ele>2611.8</ele>
        <time>2021-08-19T10:14:25.000Z</time>
      </trkpt>
      <trkpt lat="42.86662" lon="0.20971">
        <ele>2614.8</ele>
        <time>2021-08-19T10:14:39.000Z</time>
      </trkpt>
      <trkpt lat="42.86663" lon="0.20971">
        <ele>2615</ele>
        <time>2021-08-19T10:14:40.000Z</time>
      </trkpt>
      <trkpt lat="42.86658" lon="0.20978">
        <ele>2618.4</ele>
        <time>2021-08-19T10:14:57.000Z</time>
      </trkpt>
      <trkpt lat="42.86658" lon="0.20979">
        <ele>2618.4</ele>
        <time>2021-08-19T10:14:58.000Z</time>
      </trkpt>
      <trkpt lat="42.86652" lon="0.20987">
        <ele>2623</ele>
        <time>2021-08-19T10:15:29.000Z</time>
      </trkpt>
      <trkpt lat="42.86652" lon="0.20987">
        <ele>2623.5</ele>
        <time>2021-08-19T10:15:32.000Z</time>
      </trkpt>
      <trkpt lat="42.86648" lon="0.20987">
        <ele>2625.8</ele>
        <time>2021-08-19T10:15:46.000Z</time>
      </trkpt>
      <trkpt lat="42.86648" lon="0.20987">
        <ele>2626.2</ele>
        <time>2021-08-19T10:15:49.000Z</time>
      </trkpt>
      <trkpt lat="42.86644" lon="0.20989">
        <ele>2628</ele>
        <time>2021-08-19T10:16:01.000Z</time>
      </trkpt>
      <trkpt lat="42.86644" lon="0.20989">
        <ele>2628.2</ele>
        <time>2021-08-19T10:16:03.000Z</time>
      </trkpt>
      <trkpt lat="42.86646" lon="0.20997">
        <ele>2630.7</ele>
        <time>2021-08-19T10:16:21.000Z</time>
      </trkpt>
      <trkpt lat="42.86646" lon="0.20997">
        <ele>2631.2</ele>
        <time>2021-08-19T10:16:22.000Z</time>
      </trkpt>
      <trkpt lat="42.86646" lon="0.20997">
        <ele>2631.4</ele>
        <time>2021-08-19T10:16:24.000Z</time>
      </trkpt>
      <trkpt lat="42.86647" lon="0.20997">
        <ele>2631.6</ele>
        <time>2021-08-19T10:16:25.000Z</time>
      </trkpt>
      <trkpt lat="42.86647" lon="0.20998">
        <ele>2631.7</ele>
        <time>2021-08-19T10:16:27.000Z</time>
      </trkpt>
      <trkpt lat="42.86647" lon="0.20998">
        <ele>2631.7</ele>
        <time>2021-08-19T10:16:28.000Z</time>
      </trkpt>
      <trkpt lat="42.86647" lon="0.20998">
        <ele>2631.9</ele>
        <time>2021-08-19T10:16:29.000Z</time>
      </trkpt>
      <trkpt lat="42.86647" lon="0.20998">
        <ele>2632.8</ele>
        <time>2021-08-19T10:16:34.000Z</time>
      </trkpt>
      <trkpt lat="42.86647" lon="0.21001">
        <ele>2633.9</ele>
        <time>2021-08-19T10:16:41.000Z</time>
      </trkpt>
      <trkpt lat="42.86647" lon="0.21001">
        <ele>2634.4</ele>
        <time>2021-08-19T10:16:43.000Z</time>
      </trkpt>
      <trkpt lat="42.86647" lon="0.21001">
        <ele>2634.3</ele>
        <time>2021-08-19T10:16:46.000Z</time>
      </trkpt>
      <trkpt lat="42.86647" lon="0.21001">
        <ele>2635.4</ele>
        <time>2021-08-19T10:16:49.000Z</time>
      </trkpt>
      <trkpt lat="42.86646" lon="0.21006">
        <ele>2637.9</ele>
        <time>2021-08-19T10:17:03.000Z</time>
      </trkpt>
      <trkpt lat="42.86646" lon="0.21006">
        <ele>2638</ele>
        <time>2021-08-19T10:17:04.000Z</time>
      </trkpt>
      <trkpt lat="42.86644" lon="0.21007">
        <ele>2639.2</ele>
        <time>2021-08-19T10:17:11.000Z</time>
      </trkpt>
      <trkpt lat="42.86643" lon="0.21007">
        <ele>2639.2</ele>
        <time>2021-08-19T10:17:13.000Z</time>
      </trkpt>
      <trkpt lat="42.86636" lon="0.21013">
        <ele>2641.6</ele>
        <time>2021-08-19T10:17:36.000Z</time>
      </trkpt>
      <trkpt lat="42.86635" lon="0.21013">
        <ele>2641.8</ele>
        <time>2021-08-19T10:17:37.000Z</time>
      </trkpt>
      <trkpt lat="42.86635" lon="0.21013">
        <ele>2642</ele>
        <time>2021-08-19T10:17:41.000Z</time>
      </trkpt>
      <trkpt lat="42.86635" lon="0.21013">
        <ele>2642.6</ele>
        <time>2021-08-19T10:18:04.000Z</time>
      </trkpt>
      <trkpt lat="42.86635" lon="0.21017">
        <ele>2643.1</ele>
        <time>2021-08-19T10:18:10.000Z</time>
      </trkpt>
      <trkpt lat="42.86635" lon="0.21017">
        <ele>2643.3</ele>
        <time>2021-08-19T10:18:11.000Z</time>
      </trkpt>
      <trkpt lat="42.86635" lon="0.21017">
        <ele>2643.1</ele>
        <time>2021-08-19T10:18:12.000Z</time>
      </trkpt>
      <trkpt lat="42.86635" lon="0.21017">
        <ele>2643.4</ele>
        <time>2021-08-19T10:18:14.000Z</time>
      </trkpt>
      <trkpt lat="42.86638" lon="0.21026">
        <ele>2647.6</ele>
        <time>2021-08-19T10:18:39.000Z</time>
      </trkpt>
      <trkpt lat="42.86638" lon="0.21025">
        <ele>2649</ele>
        <time>2021-08-19T10:18:44.000Z</time>
      </trkpt>
      <trkpt lat="42.86644" lon="0.21026">
        <ele>2650.9</ele>
        <time>2021-08-19T10:19:04.000Z</time>
      </trkpt>
      <trkpt lat="42.86644" lon="0.21026">
        <ele>2651.7</ele>
        <time>2021-08-19T10:19:07.000Z</time>
      </trkpt>
      <trkpt lat="42.86644" lon="0.21025">
        <ele>2652.2</ele>
        <time>2021-08-19T10:19:12.000Z</time>
      </trkpt>
      <trkpt lat="42.86645" lon="0.21026">
        <ele>2652.9</ele>
        <time>2021-08-19T10:19:20.000Z</time>
      </trkpt>
      <trkpt lat="42.86645" lon="0.21025">
        <ele>2652.7</ele>
        <time>2021-08-19T10:19:21.000Z</time>
      </trkpt>
      <trkpt lat="42.86645" lon="0.21025">
        <ele>2653</ele>
        <time>2021-08-19T10:19:23.000Z</time>
      </trkpt>
      <trkpt lat="42.86652" lon="0.21034">
        <ele>2656.5</ele>
        <time>2021-08-19T10:19:44.000Z</time>
      </trkpt>
      <trkpt lat="42.86652" lon="0.21034">
        <ele>2656.8</ele>
        <time>2021-08-19T10:19:48.000Z</time>
      </trkpt>
      <trkpt lat="42.86652" lon="0.21034">
        <ele>2657.1</ele>
        <time>2021-08-19T10:19:50.000Z</time>
      </trkpt>
      <trkpt lat="42.86652" lon="0.21034">
        <ele>2657.2</ele>
        <time>2021-08-19T10:19:53.000Z</time>
      </trkpt>
      <trkpt lat="42.86652" lon="0.21035">
        <ele>2657.7</ele>
        <time>2021-08-19T10:19:57.000Z</time>
      </trkpt>
      <trkpt lat="42.86652" lon="0.21035">
        <ele>2657.5</ele>
        <time>2021-08-19T10:20:02.000Z</time>
      </trkpt>
      <trkpt lat="42.86652" lon="0.21035">
        <ele>2657.7</ele>
        <time>2021-08-19T10:20:03.000Z</time>
      </trkpt>
      <trkpt lat="42.86651" lon="0.21048">
        <ele>2660.4</ele>
        <time>2021-08-19T10:20:20.000Z</time>
      </trkpt>
      <trkpt lat="42.86653" lon="0.21054">
        <ele>2662.3</ele>
        <time>2021-08-19T10:20:30.000Z</time>
      </trkpt>
      <trkpt lat="42.86653" lon="0.21055">
        <ele>2663.2</ele>
        <time>2021-08-19T10:20:41.000Z</time>
      </trkpt>
      <trkpt lat="42.86653" lon="0.21055">
        <ele>2663</ele>
        <time>2021-08-19T10:20:42.000Z</time>
      </trkpt>
      <trkpt lat="42.86653" lon="0.21055">
        <ele>2663.4</ele>
        <time>2021-08-19T10:20:47.000Z</time>
      </trkpt>
      <trkpt lat="42.86653" lon="0.21067">
        <ele>2665.5</ele>
        <time>2021-08-19T10:21:02.000Z</time>
      </trkpt>
      <trkpt lat="42.86657" lon="0.21079">
        <ele>2667.8</ele>
        <time>2021-08-19T10:21:16.000Z</time>
      </trkpt>
      <trkpt lat="42.86657" lon="0.21086">
        <ele>2668</ele>
        <time>2021-08-19T10:21:31.000Z</time>
      </trkpt>
      <trkpt lat="42.86657" lon="0.21087">
        <ele>2666.9</ele>
        <time>2021-08-19T10:21:36.000Z</time>
      </trkpt>
      <trkpt lat="42.86656" lon="0.21087">
        <ele>2668</ele>
        <time>2021-08-19T10:21:40.000Z</time>
      </trkpt>
      <trkpt lat="42.86656" lon="0.21087">
        <ele>2669.8</ele>
        <time>2021-08-19T10:21:45.000Z</time>
      </trkpt>
      <trkpt lat="42.86656" lon="0.21087">
        <ele>2670.3</ele>
        <time>2021-08-19T10:21:46.000Z</time>
      </trkpt>
      <trkpt lat="42.86656" lon="0.21087">
        <ele>2671</ele>
        <time>2021-08-19T10:21:47.000Z</time>
      </trkpt>
      <trkpt lat="42.86654" lon="0.211">
        <ele>2673.7</ele>
        <time>2021-08-19T10:22:06.000Z</time>
      </trkpt>
      <trkpt lat="42.86653" lon="0.21112">
        <ele>2676.5</ele>
        <time>2021-08-19T10:22:23.000Z</time>
      </trkpt>
      <trkpt lat="42.86644" lon="0.21111">
        <ele>2674.4</ele>
        <time>2021-08-19T10:23:00.000Z</time>
      </trkpt>
      <trkpt lat="42.86644" lon="0.21111">
        <ele>2676.9</ele>
        <time>2021-08-19T10:23:04.000Z</time>
      </trkpt>
      <trkpt lat="42.86644" lon="0.2111">
        <ele>2677.4</ele>
        <time>2021-08-19T10:23:05.000Z</time>
      </trkpt>
      <trkpt lat="42.86643" lon="0.21107">
        <ele>2678.8</ele>
        <time>2021-08-19T10:23:13.000Z</time>
      </trkpt>
      <trkpt lat="42.86643" lon="0.21107">
        <ele>2682.5</ele>
        <time>2021-08-19T10:23:26.000Z</time>
      </trkpt>
      <trkpt lat="42.86641" lon="0.21105">
        <ele>2682.2</ele>
        <time>2021-08-19T10:23:33.000Z</time>
      </trkpt>
      <trkpt lat="42.86641" lon="0.21105">
        <ele>2682.2</ele>
        <time>2021-08-19T10:23:34.000Z</time>
      </trkpt>
      <trkpt lat="42.86641" lon="0.21105">
        <ele>2682.3</ele>
        <time>2021-08-19T10:23:35.000Z</time>
      </trkpt>
      <trkpt lat="42.86641" lon="0.21105">
        <ele>2682.3</ele>
        <time>2021-08-19T10:23:36.000Z</time>
      </trkpt>
      <trkpt lat="42.86641" lon="0.21105">
        <ele>2682.5</ele>
        <time>2021-08-19T10:23:38.000Z</time>
      </trkpt>
      <trkpt lat="42.86641" lon="0.21105">
        <ele>2682</ele>
        <time>2021-08-19T10:23:49.000Z</time>
      </trkpt>
      <trkpt lat="42.86641" lon="0.21105">
        <ele>2681.8</ele>
        <time>2021-08-19T10:23:50.000Z</time>
      </trkpt>
      <trkpt lat="42.86641" lon="0.21105">
        <ele>2682.4</ele>
        <time>2021-08-19T10:24:10.000Z</time>
      </trkpt>
      <trkpt lat="42.86641" lon="0.21105">
        <ele>2682.4</ele>
        <time>2021-08-19T10:24:13.000Z</time>
      </trkpt>
      <trkpt lat="42.86641" lon="0.21105">
        <ele>2682.1</ele>
        <time>2021-08-19T10:24:17.000Z</time>
      </trkpt>
      <trkpt lat="42.8664" lon="0.21104">
        <ele>2680.7</ele>
        <time>2021-08-19T10:24:22.000Z</time>
      </trkpt>
      <trkpt lat="42.86641" lon="0.21103">
        <ele>2680.9</ele>
        <time>2021-08-19T10:24:35.000Z</time>
      </trkpt>
      <trkpt lat="42.8664" lon="0.21102">
        <ele>2681</ele>
        <time>2021-08-19T10:24:37.000Z</time>
      </trkpt>
      <trkpt lat="42.8664" lon="0.21102">
        <ele>2681.1</ele>
        <time>2021-08-19T10:24:41.000Z</time>
      </trkpt>
      <trkpt lat="42.8664" lon="0.21102">
        <ele>2681.1</ele>
        <time>2021-08-19T10:24:42.000Z</time>
      </trkpt>
      <trkpt lat="42.8664" lon="0.21102">
        <ele>2681.3</ele>
        <time>2021-08-19T10:24:47.000Z</time>
      </trkpt>
      <trkpt lat="42.8664" lon="0.21102">
        <ele>2681.3</ele>
        <time>2021-08-19T10:24:49.000Z</time>
      </trkpt>
      <trkpt lat="42.8664" lon="0.21102">
        <ele>2681.2</ele>
        <time>2021-08-19T10:24:52.000Z</time>
      </trkpt>
      <trkpt lat="42.8664" lon="0.21102">
        <ele>2681.7</ele>
        <time>2021-08-19T10:24:54.000Z</time>
      </trkpt>
      <trkpt lat="42.8664" lon="0.21101">
        <ele>2681.6</ele>
        <time>2021-08-19T10:25:09.000Z</time>
      </trkpt>
      <trkpt lat="42.8664" lon="0.21101">
        <ele>2681.9</ele>
        <time>2021-08-19T10:25:10.000Z</time>
      </trkpt>
      <trkpt lat="42.8664" lon="0.21101">
        <ele>2682</ele>
        <time>2021-08-19T10:25:18.000Z</time>
      </trkpt>
      <trkpt lat="42.8664" lon="0.21101">
        <ele>2681.9</ele>
        <time>2021-08-19T10:25:19.000Z</time>
      </trkpt>
      <trkpt lat="42.8664" lon="0.21101">
        <ele>2683.1</ele>
        <time>2021-08-19T10:26:52.000Z</time>
      </trkpt>
      <trkpt lat="42.8664" lon="0.21101">
        <ele>2683</ele>
        <time>2021-08-19T10:26:53.000Z</time>
      </trkpt>
      <trkpt lat="42.8664" lon="0.21101">
        <ele>2682.9</ele>
        <time>2021-08-19T10:27:33.000Z</time>
      </trkpt>
      <trkpt lat="42.8664" lon="0.21101">
        <ele>2682.9</ele>
        <time>2021-08-19T10:27:34.000Z</time>
      </trkpt>
      <trkpt lat="42.8664" lon="0.21101">
        <ele>2683</ele>
        <time>2021-08-19T10:28:25.000Z</time>
      </trkpt>
      <trkpt lat="42.8664" lon="0.21101">
        <ele>2682.9</ele>
        <time>2021-08-19T10:28:26.000Z</time>
      </trkpt>
      <trkpt lat="42.86639" lon="0.21101">
        <ele>2682.8</ele>
        <time>2021-08-19T10:28:39.000Z</time>
      </trkpt>
      <trkpt lat="42.86639" lon="0.21101">
        <ele>2682.9</ele>
        <time>2021-08-19T10:28:40.000Z</time>
      </trkpt>
      <trkpt lat="42.86639" lon="0.21101">
        <ele>2683.4</ele>
        <time>2021-08-19T10:29:26.000Z</time>
      </trkpt>
      <trkpt lat="42.86638" lon="0.21101">
        <ele>2682.4</ele>
        <time>2021-08-19T10:29:31.000Z</time>
      </trkpt>
      <trkpt lat="42.86639" lon="0.21101">
        <ele>2682.3</ele>
        <time>2021-08-19T10:29:32.000Z</time>
      </trkpt>
      <trkpt lat="42.86639" lon="0.21101">
        <ele>2683</ele>
        <time>2021-08-19T10:29:36.000Z</time>
      </trkpt>
      <trkpt lat="42.86639" lon="0.21101">
        <ele>2683.1</ele>
        <time>2021-08-19T10:29:38.000Z</time>
      </trkpt>
      <trkpt lat="42.86639" lon="0.21101">
        <ele>2683.1</ele>
        <time>2021-08-19T10:29:39.000Z</time>
      </trkpt>
      <trkpt lat="42.86639" lon="0.21102">
        <ele>2683.3</ele>
        <time>2021-08-19T10:29:42.000Z</time>
      </trkpt>
      <trkpt lat="42.86644" lon="0.21113">
        <ele>2683.7</ele>
        <time>2021-08-19T10:29:53.000Z</time>
      </trkpt>
      <trkpt lat="42.86652" lon="0.21121">
        <ele>2683</ele>
        <time>2021-08-19T10:30:03.000Z</time>
      </trkpt>
      <trkpt lat="42.86656" lon="0.21132">
        <ele>2681.7</ele>
        <time>2021-08-19T10:30:11.000Z</time>
      </trkpt>
      <trkpt lat="42.86661" lon="0.21143">
        <ele>2682.5</ele>
        <time>2021-08-19T10:30:21.000Z</time>
      </trkpt>
      <trkpt lat="42.86667" lon="0.21153">
        <ele>2682.5</ele>
        <time>2021-08-19T10:30:32.000Z</time>
      </trkpt>
      <trkpt lat="42.86676" lon="0.21152">
        <ele>2681.9</ele>
        <time>2021-08-19T10:30:42.000Z</time>
      </trkpt>
      <trkpt lat="42.86682" lon="0.21156">
        <ele>2683</ele>
        <time>2021-08-19T10:31:04.000Z</time>
      </trkpt>
      <trkpt lat="42.86682" lon="0.21156">
        <ele>2682.9</ele>
        <time>2021-08-19T10:31:05.000Z</time>
      </trkpt>
      <trkpt lat="42.86683" lon="0.21157">
        <ele>2683.1</ele>
        <time>2021-08-19T10:31:07.000Z</time>
      </trkpt>
      <trkpt lat="42.86683" lon="0.21157">
        <ele>2682.4</ele>
        <time>2021-08-19T10:31:17.000Z</time>
      </trkpt>
      <trkpt lat="42.86683" lon="0.21157">
        <ele>2682.3</ele>
        <time>2021-08-19T10:31:18.000Z</time>
      </trkpt>
      <trkpt lat="42.86682" lon="0.21156">
        <ele>2682.2</ele>
        <time>2021-08-19T10:31:20.000Z</time>
      </trkpt>
      <trkpt lat="42.86682" lon="0.21156">
        <ele>2682.2</ele>
        <time>2021-08-19T10:31:21.000Z</time>
      </trkpt>
      <trkpt lat="42.86682" lon="0.21156">
        <ele>2682.5</ele>
        <time>2021-08-19T10:31:24.000Z</time>
      </trkpt>
      <trkpt lat="42.86682" lon="0.21156">
        <ele>2682.8</ele>
        <time>2021-08-19T10:31:25.000Z</time>
      </trkpt>
      <trkpt lat="42.86682" lon="0.21156">
        <ele>2682.4</ele>
        <time>2021-08-19T10:31:55.000Z</time>
      </trkpt>
      <trkpt lat="42.86682" lon="0.21156">
        <ele>2682.4</ele>
        <time>2021-08-19T10:31:56.000Z</time>
      </trkpt>
      <trkpt lat="42.86683" lon="0.21156">
        <ele>2682.5</ele>
        <time>2021-08-19T10:31:57.000Z</time>
      </trkpt>
      <trkpt lat="42.86683" lon="0.21156">
        <ele>2682.6</ele>
        <time>2021-08-19T10:31:58.000Z</time>
      </trkpt>
      <trkpt lat="42.86683" lon="0.21157">
        <ele>2682.3</ele>
        <time>2021-08-19T10:32:08.000Z</time>
      </trkpt>
      <trkpt lat="42.86683" lon="0.21157">
        <ele>2682.4</ele>
        <time>2021-08-19T10:32:09.000Z</time>
      </trkpt>
      <trkpt lat="42.86683" lon="0.21157">
        <ele>2682.4</ele>
        <time>2021-08-19T10:32:18.000Z</time>
      </trkpt>
      <trkpt lat="42.86683" lon="0.21157">
        <ele>2682</ele>
        <time>2021-08-19T10:32:22.000Z</time>
      </trkpt>
      <trkpt lat="42.86682" lon="0.21156">
        <ele>2682.8</ele>
        <time>2021-08-19T10:32:25.000Z</time>
      </trkpt>
      <trkpt lat="42.86682" lon="0.21157">
        <ele>2682.8</ele>
        <time>2021-08-19T10:32:26.000Z</time>
      </trkpt>
      <trkpt lat="42.86682" lon="0.21157">
        <ele>2682.6</ele>
        <time>2021-08-19T10:32:27.000Z</time>
      </trkpt>
      <trkpt lat="42.86682" lon="0.21157">
        <ele>2682.2</ele>
        <time>2021-08-19T10:32:28.000Z</time>
      </trkpt>
      <trkpt lat="42.86682" lon="0.21156">
        <ele>2682</ele>
        <time>2021-08-19T10:32:37.000Z</time>
      </trkpt>
      <trkpt lat="42.86682" lon="0.21155">
        <ele>2682</ele>
        <time>2021-08-19T10:32:39.000Z</time>
      </trkpt>
      <trkpt lat="42.86682" lon="0.21155">
        <ele>2681.5</ele>
        <time>2021-08-19T10:32:40.000Z</time>
      </trkpt>
      <trkpt lat="42.86681" lon="0.21153">
        <ele>2681.2</ele>
        <time>2021-08-19T10:32:46.000Z</time>
      </trkpt>
      <trkpt lat="42.8668" lon="0.21153">
        <ele>2681.9</ele>
        <time>2021-08-19T10:32:59.000Z</time>
      </trkpt>
      <trkpt lat="42.8668" lon="0.21153">
        <ele>2680.6</ele>
        <time>2021-08-19T10:33:00.000Z</time>
      </trkpt>
      <trkpt lat="42.8668" lon="0.21153">
        <ele>2683.4</ele>
        <time>2021-08-19T10:33:08.000Z</time>
      </trkpt>
      <trkpt lat="42.8668" lon="0.21153">
        <ele>2683.1</ele>
        <time>2021-08-19T10:33:09.000Z</time>
      </trkpt>
      <trkpt lat="42.8668" lon="0.21152">
        <ele>2682.8</ele>
        <time>2021-08-19T10:33:10.000Z</time>
      </trkpt>
      <trkpt lat="42.8668" lon="0.21152">
        <ele>2682.6</ele>
        <time>2021-08-19T10:33:11.000Z</time>
      </trkpt>
      <trkpt lat="42.8668" lon="0.21152">
        <ele>2681.5</ele>
        <time>2021-08-19T10:33:27.000Z</time>
      </trkpt>
      <trkpt lat="42.8668" lon="0.21152">
        <ele>2682</ele>
        <time>2021-08-19T10:33:29.000Z</time>
      </trkpt>
      <trkpt lat="42.8668" lon="0.21152">
        <ele>2681.3</ele>
        <time>2021-08-19T10:33:45.000Z</time>
      </trkpt>
      <trkpt lat="42.8668" lon="0.21152">
        <ele>2681.2</ele>
        <time>2021-08-19T10:33:46.000Z</time>
      </trkpt>
      <trkpt lat="42.8668" lon="0.21152">
        <ele>2681.6</ele>
        <time>2021-08-19T10:34:02.000Z</time>
      </trkpt>
      <trkpt lat="42.8668" lon="0.21152">
        <ele>2681.5</ele>
        <time>2021-08-19T10:34:03.000Z</time>
      </trkpt>
      <trkpt lat="42.8668" lon="0.21152">
        <ele>2681.2</ele>
        <time>2021-08-19T10:34:04.000Z</time>
      </trkpt>
      <trkpt lat="42.8668" lon="0.21152">
        <ele>2681.7</ele>
        <time>2021-08-19T10:34:07.000Z</time>
      </trkpt>
      <trkpt lat="42.8668" lon="0.21152">
        <ele>2681.3</ele>
        <time>2021-08-19T10:34:43.000Z</time>
      </trkpt>
      <trkpt lat="42.86681" lon="0.21151">
        <ele>2681.6</ele>
        <time>2021-08-19T10:34:48.000Z</time>
      </trkpt>
      <trkpt lat="42.86681" lon="0.21152">
        <ele>2681.8</ele>
        <time>2021-08-19T10:34:53.000Z</time>
      </trkpt>
      <trkpt lat="42.86678" lon="0.21151">
        <ele>2680.3</ele>
        <time>2021-08-19T10:35:05.000Z</time>
      </trkpt>
      <trkpt lat="42.86678" lon="0.21151">
        <ele>2680.4</ele>
        <time>2021-08-19T10:35:07.000Z</time>
      </trkpt>
      <trkpt lat="42.86677" lon="0.21151">
        <ele>2680.3</ele>
        <time>2021-08-19T10:35:11.000Z</time>
      </trkpt>
      <trkpt lat="42.86677" lon="0.2115">
        <ele>2680.5</ele>
        <time>2021-08-19T10:35:22.000Z</time>
      </trkpt>
      <trkpt lat="42.86672" lon="0.21148">
        <ele>2680.4</ele>
        <time>2021-08-19T10:35:32.000Z</time>
      </trkpt>
      <trkpt lat="42.86673" lon="0.21148">
        <ele>2680.2</ele>
        <time>2021-08-19T10:35:33.000Z</time>
      </trkpt>
      <trkpt lat="42.86673" lon="0.21148">
        <ele>2680</ele>
        <time>2021-08-19T10:35:34.000Z</time>
      </trkpt>
      <trkpt lat="42.86672" lon="0.21148">
        <ele>2679.7</ele>
        <time>2021-08-19T10:35:35.000Z</time>
      </trkpt>
      <trkpt lat="42.86669" lon="0.21146">
        <ele>2679.4</ele>
        <time>2021-08-19T10:35:45.000Z</time>
      </trkpt>
      <trkpt lat="42.86669" lon="0.21146">
        <ele>2679</ele>
        <time>2021-08-19T10:35:54.000Z</time>
      </trkpt>
      <trkpt lat="42.86663" lon="0.21137">
        <ele>2679.1</ele>
        <time>2021-08-19T10:36:08.000Z</time>
      </trkpt>
      <trkpt lat="42.8666" lon="0.21135">
        <ele>2678.7</ele>
        <time>2021-08-19T10:36:14.000Z</time>
      </trkpt>
      <trkpt lat="42.8666" lon="0.21134">
        <ele>2678.6</ele>
        <time>2021-08-19T10:36:16.000Z</time>
      </trkpt>
      <trkpt lat="42.8666" lon="0.21134">
        <ele>2678.4</ele>
        <time>2021-08-19T10:36:17.000Z</time>
      </trkpt>
      <trkpt lat="42.8666" lon="0.21134">
        <ele>2678.4</ele>
        <time>2021-08-19T10:36:23.000Z</time>
      </trkpt>
      <trkpt lat="42.86656" lon="0.21122">
        <ele>2678.7</ele>
        <time>2021-08-19T10:36:39.000Z</time>
      </trkpt>
      <trkpt lat="42.86657" lon="0.21109">
        <ele>2677.2</ele>
        <time>2021-08-19T10:36:49.000Z</time>
      </trkpt>
      <trkpt lat="42.86656" lon="0.21104">
        <ele>2677.1</ele>
        <time>2021-08-19T10:36:56.000Z</time>
      </trkpt>
      <trkpt lat="42.86656" lon="0.21103">
        <ele>2677</ele>
        <time>2021-08-19T10:36:57.000Z</time>
      </trkpt>
      <trkpt lat="42.86655" lon="0.211">
        <ele>2676.1</ele>
        <time>2021-08-19T10:37:04.000Z</time>
      </trkpt>
      <trkpt lat="42.86655" lon="0.21099">
        <ele>2675.9</ele>
        <time>2021-08-19T10:37:16.000Z</time>
      </trkpt>
      <trkpt lat="42.86654" lon="0.21098">
        <ele>2676</ele>
        <time>2021-08-19T10:37:18.000Z</time>
      </trkpt>
      <trkpt lat="42.86654" lon="0.21098">
        <ele>2675.8</ele>
        <time>2021-08-19T10:37:29.000Z</time>
      </trkpt>
      <trkpt lat="42.86654" lon="0.21098">
        <ele>2675.6</ele>
        <time>2021-08-19T10:37:30.000Z</time>
      </trkpt>
      <trkpt lat="42.86654" lon="0.21097">
        <ele>2676.4</ele>
        <time>2021-08-19T10:37:47.000Z</time>
      </trkpt>
      <trkpt lat="42.86654" lon="0.21097">
        <ele>2676.1</ele>
        <time>2021-08-19T10:37:48.000Z</time>
      </trkpt>
      <trkpt lat="42.86654" lon="0.21097">
        <ele>2676</ele>
        <time>2021-08-19T10:37:49.000Z</time>
      </trkpt>
      <trkpt lat="42.86654" lon="0.21093">
        <ele>2675.6</ele>
        <time>2021-08-19T10:37:58.000Z</time>
      </trkpt>
      <trkpt lat="42.86654" lon="0.21092">
        <ele>2675.1</ele>
        <time>2021-08-19T10:38:06.000Z</time>
      </trkpt>
      <trkpt lat="42.86655" lon="0.21086">
        <ele>2674.2</ele>
        <time>2021-08-19T10:38:14.000Z</time>
      </trkpt>
      <trkpt lat="42.86655" lon="0.21085">
        <ele>2674</ele>
        <time>2021-08-19T10:38:15.000Z</time>
      </trkpt>
      <trkpt lat="42.86653" lon="0.21082">
        <ele>2673.7</ele>
        <time>2021-08-19T10:38:21.000Z</time>
      </trkpt>
      <trkpt lat="42.86653" lon="0.21082">
        <ele>2673.1</ele>
        <time>2021-08-19T10:38:37.000Z</time>
      </trkpt>
      <trkpt lat="42.86653" lon="0.21079">
        <ele>2672.6</ele>
        <time>2021-08-19T10:38:45.000Z</time>
      </trkpt>
      <trkpt lat="42.86653" lon="0.21078">
        <ele>2672.4</ele>
        <time>2021-08-19T10:38:46.000Z</time>
      </trkpt>
      <trkpt lat="42.86653" lon="0.21074">
        <ele>2671.4</ele>
        <time>2021-08-19T10:38:52.000Z</time>
      </trkpt>
      <trkpt lat="42.86653" lon="0.21074">
        <ele>2671.1</ele>
        <time>2021-08-19T10:38:53.000Z</time>
      </trkpt>
      <trkpt lat="42.86654" lon="0.21069">
        <ele>2669.5</ele>
        <time>2021-08-19T10:39:05.000Z</time>
      </trkpt>
      <trkpt lat="42.86654" lon="0.21069">
        <ele>2669.2</ele>
        <time>2021-08-19T10:39:10.000Z</time>
      </trkpt>
      <trkpt lat="42.86654" lon="0.21069">
        <ele>2669</ele>
        <time>2021-08-19T10:39:11.000Z</time>
      </trkpt>
      <trkpt lat="42.86653" lon="0.21069">
        <ele>2669</ele>
        <time>2021-08-19T10:39:19.000Z</time>
      </trkpt>
      <trkpt lat="42.86653" lon="0.21069">
        <ele>2669</ele>
        <time>2021-08-19T10:39:20.000Z</time>
      </trkpt>
      <trkpt lat="42.86653" lon="0.21069">
        <ele>2668.8</ele>
        <time>2021-08-19T10:39:23.000Z</time>
      </trkpt>
      <trkpt lat="42.86653" lon="0.21069">
        <ele>2668.7</ele>
        <time>2021-08-19T10:39:24.000Z</time>
      </trkpt>
      <trkpt lat="42.86653" lon="0.21069">
        <ele>2668.6</ele>
        <time>2021-08-19T10:39:26.000Z</time>
      </trkpt>
      <trkpt lat="42.86653" lon="0.21068">
        <ele>2668.8</ele>
        <time>2021-08-19T10:39:29.000Z</time>
      </trkpt>
      <trkpt lat="42.86653" lon="0.21068">
        <ele>2668.6</ele>
        <time>2021-08-19T10:39:30.000Z</time>
      </trkpt>
      <trkpt lat="42.86653" lon="0.21068">
        <ele>2668.5</ele>
        <time>2021-08-19T10:39:31.000Z</time>
      </trkpt>
      <trkpt lat="42.86653" lon="0.21068">
        <ele>2668.4</ele>
        <time>2021-08-19T10:39:33.000Z</time>
      </trkpt>
      <trkpt lat="42.86653" lon="0.21054">
        <ele>2665.8</ele>
        <time>2021-08-19T10:39:49.000Z</time>
      </trkpt>
      <trkpt lat="42.86652" lon="0.21042">
        <ele>2663.6</ele>
        <time>2021-08-19T10:40:01.000Z</time>
      </trkpt>
      <trkpt lat="42.86652" lon="0.21042">
        <ele>2663.5</ele>
        <time>2021-08-19T10:40:02.000Z</time>
      </trkpt>
      <trkpt lat="42.86652" lon="0.21042">
        <ele>2664.1</ele>
        <time>2021-08-19T10:40:10.000Z</time>
      </trkpt>
      <trkpt lat="42.86652" lon="0.21042">
        <ele>2663.9</ele>
        <time>2021-08-19T10:40:11.000Z</time>
      </trkpt>
      <trkpt lat="42.86652" lon="0.21043">
        <ele>2664</ele>
        <time>2021-08-19T10:40:14.000Z</time>
      </trkpt>
      <trkpt lat="42.86652" lon="0.21044">
        <ele>2663.5</ele>
        <time>2021-08-19T10:40:18.000Z</time>
      </trkpt>
      <trkpt lat="42.86652" lon="0.21044">
        <ele>2663.8</ele>
        <time>2021-08-19T10:40:21.000Z</time>
      </trkpt>
      <trkpt lat="42.86652" lon="0.21044">
        <ele>2663.8</ele>
        <time>2021-08-19T10:40:22.000Z</time>
      </trkpt>
      <trkpt lat="42.86652" lon="0.21044">
        <ele>2663.6</ele>
        <time>2021-08-19T10:40:28.000Z</time>
      </trkpt>
      <trkpt lat="42.86652" lon="0.21045">
        <ele>2663.7</ele>
        <time>2021-08-19T10:40:30.000Z</time>
      </trkpt>
      <trkpt lat="42.86652" lon="0.21045">
        <ele>2663.7</ele>
        <time>2021-08-19T10:40:31.000Z</time>
      </trkpt>
      <trkpt lat="42.86652" lon="0.21045">
        <ele>2663.6</ele>
        <time>2021-08-19T10:40:33.000Z</time>
      </trkpt>
      <trkpt lat="42.86653" lon="0.21044">
        <ele>2663.6</ele>
        <time>2021-08-19T10:40:36.000Z</time>
      </trkpt>
      <trkpt lat="42.86655" lon="0.21035">
        <ele>2659.7</ele>
        <time>2021-08-19T10:40:58.000Z</time>
      </trkpt>
      <trkpt lat="42.86655" lon="0.21035">
        <ele>2659.5</ele>
        <time>2021-08-19T10:40:59.000Z</time>
      </trkpt>
      <trkpt lat="42.86655" lon="0.21035">
        <ele>2659.3</ele>
        <time>2021-08-19T10:41:00.000Z</time>
      </trkpt>
      <trkpt lat="42.86656" lon="0.21035">
        <ele>2659.3</ele>
        <time>2021-08-19T10:41:01.000Z</time>
      </trkpt>
      <trkpt lat="42.86656" lon="0.21035">
        <ele>2658.8</ele>
        <time>2021-08-19T10:41:04.000Z</time>
      </trkpt>
      <trkpt lat="42.86656" lon="0.21034">
        <ele>2658.5</ele>
        <time>2021-08-19T10:41:05.000Z</time>
      </trkpt>
      <trkpt lat="42.86656" lon="0.21034">
        <ele>2658.3</ele>
        <time>2021-08-19T10:41:07.000Z</time>
      </trkpt>
      <trkpt lat="42.86656" lon="0.21034">
        <ele>2658.7</ele>
        <time>2021-08-19T10:41:11.000Z</time>
      </trkpt>
      <trkpt lat="42.86663" lon="0.21029">
        <ele>2654.7</ele>
        <time>2021-08-19T10:41:37.000Z</time>
      </trkpt>
      <trkpt lat="42.86662" lon="0.21029">
        <ele>2654.4</ele>
        <time>2021-08-19T10:41:38.000Z</time>
      </trkpt>
      <trkpt lat="42.86662" lon="0.21029">
        <ele>2653.4</ele>
        <time>2021-08-19T10:41:41.000Z</time>
      </trkpt>
      <trkpt lat="42.86662" lon="0.21029">
        <ele>2653.3</ele>
        <time>2021-08-19T10:41:42.000Z</time>
      </trkpt>
      <trkpt lat="42.86667" lon="0.21027">
        <ele>2650.1</ele>
        <time>2021-08-19T10:42:05.000Z</time>
      </trkpt>
      <trkpt lat="42.86666" lon="0.21026">
        <ele>2649.9</ele>
        <time>2021-08-19T10:42:06.000Z</time>
      </trkpt>
      <trkpt lat="42.86665" lon="0.21025">
        <ele>2649.4</ele>
        <time>2021-08-19T10:42:09.000Z</time>
      </trkpt>
      <trkpt lat="42.86665" lon="0.21025">
        <ele>2649.1</ele>
        <time>2021-08-19T10:42:10.000Z</time>
      </trkpt>
      <trkpt lat="42.86665" lon="0.21024">
        <ele>2648.2</ele>
        <time>2021-08-19T10:42:16.000Z</time>
      </trkpt>
      <trkpt lat="42.86665" lon="0.21024">
        <ele>2647.9</ele>
        <time>2021-08-19T10:42:17.000Z</time>
      </trkpt>
      <trkpt lat="42.86675" lon="0.21023">
        <ele>2642</ele>
        <time>2021-08-19T10:42:50.000Z</time>
      </trkpt>
      <trkpt lat="42.86673" lon="0.21017">
        <ele>2639.4</ele>
        <time>2021-08-19T10:43:03.000Z</time>
      </trkpt>
      <trkpt lat="42.86672" lon="0.21017">
        <ele>2639.5</ele>
        <time>2021-08-19T10:43:04.000Z</time>
      </trkpt>
      <trkpt lat="42.86672" lon="0.21017">
        <ele>2639.3</ele>
        <time>2021-08-19T10:43:06.000Z</time>
      </trkpt>
      <trkpt lat="42.86672" lon="0.21016">
        <ele>2638.9</ele>
        <time>2021-08-19T10:43:07.000Z</time>
      </trkpt>
      <trkpt lat="42.86672" lon="0.21016">
        <ele>2638.3</ele>
        <time>2021-08-19T10:43:10.000Z</time>
      </trkpt>
      <trkpt lat="42.86672" lon="0.21016">
        <ele>2638.2</ele>
        <time>2021-08-19T10:43:11.000Z</time>
      </trkpt>
      <trkpt lat="42.86672" lon="0.21012">
        <ele>2637.4</ele>
        <time>2021-08-19T10:43:20.000Z</time>
      </trkpt>
      <trkpt lat="42.86673" lon="0.21012">
        <ele>2637.3</ele>
        <time>2021-08-19T10:43:22.000Z</time>
      </trkpt>
      <trkpt lat="42.86672" lon="0.21009">
        <ele>2637.3</ele>
        <time>2021-08-19T10:43:27.000Z</time>
      </trkpt>
      <trkpt lat="42.86672" lon="0.21008">
        <ele>2636.8</ele>
        <time>2021-08-19T10:43:31.000Z</time>
      </trkpt>
      <trkpt lat="42.86672" lon="0.21005">
        <ele>2636.3</ele>
        <time>2021-08-19T10:43:41.000Z</time>
      </trkpt>
      <trkpt lat="42.86672" lon="0.21004">
        <ele>2636.2</ele>
        <time>2021-08-19T10:43:42.000Z</time>
      </trkpt>
      <trkpt lat="42.8667" lon="0.20996">
        <ele>2633</ele>
        <time>2021-08-19T10:44:04.000Z</time>
      </trkpt>
      <trkpt lat="42.8667" lon="0.20997">
        <ele>2633</ele>
        <time>2021-08-19T10:44:05.000Z</time>
      </trkpt>
      <trkpt lat="42.8667" lon="0.20997">
        <ele>2632.8</ele>
        <time>2021-08-19T10:44:07.000Z</time>
      </trkpt>
      <trkpt lat="42.8667" lon="0.20996">
        <ele>2632.5</ele>
        <time>2021-08-19T10:44:08.000Z</time>
      </trkpt>
      <trkpt lat="42.8667" lon="0.20996">
        <ele>2632.3</ele>
        <time>2021-08-19T10:44:11.000Z</time>
      </trkpt>
      <trkpt lat="42.86671" lon="0.20996">
        <ele>2632.3</ele>
        <time>2021-08-19T10:44:12.000Z</time>
      </trkpt>
      <trkpt lat="42.86676" lon="0.20994">
        <ele>2629.1</ele>
        <time>2021-08-19T10:44:35.000Z</time>
      </trkpt>
      <trkpt lat="42.86676" lon="0.20995">
        <ele>2629.2</ele>
        <time>2021-08-19T10:44:36.000Z</time>
      </trkpt>
      <trkpt lat="42.86678" lon="0.20998">
        <ele>2628.7</ele>
        <time>2021-08-19T10:44:43.000Z</time>
      </trkpt>
      <trkpt lat="42.86678" lon="0.20999">
        <ele>2627.4</ele>
        <time>2021-08-19T10:44:47.000Z</time>
      </trkpt>
      <trkpt lat="42.86677" lon="0.20998">
        <ele>2627.4</ele>
        <time>2021-08-19T10:44:50.000Z</time>
      </trkpt>
      <trkpt lat="42.86677" lon="0.20998">
        <ele>2626.9</ele>
        <time>2021-08-19T10:44:53.000Z</time>
      </trkpt>
      <trkpt lat="42.86679" lon="0.20991">
        <ele>2623.9</ele>
        <time>2021-08-19T10:45:15.000Z</time>
      </trkpt>
      <trkpt lat="42.86678" lon="0.2099">
        <ele>2623.6</ele>
        <time>2021-08-19T10:45:16.000Z</time>
      </trkpt>
      <trkpt lat="42.86682" lon="0.20987">
        <ele>2621.9</ele>
        <time>2021-08-19T10:45:33.000Z</time>
      </trkpt>
      <trkpt lat="42.86683" lon="0.20986">
        <ele>2622</ele>
        <time>2021-08-19T10:45:37.000Z</time>
      </trkpt>
      <trkpt lat="42.86681" lon="0.20975">
        <ele>2618.7</ele>
        <time>2021-08-19T10:45:58.000Z</time>
      </trkpt>
      <trkpt lat="42.86681" lon="0.20974">
        <ele>2618.6</ele>
        <time>2021-08-19T10:46:13.000Z</time>
      </trkpt>
      <trkpt lat="42.86682" lon="0.20971">
        <ele>2618</ele>
        <time>2021-08-19T10:46:20.000Z</time>
      </trkpt>
      <trkpt lat="42.86682" lon="0.20971">
        <ele>2617.9</ele>
        <time>2021-08-19T10:46:21.000Z</time>
      </trkpt>
      <trkpt lat="42.8668" lon="0.20969">
        <ele>2616.4</ele>
        <time>2021-08-19T10:46:33.000Z</time>
      </trkpt>
      <trkpt lat="42.8668" lon="0.20969">
        <ele>2616.7</ele>
        <time>2021-08-19T10:46:34.000Z</time>
      </trkpt>
      <trkpt lat="42.86681" lon="0.20969">
        <ele>2616.8</ele>
        <time>2021-08-19T10:46:36.000Z</time>
      </trkpt>
      <trkpt lat="42.8668" lon="0.20968">
        <ele>2616.4</ele>
        <time>2021-08-19T10:46:37.000Z</time>
      </trkpt>
      <trkpt lat="42.86681" lon="0.20963">
        <ele>2614.2</ele>
        <time>2021-08-19T10:46:49.000Z</time>
      </trkpt>
      <trkpt lat="42.8668" lon="0.20963">
        <ele>2614.1</ele>
        <time>2021-08-19T10:46:50.000Z</time>
      </trkpt>
      <trkpt lat="42.8668" lon="0.20963">
        <ele>2614</ele>
        <time>2021-08-19T10:46:51.000Z</time>
      </trkpt>
      <trkpt lat="42.8668" lon="0.20963">
        <ele>2613.9</ele>
        <time>2021-08-19T10:46:52.000Z</time>
      </trkpt>
      <trkpt lat="42.8668" lon="0.20963">
        <ele>2613.8</ele>
        <time>2021-08-19T10:46:53.000Z</time>
      </trkpt>
      <trkpt lat="42.8668" lon="0.20962">
        <ele>2613.5</ele>
        <time>2021-08-19T10:46:54.000Z</time>
      </trkpt>
      <trkpt lat="42.86679" lon="0.20953">
        <ele>2612.5</ele>
        <time>2021-08-19T10:47:06.000Z</time>
      </trkpt>
      <trkpt lat="42.86679" lon="0.20953">
        <ele>2612.3</ele>
        <time>2021-08-19T10:47:07.000Z</time>
      </trkpt>
      <trkpt lat="42.86679" lon="0.20952">
        <ele>2612.2</ele>
        <time>2021-08-19T10:47:09.000Z</time>
      </trkpt>
      <trkpt lat="42.86679" lon="0.20952">
        <ele>2612.3</ele>
        <time>2021-08-19T10:47:10.000Z</time>
      </trkpt>
      <trkpt lat="42.86677" lon="0.20945">
        <ele>2612.7</ele>
        <time>2021-08-19T10:47:19.000Z</time>
      </trkpt>
      <trkpt lat="42.86677" lon="0.20945">
        <ele>2612.5</ele>
        <time>2021-08-19T10:47:21.000Z</time>
      </trkpt>
      <trkpt lat="42.86676" lon="0.20943">
        <ele>2613</ele>
        <time>2021-08-19T10:47:25.000Z</time>
      </trkpt>
      <trkpt lat="42.86676" lon="0.20943">
        <ele>2612.9</ele>
        <time>2021-08-19T10:47:26.000Z</time>
      </trkpt>
      <trkpt lat="42.86682" lon="0.20934">
        <ele>2608</ele>
        <time>2021-08-19T10:47:53.000Z</time>
      </trkpt>
      <trkpt lat="42.86681" lon="0.20925">
        <ele>2606.5</ele>
        <time>2021-08-19T10:48:02.000Z</time>
      </trkpt>
      <trkpt lat="42.86681" lon="0.20924">
        <ele>2606.3</ele>
        <time>2021-08-19T10:48:03.000Z</time>
      </trkpt>
      <trkpt lat="42.86681" lon="0.20924">
        <ele>2606.2</ele>
        <time>2021-08-19T10:48:04.000Z</time>
      </trkpt>
      <trkpt lat="42.86681" lon="0.20924">
        <ele>2606.2</ele>
        <time>2021-08-19T10:48:05.000Z</time>
      </trkpt>
      <trkpt lat="42.86686" lon="0.20913">
        <ele>2602.1</ele>
        <time>2021-08-19T10:48:26.000Z</time>
      </trkpt>
      <trkpt lat="42.86685" lon="0.20909">
        <ele>2600.7</ele>
        <time>2021-08-19T10:48:32.000Z</time>
      </trkpt>
      <trkpt lat="42.86685" lon="0.20909">
        <ele>2600.6</ele>
        <time>2021-08-19T10:48:33.000Z</time>
      </trkpt>
      <trkpt lat="42.86681" lon="0.20897">
        <ele>2595.3</ele>
        <time>2021-08-19T10:49:03.000Z</time>
      </trkpt>
      <trkpt lat="42.8668" lon="0.20894">
        <ele>2596</ele>
        <time>2021-08-19T10:49:11.000Z</time>
      </trkpt>
      <trkpt lat="42.8668" lon="0.20895">
        <ele>2595.9</ele>
        <time>2021-08-19T10:49:12.000Z</time>
      </trkpt>
      <trkpt lat="42.86678" lon="0.20894">
        <ele>2594.2</ele>
        <time>2021-08-19T10:49:19.000Z</time>
      </trkpt>
      <trkpt lat="42.86678" lon="0.20893">
        <ele>2594.8</ele>
        <time>2021-08-19T10:49:22.000Z</time>
      </trkpt>
      <trkpt lat="42.86672" lon="0.20884">
        <ele>2592.9</ele>
        <time>2021-08-19T10:49:32.000Z</time>
      </trkpt>
      <trkpt lat="42.86673" lon="0.20878">
        <ele>2587.4</ele>
        <time>2021-08-19T10:50:06.000Z</time>
      </trkpt>
      <trkpt lat="42.86673" lon="0.20878">
        <ele>2587.3</ele>
        <time>2021-08-19T10:50:07.000Z</time>
      </trkpt>
      <trkpt lat="42.86672" lon="0.20878">
        <ele>2587.3</ele>
        <time>2021-08-19T10:50:15.000Z</time>
      </trkpt>
      <trkpt lat="42.86672" lon="0.20879">
        <ele>2587.7</ele>
        <time>2021-08-19T10:50:16.000Z</time>
      </trkpt>
      <trkpt lat="42.86672" lon="0.20879">
        <ele>2587.8</ele>
        <time>2021-08-19T10:50:17.000Z</time>
      </trkpt>
      <trkpt lat="42.86672" lon="0.20879">
        <ele>2589.4</ele>
        <time>2021-08-19T10:50:30.000Z</time>
      </trkpt>
      <trkpt lat="42.86672" lon="0.20879">
        <ele>2589.7</ele>
        <time>2021-08-19T10:50:31.000Z</time>
      </trkpt>
      <trkpt lat="42.86671" lon="0.20879">
        <ele>2590.6</ele>
        <time>2021-08-19T10:50:38.000Z</time>
      </trkpt>
      <trkpt lat="42.86671" lon="0.20879">
        <ele>2590.7</ele>
        <time>2021-08-19T10:50:39.000Z</time>
      </trkpt>
      <trkpt lat="42.86672" lon="0.20879">
        <ele>2591.8</ele>
        <time>2021-08-19T10:50:49.000Z</time>
      </trkpt>
      <trkpt lat="42.86672" lon="0.2088">
        <ele>2591.2</ele>
        <time>2021-08-19T10:50:51.000Z</time>
      </trkpt>
      <trkpt lat="42.86672" lon="0.2088">
        <ele>2591.3</ele>
        <time>2021-08-19T10:50:52.000Z</time>
      </trkpt>
      <trkpt lat="42.86671" lon="0.2088">
        <ele>2590.6</ele>
        <time>2021-08-19T10:50:58.000Z</time>
      </trkpt>
      <trkpt lat="42.86672" lon="0.2088">
        <ele>2589.9</ele>
        <time>2021-08-19T10:51:22.000Z</time>
      </trkpt>
      <trkpt lat="42.86672" lon="0.20872">
        <ele>2587.7</ele>
        <time>2021-08-19T10:51:34.000Z</time>
      </trkpt>
      <trkpt lat="42.86672" lon="0.20873">
        <ele>2588.2</ele>
        <time>2021-08-19T10:51:36.000Z</time>
      </trkpt>
      <trkpt lat="42.86673" lon="0.20875">
        <ele>2588.3</ele>
        <time>2021-08-19T10:51:47.000Z</time>
      </trkpt>
      <trkpt lat="42.86673" lon="0.20875">
        <ele>2588.4</ele>
        <time>2021-08-19T10:51:50.000Z</time>
      </trkpt>
      <trkpt lat="42.86673" lon="0.20875">
        <ele>2588.4</ele>
        <time>2021-08-19T10:51:51.000Z</time>
      </trkpt>
      <trkpt lat="42.86673" lon="0.20875">
        <ele>2588.8</ele>
        <time>2021-08-19T10:51:54.000Z</time>
      </trkpt>
      <trkpt lat="42.86673" lon="0.20875">
        <ele>2588.4</ele>
        <time>2021-08-19T10:51:55.000Z</time>
      </trkpt>
      <trkpt lat="42.86673" lon="0.20875">
        <ele>2587.9</ele>
        <time>2021-08-19T10:51:56.000Z</time>
      </trkpt>
      <trkpt lat="42.86672" lon="0.20862">
        <ele>2582.7</ele>
        <time>2021-08-19T10:52:15.000Z</time>
      </trkpt>
      <trkpt lat="42.86672" lon="0.2086">
        <ele>2581.7</ele>
        <time>2021-08-19T10:52:18.000Z</time>
      </trkpt>
      <trkpt lat="42.86672" lon="0.20859">
        <ele>2581.2</ele>
        <time>2021-08-19T10:52:19.000Z</time>
      </trkpt>
      <trkpt lat="42.86674" lon="0.20847">
        <ele>2577.4</ele>
        <time>2021-08-19T10:52:36.000Z</time>
      </trkpt>
      <trkpt lat="42.86679" lon="0.20848">
        <ele>2574.2</ele>
        <time>2021-08-19T10:52:48.000Z</time>
      </trkpt>
      <trkpt lat="42.86679" lon="0.20848">
        <ele>2574</ele>
        <time>2021-08-19T10:52:49.000Z</time>
      </trkpt>
      <trkpt lat="42.86688" lon="0.20842">
        <ele>2570.7</ele>
        <time>2021-08-19T10:53:04.000Z</time>
      </trkpt>
      <trkpt lat="42.86697" lon="0.20839">
        <ele>2568.2</ele>
        <time>2021-08-19T10:53:16.000Z</time>
      </trkpt>
      <trkpt lat="42.86695" lon="0.20824">
        <ele>2563.7</ele>
        <time>2021-08-19T10:53:29.000Z</time>
      </trkpt>
      <trkpt lat="42.8669" lon="0.20816">
        <ele>2560.8</ele>
        <time>2021-08-19T10:53:41.000Z</time>
      </trkpt>
      <trkpt lat="42.86691" lon="0.20817">
        <ele>2560.6</ele>
        <time>2021-08-19T10:53:42.000Z</time>
      </trkpt>
      <trkpt lat="42.86686" lon="0.2081">
        <ele>2555.1</ele>
        <time>2021-08-19T10:54:03.000Z</time>
      </trkpt>
      <trkpt lat="42.86686" lon="0.20809">
        <ele>2554.6</ele>
        <time>2021-08-19T10:54:04.000Z</time>
      </trkpt>
      <trkpt lat="42.86688" lon="0.208">
        <ele>2549.9</ele>
        <time>2021-08-19T10:54:20.000Z</time>
      </trkpt>
      <trkpt lat="42.86689" lon="0.208">
        <ele>2550.2</ele>
        <time>2021-08-19T10:54:21.000Z</time>
      </trkpt>
      <trkpt lat="42.86685" lon="0.20789">
        <ele>2546.3</ele>
        <time>2021-08-19T10:54:33.000Z</time>
      </trkpt>
      <trkpt lat="42.86694" lon="0.20784">
        <ele>2544.1</ele>
        <time>2021-08-19T10:54:48.000Z</time>
      </trkpt>
      <trkpt lat="42.86701" lon="0.20776">
        <ele>2538.8</ele>
        <time>2021-08-19T10:55:04.000Z</time>
      </trkpt>
      <trkpt lat="42.86703" lon="0.20763">
        <ele>2532.9</ele>
        <time>2021-08-19T10:55:19.000Z</time>
      </trkpt>
      <trkpt lat="42.86704" lon="0.20751">
        <ele>2526.7</ele>
        <time>2021-08-19T10:55:44.000Z</time>
      </trkpt>
      <trkpt lat="42.86708" lon="0.20739">
        <ele>2523.3</ele>
        <time>2021-08-19T10:55:55.000Z</time>
      </trkpt>
      <trkpt lat="42.86708" lon="0.20727">
        <ele>2521</ele>
        <time>2021-08-19T10:56:03.000Z</time>
      </trkpt>
      <trkpt lat="42.86712" lon="0.20716">
        <ele>2516.6</ele>
        <time>2021-08-19T10:56:18.000Z</time>
      </trkpt>
      <trkpt lat="42.86712" lon="0.20702">
        <ele>2514.2</ele>
        <time>2021-08-19T10:56:27.000Z</time>
      </trkpt>
      <trkpt lat="42.86718" lon="0.20699">
        <ele>2510.1</ele>
        <time>2021-08-19T10:56:56.000Z</time>
      </trkpt>
      <trkpt lat="42.86718" lon="0.20699">
        <ele>2510.1</ele>
        <time>2021-08-19T10:56:57.000Z</time>
      </trkpt>
      <trkpt lat="42.86717" lon="0.20687">
        <ele>2507.3</ele>
        <time>2021-08-19T10:57:14.000Z</time>
      </trkpt>
      <trkpt lat="42.86713" lon="0.20675">
        <ele>2508.4</ele>
        <time>2021-08-19T10:57:24.000Z</time>
      </trkpt>
      <trkpt lat="42.86713" lon="0.20663">
        <ele>2508.5</ele>
        <time>2021-08-19T10:57:33.000Z</time>
      </trkpt>
      <trkpt lat="42.86714" lon="0.20654">
        <ele>2506.6</ele>
        <time>2021-08-19T10:57:44.000Z</time>
      </trkpt>
      <trkpt lat="42.86714" lon="0.20654">
        <ele>2506.4</ele>
        <time>2021-08-19T10:57:45.000Z</time>
      </trkpt>
      <trkpt lat="42.86714" lon="0.20654">
        <ele>2506.4</ele>
        <time>2021-08-19T10:57:46.000Z</time>
      </trkpt>
      <trkpt lat="42.86714" lon="0.20655">
        <ele>2506.4</ele>
        <time>2021-08-19T10:57:47.000Z</time>
      </trkpt>
      <trkpt lat="42.86714" lon="0.20655">
        <ele>2506.3</ele>
        <time>2021-08-19T10:57:48.000Z</time>
      </trkpt>
      <trkpt lat="42.86714" lon="0.20655">
        <ele>2506.2</ele>
        <time>2021-08-19T10:57:49.000Z</time>
      </trkpt>
      <trkpt lat="42.86714" lon="0.20655">
        <ele>2506.2</ele>
        <time>2021-08-19T10:57:50.000Z</time>
      </trkpt>
      <trkpt lat="42.86714" lon="0.20655">
        <ele>2506</ele>
        <time>2021-08-19T10:57:55.000Z</time>
      </trkpt>
      <trkpt lat="42.86714" lon="0.20657">
        <ele>2505.7</ele>
        <time>2021-08-19T10:57:58.000Z</time>
      </trkpt>
      <trkpt lat="42.86714" lon="0.20657">
        <ele>2506</ele>
        <time>2021-08-19T10:58:07.000Z</time>
      </trkpt>
      <trkpt lat="42.86714" lon="0.20657">
        <ele>2505.7</ele>
        <time>2021-08-19T10:58:08.000Z</time>
      </trkpt>
      <trkpt lat="42.86714" lon="0.20657">
        <ele>2505.7</ele>
        <time>2021-08-19T10:58:09.000Z</time>
      </trkpt>
      <trkpt lat="42.86714" lon="0.20657">
        <ele>2506</ele>
        <time>2021-08-19T10:58:10.000Z</time>
      </trkpt>
      <trkpt lat="42.86714" lon="0.20657">
        <ele>2506</ele>
        <time>2021-08-19T10:58:15.000Z</time>
      </trkpt>
      <trkpt lat="42.86714" lon="0.20657">
        <ele>2505.9</ele>
        <time>2021-08-19T10:58:16.000Z</time>
      </trkpt>
      <trkpt lat="42.86715" lon="0.20657">
        <ele>2505.9</ele>
        <time>2021-08-19T10:58:19.000Z</time>
      </trkpt>
      <trkpt lat="42.86715" lon="0.20657">
        <ele>2506.1</ele>
        <time>2021-08-19T10:58:20.000Z</time>
      </trkpt>
      <trkpt lat="42.86715" lon="0.20657">
        <ele>2506.2</ele>
        <time>2021-08-19T10:58:21.000Z</time>
      </trkpt>
      <trkpt lat="42.86715" lon="0.20657">
        <ele>2506.3</ele>
        <time>2021-08-19T10:58:22.000Z</time>
      </trkpt>
      <trkpt lat="42.86715" lon="0.20657">
        <ele>2505.1</ele>
        <time>2021-08-19T10:58:40.000Z</time>
      </trkpt>
      <trkpt lat="42.86715" lon="0.20657">
        <ele>2505</ele>
        <time>2021-08-19T10:58:41.000Z</time>
      </trkpt>
      <trkpt lat="42.86715" lon="0.20658">
        <ele>2506</ele>
        <time>2021-08-19T10:58:59.000Z</time>
      </trkpt>
      <trkpt lat="42.86714" lon="0.20658">
        <ele>2506.1</ele>
        <time>2021-08-19T10:59:02.000Z</time>
      </trkpt>
      <trkpt lat="42.86714" lon="0.20658">
        <ele>2506.5</ele>
        <time>2021-08-19T10:59:17.000Z</time>
      </trkpt>
      <trkpt lat="42.86714" lon="0.20659">
        <ele>2506.2</ele>
        <time>2021-08-19T10:59:18.000Z</time>
      </trkpt>
      <trkpt lat="42.86714" lon="0.20659">
        <ele>2505.8</ele>
        <time>2021-08-19T10:59:19.000Z</time>
      </trkpt>
      <trkpt lat="42.86714" lon="0.20659">
        <ele>2505.7</ele>
        <time>2021-08-19T10:59:20.000Z</time>
      </trkpt>
      <trkpt lat="42.86714" lon="0.20659">
        <ele>2506.9</ele>
        <time>2021-08-19T10:59:29.000Z</time>
      </trkpt>
      <trkpt lat="42.86714" lon="0.20659">
        <ele>2506.8</ele>
        <time>2021-08-19T10:59:30.000Z</time>
      </trkpt>
      <trkpt lat="42.86714" lon="0.20659">
        <ele>2506.9</ele>
        <time>2021-08-19T10:59:35.000Z</time>
      </trkpt>
      <trkpt lat="42.86714" lon="0.20659">
        <ele>2506.8</ele>
        <time>2021-08-19T10:59:37.000Z</time>
      </trkpt>
      <trkpt lat="42.86714" lon="0.20659">
        <ele>2506.5</ele>
        <time>2021-08-19T10:59:39.000Z</time>
      </trkpt>
      <trkpt lat="42.86714" lon="0.20659">
        <ele>2506.5</ele>
        <time>2021-08-19T10:59:40.000Z</time>
      </trkpt>
      <trkpt lat="42.86714" lon="0.20658">
        <ele>2507</ele>
        <time>2021-08-19T10:59:48.000Z</time>
      </trkpt>
      <trkpt lat="42.86714" lon="0.20658">
        <ele>2507.1</ele>
        <time>2021-08-19T10:59:49.000Z</time>
      </trkpt>
      <trkpt lat="42.86714" lon="0.20658">
        <ele>2506.4</ele>
        <time>2021-08-19T11:00:05.000Z</time>
      </trkpt>
      <trkpt lat="42.86714" lon="0.20658">
        <ele>2506.1</ele>
        <time>2021-08-19T11:00:07.000Z</time>
      </trkpt>
      <trkpt lat="42.86714" lon="0.20658">
        <ele>2506</ele>
        <time>2021-08-19T11:00:08.000Z</time>
      </trkpt>
      <trkpt lat="42.86723" lon="0.2066">
        <ele>2504.7</ele>
        <time>2021-08-19T11:00:25.000Z</time>
      </trkpt>
      <trkpt lat="42.86724" lon="0.20672">
        <ele>2504.1</ele>
        <time>2021-08-19T11:00:38.000Z</time>
      </trkpt>
      <trkpt lat="42.86724" lon="0.20674">
        <ele>2503</ele>
        <time>2021-08-19T11:00:45.000Z</time>
      </trkpt>
      <trkpt lat="42.86724" lon="0.20675">
        <ele>2503.1</ele>
        <time>2021-08-19T11:00:47.000Z</time>
      </trkpt>
      <trkpt lat="42.86727" lon="0.2068">
        <ele>2501.3</ele>
        <time>2021-08-19T11:00:58.000Z</time>
      </trkpt>
      <trkpt lat="42.86727" lon="0.2068">
        <ele>2501.1</ele>
        <time>2021-08-19T11:00:59.000Z</time>
      </trkpt>
      <trkpt lat="42.86734" lon="0.20688">
        <ele>2498.4</ele>
        <time>2021-08-19T11:01:18.000Z</time>
      </trkpt>
      <trkpt lat="42.86734" lon="0.2069">
        <ele>2497.9</ele>
        <time>2021-08-19T11:01:22.000Z</time>
      </trkpt>
      <trkpt lat="42.86734" lon="0.20689">
        <ele>2497.6</ele>
        <time>2021-08-19T11:01:23.000Z</time>
      </trkpt>
      <trkpt lat="42.86736" lon="0.2069">
        <ele>2496.3</ele>
        <time>2021-08-19T11:01:30.000Z</time>
      </trkpt>
      <trkpt lat="42.86736" lon="0.2069">
        <ele>2496.3</ele>
        <time>2021-08-19T11:01:34.000Z</time>
      </trkpt>
      <trkpt lat="42.86744" lon="0.20696">
        <ele>2494.3</ele>
        <time>2021-08-19T11:01:47.000Z</time>
      </trkpt>
      <trkpt lat="42.86754" lon="0.20698">
        <ele>2490.9</ele>
        <time>2021-08-19T11:02:07.000Z</time>
      </trkpt>
      <trkpt lat="42.86755" lon="0.20698">
        <ele>2488.2</ele>
        <time>2021-08-19T11:02:11.000Z</time>
      </trkpt>
      <trkpt lat="42.86755" lon="0.20698">
        <ele>2488.7</ele>
        <time>2021-08-19T11:02:15.000Z</time>
      </trkpt>
      <trkpt lat="42.86755" lon="0.20698">
        <ele>2488.7</ele>
        <time>2021-08-19T11:02:16.000Z</time>
      </trkpt>
      <trkpt lat="42.86755" lon="0.20698">
        <ele>2489</ele>
        <time>2021-08-19T11:02:20.000Z</time>
      </trkpt>
      <trkpt lat="42.86755" lon="0.20698">
        <ele>2489.1</ele>
        <time>2021-08-19T11:02:21.000Z</time>
      </trkpt>
      <trkpt lat="42.86754" lon="0.20698">
        <ele>2489.3</ele>
        <time>2021-08-19T11:02:22.000Z</time>
      </trkpt>
      <trkpt lat="42.86763" lon="0.20703">
        <ele>2487.2</ele>
        <time>2021-08-19T11:02:37.000Z</time>
      </trkpt>
      <trkpt lat="42.86773" lon="0.20706">
        <ele>2483.9</ele>
        <time>2021-08-19T11:02:50.000Z</time>
      </trkpt>
      <trkpt lat="42.86782" lon="0.20707">
        <ele>2480.6</ele>
        <time>2021-08-19T11:03:09.000Z</time>
      </trkpt>
      <trkpt lat="42.86791" lon="0.20706">
        <ele>2478.5</ele>
        <time>2021-08-19T11:03:22.000Z</time>
      </trkpt>
      <trkpt lat="42.86798" lon="0.2071">
        <ele>2476.6</ele>
        <time>2021-08-19T11:03:33.000Z</time>
      </trkpt>
      <trkpt lat="42.86797" lon="0.2071">
        <ele>2476.4</ele>
        <time>2021-08-19T11:03:34.000Z</time>
      </trkpt>
      <trkpt lat="42.86806" lon="0.20714">
        <ele>2472.8</ele>
        <time>2021-08-19T11:03:52.000Z</time>
      </trkpt>
      <trkpt lat="42.86814" lon="0.2072">
        <ele>2470.9</ele>
        <time>2021-08-19T11:04:01.000Z</time>
      </trkpt>
      <trkpt lat="42.86824" lon="0.20721">
        <ele>2469.1</ele>
        <time>2021-08-19T11:04:13.000Z</time>
      </trkpt>
      <trkpt lat="42.86832" lon="0.20726">
        <ele>2466.1</ele>
        <time>2021-08-19T11:04:31.000Z</time>
      </trkpt>
      <trkpt lat="42.86835" lon="0.20714">
        <ele>2464.3</ele>
        <time>2021-08-19T11:04:46.000Z</time>
      </trkpt>
      <trkpt lat="42.86844" lon="0.20713">
        <ele>2463.7</ele>
        <time>2021-08-19T11:04:57.000Z</time>
      </trkpt>
      <trkpt lat="42.86851" lon="0.2072">
        <ele>2461.6</ele>
        <time>2021-08-19T11:05:07.000Z</time>
      </trkpt>
      <trkpt lat="42.86856" lon="0.2071">
        <ele>2459.4</ele>
        <time>2021-08-19T11:05:26.000Z</time>
      </trkpt>
      <trkpt lat="42.86866" lon="0.20712">
        <ele>2453.7</ele>
        <time>2021-08-19T11:06:08.000Z</time>
      </trkpt>
      <trkpt lat="42.86867" lon="0.20712">
        <ele>2452.7</ele>
        <time>2021-08-19T11:06:12.000Z</time>
      </trkpt>
      <trkpt lat="42.86868" lon="0.20712">
        <ele>2452.5</ele>
        <time>2021-08-19T11:06:13.000Z</time>
      </trkpt>
      <trkpt lat="42.86875" lon="0.20703">
        <ele>2448.9</ele>
        <time>2021-08-19T11:06:42.000Z</time>
      </trkpt>
      <trkpt lat="42.86884" lon="0.20702">
        <ele>2447.1</ele>
        <time>2021-08-19T11:06:51.000Z</time>
      </trkpt>
      <trkpt lat="42.86891" lon="0.20693">
        <ele>2444</ele>
        <time>2021-08-19T11:07:04.000Z</time>
      </trkpt>
      <trkpt lat="42.8689" lon="0.20681">
        <ele>2441.9</ele>
        <time>2021-08-19T11:07:19.000Z</time>
      </trkpt>
      <trkpt lat="42.86897" lon="0.20673">
        <ele>2438.6</ele>
        <time>2021-08-19T11:07:35.000Z</time>
      </trkpt>
      <trkpt lat="42.86905" lon="0.20679">
        <ele>2436.8</ele>
        <time>2021-08-19T11:07:47.000Z</time>
      </trkpt>
      <trkpt lat="42.86914" lon="0.20681">
        <ele>2434.3</ele>
        <time>2021-08-19T11:08:01.000Z</time>
      </trkpt>
      <trkpt lat="42.86923" lon="0.20682">
        <ele>2430.6</ele>
        <time>2021-08-19T11:08:26.000Z</time>
      </trkpt>
      <trkpt lat="42.86932" lon="0.20684">
        <ele>2427.1</ele>
        <time>2021-08-19T11:08:38.000Z</time>
      </trkpt>
      <trkpt lat="42.86939" lon="0.20691">
        <ele>2424.7</ele>
        <time>2021-08-19T11:08:52.000Z</time>
      </trkpt>
      <trkpt lat="42.86946" lon="0.207">
        <ele>2422.9</ele>
        <time>2021-08-19T11:09:02.000Z</time>
      </trkpt>
      <trkpt lat="42.86954" lon="0.20707">
        <ele>2420.3</ele>
        <time>2021-08-19T11:09:13.000Z</time>
      </trkpt>
      <trkpt lat="42.86963" lon="0.20706">
        <ele>2420.3</ele>
        <time>2021-08-19T11:09:27.000Z</time>
      </trkpt>
      <trkpt lat="42.86971" lon="0.20699">
        <ele>2420.4</ele>
        <time>2021-08-19T11:09:35.000Z</time>
      </trkpt>
      <trkpt lat="42.86976" lon="0.20687">
        <ele>2419.8</ele>
        <time>2021-08-19T11:09:45.000Z</time>
      </trkpt>
      <trkpt lat="42.86981" lon="0.20676">
        <ele>2418.9</ele>
        <time>2021-08-19T11:09:56.000Z</time>
      </trkpt>
      <trkpt lat="42.86986" lon="0.20665">
        <ele>2418.5</ele>
        <time>2021-08-19T11:10:06.000Z</time>
      </trkpt>
      <trkpt lat="42.86987" lon="0.2066">
        <ele>2417.9</ele>
        <time>2021-08-19T11:10:13.000Z</time>
      </trkpt>
      <trkpt lat="42.86987" lon="0.2066">
        <ele>2417.9</ele>
        <time>2021-08-19T11:10:14.000Z</time>
      </trkpt>
      <trkpt lat="42.86987" lon="0.2066">
        <ele>2417.9</ele>
        <time>2021-08-19T11:10:15.000Z</time>
      </trkpt>
      <trkpt lat="42.86987" lon="0.2066">
        <ele>2417.5</ele>
        <time>2021-08-19T11:10:18.000Z</time>
      </trkpt>
      <trkpt lat="42.86983" lon="0.20649">
        <ele>2416.7</ele>
        <time>2021-08-19T11:10:31.000Z</time>
      </trkpt>
      <trkpt lat="42.86982" lon="0.20642">
        <ele>2417.5</ele>
        <time>2021-08-19T11:10:39.000Z</time>
      </trkpt>
      <trkpt lat="42.86982" lon="0.20641">
        <ele>2417.2</ele>
        <time>2021-08-19T11:10:40.000Z</time>
      </trkpt>
      <trkpt lat="42.86982" lon="0.20641">
        <ele>2417.1</ele>
        <time>2021-08-19T11:10:41.000Z</time>
      </trkpt>
      <trkpt lat="42.86982" lon="0.20642">
        <ele>2417</ele>
        <time>2021-08-19T11:10:42.000Z</time>
      </trkpt>
      <trkpt lat="42.86984" lon="0.20648">
        <ele>2416.8</ele>
        <time>2021-08-19T11:10:48.000Z</time>
      </trkpt>
      <trkpt lat="42.86983" lon="0.20648">
        <ele>2417.1</ele>
        <time>2021-08-19T11:10:49.000Z</time>
      </trkpt>
      <trkpt lat="42.86983" lon="0.20647">
        <ele>2415.1</ele>
        <time>2021-08-19T11:11:04.000Z</time>
      </trkpt>
      <trkpt lat="42.86983" lon="0.20647">
        <ele>2414.5</ele>
        <time>2021-08-19T11:11:12.000Z</time>
      </trkpt>
      <trkpt lat="42.86983" lon="0.20647">
        <ele>2414.5</ele>
        <time>2021-08-19T11:11:13.000Z</time>
      </trkpt>
      <trkpt lat="42.86983" lon="0.20647">
        <ele>2415</ele>
        <time>2021-08-19T11:11:33.000Z</time>
      </trkpt>
      <trkpt lat="42.86983" lon="0.20647">
        <ele>2415</ele>
        <time>2021-08-19T11:11:34.000Z</time>
      </trkpt>
      <trkpt lat="42.86983" lon="0.20647">
        <ele>2416.3</ele>
        <time>2021-08-19T11:12:49.000Z</time>
      </trkpt>
      <trkpt lat="42.86983" lon="0.20647">
        <ele>2416.3</ele>
        <time>2021-08-19T11:12:50.000Z</time>
      </trkpt>
      <trkpt lat="42.86983" lon="0.20647">
        <ele>2417.6</ele>
        <time>2021-08-19T11:15:49.000Z</time>
      </trkpt>
      <trkpt lat="42.86983" lon="0.20647">
        <ele>2417.6</ele>
        <time>2021-08-19T11:15:50.000Z</time>
      </trkpt>
      <trkpt lat="42.86984" lon="0.20647">
        <ele>2417.9</ele>
        <time>2021-08-19T11:17:12.000Z</time>
      </trkpt>
      <trkpt lat="42.86984" lon="0.20647">
        <ele>2417.9</ele>
        <time>2021-08-19T11:17:13.000Z</time>
      </trkpt>
      <trkpt lat="42.86983" lon="0.20647">
        <ele>2418.6</ele>
        <time>2021-08-19T11:18:22.000Z</time>
      </trkpt>
      <trkpt lat="42.86983" lon="0.20647">
        <ele>2418.8</ele>
        <time>2021-08-19T11:18:23.000Z</time>
      </trkpt>
      <trkpt lat="42.86984" lon="0.20647">
        <ele>2418.5</ele>
        <time>2021-08-19T11:19:30.000Z</time>
      </trkpt>
      <trkpt lat="42.86984" lon="0.20647">
        <ele>2418.5</ele>
        <time>2021-08-19T11:19:31.000Z</time>
      </trkpt>
      <trkpt lat="42.86984" lon="0.20647">
        <ele>2418.8</ele>
        <time>2021-08-19T11:20:04.000Z</time>
      </trkpt>
      <trkpt lat="42.86984" lon="0.20647">
        <ele>2418.9</ele>
        <time>2021-08-19T11:20:06.000Z</time>
      </trkpt>
      <trkpt lat="42.86984" lon="0.20647">
        <ele>2418.7</ele>
        <time>2021-08-19T11:20:25.000Z</time>
      </trkpt>
      <trkpt lat="42.86984" lon="0.20647">
        <ele>2418.7</ele>
        <time>2021-08-19T11:20:26.000Z</time>
      </trkpt>
      <trkpt lat="42.86984" lon="0.20647">
        <ele>2419.3</ele>
        <time>2021-08-19T11:20:42.000Z</time>
      </trkpt>
      <trkpt lat="42.86984" lon="0.20647">
        <ele>2419.3</ele>
        <time>2021-08-19T11:20:43.000Z</time>
      </trkpt>
      <trkpt lat="42.86984" lon="0.20646">
        <ele>2419.7</ele>
        <time>2021-08-19T11:21:04.000Z</time>
      </trkpt>
      <trkpt lat="42.86984" lon="0.20647">
        <ele>2419.7</ele>
        <time>2021-08-19T11:21:06.000Z</time>
      </trkpt>
      <trkpt lat="42.86984" lon="0.20647">
        <ele>2419.7</ele>
        <time>2021-08-19T11:21:09.000Z</time>
      </trkpt>
      <trkpt lat="42.86984" lon="0.20647">
        <ele>2419.5</ele>
        <time>2021-08-19T11:21:10.000Z</time>
      </trkpt>
      <trkpt lat="42.86984" lon="0.20647">
        <ele>2420.3</ele>
        <time>2021-08-19T11:35:45.000Z</time>
      </trkpt>
      <trkpt lat="42.86984" lon="0.20647">
        <ele>2420.2</ele>
        <time>2021-08-19T11:35:46.000Z</time>
      </trkpt>
      <trkpt lat="42.86984" lon="0.20647">
        <ele>2420</ele>
        <time>2021-08-19T11:38:28.000Z</time>
      </trkpt>
      <trkpt lat="42.86984" lon="0.20647">
        <ele>2420</ele>
        <time>2021-08-19T11:38:29.000Z</time>
      </trkpt>
      <trkpt lat="42.86984" lon="0.20647">
        <ele>2420.3</ele>
        <time>2021-08-19T11:38:51.000Z</time>
      </trkpt>
      <trkpt lat="42.86984" lon="0.20647">
        <ele>2420.3</ele>
        <time>2021-08-19T11:38:52.000Z</time>
      </trkpt>
      <trkpt lat="42.86984" lon="0.20647">
        <ele>2419.6</ele>
        <time>2021-08-19T11:40:55.000Z</time>
      </trkpt>
      <trkpt lat="42.86984" lon="0.20647">
        <ele>2419.7</ele>
        <time>2021-08-19T11:40:56.000Z</time>
      </trkpt>
      <trkpt lat="42.86984" lon="0.20647">
        <ele>2419.6</ele>
        <time>2021-08-19T11:41:35.000Z</time>
      </trkpt>
      <trkpt lat="42.86984" lon="0.20647">
        <ele>2419.7</ele>
        <time>2021-08-19T11:41:36.000Z</time>
      </trkpt>
      <trkpt lat="42.86984" lon="0.20647">
        <ele>2419.7</ele>
        <time>2021-08-19T11:42:56.000Z</time>
      </trkpt>
      <trkpt lat="42.86984" lon="0.20647">
        <ele>2420.1</ele>
        <time>2021-08-19T11:42:57.000Z</time>
      </trkpt>
      <trkpt lat="42.86984" lon="0.20647">
        <ele>2420.2</ele>
        <time>2021-08-19T11:42:59.000Z</time>
      </trkpt>
      <trkpt lat="42.86984" lon="0.20647">
        <ele>2420</ele>
        <time>2021-08-19T11:43:00.000Z</time>
      </trkpt>
      <trkpt lat="42.86984" lon="0.20647">
        <ele>2419.9</ele>
        <time>2021-08-19T11:43:11.000Z</time>
      </trkpt>
      <trkpt lat="42.86984" lon="0.20647">
        <ele>2419.8</ele>
        <time>2021-08-19T11:43:12.000Z</time>
      </trkpt>
      <trkpt lat="42.86984" lon="0.20647">
        <ele>2417.2</ele>
        <time>2021-08-19T11:47:18.000Z</time>
      </trkpt>
      <trkpt lat="42.86984" lon="0.20646">
        <ele>2419.1</ele>
        <time>2021-08-19T11:47:20.000Z</time>
      </trkpt>
      <trkpt lat="42.86984" lon="0.20647">
        <ele>2420.7</ele>
        <time>2021-08-19T11:47:24.000Z</time>
      </trkpt>
      <trkpt lat="42.86984" lon="0.20646">
        <ele>2420</ele>
        <time>2021-08-19T11:47:25.000Z</time>
      </trkpt>
      <trkpt lat="42.86984" lon="0.20646">
        <ele>2419.8</ele>
        <time>2021-08-19T11:47:27.000Z</time>
      </trkpt>
      <trkpt lat="42.86985" lon="0.20647">
        <ele>2421.1</ele>
        <time>2021-08-19T11:47:33.000Z</time>
      </trkpt>
      <trkpt lat="42.86985" lon="0.20647">
        <ele>2422.4</ele>
        <time>2021-08-19T11:47:43.000Z</time>
      </trkpt>
      <trkpt lat="42.86985" lon="0.20646">
        <ele>2421.6</ele>
        <time>2021-08-19T11:47:47.000Z</time>
      </trkpt>
      <trkpt lat="42.86985" lon="0.20647">
        <ele>2422.6</ele>
        <time>2021-08-19T11:47:56.000Z</time>
      </trkpt>
      <trkpt lat="42.86992" lon="0.20657">
        <ele>2423</ele>
        <time>2021-08-19T11:48:10.000Z</time>
      </trkpt>
      <trkpt lat="42.87" lon="0.20651">
        <ele>2422.9</ele>
        <time>2021-08-19T11:48:26.000Z</time>
      </trkpt>
      <trkpt lat="42.87004" lon="0.2064">
        <ele>2422.7</ele>
        <time>2021-08-19T11:48:36.000Z</time>
      </trkpt>
      <trkpt lat="42.87011" lon="0.20629">
        <ele>2423</ele>
        <time>2021-08-19T11:48:45.000Z</time>
      </trkpt>
      <trkpt lat="42.87018" lon="0.20622">
        <ele>2423.5</ele>
        <time>2021-08-19T11:48:55.000Z</time>
      </trkpt>
      <trkpt lat="42.87027" lon="0.20618">
        <ele>2422.7</ele>
        <time>2021-08-19T11:49:07.000Z</time>
      </trkpt>
      <trkpt lat="42.87031" lon="0.20605">
        <ele>2421.8</ele>
        <time>2021-08-19T11:49:18.000Z</time>
      </trkpt>
      <trkpt lat="42.87032" lon="0.20592">
        <ele>2421.8</ele>
        <time>2021-08-19T11:49:29.000Z</time>
      </trkpt>
      <trkpt lat="42.87039" lon="0.20583">
        <ele>2421.3</ele>
        <time>2021-08-19T11:49:39.000Z</time>
      </trkpt>
      <trkpt lat="42.87048" lon="0.20579">
        <ele>2421.5</ele>
        <time>2021-08-19T11:49:50.000Z</time>
      </trkpt>
      <trkpt lat="42.87057" lon="0.20575">
        <ele>2421.5</ele>
        <time>2021-08-19T11:50:01.000Z</time>
      </trkpt>
      <trkpt lat="42.87066" lon="0.20569">
        <ele>2421</ele>
        <time>2021-08-19T11:50:12.000Z</time>
      </trkpt>
      <trkpt lat="42.87073" lon="0.20562">
        <ele>2421.3</ele>
        <time>2021-08-19T11:50:24.000Z</time>
      </trkpt>
      <trkpt lat="42.87081" lon="0.20554">
        <ele>2422</ele>
        <time>2021-08-19T11:50:32.000Z</time>
      </trkpt>
      <trkpt lat="42.87088" lon="0.20545">
        <ele>2422.7</ele>
        <time>2021-08-19T11:50:42.000Z</time>
      </trkpt>
      <trkpt lat="42.87097" lon="0.20543">
        <ele>2423.1</ele>
        <time>2021-08-19T11:50:53.000Z</time>
      </trkpt>
      <trkpt lat="42.87106" lon="0.20539">
        <ele>2421.8</ele>
        <time>2021-08-19T11:51:03.000Z</time>
      </trkpt>
      <trkpt lat="42.87116" lon="0.20539">
        <ele>2421.5</ele>
        <time>2021-08-19T11:51:12.000Z</time>
      </trkpt>
      <trkpt lat="42.87126" lon="0.20538">
        <ele>2421.5</ele>
        <time>2021-08-19T11:51:21.000Z</time>
      </trkpt>
      <trkpt lat="42.87135" lon="0.2054">
        <ele>2421.5</ele>
        <time>2021-08-19T11:51:30.000Z</time>
      </trkpt>
      <trkpt lat="42.87143" lon="0.20535">
        <ele>2421.3</ele>
        <time>2021-08-19T11:51:38.000Z</time>
      </trkpt>
      <trkpt lat="42.87152" lon="0.20528">
        <ele>2421.8</ele>
        <time>2021-08-19T11:51:47.000Z</time>
      </trkpt>
      <trkpt lat="42.87161" lon="0.20525">
        <ele>2422.4</ele>
        <time>2021-08-19T11:51:57.000Z</time>
      </trkpt>
      <trkpt lat="42.87169" lon="0.20532">
        <ele>2423</ele>
        <time>2021-08-19T11:52:07.000Z</time>
      </trkpt>
      <trkpt lat="42.87177" lon="0.20541">
        <ele>2422.1</ele>
        <time>2021-08-19T11:52:17.000Z</time>
      </trkpt>
      <trkpt lat="42.87186" lon="0.20541">
        <ele>2421.2</ele>
        <time>2021-08-19T11:52:27.000Z</time>
      </trkpt>
      <trkpt lat="42.87195" lon="0.20534">
        <ele>2420.1</ele>
        <time>2021-08-19T11:52:36.000Z</time>
      </trkpt>
      <trkpt lat="42.87203" lon="0.20527">
        <ele>2420.4</ele>
        <time>2021-08-19T11:52:45.000Z</time>
      </trkpt>
      <trkpt lat="42.87212" lon="0.20522">
        <ele>2420.8</ele>
        <time>2021-08-19T11:52:54.000Z</time>
      </trkpt>
      <trkpt lat="42.87221" lon="0.20521">
        <ele>2419.9</ele>
        <time>2021-08-19T11:53:04.000Z</time>
      </trkpt>
      <trkpt lat="42.8723" lon="0.20525">
        <ele>2419.6</ele>
        <time>2021-08-19T11:53:14.000Z</time>
      </trkpt>
      <trkpt lat="42.87239" lon="0.20531">
        <ele>2419.3</ele>
        <time>2021-08-19T11:53:23.000Z</time>
      </trkpt>
      <trkpt lat="42.87247" lon="0.20534">
        <ele>2418.7</ele>
        <time>2021-08-19T11:53:31.000Z</time>
      </trkpt>
      <trkpt lat="42.87257" lon="0.20538">
        <ele>2418.4</ele>
        <time>2021-08-19T11:53:40.000Z</time>
      </trkpt>
      <trkpt lat="42.87265" lon="0.20545">
        <ele>2418.4</ele>
        <time>2021-08-19T11:53:48.000Z</time>
      </trkpt>
      <trkpt lat="42.87273" lon="0.2055">
        <ele>2418.7</ele>
        <time>2021-08-19T11:54:00.000Z</time>
      </trkpt>
      <trkpt lat="42.87278" lon="0.20539">
        <ele>2419.2</ele>
        <time>2021-08-19T11:54:15.000Z</time>
      </trkpt>
      <trkpt lat="42.87283" lon="0.20528">
        <ele>2416.2</ele>
        <time>2021-08-19T11:54:32.000Z</time>
      </trkpt>
      <trkpt lat="42.87291" lon="0.20534">
        <ele>2413.5</ele>
        <time>2021-08-19T11:54:49.000Z</time>
      </trkpt>
      <trkpt lat="42.87295" lon="0.20536">
        <ele>2412.7</ele>
        <time>2021-08-19T11:54:56.000Z</time>
      </trkpt>
      <trkpt lat="42.87295" lon="0.20535">
        <ele>2412.6</ele>
        <time>2021-08-19T11:54:57.000Z</time>
      </trkpt>
      <trkpt lat="42.8729" lon="0.20524">
        <ele>2410.5</ele>
        <time>2021-08-19T11:55:10.000Z</time>
      </trkpt>
      <trkpt lat="42.87287" lon="0.20513">
        <ele>2408.9</ele>
        <time>2021-08-19T11:55:26.000Z</time>
      </trkpt>
      <trkpt lat="42.87292" lon="0.20503">
        <ele>2406.7</ele>
        <time>2021-08-19T11:55:41.000Z</time>
      </trkpt>
      <trkpt lat="42.87301" lon="0.20497">
        <ele>2403.7</ele>
        <time>2021-08-19T11:56:00.000Z</time>
      </trkpt>
      <trkpt lat="42.87305" lon="0.20508">
        <ele>2401.2</ele>
        <time>2021-08-19T11:56:18.000Z</time>
      </trkpt>
      <trkpt lat="42.87313" lon="0.20516">
        <ele>2399.9</ele>
        <time>2021-08-19T11:56:29.000Z</time>
      </trkpt>
      <trkpt lat="42.87316" lon="0.20528">
        <ele>2398.1</ele>
        <time>2021-08-19T11:56:41.000Z</time>
      </trkpt>
      <trkpt lat="42.8732" lon="0.2054">
        <ele>2395.2</ele>
        <time>2021-08-19T11:56:57.000Z</time>
      </trkpt>
      <trkpt lat="42.87328" lon="0.20548">
        <ele>2393.2</ele>
        <time>2021-08-19T11:57:08.000Z</time>
      </trkpt>
      <trkpt lat="42.87337" lon="0.20546">
        <ele>2390.5</ele>
        <time>2021-08-19T11:57:25.000Z</time>
      </trkpt>
      <trkpt lat="42.87345" lon="0.20542">
        <ele>2389.8</ele>
        <time>2021-08-19T11:57:36.000Z</time>
      </trkpt>
      <trkpt lat="42.87354" lon="0.20537">
        <ele>2387.4</ele>
        <time>2021-08-19T11:57:51.000Z</time>
      </trkpt>
      <trkpt lat="42.87359" lon="0.20549">
        <ele>2386.5</ele>
        <time>2021-08-19T11:58:04.000Z</time>
      </trkpt>
      <trkpt lat="42.87364" lon="0.2056">
        <ele>2385.7</ele>
        <time>2021-08-19T11:58:14.000Z</time>
      </trkpt>
      <trkpt lat="42.87373" lon="0.20562">
        <ele>2384.5</ele>
        <time>2021-08-19T11:58:25.000Z</time>
      </trkpt>
      <trkpt lat="42.87382" lon="0.20559">
        <ele>2384.4</ele>
        <time>2021-08-19T11:58:33.000Z</time>
      </trkpt>
      <trkpt lat="42.87391" lon="0.20554">
        <ele>2384.4</ele>
        <time>2021-08-19T11:58:42.000Z</time>
      </trkpt>
      <trkpt lat="42.874" lon="0.20551">
        <ele>2383.1</ele>
        <time>2021-08-19T11:58:54.000Z</time>
      </trkpt>
      <trkpt lat="42.87409" lon="0.20547">
        <ele>2379.9</ele>
        <time>2021-08-19T11:59:14.000Z</time>
      </trkpt>
      <trkpt lat="42.87416" lon="0.20538">
        <ele>2375</ele>
        <time>2021-08-19T11:59:36.000Z</time>
      </trkpt>
      <trkpt lat="42.87423" lon="0.20531">
        <ele>2372</ele>
        <time>2021-08-19T11:59:49.000Z</time>
      </trkpt>
      <trkpt lat="42.87431" lon="0.20524">
        <ele>2367.9</ele>
        <time>2021-08-19T12:00:10.000Z</time>
      </trkpt>
      <trkpt lat="42.87434" lon="0.20512">
        <ele>2367</ele>
        <time>2021-08-19T12:00:19.000Z</time>
      </trkpt>
      <trkpt lat="42.87444" lon="0.20512">
        <ele>2364.9</ele>
        <time>2021-08-19T12:00:32.000Z</time>
      </trkpt>
      <trkpt lat="42.87454" lon="0.2051">
        <ele>2363.7</ele>
        <time>2021-08-19T12:00:42.000Z</time>
      </trkpt>
      <trkpt lat="42.87447" lon="0.2052">
        <ele>2359.8</ele>
        <time>2021-08-19T12:01:04.000Z</time>
      </trkpt>
      <trkpt lat="42.87446" lon="0.20533">
        <ele>2357.3</ele>
        <time>2021-08-19T12:01:17.000Z</time>
      </trkpt>
      <trkpt lat="42.87456" lon="0.20531">
        <ele>2356.6</ele>
        <time>2021-08-19T12:01:26.000Z</time>
      </trkpt>
      <trkpt lat="42.87465" lon="0.20538">
        <ele>2356.3</ele>
        <time>2021-08-19T12:01:34.000Z</time>
      </trkpt>
      <trkpt lat="42.87473" lon="0.20545">
        <ele>2355.9</ele>
        <time>2021-08-19T12:01:43.000Z</time>
      </trkpt>
      <trkpt lat="42.87481" lon="0.20551">
        <ele>2355.2</ele>
        <time>2021-08-19T12:01:53.000Z</time>
      </trkpt>
      <trkpt lat="42.8749" lon="0.20553">
        <ele>2354.8</ele>
        <time>2021-08-19T12:02:03.000Z</time>
      </trkpt>
      <trkpt lat="42.87499" lon="0.20558">
        <ele>2354.1</ele>
        <time>2021-08-19T12:02:12.000Z</time>
      </trkpt>
      <trkpt lat="42.87508" lon="0.20559">
        <ele>2353.8</ele>
        <time>2021-08-19T12:02:24.000Z</time>
      </trkpt>
      <trkpt lat="42.87518" lon="0.20557">
        <ele>2353.5</ele>
        <time>2021-08-19T12:02:35.000Z</time>
      </trkpt>
      <trkpt lat="42.87527" lon="0.20552">
        <ele>2353.6</ele>
        <time>2021-08-19T12:02:50.000Z</time>
      </trkpt>
      <trkpt lat="42.87535" lon="0.20546">
        <ele>2353.8</ele>
        <time>2021-08-19T12:03:01.000Z</time>
      </trkpt>
      <trkpt lat="42.87543" lon="0.2054">
        <ele>2353.8</ele>
        <time>2021-08-19T12:03:12.000Z</time>
      </trkpt>
      <trkpt lat="42.87552" lon="0.20536">
        <ele>2353.8</ele>
        <time>2021-08-19T12:03:22.000Z</time>
      </trkpt>
      <trkpt lat="42.87561" lon="0.20536">
        <ele>2353.6</ele>
        <time>2021-08-19T12:03:31.000Z</time>
      </trkpt>
      <trkpt lat="42.8757" lon="0.20542">
        <ele>2352.9</ele>
        <time>2021-08-19T12:03:40.000Z</time>
      </trkpt>
      <trkpt lat="42.87579" lon="0.20548">
        <ele>2353.3</ele>
        <time>2021-08-19T12:03:49.000Z</time>
      </trkpt>
      <trkpt lat="42.87587" lon="0.20553">
        <ele>2353</ele>
        <time>2021-08-19T12:04:01.000Z</time>
      </trkpt>
      <trkpt lat="42.87593" lon="0.20563">
        <ele>2351.5</ele>
        <time>2021-08-19T12:04:17.000Z</time>
      </trkpt>
      <trkpt lat="42.87597" lon="0.20575">
        <ele>2350.2</ele>
        <time>2021-08-19T12:04:28.000Z</time>
      </trkpt>
      <trkpt lat="42.87605" lon="0.20581">
        <ele>2348</ele>
        <time>2021-08-19T12:04:39.000Z</time>
      </trkpt>
      <trkpt lat="42.87606" lon="0.20594">
        <ele>2345.6</ele>
        <time>2021-08-19T12:04:55.000Z</time>
      </trkpt>
      <trkpt lat="42.87615" lon="0.20594">
        <ele>2343.6</ele>
        <time>2021-08-19T12:05:07.000Z</time>
      </trkpt>
      <trkpt lat="42.87624" lon="0.20593">
        <ele>2342</ele>
        <time>2021-08-19T12:05:22.000Z</time>
      </trkpt>
      <trkpt lat="42.87628" lon="0.20592">
        <ele>2342.1</ele>
        <time>2021-08-19T12:05:28.000Z</time>
      </trkpt>
      <trkpt lat="42.87628" lon="0.20592">
        <ele>2342</ele>
        <time>2021-08-19T12:05:29.000Z</time>
      </trkpt>
      <trkpt lat="42.87637" lon="0.2059">
        <ele>2340.9</ele>
        <time>2021-08-19T12:05:43.000Z</time>
      </trkpt>
      <trkpt lat="42.87645" lon="0.20582">
        <ele>2339.6</ele>
        <time>2021-08-19T12:05:54.000Z</time>
      </trkpt>
      <trkpt lat="42.87653" lon="0.20575">
        <ele>2338.5</ele>
        <time>2021-08-19T12:06:09.000Z</time>
      </trkpt>
      <trkpt lat="42.87653" lon="0.20574">
        <ele>2337.9</ele>
        <time>2021-08-19T12:06:11.000Z</time>
      </trkpt>
      <trkpt lat="42.87653" lon="0.20574">
        <ele>2337.6</ele>
        <time>2021-08-19T12:06:13.000Z</time>
      </trkpt>
      <trkpt lat="42.87661" lon="0.20568">
        <ele>2335.6</ele>
        <time>2021-08-19T12:06:26.000Z</time>
      </trkpt>
      <trkpt lat="42.87664" lon="0.20567">
        <ele>2335.7</ele>
        <time>2021-08-19T12:06:35.000Z</time>
      </trkpt>
      <trkpt lat="42.87664" lon="0.20566">
        <ele>2335.8</ele>
        <time>2021-08-19T12:06:38.000Z</time>
      </trkpt>
      <trkpt lat="42.87664" lon="0.20566">
        <ele>2335.8</ele>
        <time>2021-08-19T12:06:39.000Z</time>
      </trkpt>
      <trkpt lat="42.87664" lon="0.20566">
        <ele>2335.8</ele>
        <time>2021-08-19T12:06:40.000Z</time>
      </trkpt>
      <trkpt lat="42.87673" lon="0.2056">
        <ele>2334.7</ele>
        <time>2021-08-19T12:06:55.000Z</time>
      </trkpt>
      <trkpt lat="42.87681" lon="0.20554">
        <ele>2333.5</ele>
        <time>2021-08-19T12:07:07.000Z</time>
      </trkpt>
      <trkpt lat="42.87687" lon="0.20549">
        <ele>2331.4</ele>
        <time>2021-08-19T12:07:24.000Z</time>
      </trkpt>
      <trkpt lat="42.87687" lon="0.20549">
        <ele>2331.1</ele>
        <time>2021-08-19T12:07:25.000Z</time>
      </trkpt>
      <trkpt lat="42.87692" lon="0.20539">
        <ele>2328.1</ele>
        <time>2021-08-19T12:07:42.000Z</time>
      </trkpt>
      <trkpt lat="42.87696" lon="0.20528">
        <ele>2325.2</ele>
        <time>2021-08-19T12:07:55.000Z</time>
      </trkpt>
      <trkpt lat="42.87705" lon="0.20523">
        <ele>2321.9</ele>
        <time>2021-08-19T12:08:09.000Z</time>
      </trkpt>
      <trkpt lat="42.87708" lon="0.20522">
        <ele>2321.4</ele>
        <time>2021-08-19T12:08:16.000Z</time>
      </trkpt>
      <trkpt lat="42.87707" lon="0.20523">
        <ele>2320.9</ele>
        <time>2021-08-19T12:08:23.000Z</time>
      </trkpt>
      <trkpt lat="42.87713" lon="0.20513">
        <ele>2318.4</ele>
        <time>2021-08-19T12:08:37.000Z</time>
      </trkpt>
      <trkpt lat="42.87721" lon="0.20505">
        <ele>2317.6</ele>
        <time>2021-08-19T12:08:46.000Z</time>
      </trkpt>
      <trkpt lat="42.8773" lon="0.205">
        <ele>2315.8</ele>
        <time>2021-08-19T12:08:56.000Z</time>
      </trkpt>
      <trkpt lat="42.87739" lon="0.20502">
        <ele>2314.3</ele>
        <time>2021-08-19T12:09:08.000Z</time>
      </trkpt>
      <trkpt lat="42.87748" lon="0.20498">
        <ele>2311.6</ele>
        <time>2021-08-19T12:09:24.000Z</time>
      </trkpt>
      <trkpt lat="42.87757" lon="0.20492">
        <ele>2309.6</ele>
        <time>2021-08-19T12:09:32.000Z</time>
      </trkpt>
      <trkpt lat="42.87764" lon="0.20482">
        <ele>2308.3</ele>
        <time>2021-08-19T12:09:41.000Z</time>
      </trkpt>
      <trkpt lat="42.8777" lon="0.20473">
        <ele>2307.5</ele>
        <time>2021-08-19T12:09:49.000Z</time>
      </trkpt>
      <trkpt lat="42.87776" lon="0.20461">
        <ele>2305.6</ele>
        <time>2021-08-19T12:09:57.000Z</time>
      </trkpt>
      <trkpt lat="42.87784" lon="0.20455">
        <ele>2304.5</ele>
        <time>2021-08-19T12:10:05.000Z</time>
      </trkpt>
      <trkpt lat="42.87794" lon="0.20457">
        <ele>2304.6</ele>
        <time>2021-08-19T12:10:13.000Z</time>
      </trkpt>
      <trkpt lat="42.87798" lon="0.20455">
        <ele>2304.9</ele>
        <time>2021-08-19T12:10:22.000Z</time>
      </trkpt>
      <trkpt lat="42.87798" lon="0.20455">
        <ele>2304.7</ele>
        <time>2021-08-19T12:10:28.000Z</time>
      </trkpt>
      <trkpt lat="42.87797" lon="0.20452">
        <ele>2304.2</ele>
        <time>2021-08-19T12:10:35.000Z</time>
      </trkpt>
      <trkpt lat="42.87797" lon="0.20452">
        <ele>2303.8</ele>
        <time>2021-08-19T12:11:10.000Z</time>
      </trkpt>
      <trkpt lat="42.87797" lon="0.20451">
        <ele>2303.8</ele>
        <time>2021-08-19T12:11:13.000Z</time>
      </trkpt>
      <trkpt lat="42.87797" lon="0.20452">
        <ele>2303.7</ele>
        <time>2021-08-19T12:11:30.000Z</time>
      </trkpt>
      <trkpt lat="42.87799" lon="0.20455">
        <ele>2302.4</ele>
        <time>2021-08-19T12:11:37.000Z</time>
      </trkpt>
      <trkpt lat="42.87799" lon="0.20455">
        <ele>2292.7</ele>
        <time>2021-08-19T12:12:35.000Z</time>
      </trkpt>
      <trkpt lat="42.87799" lon="0.20455">
        <ele>2292.8</ele>
        <time>2021-08-19T12:12:36.000Z</time>
      </trkpt>
      <trkpt lat="42.87799" lon="0.20455">
        <ele>2293.2</ele>
        <time>2021-08-19T12:12:43.000Z</time>
      </trkpt>
      <trkpt lat="42.87799" lon="0.20455">
        <ele>2293.3</ele>
        <time>2021-08-19T12:12:44.000Z</time>
      </trkpt>
      <trkpt lat="42.87798" lon="0.20455">
        <ele>2294.1</ele>
        <time>2021-08-19T12:12:53.000Z</time>
      </trkpt>
      <trkpt lat="42.87798" lon="0.20455">
        <ele>2294.5</ele>
        <time>2021-08-19T12:12:54.000Z</time>
      </trkpt>
      <trkpt lat="42.87798" lon="0.20456">
        <ele>2291.6</ele>
        <time>2021-08-19T12:13:05.000Z</time>
      </trkpt>
      <trkpt lat="42.87798" lon="0.20456">
        <ele>2291.1</ele>
        <time>2021-08-19T12:13:06.000Z</time>
      </trkpt>
      <trkpt lat="42.87798" lon="0.20456">
        <ele>2293.7</ele>
        <time>2021-08-19T12:13:15.000Z</time>
      </trkpt>
      <trkpt lat="42.87798" lon="0.20456">
        <ele>2293.6</ele>
        <time>2021-08-19T12:13:16.000Z</time>
      </trkpt>
      <trkpt lat="42.87798" lon="0.20457">
        <ele>2293.4</ele>
        <time>2021-08-19T12:13:28.000Z</time>
      </trkpt>
      <trkpt lat="42.87798" lon="0.20457">
        <ele>2293.1</ele>
        <time>2021-08-19T12:13:30.000Z</time>
      </trkpt>
      <trkpt lat="42.87798" lon="0.20457">
        <ele>2293.5</ele>
        <time>2021-08-19T12:13:37.000Z</time>
      </trkpt>
      <trkpt lat="42.87798" lon="0.20457">
        <ele>2293.7</ele>
        <time>2021-08-19T12:13:38.000Z</time>
      </trkpt>
      <trkpt lat="42.87798" lon="0.20457">
        <ele>2293.9</ele>
        <time>2021-08-19T12:13:47.000Z</time>
      </trkpt>
      <trkpt lat="42.87808" lon="0.20454">
        <ele>2291.6</ele>
        <time>2021-08-19T12:14:04.000Z</time>
      </trkpt>
      <trkpt lat="42.87808" lon="0.20454">
        <ele>2291.3</ele>
        <time>2021-08-19T12:14:07.000Z</time>
      </trkpt>
      <trkpt lat="42.87808" lon="0.20453">
        <ele>2291.2</ele>
        <time>2021-08-19T12:14:11.000Z</time>
      </trkpt>
      <trkpt lat="42.87814" lon="0.20444">
        <ele>2287.9</ele>
        <time>2021-08-19T12:14:31.000Z</time>
      </trkpt>
      <trkpt lat="42.87823" lon="0.2044">
        <ele>2284.7</ele>
        <time>2021-08-19T12:14:50.000Z</time>
      </trkpt>
      <trkpt lat="42.87826" lon="0.20444">
        <ele>2283.2</ele>
        <time>2021-08-19T12:15:01.000Z</time>
      </trkpt>
      <trkpt lat="42.87826" lon="0.20444">
        <ele>2283</ele>
        <time>2021-08-19T12:15:04.000Z</time>
      </trkpt>
      <trkpt lat="42.87833" lon="0.20435">
        <ele>2280.5</ele>
        <time>2021-08-19T12:15:16.000Z</time>
      </trkpt>
      <trkpt lat="42.8784" lon="0.20426">
        <ele>2279.3</ele>
        <time>2021-08-19T12:15:25.000Z</time>
      </trkpt>
      <trkpt lat="42.87848" lon="0.20419">
        <ele>2278</ele>
        <time>2021-08-19T12:15:37.000Z</time>
      </trkpt>
      <trkpt lat="42.87855" lon="0.2041">
        <ele>2276.9</ele>
        <time>2021-08-19T12:15:46.000Z</time>
      </trkpt>
      <trkpt lat="42.87864" lon="0.20404">
        <ele>2276.3</ele>
        <time>2021-08-19T12:15:55.000Z</time>
      </trkpt>
      <trkpt lat="42.87873" lon="0.20403">
        <ele>2275.7</ele>
        <time>2021-08-19T12:16:07.000Z</time>
      </trkpt>
      <trkpt lat="42.87882" lon="0.204">
        <ele>2275.6</ele>
        <time>2021-08-19T12:16:19.000Z</time>
      </trkpt>
      <trkpt lat="42.87891" lon="0.20403">
        <ele>2274.9</ele>
        <time>2021-08-19T12:16:29.000Z</time>
      </trkpt>
      <trkpt lat="42.87892" lon="0.20404">
        <ele>2275</ele>
        <time>2021-08-19T12:16:33.000Z</time>
      </trkpt>
      <trkpt lat="42.87893" lon="0.20404">
        <ele>2274.3</ele>
        <time>2021-08-19T12:16:37.000Z</time>
      </trkpt>
      <trkpt lat="42.87899" lon="0.20413">
        <ele>2273.2</ele>
        <time>2021-08-19T12:16:51.000Z</time>
      </trkpt>
      <trkpt lat="42.87907" lon="0.20406">
        <ele>2271.3</ele>
        <time>2021-08-19T12:17:08.000Z</time>
      </trkpt>
      <trkpt lat="42.87909" lon="0.20402">
        <ele>2270.2</ele>
        <time>2021-08-19T12:17:19.000Z</time>
      </trkpt>
      <trkpt lat="42.8791" lon="0.20402">
        <ele>2269.9</ele>
        <time>2021-08-19T12:17:20.000Z</time>
      </trkpt>
      <trkpt lat="42.87912" lon="0.20415">
        <ele>2268.4</ele>
        <time>2021-08-19T12:17:33.000Z</time>
      </trkpt>
      <trkpt lat="42.87916" lon="0.20426">
        <ele>2266.4</ele>
        <time>2021-08-19T12:17:47.000Z</time>
      </trkpt>
      <trkpt lat="42.87924" lon="0.2042">
        <ele>2263.8</ele>
        <time>2021-08-19T12:18:04.000Z</time>
      </trkpt>
      <trkpt lat="42.87929" lon="0.20431">
        <ele>2261.8</ele>
        <time>2021-08-19T12:18:16.000Z</time>
      </trkpt>
      <trkpt lat="42.87937" lon="0.20436">
        <ele>2259.6</ele>
        <time>2021-08-19T12:18:30.000Z</time>
      </trkpt>
      <trkpt lat="42.8794" lon="0.20448">
        <ele>2258.9</ele>
        <time>2021-08-19T12:18:41.000Z</time>
      </trkpt>
      <trkpt lat="42.8794" lon="0.20455">
        <ele>2258.3</ele>
        <time>2021-08-19T12:18:49.000Z</time>
      </trkpt>
      <trkpt lat="42.8794" lon="0.20455">
        <ele>2258.2</ele>
        <time>2021-08-19T12:18:50.000Z</time>
      </trkpt>
      <trkpt lat="42.87941" lon="0.20455">
        <ele>2257.8</ele>
        <time>2021-08-19T12:18:52.000Z</time>
      </trkpt>
      <trkpt lat="42.8794" lon="0.20455">
        <ele>2257.5</ele>
        <time>2021-08-19T12:18:53.000Z</time>
      </trkpt>
      <trkpt lat="42.8794" lon="0.20455">
        <ele>2257.5</ele>
        <time>2021-08-19T12:18:54.000Z</time>
      </trkpt>
      <trkpt lat="42.87941" lon="0.20456">
        <ele>2257.3</ele>
        <time>2021-08-19T12:19:00.000Z</time>
      </trkpt>
      <trkpt lat="42.87941" lon="0.20456">
        <ele>2257.3</ele>
        <time>2021-08-19T12:19:01.000Z</time>
      </trkpt>
      <trkpt lat="42.87941" lon="0.20456">
        <ele>2257.3</ele>
        <time>2021-08-19T12:19:15.000Z</time>
      </trkpt>
      <trkpt lat="42.87944" lon="0.20468">
        <ele>2255.4</ele>
        <time>2021-08-19T12:19:31.000Z</time>
      </trkpt>
      <trkpt lat="42.87945" lon="0.2048">
        <ele>2254.2</ele>
        <time>2021-08-19T12:19:43.000Z</time>
      </trkpt>
      <trkpt lat="42.8795" lon="0.20491">
        <ele>2251</ele>
        <time>2021-08-19T12:20:01.000Z</time>
      </trkpt>
      <trkpt lat="42.8795" lon="0.20489">
        <ele>2250.5</ele>
        <time>2021-08-19T12:20:04.000Z</time>
      </trkpt>
      <trkpt lat="42.87949" lon="0.20489">
        <ele>2250.5</ele>
        <time>2021-08-19T12:20:05.000Z</time>
      </trkpt>
      <trkpt lat="42.87949" lon="0.20489">
        <ele>2250.4</ele>
        <time>2021-08-19T12:20:06.000Z</time>
      </trkpt>
      <trkpt lat="42.87949" lon="0.20489">
        <ele>2249.9</ele>
        <time>2021-08-19T12:20:08.000Z</time>
      </trkpt>
      <trkpt lat="42.87955" lon="0.20499">
        <ele>2248.7</ele>
        <time>2021-08-19T12:20:23.000Z</time>
      </trkpt>
      <trkpt lat="42.87956" lon="0.20504">
        <ele>2248.6</ele>
        <time>2021-08-19T12:20:29.000Z</time>
      </trkpt>
      <trkpt lat="42.87955" lon="0.20504">
        <ele>2248.8</ele>
        <time>2021-08-19T12:20:30.000Z</time>
      </trkpt>
      <trkpt lat="42.87955" lon="0.20503">
        <ele>2249</ele>
        <time>2021-08-19T12:20:31.000Z</time>
      </trkpt>
      <trkpt lat="42.87955" lon="0.20503">
        <ele>2249</ele>
        <time>2021-08-19T12:20:32.000Z</time>
      </trkpt>
      <trkpt lat="42.87955" lon="0.20503">
        <ele>2249</ele>
        <time>2021-08-19T12:20:33.000Z</time>
      </trkpt>
      <trkpt lat="42.87956" lon="0.20502">
        <ele>2249.9</ele>
        <time>2021-08-19T12:20:39.000Z</time>
      </trkpt>
      <trkpt lat="42.87956" lon="0.20501">
        <ele>2249.7</ele>
        <time>2021-08-19T12:20:43.000Z</time>
      </trkpt>
      <trkpt lat="42.87956" lon="0.20501">
        <ele>2249.5</ele>
        <time>2021-08-19T12:20:45.000Z</time>
      </trkpt>
      <trkpt lat="42.87957" lon="0.20501">
        <ele>2249.6</ele>
        <time>2021-08-19T12:20:50.000Z</time>
      </trkpt>
      <trkpt lat="42.87957" lon="0.20501">
        <ele>2249.2</ele>
        <time>2021-08-19T12:20:54.000Z</time>
      </trkpt>
      <trkpt lat="42.87959" lon="0.20513">
        <ele>2247.3</ele>
        <time>2021-08-19T12:21:11.000Z</time>
      </trkpt>
      <trkpt lat="42.87964" lon="0.20524">
        <ele>2245.5</ele>
        <time>2021-08-19T12:21:22.000Z</time>
      </trkpt>
      <trkpt lat="42.87969" lon="0.20534">
        <ele>2244.8</ele>
        <time>2021-08-19T12:21:31.000Z</time>
      </trkpt>
      <trkpt lat="42.87976" lon="0.20543">
        <ele>2244.4</ele>
        <time>2021-08-19T12:21:40.000Z</time>
      </trkpt>
      <trkpt lat="42.87979" lon="0.20555">
        <ele>2244.5</ele>
        <time>2021-08-19T12:21:50.000Z</time>
      </trkpt>
      <trkpt lat="42.87981" lon="0.2056">
        <ele>2245.2</ele>
        <time>2021-08-19T12:22:03.000Z</time>
      </trkpt>
      <trkpt lat="42.87981" lon="0.2056">
        <ele>2245.3</ele>
        <time>2021-08-19T12:22:06.000Z</time>
      </trkpt>
      <trkpt lat="42.87991" lon="0.20562">
        <ele>2245.5</ele>
        <time>2021-08-19T12:22:20.000Z</time>
      </trkpt>
      <trkpt lat="42.88" lon="0.20558">
        <ele>2243.2</ele>
        <time>2021-08-19T12:22:36.000Z</time>
      </trkpt>
      <trkpt lat="42.88008" lon="0.20565">
        <ele>2242.4</ele>
        <time>2021-08-19T12:22:49.000Z</time>
      </trkpt>
      <trkpt lat="42.88012" lon="0.20568">
        <ele>2241.7</ele>
        <time>2021-08-19T12:22:56.000Z</time>
      </trkpt>
      <trkpt lat="42.88012" lon="0.20568">
        <ele>2241.5</ele>
        <time>2021-08-19T12:22:57.000Z</time>
      </trkpt>
      <trkpt lat="42.88012" lon="0.20569">
        <ele>2241.1</ele>
        <time>2021-08-19T12:22:59.000Z</time>
      </trkpt>
      <trkpt lat="42.88013" lon="0.20569">
        <ele>2241</ele>
        <time>2021-08-19T12:23:00.000Z</time>
      </trkpt>
      <trkpt lat="42.88022" lon="0.20569">
        <ele>2240.7</ele>
        <time>2021-08-19T12:23:10.000Z</time>
      </trkpt>
      <trkpt lat="42.8803" lon="0.20563">
        <ele>2241.8</ele>
        <time>2021-08-19T12:23:24.000Z</time>
      </trkpt>
      <trkpt lat="42.88039" lon="0.20563">
        <ele>2241.8</ele>
        <time>2021-08-19T12:23:34.000Z</time>
      </trkpt>
      <trkpt lat="42.88048" lon="0.20563">
        <ele>2240.7</ele>
        <time>2021-08-19T12:23:46.000Z</time>
      </trkpt>
      <trkpt lat="42.88058" lon="0.20564">
        <ele>2240.2</ele>
        <time>2021-08-19T12:23:56.000Z</time>
      </trkpt>
      <trkpt lat="42.88067" lon="0.20567">
        <ele>2240.5</ele>
        <time>2021-08-19T12:24:09.000Z</time>
      </trkpt>
      <trkpt lat="42.88076" lon="0.20571">
        <ele>2239.8</ele>
        <time>2021-08-19T12:24:20.000Z</time>
      </trkpt>
      <trkpt lat="42.88076" lon="0.20571">
        <ele>2239.9</ele>
        <time>2021-08-19T12:24:23.000Z</time>
      </trkpt>
      <trkpt lat="42.88076" lon="0.20571">
        <ele>2239.8</ele>
        <time>2021-08-19T12:24:27.000Z</time>
      </trkpt>
      <trkpt lat="42.88085" lon="0.20573">
        <ele>2238.5</ele>
        <time>2021-08-19T12:24:40.000Z</time>
      </trkpt>
      <trkpt lat="42.88093" lon="0.20569">
        <ele>2236</ele>
        <time>2021-08-19T12:24:57.000Z</time>
      </trkpt>
      <trkpt lat="42.88095" lon="0.20567">
        <ele>2235.1</ele>
        <time>2021-08-19T12:25:03.000Z</time>
      </trkpt>
      <trkpt lat="42.88095" lon="0.20567">
        <ele>2235.2</ele>
        <time>2021-08-19T12:25:06.000Z</time>
      </trkpt>
      <trkpt lat="42.88095" lon="0.20567">
        <ele>2235</ele>
        <time>2021-08-19T12:25:07.000Z</time>
      </trkpt>
      <trkpt lat="42.88095" lon="0.20566">
        <ele>2235</ele>
        <time>2021-08-19T12:25:08.000Z</time>
      </trkpt>
      <trkpt lat="42.88096" lon="0.20564">
        <ele>2235.1</ele>
        <time>2021-08-19T12:25:13.000Z</time>
      </trkpt>
      <trkpt lat="42.88096" lon="0.20564">
        <ele>2234.9</ele>
        <time>2021-08-19T12:25:14.000Z</time>
      </trkpt>
      <trkpt lat="42.88105" lon="0.20559">
        <ele>2233.6</ele>
        <time>2021-08-19T12:25:25.000Z</time>
      </trkpt>
      <trkpt lat="42.8811" lon="0.20549">
        <ele>2232.6</ele>
        <time>2021-08-19T12:25:38.000Z</time>
      </trkpt>
      <trkpt lat="42.88111" lon="0.20548">
        <ele>2232</ele>
        <time>2021-08-19T12:25:41.000Z</time>
      </trkpt>
      <trkpt lat="42.88111" lon="0.20548">
        <ele>2232</ele>
        <time>2021-08-19T12:25:42.000Z</time>
      </trkpt>
      <trkpt lat="42.88111" lon="0.20548">
        <ele>2232.1</ele>
        <time>2021-08-19T12:25:43.000Z</time>
      </trkpt>
      <trkpt lat="42.88112" lon="0.20548">
        <ele>2232.1</ele>
        <time>2021-08-19T12:25:59.000Z</time>
      </trkpt>
      <trkpt lat="42.88112" lon="0.20548">
        <ele>2232</ele>
        <time>2021-08-19T12:26:00.000Z</time>
      </trkpt>
      <trkpt lat="42.88111" lon="0.20548">
        <ele>2232.6</ele>
        <time>2021-08-19T12:26:36.000Z</time>
      </trkpt>
      <trkpt lat="42.88111" lon="0.20548">
        <ele>2232.5</ele>
        <time>2021-08-19T12:26:38.000Z</time>
      </trkpt>
      <trkpt lat="42.88111" lon="0.20548">
        <ele>2232.6</ele>
        <time>2021-08-19T12:26:50.000Z</time>
      </trkpt>
      <trkpt lat="42.88111" lon="0.20548">
        <ele>2232.7</ele>
        <time>2021-08-19T12:26:51.000Z</time>
      </trkpt>
      <trkpt lat="42.88112" lon="0.20548">
        <ele>2232.8</ele>
        <time>2021-08-19T12:26:53.000Z</time>
      </trkpt>
      <trkpt lat="42.88112" lon="0.20548">
        <ele>2232.7</ele>
        <time>2021-08-19T12:26:54.000Z</time>
      </trkpt>
      <trkpt lat="42.88112" lon="0.20547">
        <ele>2232.9</ele>
        <time>2021-08-19T12:27:00.000Z</time>
      </trkpt>
      <trkpt lat="42.88121" lon="0.20543">
        <ele>2231.9</ele>
        <time>2021-08-19T12:27:13.000Z</time>
      </trkpt>
      <trkpt lat="42.88122" lon="0.20543">
        <ele>2231.3</ele>
        <time>2021-08-19T12:27:17.000Z</time>
      </trkpt>
      <trkpt lat="42.88122" lon="0.20543">
        <ele>2231.6</ele>
        <time>2021-08-19T12:27:25.000Z</time>
      </trkpt>
      <trkpt lat="42.88122" lon="0.20543">
        <ele>2231.5</ele>
        <time>2021-08-19T12:27:27.000Z</time>
      </trkpt>
      <trkpt lat="42.88122" lon="0.20542">
        <ele>2231</ele>
        <time>2021-08-19T12:27:30.000Z</time>
      </trkpt>
      <trkpt lat="42.88123" lon="0.20529">
        <ele>2230.1</ele>
        <time>2021-08-19T12:27:39.000Z</time>
      </trkpt>
      <trkpt lat="42.88129" lon="0.20519">
        <ele>2229.6</ele>
        <time>2021-08-19T12:27:50.000Z</time>
      </trkpt>
      <trkpt lat="42.88132" lon="0.20516">
        <ele>2229.1</ele>
        <time>2021-08-19T12:27:57.000Z</time>
      </trkpt>
      <trkpt lat="42.88132" lon="0.20516">
        <ele>2228.3</ele>
        <time>2021-08-19T12:28:00.000Z</time>
      </trkpt>
      <trkpt lat="42.88137" lon="0.20506">
        <ele>2227.6</ele>
        <time>2021-08-19T12:28:10.000Z</time>
      </trkpt>
      <trkpt lat="42.88142" lon="0.20494">
        <ele>2226.5</ele>
        <time>2021-08-19T12:28:21.000Z</time>
      </trkpt>
      <trkpt lat="42.88143" lon="0.20486">
        <ele>2226.1</ele>
        <time>2021-08-19T12:28:34.000Z</time>
      </trkpt>
      <trkpt lat="42.88143" lon="0.20486">
        <ele>2225.8</ele>
        <time>2021-08-19T12:28:41.000Z</time>
      </trkpt>
      <trkpt lat="42.88146" lon="0.20474">
        <ele>2225.1</ele>
        <time>2021-08-19T12:28:58.000Z</time>
      </trkpt>
      <trkpt lat="42.88152" lon="0.20468">
        <ele>2225</ele>
        <time>2021-08-19T12:29:12.000Z</time>
      </trkpt>
      <trkpt lat="42.88152" lon="0.20468">
        <ele>2224.9</ele>
        <time>2021-08-19T12:29:13.000Z</time>
      </trkpt>
      <trkpt lat="42.88158" lon="0.20459">
        <ele>2224.5</ele>
        <time>2021-08-19T12:29:27.000Z</time>
      </trkpt>
      <trkpt lat="42.88158" lon="0.20459">
        <ele>2224.4</ele>
        <time>2021-08-19T12:29:28.000Z</time>
      </trkpt>
      <trkpt lat="42.88167" lon="0.20455">
        <ele>2224.7</ele>
        <time>2021-08-19T12:29:42.000Z</time>
      </trkpt>
      <trkpt lat="42.88175" lon="0.20452">
        <ele>2224.2</ele>
        <time>2021-08-19T12:29:55.000Z</time>
      </trkpt>
      <trkpt lat="42.88176" lon="0.20452">
        <ele>2224.6</ele>
        <time>2021-08-19T12:29:57.000Z</time>
      </trkpt>
      <trkpt lat="42.88176" lon="0.20452">
        <ele>2224.6</ele>
        <time>2021-08-19T12:29:58.000Z</time>
      </trkpt>
      <trkpt lat="42.88176" lon="0.20452">
        <ele>2224.8</ele>
        <time>2021-08-19T12:29:59.000Z</time>
      </trkpt>
      <trkpt lat="42.88176" lon="0.20452">
        <ele>2225</ele>
        <time>2021-08-19T12:30:00.000Z</time>
      </trkpt>
      <trkpt lat="42.88183" lon="0.20443">
        <ele>2223.2</ele>
        <time>2021-08-19T12:30:11.000Z</time>
      </trkpt>
      <trkpt lat="42.88183" lon="0.20443">
        <ele>2223.2</ele>
        <time>2021-08-19T12:30:13.000Z</time>
      </trkpt>
      <trkpt lat="42.88183" lon="0.20443">
        <ele>2223.8</ele>
        <time>2021-08-19T12:30:17.000Z</time>
      </trkpt>
      <trkpt lat="42.88189" lon="0.20434">
        <ele>2224.9</ele>
        <time>2021-08-19T12:30:27.000Z</time>
      </trkpt>
      <trkpt lat="42.88198" lon="0.20426">
        <ele>2225.4</ele>
        <time>2021-08-19T12:30:37.000Z</time>
      </trkpt>
      <trkpt lat="42.88207" lon="0.20425">
        <ele>2225.9</ele>
        <time>2021-08-19T12:30:45.000Z</time>
      </trkpt>
      <trkpt lat="42.88214" lon="0.20428">
        <ele>2226.7</ele>
        <time>2021-08-19T12:30:58.000Z</time>
      </trkpt>
      <trkpt lat="42.88214" lon="0.20429">
        <ele>2227.2</ele>
        <time>2021-08-19T12:31:04.000Z</time>
      </trkpt>
      <trkpt lat="42.88215" lon="0.20433">
        <ele>2226.3</ele>
        <time>2021-08-19T12:31:12.000Z</time>
      </trkpt>
      <trkpt lat="42.88215" lon="0.20433">
        <ele>2226.3</ele>
        <time>2021-08-19T12:31:14.000Z</time>
      </trkpt>
      <trkpt lat="42.88215" lon="0.20433">
        <ele>2226.3</ele>
        <time>2021-08-19T12:31:15.000Z</time>
      </trkpt>
      <trkpt lat="42.88216" lon="0.20433">
        <ele>2226.4</ele>
        <time>2021-08-19T12:31:18.000Z</time>
      </trkpt>
      <trkpt lat="42.88219" lon="0.20437">
        <ele>2225.3</ele>
        <time>2021-08-19T12:31:28.000Z</time>
      </trkpt>
      <trkpt lat="42.88219" lon="0.20437">
        <ele>2225.4</ele>
        <time>2021-08-19T12:31:29.000Z</time>
      </trkpt>
      <trkpt lat="42.88219" lon="0.20437">
        <ele>2225.6</ele>
        <time>2021-08-19T12:31:30.000Z</time>
      </trkpt>
      <trkpt lat="42.88219" lon="0.20437">
        <ele>2225.4</ele>
        <time>2021-08-19T12:31:44.000Z</time>
      </trkpt>
      <trkpt lat="42.88226" lon="0.2044">
        <ele>2224.9</ele>
        <time>2021-08-19T12:32:00.000Z</time>
      </trkpt>
      <trkpt lat="42.88226" lon="0.2044">
        <ele>2225</ele>
        <time>2021-08-19T12:32:02.000Z</time>
      </trkpt>
      <trkpt lat="42.88226" lon="0.2044">
        <ele>2225</ele>
        <time>2021-08-19T12:32:03.000Z</time>
      </trkpt>
      <trkpt lat="42.88226" lon="0.20441">
        <ele>2224.9</ele>
        <time>2021-08-19T12:32:05.000Z</time>
      </trkpt>
      <trkpt lat="42.88232" lon="0.20452">
        <ele>2223.3</ele>
        <time>2021-08-19T12:32:16.000Z</time>
      </trkpt>
      <trkpt lat="42.88237" lon="0.20464">
        <ele>2221.6</ele>
        <time>2021-08-19T12:32:29.000Z</time>
      </trkpt>
      <trkpt lat="42.88239" lon="0.20477">
        <ele>2219.4</ele>
        <time>2021-08-19T12:32:38.000Z</time>
      </trkpt>
      <trkpt lat="42.88246" lon="0.20485">
        <ele>2217.7</ele>
        <time>2021-08-19T12:32:50.000Z</time>
      </trkpt>
      <trkpt lat="42.88253" lon="0.20494">
        <ele>2216.3</ele>
        <time>2021-08-19T12:32:59.000Z</time>
      </trkpt>
      <trkpt lat="42.88263" lon="0.20497">
        <ele>2215.6</ele>
        <time>2021-08-19T12:33:12.000Z</time>
      </trkpt>
      <trkpt lat="42.88265" lon="0.20502">
        <ele>2214.4</ele>
        <time>2021-08-19T12:33:21.000Z</time>
      </trkpt>
      <trkpt lat="42.88265" lon="0.20502">
        <ele>2214.2</ele>
        <time>2021-08-19T12:33:22.000Z</time>
      </trkpt>
      <trkpt lat="42.88272" lon="0.20511">
        <ele>2213.4</ele>
        <time>2021-08-19T12:33:31.000Z</time>
      </trkpt>
      <trkpt lat="42.88279" lon="0.2052">
        <ele>2212.6</ele>
        <time>2021-08-19T12:33:40.000Z</time>
      </trkpt>
      <trkpt lat="42.88284" lon="0.20523">
        <ele>2211.8</ele>
        <time>2021-08-19T12:33:45.000Z</time>
      </trkpt>
      <trkpt lat="42.88283" lon="0.20523">
        <ele>2211.6</ele>
        <time>2021-08-19T12:33:46.000Z</time>
      </trkpt>
      <trkpt lat="42.88283" lon="0.20523">
        <ele>2211.5</ele>
        <time>2021-08-19T12:33:47.000Z</time>
      </trkpt>
      <trkpt lat="42.88284" lon="0.20523">
        <ele>2211.6</ele>
        <time>2021-08-19T12:33:54.000Z</time>
      </trkpt>
      <trkpt lat="42.88293" lon="0.20518">
        <ele>2211.2</ele>
        <time>2021-08-19T12:34:05.000Z</time>
      </trkpt>
      <trkpt lat="42.88299" lon="0.20514">
        <ele>2210.9</ele>
        <time>2021-08-19T12:34:17.000Z</time>
      </trkpt>
      <trkpt lat="42.883" lon="0.20514">
        <ele>2211.1</ele>
        <time>2021-08-19T12:34:22.000Z</time>
      </trkpt>
      <trkpt lat="42.88309" lon="0.20514">
        <ele>2210.5</ele>
        <time>2021-08-19T12:34:32.000Z</time>
      </trkpt>
      <trkpt lat="42.88318" lon="0.20514">
        <ele>2209.6</ele>
        <time>2021-08-19T12:34:39.000Z</time>
      </trkpt>
      <trkpt lat="42.88328" lon="0.20514">
        <ele>2209</ele>
        <time>2021-08-19T12:34:47.000Z</time>
      </trkpt>
      <trkpt lat="42.88338" lon="0.20512">
        <ele>2208.4</ele>
        <time>2021-08-19T12:34:58.000Z</time>
      </trkpt>
      <trkpt lat="42.88346" lon="0.20515">
        <ele>2205.6</ele>
        <time>2021-08-19T12:35:18.000Z</time>
      </trkpt>
      <trkpt lat="42.88356" lon="0.20512">
        <ele>2203.7</ele>
        <time>2021-08-19T12:35:29.000Z</time>
      </trkpt>
      <trkpt lat="42.88363" lon="0.20511">
        <ele>2201.5</ele>
        <time>2021-08-19T12:35:40.000Z</time>
      </trkpt>
      <trkpt lat="42.88363" lon="0.20511">
        <ele>2201.5</ele>
        <time>2021-08-19T12:35:41.000Z</time>
      </trkpt>
      <trkpt lat="42.88365" lon="0.20512">
        <ele>2200.8</ele>
        <time>2021-08-19T12:35:50.000Z</time>
      </trkpt>
      <trkpt lat="42.88365" lon="0.20511">
        <ele>2200.5</ele>
        <time>2021-08-19T12:35:52.000Z</time>
      </trkpt>
      <trkpt lat="42.88374" lon="0.2051">
        <ele>2197.4</ele>
        <time>2021-08-19T12:36:08.000Z</time>
      </trkpt>
      <trkpt lat="42.88381" lon="0.20501">
        <ele>2196.1</ele>
        <time>2021-08-19T12:36:21.000Z</time>
      </trkpt>
      <trkpt lat="42.88391" lon="0.20498">
        <ele>2193.6</ele>
        <time>2021-08-19T12:36:32.000Z</time>
      </trkpt>
      <trkpt lat="42.88393" lon="0.20486">
        <ele>2192.8</ele>
        <time>2021-08-19T12:36:40.000Z</time>
      </trkpt>
      <trkpt lat="42.88391" lon="0.20472">
        <ele>2192.7</ele>
        <time>2021-08-19T12:36:47.000Z</time>
      </trkpt>
      <trkpt lat="42.88393" lon="0.2046">
        <ele>2192.6</ele>
        <time>2021-08-19T12:36:55.000Z</time>
      </trkpt>
      <trkpt lat="42.884" lon="0.20452">
        <ele>2192.9</ele>
        <time>2021-08-19T12:37:05.000Z</time>
      </trkpt>
      <trkpt lat="42.88408" lon="0.20445">
        <ele>2192.1</ele>
        <time>2021-08-19T12:37:15.000Z</time>
      </trkpt>
      <trkpt lat="42.88413" lon="0.20438">
        <ele>2191.9</ele>
        <time>2021-08-19T12:37:26.000Z</time>
      </trkpt>
      <trkpt lat="42.88413" lon="0.20438">
        <ele>2192</ele>
        <time>2021-08-19T12:37:27.000Z</time>
      </trkpt>
      <trkpt lat="42.88417" lon="0.20426">
        <ele>2193.3</ele>
        <time>2021-08-19T12:37:45.000Z</time>
      </trkpt>
      <trkpt lat="42.88424" lon="0.20435">
        <ele>2188.5</ele>
        <time>2021-08-19T12:38:15.000Z</time>
      </trkpt>
      <trkpt lat="42.88433" lon="0.2044">
        <ele>2185.7</ele>
        <time>2021-08-19T12:38:25.000Z</time>
      </trkpt>
      <trkpt lat="42.88442" lon="0.20443">
        <ele>2182.4</ele>
        <time>2021-08-19T12:38:40.000Z</time>
      </trkpt>
      <trkpt lat="42.88451" lon="0.20446">
        <ele>2179.9</ele>
        <time>2021-08-19T12:38:51.000Z</time>
      </trkpt>
      <trkpt lat="42.88457" lon="0.20452">
        <ele>2176.6</ele>
        <time>2021-08-19T12:39:11.000Z</time>
      </trkpt>
      <trkpt lat="42.88457" lon="0.20452">
        <ele>2176</ele>
        <time>2021-08-19T12:39:19.000Z</time>
      </trkpt>
      <trkpt lat="42.88456" lon="0.20461">
        <ele>2174.4</ele>
        <time>2021-08-19T12:39:34.000Z</time>
      </trkpt>
      <trkpt lat="42.88456" lon="0.20462">
        <ele>2174.2</ele>
        <time>2021-08-19T12:39:35.000Z</time>
      </trkpt>
      <trkpt lat="42.88449" lon="0.20471">
        <ele>2172.7</ele>
        <time>2021-08-19T12:39:49.000Z</time>
      </trkpt>
      <trkpt lat="42.88441" lon="0.20476">
        <ele>2170.6</ele>
        <time>2021-08-19T12:39:58.000Z</time>
      </trkpt>
      <trkpt lat="42.8844" lon="0.20476">
        <ele>2170.1</ele>
        <time>2021-08-19T12:40:02.000Z</time>
      </trkpt>
      <trkpt lat="42.88441" lon="0.20476">
        <ele>2169.7</ele>
        <time>2021-08-19T12:40:03.000Z</time>
      </trkpt>
      <trkpt lat="42.88443" lon="0.20473">
        <ele>2168.8</ele>
        <time>2021-08-19T12:40:09.000Z</time>
      </trkpt>
      <trkpt lat="42.88443" lon="0.20473">
        <ele>2168.3</ele>
        <time>2021-08-19T12:40:12.000Z</time>
      </trkpt>
      <trkpt lat="42.88447" lon="0.20473">
        <ele>2165.8</ele>
        <time>2021-08-19T12:40:30.000Z</time>
      </trkpt>
      <trkpt lat="42.88448" lon="0.20473">
        <ele>2165.6</ele>
        <time>2021-08-19T12:40:31.000Z</time>
      </trkpt>
      <trkpt lat="42.88452" lon="0.2048">
        <ele>2162</ele>
        <time>2021-08-19T12:40:50.000Z</time>
      </trkpt>
      <trkpt lat="42.88452" lon="0.20481">
        <ele>2162</ele>
        <time>2021-08-19T12:40:51.000Z</time>
      </trkpt>
      <trkpt lat="42.88454" lon="0.20485">
        <ele>2160.1</ele>
        <time>2021-08-19T12:41:02.000Z</time>
      </trkpt>
      <trkpt lat="42.88453" lon="0.20485">
        <ele>2159.9</ele>
        <time>2021-08-19T12:41:03.000Z</time>
      </trkpt>
      <trkpt lat="42.88455" lon="0.20497">
        <ele>2157.1</ele>
        <time>2021-08-19T12:41:14.000Z</time>
      </trkpt>
      <trkpt lat="42.88455" lon="0.205">
        <ele>2155.3</ele>
        <time>2021-08-19T12:41:22.000Z</time>
      </trkpt>
      <trkpt lat="42.88455" lon="0.205">
        <ele>2155</ele>
        <time>2021-08-19T12:41:23.000Z</time>
      </trkpt>
      <trkpt lat="42.88456" lon="0.20501">
        <ele>2154.2</ele>
        <time>2021-08-19T12:41:27.000Z</time>
      </trkpt>
      <trkpt lat="42.88456" lon="0.20501">
        <ele>2153.8</ele>
        <time>2021-08-19T12:41:28.000Z</time>
      </trkpt>
      <trkpt lat="42.88458" lon="0.20506">
        <ele>2151.8</ele>
        <time>2021-08-19T12:41:37.000Z</time>
      </trkpt>
      <trkpt lat="42.88458" lon="0.20506">
        <ele>2151.4</ele>
        <time>2021-08-19T12:41:38.000Z</time>
      </trkpt>
      <trkpt lat="42.88461" lon="0.20504">
        <ele>2150.2</ele>
        <time>2021-08-19T12:41:46.000Z</time>
      </trkpt>
      <trkpt lat="42.88461" lon="0.20504">
        <ele>2148.9</ele>
        <time>2021-08-19T12:41:49.000Z</time>
      </trkpt>
      <trkpt lat="42.88465" lon="0.20506">
        <ele>2146.4</ele>
        <time>2021-08-19T12:42:03.000Z</time>
      </trkpt>
      <trkpt lat="42.88465" lon="0.20507">
        <ele>2146.1</ele>
        <time>2021-08-19T12:42:05.000Z</time>
      </trkpt>
      <trkpt lat="42.88473" lon="0.20511">
        <ele>2143.9</ele>
        <time>2021-08-19T12:42:16.000Z</time>
      </trkpt>
      <trkpt lat="42.88479" lon="0.20521">
        <ele>2142.9</ele>
        <time>2021-08-19T12:42:24.000Z</time>
      </trkpt>
      <trkpt lat="42.88485" lon="0.2053">
        <ele>2141.8</ele>
        <time>2021-08-19T12:42:35.000Z</time>
      </trkpt>
      <trkpt lat="42.88492" lon="0.2054">
        <ele>2141.7</ele>
        <time>2021-08-19T12:42:43.000Z</time>
      </trkpt>
      <trkpt lat="42.88502" lon="0.20543">
        <ele>2142.6</ele>
        <time>2021-08-19T12:42:53.000Z</time>
      </trkpt>
      <trkpt lat="42.88511" lon="0.20546">
        <ele>2142.9</ele>
        <time>2021-08-19T12:43:07.000Z</time>
      </trkpt>
      <trkpt lat="42.88516" lon="0.20556">
        <ele>2142.6</ele>
        <time>2021-08-19T12:43:15.000Z</time>
      </trkpt>
      <trkpt lat="42.88514" lon="0.20569">
        <ele>2141</ele>
        <time>2021-08-19T12:43:26.000Z</time>
      </trkpt>
      <trkpt lat="42.88517" lon="0.20582">
        <ele>2139.7</ele>
        <time>2021-08-19T12:43:42.000Z</time>
      </trkpt>
      <trkpt lat="42.88521" lon="0.20593">
        <ele>2139.3</ele>
        <time>2021-08-19T12:43:52.000Z</time>
      </trkpt>
      <trkpt lat="42.88525" lon="0.20605">
        <ele>2138.6</ele>
        <time>2021-08-19T12:44:05.000Z</time>
      </trkpt>
      <trkpt lat="42.8853" lon="0.20616">
        <ele>2136.7</ele>
        <time>2021-08-19T12:44:17.000Z</time>
      </trkpt>
      <trkpt lat="42.8853" lon="0.20627">
        <ele>2135.6</ele>
        <time>2021-08-19T12:44:34.000Z</time>
      </trkpt>
      <trkpt lat="42.8853" lon="0.20627">
        <ele>2135.4</ele>
        <time>2021-08-19T12:44:37.000Z</time>
      </trkpt>
      <trkpt lat="42.88526" lon="0.2064">
        <ele>2135.4</ele>
        <time>2021-08-19T12:44:53.000Z</time>
      </trkpt>
      <trkpt lat="42.88534" lon="0.20649">
        <ele>2135.2</ele>
        <time>2021-08-19T12:45:04.000Z</time>
      </trkpt>
      <trkpt lat="42.88544" lon="0.20649">
        <ele>2135.5</ele>
        <time>2021-08-19T12:45:14.000Z</time>
      </trkpt>
      <trkpt lat="42.88551" lon="0.20649">
        <ele>2136.2</ele>
        <time>2021-08-19T12:45:23.000Z</time>
      </trkpt>
      <trkpt lat="42.88552" lon="0.20649">
        <ele>2136.1</ele>
        <time>2021-08-19T12:45:24.000Z</time>
      </trkpt>
      <trkpt lat="42.8856" lon="0.20646">
        <ele>2135.1</ele>
        <time>2021-08-19T12:45:44.000Z</time>
      </trkpt>
      <trkpt lat="42.8857" lon="0.20644">
        <ele>2134.1</ele>
        <time>2021-08-19T12:45:54.000Z</time>
      </trkpt>
      <trkpt lat="42.88577" lon="0.20635">
        <ele>2132.6</ele>
        <time>2021-08-19T12:46:12.000Z</time>
      </trkpt>
      <trkpt lat="42.88585" lon="0.20627">
        <ele>2132.3</ele>
        <time>2021-08-19T12:46:27.000Z</time>
      </trkpt>
      <trkpt lat="42.88588" lon="0.20623">
        <ele>2132.9</ele>
        <time>2021-08-19T12:46:37.000Z</time>
      </trkpt>
      <trkpt lat="42.88589" lon="0.20623">
        <ele>2132.7</ele>
        <time>2021-08-19T12:46:38.000Z</time>
      </trkpt>
      <trkpt lat="42.88598" lon="0.20624">
        <ele>2134.8</ele>
        <time>2021-08-19T12:46:57.000Z</time>
      </trkpt>
      <trkpt lat="42.88607" lon="0.2062">
        <ele>2136.1</ele>
        <time>2021-08-19T12:47:10.000Z</time>
      </trkpt>
      <trkpt lat="42.88616" lon="0.20623">
        <ele>2138</ele>
        <time>2021-08-19T12:47:23.000Z</time>
      </trkpt>
      <trkpt lat="42.88622" lon="0.20613">
        <ele>2138.6</ele>
        <time>2021-08-19T12:47:38.000Z</time>
      </trkpt>
      <trkpt lat="42.88628" lon="0.20603">
        <ele>2137.6</ele>
        <time>2021-08-19T12:47:51.000Z</time>
      </trkpt>
      <trkpt lat="42.88634" lon="0.20593">
        <ele>2136.1</ele>
        <time>2021-08-19T12:48:05.000Z</time>
      </trkpt>
      <trkpt lat="42.8864" lon="0.20583">
        <ele>2134.4</ele>
        <time>2021-08-19T12:48:16.000Z</time>
      </trkpt>
      <trkpt lat="42.88642" lon="0.2057">
        <ele>2134.4</ele>
        <time>2021-08-19T12:48:24.000Z</time>
      </trkpt>
      <trkpt lat="42.88646" lon="0.20559">
        <ele>2135.3</ele>
        <time>2021-08-19T12:48:36.000Z</time>
      </trkpt>
      <trkpt lat="42.88654" lon="0.20555">
        <ele>2134.1</ele>
        <time>2021-08-19T12:48:53.000Z</time>
      </trkpt>
      <trkpt lat="42.88654" lon="0.20555">
        <ele>2133.9</ele>
        <time>2021-08-19T12:48:54.000Z</time>
      </trkpt>
      <trkpt lat="42.88655" lon="0.20554">
        <ele>2133.7</ele>
        <time>2021-08-19T12:48:55.000Z</time>
      </trkpt>
      <trkpt lat="42.88662" lon="0.20546">
        <ele>2133.3</ele>
        <time>2021-08-19T12:49:08.000Z</time>
      </trkpt>
      <trkpt lat="42.88668" lon="0.20536">
        <ele>2132.8</ele>
        <time>2021-08-19T12:49:19.000Z</time>
      </trkpt>
      <trkpt lat="42.88668" lon="0.20536">
        <ele>2132.3</ele>
        <time>2021-08-19T12:49:23.000Z</time>
      </trkpt>
      <trkpt lat="42.88668" lon="0.20536">
        <ele>2132.3</ele>
        <time>2021-08-19T12:49:24.000Z</time>
      </trkpt>
      <trkpt lat="42.88677" lon="0.20533">
        <ele>2133.5</ele>
        <time>2021-08-19T12:49:41.000Z</time>
      </trkpt>
      <trkpt lat="42.88686" lon="0.2053">
        <ele>2134.9</ele>
        <time>2021-08-19T12:49:52.000Z</time>
      </trkpt>
      <trkpt lat="42.88695" lon="0.20525">
        <ele>2135.1</ele>
        <time>2021-08-19T12:50:04.000Z</time>
      </trkpt>
      <trkpt lat="42.88699" lon="0.20527">
        <ele>2135.9</ele>
        <time>2021-08-19T12:50:12.000Z</time>
      </trkpt>
      <trkpt lat="42.887" lon="0.20527">
        <ele>2136.2</ele>
        <time>2021-08-19T12:50:13.000Z</time>
      </trkpt>
      <trkpt lat="42.88709" lon="0.20531">
        <ele>2135.9</ele>
        <time>2021-08-19T12:50:24.000Z</time>
      </trkpt>
      <trkpt lat="42.8871" lon="0.2053">
        <ele>2136</ele>
        <time>2021-08-19T12:50:29.000Z</time>
      </trkpt>
      <trkpt lat="42.8871" lon="0.2053">
        <ele>2136.3</ele>
        <time>2021-08-19T12:50:30.000Z</time>
      </trkpt>
      <trkpt lat="42.88719" lon="0.20529">
        <ele>2138.9</ele>
        <time>2021-08-19T12:50:50.000Z</time>
      </trkpt>
      <trkpt lat="42.88728" lon="0.20527">
        <ele>2142.1</ele>
        <time>2021-08-19T12:51:13.000Z</time>
      </trkpt>
      <trkpt lat="42.88734" lon="0.20528">
        <ele>2143.7</ele>
        <time>2021-08-19T12:51:24.000Z</time>
      </trkpt>
      <trkpt lat="42.88734" lon="0.20528">
        <ele>2143.9</ele>
        <time>2021-08-19T12:51:25.000Z</time>
      </trkpt>
      <trkpt lat="42.88743" lon="0.20524">
        <ele>2145.2</ele>
        <time>2021-08-19T12:51:39.000Z</time>
      </trkpt>
      <trkpt lat="42.8875" lon="0.20515">
        <ele>2144.7</ele>
        <time>2021-08-19T12:51:51.000Z</time>
      </trkpt>
      <trkpt lat="42.88759" lon="0.2051">
        <ele>2144.2</ele>
        <time>2021-08-19T12:52:07.000Z</time>
      </trkpt>
      <trkpt lat="42.88768" lon="0.20509">
        <ele>2142.5</ele>
        <time>2021-08-19T12:52:20.000Z</time>
      </trkpt>
      <trkpt lat="42.88777" lon="0.20513">
        <ele>2141.1</ele>
        <time>2021-08-19T12:52:31.000Z</time>
      </trkpt>
      <trkpt lat="42.88786" lon="0.20514">
        <ele>2140.4</ele>
        <time>2021-08-19T12:52:43.000Z</time>
      </trkpt>
      <trkpt lat="42.88788" lon="0.20515">
        <ele>2139.9</ele>
        <time>2021-08-19T12:52:50.000Z</time>
      </trkpt>
      <trkpt lat="42.88788" lon="0.20515">
        <ele>2140.1</ele>
        <time>2021-08-19T12:52:52.000Z</time>
      </trkpt>
      <trkpt lat="42.88788" lon="0.20516">
        <ele>2140</ele>
        <time>2021-08-19T12:52:56.000Z</time>
      </trkpt>
      <trkpt lat="42.88788" lon="0.20516">
        <ele>2140</ele>
        <time>2021-08-19T12:52:57.000Z</time>
      </trkpt>
      <trkpt lat="42.88788" lon="0.20516">
        <ele>2140.2</ele>
        <time>2021-08-19T12:52:58.000Z</time>
      </trkpt>
      <trkpt lat="42.88789" lon="0.20516">
        <ele>2140.5</ele>
        <time>2021-08-19T12:52:59.000Z</time>
      </trkpt>
      <trkpt lat="42.88798" lon="0.20517">
        <ele>2141</ele>
        <time>2021-08-19T12:53:09.000Z</time>
      </trkpt>
      <trkpt lat="42.88807" lon="0.20512">
        <ele>2140.1</ele>
        <time>2021-08-19T12:53:18.000Z</time>
      </trkpt>
      <trkpt lat="42.88816" lon="0.20511">
        <ele>2141</ele>
        <time>2021-08-19T12:53:33.000Z</time>
      </trkpt>
      <trkpt lat="42.88825" lon="0.2051">
        <ele>2142.3</ele>
        <time>2021-08-19T12:53:42.000Z</time>
      </trkpt>
      <trkpt lat="42.88833" lon="0.20503">
        <ele>2141.7</ele>
        <time>2021-08-19T12:53:51.000Z</time>
      </trkpt>
      <trkpt lat="42.88841" lon="0.2051">
        <ele>2142.3</ele>
        <time>2021-08-19T12:54:03.000Z</time>
      </trkpt>
      <trkpt lat="42.8885" lon="0.20505">
        <ele>2142.1</ele>
        <time>2021-08-19T12:54:12.000Z</time>
      </trkpt>
      <trkpt lat="42.88859" lon="0.20508">
        <ele>2141.9</ele>
        <time>2021-08-19T12:54:26.000Z</time>
      </trkpt>
      <trkpt lat="42.88868" lon="0.2051">
        <ele>2141.2</ele>
        <time>2021-08-19T12:54:38.000Z</time>
      </trkpt>
      <trkpt lat="42.88876" lon="0.20503">
        <ele>2140.9</ele>
        <time>2021-08-19T12:54:52.000Z</time>
      </trkpt>
      <trkpt lat="42.88883" lon="0.20495">
        <ele>2140</ele>
        <time>2021-08-19T12:55:02.000Z</time>
      </trkpt>
      <trkpt lat="42.8889" lon="0.20486">
        <ele>2137.7</ele>
        <time>2021-08-19T12:55:15.000Z</time>
      </trkpt>
      <trkpt lat="42.88894" lon="0.20475">
        <ele>2135.6</ele>
        <time>2021-08-19T12:55:31.000Z</time>
      </trkpt>
      <trkpt lat="42.88894" lon="0.20463">
        <ele>2134.8</ele>
        <time>2021-08-19T12:55:44.000Z</time>
      </trkpt>
      <trkpt lat="42.88897" lon="0.2045">
        <ele>2134.8</ele>
        <time>2021-08-19T12:55:54.000Z</time>
      </trkpt>
      <trkpt lat="42.88901" lon="0.20439">
        <ele>2135</ele>
        <time>2021-08-19T12:56:10.000Z</time>
      </trkpt>
      <trkpt lat="42.88901" lon="0.20425">
        <ele>2135.2</ele>
        <time>2021-08-19T12:56:21.000Z</time>
      </trkpt>
      <trkpt lat="42.88908" lon="0.20416">
        <ele>2135.1</ele>
        <time>2021-08-19T12:56:30.000Z</time>
      </trkpt>
      <trkpt lat="42.88914" lon="0.20406">
        <ele>2134.1</ele>
        <time>2021-08-19T12:56:42.000Z</time>
      </trkpt>
      <trkpt lat="42.8892" lon="0.20396">
        <ele>2133.3</ele>
        <time>2021-08-19T12:56:55.000Z</time>
      </trkpt>
      <trkpt lat="42.88926" lon="0.20386">
        <ele>2133.6</ele>
        <time>2021-08-19T12:57:06.000Z</time>
      </trkpt>
      <trkpt lat="42.88932" lon="0.20377">
        <ele>2134.8</ele>
        <time>2021-08-19T12:57:20.000Z</time>
      </trkpt>
      <trkpt lat="42.88936" lon="0.20388">
        <ele>2136.4</ele>
        <time>2021-08-19T12:57:35.000Z</time>
      </trkpt>
      <trkpt lat="42.88936" lon="0.20389">
        <ele>2136.4</ele>
        <time>2021-08-19T12:57:36.000Z</time>
      </trkpt>
      <trkpt lat="42.88936" lon="0.20388">
        <ele>2136.6</ele>
        <time>2021-08-19T12:57:37.000Z</time>
      </trkpt>
      <trkpt lat="42.88942" lon="0.20378">
        <ele>2139.8</ele>
        <time>2021-08-19T12:57:58.000Z</time>
      </trkpt>
      <trkpt lat="42.88949" lon="0.20368">
        <ele>2141.5</ele>
        <time>2021-08-19T12:58:10.000Z</time>
      </trkpt>
      <trkpt lat="42.88953" lon="0.20365">
        <ele>2142.9</ele>
        <time>2021-08-19T12:58:21.000Z</time>
      </trkpt>
      <trkpt lat="42.88953" lon="0.20365">
        <ele>2143</ele>
        <time>2021-08-19T12:58:22.000Z</time>
      </trkpt>
      <trkpt lat="42.88959" lon="0.20356">
        <ele>2145.1</ele>
        <time>2021-08-19T12:58:41.000Z</time>
      </trkpt>
      <trkpt lat="42.88965" lon="0.20351">
        <ele>2146.6</ele>
        <time>2021-08-19T12:58:58.000Z</time>
      </trkpt>
      <trkpt lat="42.88965" lon="0.20351">
        <ele>2146.7</ele>
        <time>2021-08-19T12:58:59.000Z</time>
      </trkpt>
      <trkpt lat="42.88969" lon="0.20348">
        <ele>2148</ele>
        <time>2021-08-19T12:59:10.000Z</time>
      </trkpt>
      <trkpt lat="42.88969" lon="0.20347">
        <ele>2148.3</ele>
        <time>2021-08-19T12:59:11.000Z</time>
      </trkpt>
      <trkpt lat="42.88969" lon="0.20334">
        <ele>2149.5</ele>
        <time>2021-08-19T12:59:23.000Z</time>
      </trkpt>
      <trkpt lat="42.88973" lon="0.20323">
        <ele>2152.2</ele>
        <time>2021-08-19T12:59:44.000Z</time>
      </trkpt>
      <trkpt lat="42.88982" lon="0.20317">
        <ele>2156</ele>
        <time>2021-08-19T13:00:08.000Z</time>
      </trkpt>
      <trkpt lat="42.88984" lon="0.20305">
        <ele>2157.5</ele>
        <time>2021-08-19T13:00:23.000Z</time>
      </trkpt>
      <trkpt lat="42.88988" lon="0.20294">
        <ele>2158.8</ele>
        <time>2021-08-19T13:00:38.000Z</time>
      </trkpt>
      <trkpt lat="42.88995" lon="0.20284">
        <ele>2159</ele>
        <time>2021-08-19T13:00:51.000Z</time>
      </trkpt>
      <trkpt lat="42.89001" lon="0.20274">
        <ele>2160</ele>
        <time>2021-08-19T13:01:02.000Z</time>
      </trkpt>
      <trkpt lat="42.89005" lon="0.20267">
        <ele>2160.6</ele>
        <time>2021-08-19T13:01:12.000Z</time>
      </trkpt>
      <trkpt lat="42.89005" lon="0.20266">
        <ele>2160.8</ele>
        <time>2021-08-19T13:01:13.000Z</time>
      </trkpt>
      <trkpt lat="42.89014" lon="0.2026">
        <ele>2163.2</ele>
        <time>2021-08-19T13:01:36.000Z</time>
      </trkpt>
      <trkpt lat="42.89021" lon="0.20253">
        <ele>2165.4</ele>
        <time>2021-08-19T13:01:51.000Z</time>
      </trkpt>
      <trkpt lat="42.8903" lon="0.20249">
        <ele>2167.5</ele>
        <time>2021-08-19T13:02:06.000Z</time>
      </trkpt>
      <trkpt lat="42.8903" lon="0.20249">
        <ele>2167.5</ele>
        <time>2021-08-19T13:02:07.000Z</time>
      </trkpt>
      <trkpt lat="42.8903" lon="0.20249">
        <ele>2167.6</ele>
        <time>2021-08-19T13:02:08.000Z</time>
      </trkpt>
      <trkpt lat="42.89037" lon="0.2024">
        <ele>2169.8</ele>
        <time>2021-08-19T13:02:24.000Z</time>
      </trkpt>
      <trkpt lat="42.89038" lon="0.20235">
        <ele>2170.8</ele>
        <time>2021-08-19T13:02:31.000Z</time>
      </trkpt>
      <trkpt lat="42.89038" lon="0.20235">
        <ele>2171</ele>
        <time>2021-08-19T13:02:32.000Z</time>
      </trkpt>
      <trkpt lat="42.89039" lon="0.20231">
        <ele>2171.6</ele>
        <time>2021-08-19T13:02:38.000Z</time>
      </trkpt>
      <trkpt lat="42.89039" lon="0.2023">
        <ele>2171.5</ele>
        <time>2021-08-19T13:02:39.000Z</time>
      </trkpt>
      <trkpt lat="42.89042" lon="0.20218">
        <ele>2173.1</ele>
        <time>2021-08-19T13:02:52.000Z</time>
      </trkpt>
      <trkpt lat="42.89046" lon="0.20212">
        <ele>2173.8</ele>
        <time>2021-08-19T13:03:05.000Z</time>
      </trkpt>
      <trkpt lat="42.89046" lon="0.20211">
        <ele>2173.9</ele>
        <time>2021-08-19T13:03:06.000Z</time>
      </trkpt>
      <trkpt lat="42.89054" lon="0.20204">
        <ele>2173.3</ele>
        <time>2021-08-19T13:03:20.000Z</time>
      </trkpt>
      <trkpt lat="42.89054" lon="0.20204">
        <ele>2173.4</ele>
        <time>2021-08-19T13:03:21.000Z</time>
      </trkpt>
      <trkpt lat="42.89054" lon="0.20204">
        <ele>2173.7</ele>
        <time>2021-08-19T13:03:22.000Z</time>
      </trkpt>
      <trkpt lat="42.89061" lon="0.20194">
        <ele>2171.1</ele>
        <time>2021-08-19T13:03:37.000Z</time>
      </trkpt>
      <trkpt lat="42.89061" lon="0.20192">
        <ele>2170.6</ele>
        <time>2021-08-19T13:03:42.000Z</time>
      </trkpt>
      <trkpt lat="42.89062" lon="0.20192">
        <ele>2170.3</ele>
        <time>2021-08-19T13:03:44.000Z</time>
      </trkpt>
      <trkpt lat="42.89062" lon="0.20192">
        <ele>2170.3</ele>
        <time>2021-08-19T13:03:45.000Z</time>
      </trkpt>
      <trkpt lat="42.89062" lon="0.20192">
        <ele>2170.2</ele>
        <time>2021-08-19T13:03:46.000Z</time>
      </trkpt>
      <trkpt lat="42.89062" lon="0.20192">
        <ele>2170.3</ele>
        <time>2021-08-19T13:03:47.000Z</time>
      </trkpt>
      <trkpt lat="42.89062" lon="0.20192">
        <ele>2170.3</ele>
        <time>2021-08-19T13:03:51.000Z</time>
      </trkpt>
      <trkpt lat="42.89068" lon="0.20181">
        <ele>2169.9</ele>
        <time>2021-08-19T13:04:04.000Z</time>
      </trkpt>
      <trkpt lat="42.89072" lon="0.2017">
        <ele>2171</ele>
        <time>2021-08-19T13:04:18.000Z</time>
      </trkpt>
      <trkpt lat="42.89076" lon="0.20159">
        <ele>2172.5</ele>
        <time>2021-08-19T13:04:33.000Z</time>
      </trkpt>
      <trkpt lat="42.89077" lon="0.20157">
        <ele>2173.2</ele>
        <time>2021-08-19T13:04:39.000Z</time>
      </trkpt>
      <trkpt lat="42.89078" lon="0.20158">
        <ele>2173.5</ele>
        <time>2021-08-19T13:04:40.000Z</time>
      </trkpt>
      <trkpt lat="42.89086" lon="0.20151">
        <ele>2175.1</ele>
        <time>2021-08-19T13:04:58.000Z</time>
      </trkpt>
      <trkpt lat="42.89093" lon="0.20142">
        <ele>2175.5</ele>
        <time>2021-08-19T13:05:11.000Z</time>
      </trkpt>
      <trkpt lat="42.891" lon="0.20133">
        <ele>2175.2</ele>
        <time>2021-08-19T13:05:21.000Z</time>
      </trkpt>
      <trkpt lat="42.89106" lon="0.20124">
        <ele>2174.2</ele>
        <time>2021-08-19T13:05:33.000Z</time>
      </trkpt>
      <trkpt lat="42.89115" lon="0.2012">
        <ele>2172.8</ele>
        <time>2021-08-19T13:05:44.000Z</time>
      </trkpt>
      <trkpt lat="42.89119" lon="0.20108">
        <ele>2168.9</ele>
        <time>2021-08-19T13:06:07.000Z</time>
      </trkpt>
      <trkpt lat="42.89126" lon="0.20099">
        <ele>2166.8</ele>
        <time>2021-08-19T13:06:21.000Z</time>
      </trkpt>
      <trkpt lat="42.89134" lon="0.20093">
        <ele>2164.7</ele>
        <time>2021-08-19T13:06:33.000Z</time>
      </trkpt>
      <trkpt lat="42.89136" lon="0.20091">
        <ele>2164.2</ele>
        <time>2021-08-19T13:06:40.000Z</time>
      </trkpt>
      <trkpt lat="42.89136" lon="0.2009">
        <ele>2164.2</ele>
        <time>2021-08-19T13:06:42.000Z</time>
      </trkpt>
      <trkpt lat="42.89136" lon="0.2009">
        <ele>2163.9</ele>
        <time>2021-08-19T13:06:44.000Z</time>
      </trkpt>
      <trkpt lat="42.89136" lon="0.20089">
        <ele>2163.9</ele>
        <time>2021-08-19T13:06:46.000Z</time>
      </trkpt>
      <trkpt lat="42.8914" lon="0.20078">
        <ele>2160.8</ele>
        <time>2021-08-19T13:07:06.000Z</time>
      </trkpt>
      <trkpt lat="42.89147" lon="0.20073">
        <ele>2157</ele>
        <time>2021-08-19T13:07:28.000Z</time>
      </trkpt>
      <trkpt lat="42.89146" lon="0.20073">
        <ele>2156.8</ele>
        <time>2021-08-19T13:07:29.000Z</time>
      </trkpt>
      <trkpt lat="42.89145" lon="0.20073">
        <ele>2157</ele>
        <time>2021-08-19T13:07:33.000Z</time>
      </trkpt>
      <trkpt lat="42.89144" lon="0.20074">
        <ele>2156.9</ele>
        <time>2021-08-19T13:07:34.000Z</time>
      </trkpt>
      <trkpt lat="42.89145" lon="0.20074">
        <ele>2156.7</ele>
        <time>2021-08-19T13:07:37.000Z</time>
      </trkpt>
      <trkpt lat="42.89144" lon="0.20074">
        <ele>2156.4</ele>
        <time>2021-08-19T13:07:47.000Z</time>
      </trkpt>
      <trkpt lat="42.89144" lon="0.20074">
        <ele>2156.5</ele>
        <time>2021-08-19T13:07:48.000Z</time>
      </trkpt>
      <trkpt lat="42.89145" lon="0.20074">
        <ele>2156.6</ele>
        <time>2021-08-19T13:07:58.000Z</time>
      </trkpt>
      <trkpt lat="42.89144" lon="0.20074">
        <ele>2156.3</ele>
        <time>2021-08-19T13:08:01.000Z</time>
      </trkpt>
      <trkpt lat="42.89145" lon="0.20074">
        <ele>2156.4</ele>
        <time>2021-08-19T13:08:06.000Z</time>
      </trkpt>
      <trkpt lat="42.89145" lon="0.20074">
        <ele>2156.3</ele>
        <time>2021-08-19T13:08:07.000Z</time>
      </trkpt>
      <trkpt lat="42.89145" lon="0.20075">
        <ele>2156.2</ele>
        <time>2021-08-19T13:08:09.000Z</time>
      </trkpt>
      <trkpt lat="42.89154" lon="0.20079">
        <ele>2154.4</ele>
        <time>2021-08-19T13:08:23.000Z</time>
      </trkpt>
      <trkpt lat="42.89162" lon="0.20087">
        <ele>2152.2</ele>
        <time>2021-08-19T13:08:32.000Z</time>
      </trkpt>
      <trkpt lat="42.8917" lon="0.20093">
        <ele>2149.1</ele>
        <time>2021-08-19T13:08:48.000Z</time>
      </trkpt>
      <trkpt lat="42.89178" lon="0.201">
        <ele>2147.2</ele>
        <time>2021-08-19T13:09:01.000Z</time>
      </trkpt>
      <trkpt lat="42.89188" lon="0.20101">
        <ele>2144.9</ele>
        <time>2021-08-19T13:09:13.000Z</time>
      </trkpt>
      <trkpt lat="42.89198" lon="0.20099">
        <ele>2144.5</ele>
        <time>2021-08-19T13:09:23.000Z</time>
      </trkpt>
      <trkpt lat="42.89206" lon="0.20095">
        <ele>2144.8</ele>
        <time>2021-08-19T13:09:34.000Z</time>
      </trkpt>
      <trkpt lat="42.89215" lon="0.20089">
        <ele>2145.7</ele>
        <time>2021-08-19T13:09:47.000Z</time>
      </trkpt>
      <trkpt lat="42.89223" lon="0.20083">
        <ele>2145.9</ele>
        <time>2021-08-19T13:10:00.000Z</time>
      </trkpt>
      <trkpt lat="42.89232" lon="0.20085">
        <ele>2146</ele>
        <time>2021-08-19T13:10:16.000Z</time>
      </trkpt>
      <trkpt lat="42.89241" lon="0.20083">
        <ele>2145.8</ele>
        <time>2021-08-19T13:10:25.000Z</time>
      </trkpt>
      <trkpt lat="42.89251" lon="0.20085">
        <ele>2146.5</ele>
        <time>2021-08-19T13:10:38.000Z</time>
      </trkpt>
      <trkpt lat="42.89258" lon="0.20077">
        <ele>2146.4</ele>
        <time>2021-08-19T13:10:50.000Z</time>
      </trkpt>
      <trkpt lat="42.89265" lon="0.20069">
        <ele>2146.7</ele>
        <time>2021-08-19T13:11:00.000Z</time>
      </trkpt>
      <trkpt lat="42.89274" lon="0.20067">
        <ele>2145.7</ele>
        <time>2021-08-19T13:11:13.000Z</time>
      </trkpt>
      <trkpt lat="42.89273" lon="0.20054">
        <ele>2144.1</ele>
        <time>2021-08-19T13:11:23.000Z</time>
      </trkpt>
      <trkpt lat="42.89275" lon="0.20047">
        <ele>2142.3</ele>
        <time>2021-08-19T13:11:36.000Z</time>
      </trkpt>
      <trkpt lat="42.89275" lon="0.20047">
        <ele>2141.9</ele>
        <time>2021-08-19T13:11:37.000Z</time>
      </trkpt>
      <trkpt lat="42.89276" lon="0.20037">
        <ele>2141.1</ele>
        <time>2021-08-19T13:11:48.000Z</time>
      </trkpt>
      <trkpt lat="42.89277" lon="0.20038">
        <ele>2141.1</ele>
        <time>2021-08-19T13:11:49.000Z</time>
      </trkpt>
      <trkpt lat="42.89277" lon="0.20039">
        <ele>2140.6</ele>
        <time>2021-08-19T13:11:53.000Z</time>
      </trkpt>
      <trkpt lat="42.89277" lon="0.20039">
        <ele>2140.6</ele>
        <time>2021-08-19T13:11:54.000Z</time>
      </trkpt>
      <trkpt lat="42.89275" lon="0.20027">
        <ele>2138.4</ele>
        <time>2021-08-19T13:12:14.000Z</time>
      </trkpt>
      <trkpt lat="42.89273" lon="0.20022">
        <ele>2137</ele>
        <time>2021-08-19T13:12:25.000Z</time>
      </trkpt>
      <trkpt lat="42.89273" lon="0.20022">
        <ele>2137</ele>
        <time>2021-08-19T13:12:26.000Z</time>
      </trkpt>
      <trkpt lat="42.89283" lon="0.20019">
        <ele>2134.5</ele>
        <time>2021-08-19T13:12:44.000Z</time>
      </trkpt>
      <trkpt lat="42.89283" lon="0.20019">
        <ele>2134.1</ele>
        <time>2021-08-19T13:12:47.000Z</time>
      </trkpt>
      <trkpt lat="42.89284" lon="0.20018">
        <ele>2134.1</ele>
        <time>2021-08-19T13:12:48.000Z</time>
      </trkpt>
      <trkpt lat="42.89282" lon="0.20012">
        <ele>2130</ele>
        <time>2021-08-19T13:13:13.000Z</time>
      </trkpt>
      <trkpt lat="42.89282" lon="0.20012">
        <ele>2129.7</ele>
        <time>2021-08-19T13:13:14.000Z</time>
      </trkpt>
      <trkpt lat="42.89286" lon="0.20001">
        <ele>2125.7</ele>
        <time>2021-08-19T13:13:37.000Z</time>
      </trkpt>
      <trkpt lat="42.89292" lon="0.19994">
        <ele>2122.8</ele>
        <time>2021-08-19T13:13:51.000Z</time>
      </trkpt>
      <trkpt lat="42.89292" lon="0.19994">
        <ele>2122.8</ele>
        <time>2021-08-19T13:13:52.000Z</time>
      </trkpt>
      <trkpt lat="42.893" lon="0.19985">
        <ele>2120.2</ele>
        <time>2021-08-19T13:14:06.000Z</time>
      </trkpt>
      <trkpt lat="42.89297" lon="0.19973">
        <ele>2118.4</ele>
        <time>2021-08-19T13:14:18.000Z</time>
      </trkpt>
      <trkpt lat="42.89293" lon="0.19962">
        <ele>2117.4</ele>
        <time>2021-08-19T13:14:28.000Z</time>
      </trkpt>
      <trkpt lat="42.89284" lon="0.19956">
        <ele>2117</ele>
        <time>2021-08-19T13:14:37.000Z</time>
      </trkpt>
      <trkpt lat="42.89275" lon="0.19951">
        <ele>2115.7</ele>
        <time>2021-08-19T13:14:48.000Z</time>
      </trkpt>
      <trkpt lat="42.89275" lon="0.19938">
        <ele>2111.7</ele>
        <time>2021-08-19T13:15:08.000Z</time>
      </trkpt>
      <trkpt lat="42.8928" lon="0.19928">
        <ele>2109.4</ele>
        <time>2021-08-19T13:15:21.000Z</time>
      </trkpt>
      <trkpt lat="42.89282" lon="0.19915">
        <ele>2107.6</ele>
        <time>2021-08-19T13:15:34.000Z</time>
      </trkpt>
      <trkpt lat="42.89277" lon="0.19904">
        <ele>2106.5</ele>
        <time>2021-08-19T13:15:43.000Z</time>
      </trkpt>
      <trkpt lat="42.89273" lon="0.19892">
        <ele>2106.3</ele>
        <time>2021-08-19T13:15:50.000Z</time>
      </trkpt>
      <trkpt lat="42.89266" lon="0.19881">
        <ele>2106.3</ele>
        <time>2021-08-19T13:15:58.000Z</time>
      </trkpt>
      <trkpt lat="42.89258" lon="0.19874">
        <ele>2105.9</ele>
        <time>2021-08-19T13:16:06.000Z</time>
      </trkpt>
      <trkpt lat="42.89251" lon="0.19866">
        <ele>2103.5</ele>
        <time>2021-08-19T13:16:16.000Z</time>
      </trkpt>
      <trkpt lat="42.89246" lon="0.19855">
        <ele>2102.6</ele>
        <time>2021-08-19T13:16:24.000Z</time>
      </trkpt>
      <trkpt lat="42.8924" lon="0.19846">
        <ele>2101.8</ele>
        <time>2021-08-19T13:16:31.000Z</time>
      </trkpt>
      <trkpt lat="42.89235" lon="0.19835">
        <ele>2099.3</ele>
        <time>2021-08-19T13:16:48.000Z</time>
      </trkpt>
      <trkpt lat="42.89238" lon="0.19824">
        <ele>2097.9</ele>
        <time>2021-08-19T13:16:55.000Z</time>
      </trkpt>
      <trkpt lat="42.89243" lon="0.19814">
        <ele>2096.9</ele>
        <time>2021-08-19T13:17:02.000Z</time>
      </trkpt>
      <trkpt lat="42.89246" lon="0.19802">
        <ele>2097.1</ele>
        <time>2021-08-19T13:17:09.000Z</time>
      </trkpt>
      <trkpt lat="42.89252" lon="0.19792">
        <ele>2096.8</ele>
        <time>2021-08-19T13:17:17.000Z</time>
      </trkpt>
      <trkpt lat="42.8926" lon="0.19785">
        <ele>2095.2</ele>
        <time>2021-08-19T13:17:24.000Z</time>
      </trkpt>
      <trkpt lat="42.89268" lon="0.1978">
        <ele>2094.9</ele>
        <time>2021-08-19T13:17:35.000Z</time>
      </trkpt>
      <trkpt lat="42.89275" lon="0.19772">
        <ele>2094.1</ele>
        <time>2021-08-19T13:17:42.000Z</time>
      </trkpt>
      <trkpt lat="42.89277" lon="0.19759">
        <ele>2094.1</ele>
        <time>2021-08-19T13:17:50.000Z</time>
      </trkpt>
      <trkpt lat="42.8928" lon="0.19747">
        <ele>2094</ele>
        <time>2021-08-19T13:18:03.000Z</time>
      </trkpt>
      <trkpt lat="42.89288" lon="0.19743">
        <ele>2093.6</ele>
        <time>2021-08-19T13:18:13.000Z</time>
      </trkpt>
      <trkpt lat="42.89297" lon="0.19737">
        <ele>2092.1</ele>
        <time>2021-08-19T13:18:20.000Z</time>
      </trkpt>
      <trkpt lat="42.89305" lon="0.19732">
        <ele>2090.6</ele>
        <time>2021-08-19T13:18:27.000Z</time>
      </trkpt>
      <trkpt lat="42.89312" lon="0.19741">
        <ele>2086.7</ele>
        <time>2021-08-19T13:18:45.000Z</time>
      </trkpt>
      <trkpt lat="42.89321" lon="0.19744">
        <ele>2083.5</ele>
        <time>2021-08-19T13:18:58.000Z</time>
      </trkpt>
      <trkpt lat="42.8933" lon="0.19739">
        <ele>2079.5</ele>
        <time>2021-08-19T13:19:15.000Z</time>
      </trkpt>
      <trkpt lat="42.89338" lon="0.19735">
        <ele>2078.3</ele>
        <time>2021-08-19T13:19:24.000Z</time>
      </trkpt>
      <trkpt lat="42.89347" lon="0.19734">
        <ele>2076.5</ele>
        <time>2021-08-19T13:19:32.000Z</time>
      </trkpt>
      <trkpt lat="42.8935" lon="0.19734">
        <ele>2075.4</ele>
        <time>2021-08-19T13:19:41.000Z</time>
      </trkpt>
      <trkpt lat="42.8935" lon="0.19735">
        <ele>2075.3</ele>
        <time>2021-08-19T13:19:42.000Z</time>
      </trkpt>
      <trkpt lat="42.89359" lon="0.19729">
        <ele>2075.3</ele>
        <time>2021-08-19T13:19:56.000Z</time>
      </trkpt>
      <trkpt lat="42.89368" lon="0.19725">
        <ele>2075.5</ele>
        <time>2021-08-19T13:20:07.000Z</time>
      </trkpt>
      <trkpt lat="42.89377" lon="0.19722">
        <ele>2075.7</ele>
        <time>2021-08-19T13:20:17.000Z</time>
      </trkpt>
      <trkpt lat="42.89387" lon="0.1972">
        <ele>2074.6</ele>
        <time>2021-08-19T13:20:29.000Z</time>
      </trkpt>
      <trkpt lat="42.89395" lon="0.19714">
        <ele>2072.4</ele>
        <time>2021-08-19T13:20:44.000Z</time>
      </trkpt>
      <trkpt lat="42.89403" lon="0.19708">
        <ele>2072</ele>
        <time>2021-08-19T13:20:51.000Z</time>
      </trkpt>
      <trkpt lat="42.89412" lon="0.19707">
        <ele>2070.1</ele>
        <time>2021-08-19T13:21:16.000Z</time>
      </trkpt>
      <trkpt lat="42.89412" lon="0.19707">
        <ele>2069.9</ele>
        <time>2021-08-19T13:21:17.000Z</time>
      </trkpt>
      <trkpt lat="42.89412" lon="0.19707">
        <ele>2069.8</ele>
        <time>2021-08-19T13:21:18.000Z</time>
      </trkpt>
      <trkpt lat="42.89413" lon="0.19711">
        <ele>2069.3</ele>
        <time>2021-08-19T13:21:25.000Z</time>
      </trkpt>
      <trkpt lat="42.89413" lon="0.19712">
        <ele>2069</ele>
        <time>2021-08-19T13:21:27.000Z</time>
      </trkpt>
      <trkpt lat="42.8942" lon="0.19721">
        <ele>2066.6</ele>
        <time>2021-08-19T13:21:38.000Z</time>
      </trkpt>
      <trkpt lat="42.89429" lon="0.19724">
        <ele>2066.9</ele>
        <time>2021-08-19T13:21:47.000Z</time>
      </trkpt>
      <trkpt lat="42.89435" lon="0.19733">
        <ele>2066.4</ele>
        <time>2021-08-19T13:21:55.000Z</time>
      </trkpt>
      <trkpt lat="42.89442" lon="0.19744">
        <ele>2065.5</ele>
        <time>2021-08-19T13:22:02.000Z</time>
      </trkpt>
      <trkpt lat="42.89447" lon="0.19754">
        <ele>2064.4</ele>
        <time>2021-08-19T13:22:10.000Z</time>
      </trkpt>
      <trkpt lat="42.89449" lon="0.19766">
        <ele>2062.8</ele>
        <time>2021-08-19T13:22:20.000Z</time>
      </trkpt>
      <trkpt lat="42.89455" lon="0.19777">
        <ele>2061.3</ele>
        <time>2021-08-19T13:22:33.000Z</time>
      </trkpt>
      <trkpt lat="42.89464" lon="0.1978">
        <ele>2061.1</ele>
        <time>2021-08-19T13:22:47.000Z</time>
      </trkpt>
      <trkpt lat="42.89471" lon="0.19789">
        <ele>2060.8</ele>
        <time>2021-08-19T13:22:57.000Z</time>
      </trkpt>
      <trkpt lat="42.89479" lon="0.19797">
        <ele>2061.5</ele>
        <time>2021-08-19T13:23:09.000Z</time>
      </trkpt>
      <trkpt lat="42.89484" lon="0.19808">
        <ele>2061</ele>
        <time>2021-08-19T13:23:17.000Z</time>
      </trkpt>
      <trkpt lat="42.89492" lon="0.19815">
        <ele>2062.1</ele>
        <time>2021-08-19T13:23:32.000Z</time>
      </trkpt>
      <trkpt lat="42.89499" lon="0.19823">
        <ele>2061.2</ele>
        <time>2021-08-19T13:23:46.000Z</time>
      </trkpt>
      <trkpt lat="42.89508" lon="0.19825">
        <ele>2060.8</ele>
        <time>2021-08-19T13:23:53.000Z</time>
      </trkpt>
      <trkpt lat="42.89517" lon="0.19827">
        <ele>2061</ele>
        <time>2021-08-19T13:24:01.000Z</time>
      </trkpt>
      <trkpt lat="42.89526" lon="0.19832">
        <ele>2060.4</ele>
        <time>2021-08-19T13:24:16.000Z</time>
      </trkpt>
      <trkpt lat="42.89535" lon="0.19837">
        <ele>2059.3</ele>
        <time>2021-08-19T13:24:35.000Z</time>
      </trkpt>
      <trkpt lat="42.89543" lon="0.19841">
        <ele>2060</ele>
        <time>2021-08-19T13:24:48.000Z</time>
      </trkpt>
      <trkpt lat="42.89552" lon="0.19845">
        <ele>2060.9</ele>
        <time>2021-08-19T13:25:03.000Z</time>
      </trkpt>
      <trkpt lat="42.89561" lon="0.19849">
        <ele>2060.3</ele>
        <time>2021-08-19T13:25:13.000Z</time>
      </trkpt>
      <trkpt lat="42.89569" lon="0.19855">
        <ele>2060.5</ele>
        <time>2021-08-19T13:25:23.000Z</time>
      </trkpt>
      <trkpt lat="42.89578" lon="0.19857">
        <ele>2061</ele>
        <time>2021-08-19T13:25:37.000Z</time>
      </trkpt>
      <trkpt lat="42.89587" lon="0.1986">
        <ele>2061.2</ele>
        <time>2021-08-19T13:25:49.000Z</time>
      </trkpt>
      <trkpt lat="42.89595" lon="0.19866">
        <ele>2060</ele>
        <time>2021-08-19T13:25:59.000Z</time>
      </trkpt>
      <trkpt lat="42.89603" lon="0.19875">
        <ele>2059.3</ele>
        <time>2021-08-19T13:26:10.000Z</time>
      </trkpt>
      <trkpt lat="42.89609" lon="0.19884">
        <ele>2059.8</ele>
        <time>2021-08-19T13:26:23.000Z</time>
      </trkpt>
      <trkpt lat="42.89612" lon="0.19888">
        <ele>2059.6</ele>
        <time>2021-08-19T13:26:31.000Z</time>
      </trkpt>
      <trkpt lat="42.89612" lon="0.19888">
        <ele>2060</ele>
        <time>2021-08-19T13:26:34.000Z</time>
      </trkpt>
      <trkpt lat="42.8962" lon="0.19894">
        <ele>2060.5</ele>
        <time>2021-08-19T13:26:50.000Z</time>
      </trkpt>
      <trkpt lat="42.89624" lon="0.19906">
        <ele>2060.5</ele>
        <time>2021-08-19T13:27:02.000Z</time>
      </trkpt>
      <trkpt lat="42.89626" lon="0.19918">
        <ele>2060.2</ele>
        <time>2021-08-19T13:27:12.000Z</time>
      </trkpt>
      <trkpt lat="42.89632" lon="0.19928">
        <ele>2060.4</ele>
        <time>2021-08-19T13:27:23.000Z</time>
      </trkpt>
      <trkpt lat="42.89637" lon="0.19939">
        <ele>2060.8</ele>
        <time>2021-08-19T13:27:34.000Z</time>
      </trkpt>
      <trkpt lat="42.89642" lon="0.1995">
        <ele>2061.3</ele>
        <time>2021-08-19T13:27:47.000Z</time>
      </trkpt>
      <trkpt lat="42.89643" lon="0.19963">
        <ele>2060.4</ele>
        <time>2021-08-19T13:27:57.000Z</time>
      </trkpt>
      <trkpt lat="42.89646" lon="0.19975">
        <ele>2060</ele>
        <time>2021-08-19T13:28:05.000Z</time>
      </trkpt>
      <trkpt lat="42.89651" lon="0.19986">
        <ele>2060.3</ele>
        <time>2021-08-19T13:28:14.000Z</time>
      </trkpt>
      <trkpt lat="42.89657" lon="0.19996">
        <ele>2060.1</ele>
        <time>2021-08-19T13:28:25.000Z</time>
      </trkpt>
      <trkpt lat="42.89653" lon="0.20008">
        <ele>2057.5</ele>
        <time>2021-08-19T13:28:38.000Z</time>
      </trkpt>
      <trkpt lat="42.89657" lon="0.20021">
        <ele>2055.1</ele>
        <time>2021-08-19T13:28:50.000Z</time>
      </trkpt>
      <trkpt lat="42.89661" lon="0.2003">
        <ele>2053.5</ele>
        <time>2021-08-19T13:29:01.000Z</time>
      </trkpt>
      <trkpt lat="42.89661" lon="0.2003">
        <ele>2053.6</ele>
        <time>2021-08-19T13:29:02.000Z</time>
      </trkpt>
      <trkpt lat="42.89662" lon="0.20043">
        <ele>2051.9</ele>
        <time>2021-08-19T13:29:13.000Z</time>
      </trkpt>
      <trkpt lat="42.89672" lon="0.20044">
        <ele>2048.8</ele>
        <time>2021-08-19T13:29:35.000Z</time>
      </trkpt>
      <trkpt lat="42.89679" lon="0.20034">
        <ele>2049</ele>
        <time>2021-08-19T13:29:43.000Z</time>
      </trkpt>
      <trkpt lat="42.89688" lon="0.20032">
        <ele>2048.2</ele>
        <time>2021-08-19T13:29:50.000Z</time>
      </trkpt>
      <trkpt lat="42.89697" lon="0.20028">
        <ele>2047.8</ele>
        <time>2021-08-19T13:29:57.000Z</time>
      </trkpt>
      <trkpt lat="42.89705" lon="0.20021">
        <ele>2046</ele>
        <time>2021-08-19T13:30:08.000Z</time>
      </trkpt>
      <trkpt lat="42.89715" lon="0.20018">
        <ele>2045.2</ele>
        <time>2021-08-19T13:30:15.000Z</time>
      </trkpt>
      <trkpt lat="42.89724" lon="0.20014">
        <ele>2044</ele>
        <time>2021-08-19T13:30:22.000Z</time>
      </trkpt>
      <trkpt lat="42.89733" lon="0.20008">
        <ele>2043.9</ele>
        <time>2021-08-19T13:30:29.000Z</time>
      </trkpt>
      <trkpt lat="42.89742" lon="0.20011">
        <ele>2043.5</ele>
        <time>2021-08-19T13:30:38.000Z</time>
      </trkpt>
      <trkpt lat="42.89751" lon="0.20016">
        <ele>2042.2</ele>
        <time>2021-08-19T13:30:48.000Z</time>
      </trkpt>
      <trkpt lat="42.89758" lon="0.20023">
        <ele>2039.2</ele>
        <time>2021-08-19T13:31:03.000Z</time>
      </trkpt>
      <trkpt lat="42.89765" lon="0.20032">
        <ele>2036</ele>
        <time>2021-08-19T13:31:15.000Z</time>
      </trkpt>
      <trkpt lat="42.89774" lon="0.20036">
        <ele>2033.5</ele>
        <time>2021-08-19T13:31:23.000Z</time>
      </trkpt>
      <trkpt lat="42.89783" lon="0.20041">
        <ele>2031.3</ele>
        <time>2021-08-19T13:31:32.000Z</time>
      </trkpt>
      <trkpt lat="42.89791" lon="0.20047">
        <ele>2028.7</ele>
        <time>2021-08-19T13:31:41.000Z</time>
      </trkpt>
      <trkpt lat="42.89801" lon="0.20049">
        <ele>2027.1</ele>
        <time>2021-08-19T13:31:49.000Z</time>
      </trkpt>
      <trkpt lat="42.8981" lon="0.20052">
        <ele>2025.4</ele>
        <time>2021-08-19T13:31:55.000Z</time>
      </trkpt>
      <trkpt lat="42.89819" lon="0.20055">
        <ele>2023.8</ele>
        <time>2021-08-19T13:32:02.000Z</time>
      </trkpt>
      <trkpt lat="42.89828" lon="0.20056">
        <ele>2021.9</ele>
        <time>2021-08-19T13:32:10.000Z</time>
      </trkpt>
      <trkpt lat="42.89837" lon="0.20063">
        <ele>2018.8</ele>
        <time>2021-08-19T13:32:22.000Z</time>
      </trkpt>
      <trkpt lat="42.89845" lon="0.20067">
        <ele>2015.9</ele>
        <time>2021-08-19T13:32:31.000Z</time>
      </trkpt>
      <trkpt lat="42.89845" lon="0.20067">
        <ele>2015.2</ele>
        <time>2021-08-19T13:32:33.000Z</time>
      </trkpt>
      <trkpt lat="42.89845" lon="0.20067">
        <ele>2014.9</ele>
        <time>2021-08-19T13:32:34.000Z</time>
      </trkpt>
      <trkpt lat="42.89854" lon="0.20067">
        <ele>2013</ele>
        <time>2021-08-19T13:32:42.000Z</time>
      </trkpt>
      <trkpt lat="42.89861" lon="0.20059">
        <ele>2013.7</ele>
        <time>2021-08-19T13:32:51.000Z</time>
      </trkpt>
      <trkpt lat="42.89867" lon="0.20048">
        <ele>2016.1</ele>
        <time>2021-08-19T13:33:04.000Z</time>
      </trkpt>
      <trkpt lat="42.89875" lon="0.20041">
        <ele>2017.2</ele>
        <time>2021-08-19T13:33:15.000Z</time>
      </trkpt>
      <trkpt lat="42.89884" lon="0.20038">
        <ele>2015.9</ele>
        <time>2021-08-19T13:33:26.000Z</time>
      </trkpt>
      <trkpt lat="42.89887" lon="0.20051">
        <ele>2013</ele>
        <time>2021-08-19T13:33:37.000Z</time>
      </trkpt>
      <trkpt lat="42.89884" lon="0.20063">
        <ele>2010.1</ele>
        <time>2021-08-19T13:33:48.000Z</time>
      </trkpt>
      <trkpt lat="42.89881" lon="0.20075">
        <ele>2006.7</ele>
        <time>2021-08-19T13:33:59.000Z</time>
      </trkpt>
      <trkpt lat="42.89876" lon="0.20087">
        <ele>2004.5</ele>
        <time>2021-08-19T13:34:08.000Z</time>
      </trkpt>
      <trkpt lat="42.89877" lon="0.201">
        <ele>2001.8</ele>
        <time>2021-08-19T13:34:17.000Z</time>
      </trkpt>
      <trkpt lat="42.89874" lon="0.20111">
        <ele>1998.8</ele>
        <time>2021-08-19T13:34:28.000Z</time>
      </trkpt>
      <trkpt lat="42.89868" lon="0.20122">
        <ele>1995.8</ele>
        <time>2021-08-19T13:34:38.000Z</time>
      </trkpt>
      <trkpt lat="42.89865" lon="0.20134">
        <ele>1993.2</ele>
        <time>2021-08-19T13:34:46.000Z</time>
      </trkpt>
      <trkpt lat="42.89859" lon="0.20144">
        <ele>1990.5</ele>
        <time>2021-08-19T13:34:55.000Z</time>
      </trkpt>
      <trkpt lat="42.89858" lon="0.20157">
        <ele>1988.8</ele>
        <time>2021-08-19T13:35:03.000Z</time>
      </trkpt>
      <trkpt lat="42.89861" lon="0.2017">
        <ele>1986.6</ele>
        <time>2021-08-19T13:35:11.000Z</time>
      </trkpt>
      <trkpt lat="42.89862" lon="0.20182">
        <ele>1985.8</ele>
        <time>2021-08-19T13:35:18.000Z</time>
      </trkpt>
      <trkpt lat="42.89867" lon="0.20193">
        <ele>1985.1</ele>
        <time>2021-08-19T13:35:26.000Z</time>
      </trkpt>
      <trkpt lat="42.89875" lon="0.20202">
        <ele>1984.9</ele>
        <time>2021-08-19T13:35:34.000Z</time>
      </trkpt>
      <trkpt lat="42.89883" lon="0.2021">
        <ele>1983.3</ele>
        <time>2021-08-19T13:35:41.000Z</time>
      </trkpt>
      <trkpt lat="42.89889" lon="0.2022">
        <ele>1982.8</ele>
        <time>2021-08-19T13:35:48.000Z</time>
      </trkpt>
      <trkpt lat="42.89895" lon="0.20231">
        <ele>1982</ele>
        <time>2021-08-19T13:35:56.000Z</time>
      </trkpt>
      <trkpt lat="42.89902" lon="0.2024">
        <ele>1982</ele>
        <time>2021-08-19T13:36:05.000Z</time>
      </trkpt>
      <trkpt lat="42.89909" lon="0.2025">
        <ele>1981.5</ele>
        <time>2021-08-19T13:36:14.000Z</time>
      </trkpt>
      <trkpt lat="42.89917" lon="0.20258">
        <ele>1980.7</ele>
        <time>2021-08-19T13:36:21.000Z</time>
      </trkpt>
      <trkpt lat="42.89925" lon="0.20266">
        <ele>1979.4</ele>
        <time>2021-08-19T13:36:29.000Z</time>
      </trkpt>
      <trkpt lat="42.89933" lon="0.20273">
        <ele>1979.4</ele>
        <time>2021-08-19T13:36:38.000Z</time>
      </trkpt>
      <trkpt lat="42.8994" lon="0.20282">
        <ele>1978.8</ele>
        <time>2021-08-19T13:36:47.000Z</time>
      </trkpt>
      <trkpt lat="42.89945" lon="0.20292">
        <ele>1977.8</ele>
        <time>2021-08-19T13:36:53.000Z</time>
      </trkpt>
      <trkpt lat="42.89946" lon="0.20305">
        <ele>1976.9</ele>
        <time>2021-08-19T13:37:00.000Z</time>
      </trkpt>
      <trkpt lat="42.89948" lon="0.20318">
        <ele>1975.1</ele>
        <time>2021-08-19T13:37:08.000Z</time>
      </trkpt>
      <trkpt lat="42.89952" lon="0.2033">
        <ele>1973.3</ele>
        <time>2021-08-19T13:37:17.000Z</time>
      </trkpt>
      <trkpt lat="42.89955" lon="0.20344">
        <ele>1971.2</ele>
        <time>2021-08-19T13:37:26.000Z</time>
      </trkpt>
      <trkpt lat="42.89958" lon="0.20356">
        <ele>1969.1</ele>
        <time>2021-08-19T13:37:33.000Z</time>
      </trkpt>
      <trkpt lat="42.89962" lon="0.20367">
        <ele>1967.9</ele>
        <time>2021-08-19T13:37:40.000Z</time>
      </trkpt>
      <trkpt lat="42.89967" lon="0.20379">
        <ele>1966.4</ele>
        <time>2021-08-19T13:37:47.000Z</time>
      </trkpt>
      <trkpt lat="42.89971" lon="0.2039">
        <ele>1964.2</ele>
        <time>2021-08-19T13:37:56.000Z</time>
      </trkpt>
      <trkpt lat="42.89974" lon="0.20402">
        <ele>1961.7</ele>
        <time>2021-08-19T13:38:06.000Z</time>
      </trkpt>
      <trkpt lat="42.8998" lon="0.20411">
        <ele>1960.5</ele>
        <time>2021-08-19T13:38:15.000Z</time>
      </trkpt>
      <trkpt lat="42.89986" lon="0.20421">
        <ele>1958.5</ele>
        <time>2021-08-19T13:38:23.000Z</time>
      </trkpt>
      <trkpt lat="42.89992" lon="0.20432">
        <ele>1956.7</ele>
        <time>2021-08-19T13:38:31.000Z</time>
      </trkpt>
      <trkpt lat="42.90001" lon="0.20434">
        <ele>1953.8</ele>
        <time>2021-08-19T13:38:40.000Z</time>
      </trkpt>
      <trkpt lat="42.9001" lon="0.20437">
        <ele>1951.3</ele>
        <time>2021-08-19T13:38:50.000Z</time>
      </trkpt>
      <trkpt lat="42.90019" lon="0.20438">
        <ele>1948.8</ele>
        <time>2021-08-19T13:39:00.000Z</time>
      </trkpt>
      <trkpt lat="42.90027" lon="0.20446">
        <ele>1944.8</ele>
        <time>2021-08-19T13:39:15.000Z</time>
      </trkpt>
      <trkpt lat="42.90033" lon="0.20455">
        <ele>1942.5</ele>
        <time>2021-08-19T13:39:24.000Z</time>
      </trkpt>
      <trkpt lat="42.9004" lon="0.20462">
        <ele>1940.4</ele>
        <time>2021-08-19T13:39:31.000Z</time>
      </trkpt>
      <trkpt lat="42.90049" lon="0.20468">
        <ele>1938.6</ele>
        <time>2021-08-19T13:39:40.000Z</time>
      </trkpt>
      <trkpt lat="42.90054" lon="0.20478">
        <ele>1937.1</ele>
        <time>2021-08-19T13:39:49.000Z</time>
      </trkpt>
      <trkpt lat="42.90058" lon="0.2049">
        <ele>1935.5</ele>
        <time>2021-08-19T13:39:56.000Z</time>
      </trkpt>
      <trkpt lat="42.90065" lon="0.20499">
        <ele>1933.3</ele>
        <time>2021-08-19T13:40:05.000Z</time>
      </trkpt>
      <trkpt lat="42.90071" lon="0.20509">
        <ele>1930.3</ele>
        <time>2021-08-19T13:40:15.000Z</time>
      </trkpt>
      <trkpt lat="42.90076" lon="0.2052">
        <ele>1927.9</ele>
        <time>2021-08-19T13:40:23.000Z</time>
      </trkpt>
      <trkpt lat="42.90083" lon="0.20529">
        <ele>1925.2</ele>
        <time>2021-08-19T13:40:31.000Z</time>
      </trkpt>
      <trkpt lat="42.90088" lon="0.2053">
        <ele>1920.3</ele>
        <time>2021-08-19T13:40:49.000Z</time>
      </trkpt>
      <trkpt lat="42.90088" lon="0.2053">
        <ele>1921.4</ele>
        <time>2021-08-19T13:41:10.000Z</time>
      </trkpt>
      <trkpt lat="42.90088" lon="0.2053">
        <ele>1921.4</ele>
        <time>2021-08-19T13:41:11.000Z</time>
      </trkpt>
      <trkpt lat="42.90088" lon="0.2053">
        <ele>1921.6</ele>
        <time>2021-08-19T13:41:55.000Z</time>
      </trkpt>
      <trkpt lat="42.90088" lon="0.20529">
        <ele>1923.2</ele>
        <time>2021-08-19T13:41:58.000Z</time>
      </trkpt>
      <trkpt lat="42.90087" lon="0.20529">
        <ele>1923</ele>
        <time>2021-08-19T13:42:00.000Z</time>
      </trkpt>
      <trkpt lat="42.90087" lon="0.20529">
        <ele>1922.5</ele>
        <time>2021-08-19T13:42:01.000Z</time>
      </trkpt>
      <trkpt lat="42.90087" lon="0.20528">
        <ele>1922.5</ele>
        <time>2021-08-19T13:42:06.000Z</time>
      </trkpt>
      <trkpt lat="42.90086" lon="0.20529">
        <ele>1922.2</ele>
        <time>2021-08-19T13:42:12.000Z</time>
      </trkpt>
      <trkpt lat="42.90086" lon="0.20529">
        <ele>1922.4</ele>
        <time>2021-08-19T13:42:13.000Z</time>
      </trkpt>
      <trkpt lat="42.90086" lon="0.20529">
        <ele>1922.5</ele>
        <time>2021-08-19T13:42:14.000Z</time>
      </trkpt>
      <trkpt lat="42.90086" lon="0.20528">
        <ele>1922.6</ele>
        <time>2021-08-19T13:42:15.000Z</time>
      </trkpt>
      <trkpt lat="42.90086" lon="0.20529">
        <ele>1922.6</ele>
        <time>2021-08-19T13:42:16.000Z</time>
      </trkpt>
      <trkpt lat="42.90086" lon="0.20528">
        <ele>1922.5</ele>
        <time>2021-08-19T13:42:17.000Z</time>
      </trkpt>
      <trkpt lat="42.90087" lon="0.20528">
        <ele>1922.6</ele>
        <time>2021-08-19T13:42:23.000Z</time>
      </trkpt>
      <trkpt lat="42.90086" lon="0.20528">
        <ele>1922.1</ele>
        <time>2021-08-19T13:42:30.000Z</time>
      </trkpt>
      <trkpt lat="42.90086" lon="0.20528">
        <ele>1922.1</ele>
        <time>2021-08-19T13:42:31.000Z</time>
      </trkpt>
      <trkpt lat="42.90086" lon="0.20528">
        <ele>1922.7</ele>
        <time>2021-08-19T13:42:34.000Z</time>
      </trkpt>
      <trkpt lat="42.90086" lon="0.20528">
        <ele>1922.9</ele>
        <time>2021-08-19T13:42:35.000Z</time>
      </trkpt>
      <trkpt lat="42.90086" lon="0.20527">
        <ele>1922.9</ele>
        <time>2021-08-19T13:42:37.000Z</time>
      </trkpt>
      <trkpt lat="42.90086" lon="0.20527">
        <ele>1922.6</ele>
        <time>2021-08-19T13:42:38.000Z</time>
      </trkpt>
      <trkpt lat="42.90086" lon="0.20527">
        <ele>1921.6</ele>
        <time>2021-08-19T13:42:41.000Z</time>
      </trkpt>
      <trkpt lat="42.90086" lon="0.20527">
        <ele>1922.3</ele>
        <time>2021-08-19T13:42:53.000Z</time>
      </trkpt>
      <trkpt lat="42.90086" lon="0.20527">
        <ele>1922.4</ele>
        <time>2021-08-19T13:42:54.000Z</time>
      </trkpt>
      <trkpt lat="42.90086" lon="0.20527">
        <ele>1922.3</ele>
        <time>2021-08-19T13:42:55.000Z</time>
      </trkpt>
      <trkpt lat="42.90086" lon="0.20528">
        <ele>1922.2</ele>
        <time>2021-08-19T13:42:56.000Z</time>
      </trkpt>
      <trkpt lat="42.90087" lon="0.20527">
        <ele>1921.3</ele>
        <time>2021-08-19T13:43:04.000Z</time>
      </trkpt>
      <trkpt lat="42.90086" lon="0.20528">
        <ele>1921</ele>
        <time>2021-08-19T13:43:05.000Z</time>
      </trkpt>
      <trkpt lat="42.90085" lon="0.20528">
        <ele>1922.2</ele>
        <time>2021-08-19T13:43:09.000Z</time>
      </trkpt>
      <trkpt lat="42.90085" lon="0.20527">
        <ele>1922.2</ele>
        <time>2021-08-19T13:43:10.000Z</time>
      </trkpt>
      <trkpt lat="42.90084" lon="0.20525">
        <ele>1922.4</ele>
        <time>2021-08-19T13:43:16.000Z</time>
      </trkpt>
      <trkpt lat="42.90084" lon="0.20525">
        <ele>1922</ele>
        <time>2021-08-19T13:43:17.000Z</time>
      </trkpt>
      <trkpt lat="42.90088" lon="0.2053">
        <ele>1921.8</ele>
        <time>2021-08-19T13:43:25.000Z</time>
      </trkpt>
      <trkpt lat="42.90087" lon="0.20531">
        <ele>1921.6</ele>
        <time>2021-08-19T13:43:26.000Z</time>
      </trkpt>
      <trkpt lat="42.90091" lon="0.20536">
        <ele>1920.2</ele>
        <time>2021-08-19T13:43:40.000Z</time>
      </trkpt>
      <trkpt lat="42.90091" lon="0.20536">
        <ele>1919.8</ele>
        <time>2021-08-19T13:43:43.000Z</time>
      </trkpt>
      <trkpt lat="42.90095" lon="0.20548">
        <ele>1918.1</ele>
        <time>2021-08-19T13:43:52.000Z</time>
      </trkpt>
      <trkpt lat="42.901" lon="0.2056">
        <ele>1915.2</ele>
        <time>2021-08-19T13:44:01.000Z</time>
      </trkpt>
      <trkpt lat="42.90103" lon="0.20573">
        <ele>1913.3</ele>
        <time>2021-08-19T13:44:08.000Z</time>
      </trkpt>
      <trkpt lat="42.90108" lon="0.20583">
        <ele>1910.6</ele>
        <time>2021-08-19T13:44:16.000Z</time>
      </trkpt>
      <trkpt lat="42.90112" lon="0.20594">
        <ele>1908.1</ele>
        <time>2021-08-19T13:44:24.000Z</time>
      </trkpt>
      <trkpt lat="42.90116" lon="0.20606">
        <ele>1905.5</ele>
        <time>2021-08-19T13:44:31.000Z</time>
      </trkpt>
      <trkpt lat="42.90121" lon="0.20617">
        <ele>1903.4</ele>
        <time>2021-08-19T13:44:40.000Z</time>
      </trkpt>
      <trkpt lat="42.90126" lon="0.20629">
        <ele>1901</ele>
        <time>2021-08-19T13:44:49.000Z</time>
      </trkpt>
      <trkpt lat="42.9013" lon="0.20641">
        <ele>1898.1</ele>
        <time>2021-08-19T13:44:57.000Z</time>
      </trkpt>
      <trkpt lat="42.90131" lon="0.20654">
        <ele>1896</ele>
        <time>2021-08-19T13:45:05.000Z</time>
      </trkpt>
      <trkpt lat="42.90135" lon="0.20666">
        <ele>1893.5</ele>
        <time>2021-08-19T13:45:12.000Z</time>
      </trkpt>
      <trkpt lat="42.90142" lon="0.20676">
        <ele>1890.7</ele>
        <time>2021-08-19T13:45:20.000Z</time>
      </trkpt>
      <trkpt lat="42.90148" lon="0.20687">
        <ele>1888.5</ele>
        <time>2021-08-19T13:45:28.000Z</time>
      </trkpt>
      <trkpt lat="42.9015" lon="0.207">
        <ele>1886.6</ele>
        <time>2021-08-19T13:45:37.000Z</time>
      </trkpt>
      <trkpt lat="42.90155" lon="0.2071">
        <ele>1884.3</ele>
        <time>2021-08-19T13:45:46.000Z</time>
      </trkpt>
      <trkpt lat="42.9016" lon="0.20721">
        <ele>1881.8</ele>
        <time>2021-08-19T13:45:55.000Z</time>
      </trkpt>
      <trkpt lat="42.90166" lon="0.20731">
        <ele>1878.7</ele>
        <time>2021-08-19T13:46:12.000Z</time>
      </trkpt>
      <trkpt lat="42.90173" lon="0.2074">
        <ele>1875.9</ele>
        <time>2021-08-19T13:46:23.000Z</time>
      </trkpt>
      <trkpt lat="42.90182" lon="0.20744">
        <ele>1872.2</ele>
        <time>2021-08-19T13:46:38.000Z</time>
      </trkpt>
      <trkpt lat="42.90178" lon="0.20755">
        <ele>1869.5</ele>
        <time>2021-08-19T13:46:52.000Z</time>
      </trkpt>
      <trkpt lat="42.90169" lon="0.20761">
        <ele>1867.1</ele>
        <time>2021-08-19T13:47:00.000Z</time>
      </trkpt>
      <trkpt lat="42.90161" lon="0.20768">
        <ele>1865.5</ele>
        <time>2021-08-19T13:47:08.000Z</time>
      </trkpt>
      <trkpt lat="42.90154" lon="0.20778">
        <ele>1863.7</ele>
        <time>2021-08-19T13:47:17.000Z</time>
      </trkpt>
      <trkpt lat="42.90147" lon="0.20785">
        <ele>1862.9</ele>
        <time>2021-08-19T13:47:27.000Z</time>
      </trkpt>
      <trkpt lat="42.90154" lon="0.20795">
        <ele>1861.2</ele>
        <time>2021-08-19T13:47:40.000Z</time>
      </trkpt>
      <trkpt lat="42.90163" lon="0.20795">
        <ele>1858.7</ele>
        <time>2021-08-19T13:47:51.000Z</time>
      </trkpt>
      <trkpt lat="42.90173" lon="0.20794">
        <ele>1855.6</ele>
        <time>2021-08-19T13:48:04.000Z</time>
      </trkpt>
      <trkpt lat="42.90182" lon="0.20796">
        <ele>1853.3</ele>
        <time>2021-08-19T13:48:12.000Z</time>
      </trkpt>
      <trkpt lat="42.90191" lon="0.20803">
        <ele>1850.7</ele>
        <time>2021-08-19T13:48:21.000Z</time>
      </trkpt>
      <trkpt lat="42.902" lon="0.20801">
        <ele>1848.6</ele>
        <time>2021-08-19T13:48:29.000Z</time>
      </trkpt>
      <trkpt lat="42.90209" lon="0.20802">
        <ele>1845.7</ele>
        <time>2021-08-19T13:48:42.000Z</time>
      </trkpt>
      <trkpt lat="42.90215" lon="0.20813">
        <ele>1842.3</ele>
        <time>2021-08-19T13:48:52.000Z</time>
      </trkpt>
      <trkpt lat="42.90219" lon="0.20824">
        <ele>1839.2</ele>
        <time>2021-08-19T13:49:03.000Z</time>
      </trkpt>
      <trkpt lat="42.90216" lon="0.20836">
        <ele>1836.1</ele>
        <time>2021-08-19T13:49:12.000Z</time>
      </trkpt>
      <trkpt lat="42.90214" lon="0.20838">
        <ele>1835.7</ele>
        <time>2021-08-19T13:49:19.000Z</time>
      </trkpt>
      <trkpt lat="42.90214" lon="0.20838">
        <ele>1835.5</ele>
        <time>2021-08-19T13:49:20.000Z</time>
      </trkpt>
      <trkpt lat="42.90214" lon="0.2084">
        <ele>1835.1</ele>
        <time>2021-08-19T13:49:28.000Z</time>
      </trkpt>
      <trkpt lat="42.90214" lon="0.20839">
        <ele>1835.2</ele>
        <time>2021-08-19T13:49:29.000Z</time>
      </trkpt>
      <trkpt lat="42.90214" lon="0.20839">
        <ele>1835.1</ele>
        <time>2021-08-19T13:49:31.000Z</time>
      </trkpt>
      <trkpt lat="42.90214" lon="0.20838">
        <ele>1835</ele>
        <time>2021-08-19T13:49:46.000Z</time>
      </trkpt>
      <trkpt lat="42.90211" lon="0.20832">
        <ele>1834.3</ele>
        <time>2021-08-19T13:50:03.000Z</time>
      </trkpt>
      <trkpt lat="42.90212" lon="0.20833">
        <ele>1834.4</ele>
        <time>2021-08-19T13:50:04.000Z</time>
      </trkpt>
      <trkpt lat="42.90212" lon="0.20833">
        <ele>1834.6</ele>
        <time>2021-08-19T13:50:06.000Z</time>
      </trkpt>
      <trkpt lat="42.90212" lon="0.20832">
        <ele>1834.7</ele>
        <time>2021-08-19T13:50:08.000Z</time>
      </trkpt>
      <trkpt lat="42.90212" lon="0.20832">
        <ele>1834.7</ele>
        <time>2021-08-19T13:50:09.000Z</time>
      </trkpt>
      <trkpt lat="42.90212" lon="0.20832">
        <ele>1834.9</ele>
        <time>2021-08-19T13:50:12.000Z</time>
      </trkpt>
      <trkpt lat="42.90211" lon="0.20832">
        <ele>1834.7</ele>
        <time>2021-08-19T13:50:14.000Z</time>
      </trkpt>
      <trkpt lat="42.90211" lon="0.20832">
        <ele>1834.4</ele>
        <time>2021-08-19T13:50:16.000Z</time>
      </trkpt>
      <trkpt lat="42.90212" lon="0.20833">
        <ele>1834.6</ele>
        <time>2021-08-19T13:50:21.000Z</time>
      </trkpt>
      <trkpt lat="42.90212" lon="0.20833">
        <ele>1834.5</ele>
        <time>2021-08-19T13:50:22.000Z</time>
      </trkpt>
      <trkpt lat="42.90213" lon="0.20834">
        <ele>1834.5</ele>
        <time>2021-08-19T13:50:26.000Z</time>
      </trkpt>
      <trkpt lat="42.90213" lon="0.20833">
        <ele>1835.2</ele>
        <time>2021-08-19T13:50:29.000Z</time>
      </trkpt>
      <trkpt lat="42.90219" lon="0.20843">
        <ele>1832.9</ele>
        <time>2021-08-19T13:50:43.000Z</time>
      </trkpt>
      <trkpt lat="42.90228" lon="0.2084">
        <ele>1829.4</ele>
        <time>2021-08-19T13:50:58.000Z</time>
      </trkpt>
      <trkpt lat="42.90237" lon="0.20843">
        <ele>1826.8</ele>
        <time>2021-08-19T13:51:06.000Z</time>
      </trkpt>
      <trkpt lat="42.90246" lon="0.20843">
        <ele>1824.7</ele>
        <time>2021-08-19T13:51:14.000Z</time>
      </trkpt>
      <trkpt lat="42.90254" lon="0.20836">
        <ele>1823</ele>
        <time>2021-08-19T13:51:25.000Z</time>
      </trkpt>
      <trkpt lat="42.90252" lon="0.20834">
        <ele>1822.2</ele>
        <time>2021-08-19T13:51:31.000Z</time>
      </trkpt>
      <trkpt lat="42.90253" lon="0.20833">
        <ele>1821.8</ele>
        <time>2021-08-19T13:51:32.000Z</time>
      </trkpt>
      <trkpt lat="42.90261" lon="0.20838">
        <ele>1818.2</ele>
        <time>2021-08-19T13:51:48.000Z</time>
      </trkpt>
      <trkpt lat="42.9027" lon="0.20842">
        <ele>1813.2</ele>
        <time>2021-08-19T13:52:08.000Z</time>
      </trkpt>
      <trkpt lat="42.9027" lon="0.20844">
        <ele>1812.7</ele>
        <time>2021-08-19T13:52:11.000Z</time>
      </trkpt>
      <trkpt lat="42.90271" lon="0.20844">
        <ele>1812.7</ele>
        <time>2021-08-19T13:52:12.000Z</time>
      </trkpt>
      <trkpt lat="42.90278" lon="0.20853">
        <ele>1807.4</ele>
        <time>2021-08-19T13:52:31.000Z</time>
      </trkpt>
      <trkpt lat="42.90285" lon="0.2086">
        <ele>1801.1</ele>
        <time>2021-08-19T13:52:55.000Z</time>
      </trkpt>
      <trkpt lat="42.90294" lon="0.20864">
        <ele>1798.2</ele>
        <time>2021-08-19T13:53:06.000Z</time>
      </trkpt>
      <trkpt lat="42.90304" lon="0.20863">
        <ele>1797</ele>
        <time>2021-08-19T13:53:13.000Z</time>
      </trkpt>
      <trkpt lat="42.90312" lon="0.20869">
        <ele>1797.5</ele>
        <time>2021-08-19T13:53:26.000Z</time>
      </trkpt>
      <trkpt lat="42.90321" lon="0.20875">
        <ele>1798.1</ele>
        <time>2021-08-19T13:53:35.000Z</time>
      </trkpt>
      <trkpt lat="42.90325" lon="0.20878">
        <ele>1799.1</ele>
        <time>2021-08-19T13:53:43.000Z</time>
      </trkpt>
      <trkpt lat="42.90325" lon="0.20878">
        <ele>1798.9</ele>
        <time>2021-08-19T13:53:45.000Z</time>
      </trkpt>
      <trkpt lat="42.90329" lon="0.20881">
        <ele>1798</ele>
        <time>2021-08-19T13:53:59.000Z</time>
      </trkpt>
      <trkpt lat="42.90329" lon="0.20881">
        <ele>1798</ele>
        <time>2021-08-19T13:54:00.000Z</time>
      </trkpt>
      <trkpt lat="42.90329" lon="0.20881">
        <ele>1797.8</ele>
        <time>2021-08-19T13:54:01.000Z</time>
      </trkpt>
      <trkpt lat="42.90329" lon="0.20881">
        <ele>1797.7</ele>
        <time>2021-08-19T13:54:07.000Z</time>
      </trkpt>
      <trkpt lat="42.90329" lon="0.20881">
        <ele>1797.5</ele>
        <time>2021-08-19T13:54:08.000Z</time>
      </trkpt>
      <trkpt lat="42.90329" lon="0.20881">
        <ele>1797.4</ele>
        <time>2021-08-19T13:54:13.000Z</time>
      </trkpt>
      <trkpt lat="42.90339" lon="0.20884">
        <ele>1795.2</ele>
        <time>2021-08-19T13:54:26.000Z</time>
      </trkpt>
      <trkpt lat="42.90348" lon="0.2089">
        <ele>1793.5</ele>
        <time>2021-08-19T13:54:36.000Z</time>
      </trkpt>
      <trkpt lat="42.90354" lon="0.20899">
        <ele>1791.1</ele>
        <time>2021-08-19T13:54:47.000Z</time>
      </trkpt>
      <trkpt lat="42.90362" lon="0.20907">
        <ele>1789.1</ele>
        <time>2021-08-19T13:54:55.000Z</time>
      </trkpt>
      <trkpt lat="42.90371" lon="0.20913">
        <ele>1787.2</ele>
        <time>2021-08-19T13:55:07.000Z</time>
      </trkpt>
      <trkpt lat="42.9038" lon="0.20913">
        <ele>1785.1</ele>
        <time>2021-08-19T13:55:15.000Z</time>
      </trkpt>
      <trkpt lat="42.90389" lon="0.2092">
        <ele>1783.1</ele>
        <time>2021-08-19T13:55:25.000Z</time>
      </trkpt>
      <trkpt lat="42.90394" lon="0.20931">
        <ele>1780.2</ele>
        <time>2021-08-19T13:55:39.000Z</time>
      </trkpt>
      <trkpt lat="42.90402" lon="0.20938">
        <ele>1777.8</ele>
        <time>2021-08-19T13:55:50.000Z</time>
      </trkpt>
      <trkpt lat="42.90411" lon="0.20942">
        <ele>1775.8</ele>
        <time>2021-08-19T13:56:00.000Z</time>
      </trkpt>
      <trkpt lat="42.90418" lon="0.20952">
        <ele>1772.9</ele>
        <time>2021-08-19T13:56:13.000Z</time>
      </trkpt>
      <trkpt lat="42.90428" lon="0.20951">
        <ele>1770.5</ele>
        <time>2021-08-19T13:56:21.000Z</time>
      </trkpt>
      <trkpt lat="42.90437" lon="0.20952">
        <ele>1768.6</ele>
        <time>2021-08-19T13:56:29.000Z</time>
      </trkpt>
      <trkpt lat="42.90446" lon="0.20958">
        <ele>1767.5</ele>
        <time>2021-08-19T13:56:37.000Z</time>
      </trkpt>
      <trkpt lat="42.90448" lon="0.20971">
        <ele>1767</ele>
        <time>2021-08-19T13:56:47.000Z</time>
      </trkpt>
      <trkpt lat="42.90458" lon="0.20969">
        <ele>1763.7</ele>
        <time>2021-08-19T13:56:58.000Z</time>
      </trkpt>
      <trkpt lat="42.90457" lon="0.20966">
        <ele>1761.8</ele>
        <time>2021-08-19T13:57:06.000Z</time>
      </trkpt>
      <trkpt lat="42.90457" lon="0.20965">
        <ele>1761.5</ele>
        <time>2021-08-19T13:57:07.000Z</time>
      </trkpt>
      <trkpt lat="42.90462" lon="0.20955">
        <ele>1759</ele>
        <time>2021-08-19T13:57:15.000Z</time>
      </trkpt>
      <trkpt lat="42.9047" lon="0.20948">
        <ele>1755.7</ele>
        <time>2021-08-19T13:57:27.000Z</time>
      </trkpt>
      <trkpt lat="42.90476" lon="0.20958">
        <ele>1751.2</ele>
        <time>2021-08-19T13:57:42.000Z</time>
      </trkpt>
      <trkpt lat="42.90485" lon="0.20961">
        <ele>1747</ele>
        <time>2021-08-19T13:57:55.000Z</time>
      </trkpt>
      <trkpt lat="42.90493" lon="0.20955">
        <ele>1744.2</ele>
        <time>2021-08-19T13:58:06.000Z</time>
      </trkpt>
      <trkpt lat="42.90501" lon="0.20947">
        <ele>1742.1</ele>
        <time>2021-08-19T13:58:14.000Z</time>
      </trkpt>
      <trkpt lat="42.90507" lon="0.20938">
        <ele>1739.1</ele>
        <time>2021-08-19T13:58:23.000Z</time>
      </trkpt>
      <trkpt lat="42.90514" lon="0.2093">
        <ele>1734.3</ele>
        <time>2021-08-19T13:58:42.000Z</time>
      </trkpt>
      <trkpt lat="42.90518" lon="0.20923">
        <ele>1731.3</ele>
        <time>2021-08-19T13:59:02.000Z</time>
      </trkpt>
      <trkpt lat="42.90518" lon="0.20923">
        <ele>1731</ele>
        <time>2021-08-19T13:59:03.000Z</time>
      </trkpt>
      <trkpt lat="42.9052" lon="0.20922">
        <ele>1730.6</ele>
        <time>2021-08-19T13:59:06.000Z</time>
      </trkpt>
      <trkpt lat="42.9052" lon="0.20922">
        <ele>1730.3</ele>
        <time>2021-08-19T13:59:07.000Z</time>
      </trkpt>
      <trkpt lat="42.90524" lon="0.2092">
        <ele>1728</ele>
        <time>2021-08-19T13:59:19.000Z</time>
      </trkpt>
      <trkpt lat="42.90524" lon="0.2092">
        <ele>1727.6</ele>
        <time>2021-08-19T13:59:21.000Z</time>
      </trkpt>
      <trkpt lat="42.90534" lon="0.20919">
        <ele>1724.4</ele>
        <time>2021-08-19T13:59:32.000Z</time>
      </trkpt>
      <trkpt lat="42.90542" lon="0.20913">
        <ele>1720</ele>
        <time>2021-08-19T13:59:51.000Z</time>
      </trkpt>
      <trkpt lat="42.90552" lon="0.20911">
        <ele>1717.4</ele>
        <time>2021-08-19T14:00:01.000Z</time>
      </trkpt>
      <trkpt lat="42.90561" lon="0.20911">
        <ele>1715</ele>
        <time>2021-08-19T14:00:09.000Z</time>
      </trkpt>
      <trkpt lat="42.90564" lon="0.20912">
        <ele>1713.2</ele>
        <time>2021-08-19T14:00:14.000Z</time>
      </trkpt>
      <trkpt lat="42.90564" lon="0.20913">
        <ele>1712.8</ele>
        <time>2021-08-19T14:00:15.000Z</time>
      </trkpt>
      <trkpt lat="42.90566" lon="0.20922">
        <ele>1709.3</ele>
        <time>2021-08-19T14:00:32.000Z</time>
      </trkpt>
      <trkpt lat="42.90566" lon="0.20922">
        <ele>1709</ele>
        <time>2021-08-19T14:00:33.000Z</time>
      </trkpt>
      <trkpt lat="42.90563" lon="0.20934">
        <ele>1706.4</ele>
        <time>2021-08-19T14:00:45.000Z</time>
      </trkpt>
      <trkpt lat="42.90558" lon="0.20944">
        <ele>1703.2</ele>
        <time>2021-08-19T14:00:57.000Z</time>
      </trkpt>
      <trkpt lat="42.90552" lon="0.20954">
        <ele>1701.6</ele>
        <time>2021-08-19T14:01:07.000Z</time>
      </trkpt>
      <trkpt lat="42.90551" lon="0.20967">
        <ele>1699.3</ele>
        <time>2021-08-19T14:01:19.000Z</time>
      </trkpt>
      <trkpt lat="42.90551" lon="0.2098">
        <ele>1697.1</ele>
        <time>2021-08-19T14:01:27.000Z</time>
      </trkpt>
      <trkpt lat="42.9055" lon="0.20993">
        <ele>1693.4</ele>
        <time>2021-08-19T14:01:36.000Z</time>
      </trkpt>
      <trkpt lat="42.90548" lon="0.20995">
        <ele>1691.4</ele>
        <time>2021-08-19T14:01:44.000Z</time>
      </trkpt>
      <trkpt lat="42.90548" lon="0.20995">
        <ele>1691</ele>
        <time>2021-08-19T14:01:45.000Z</time>
      </trkpt>
      <trkpt lat="42.90545" lon="0.21008">
        <ele>1689.3</ele>
        <time>2021-08-19T14:01:53.000Z</time>
      </trkpt>
      <trkpt lat="42.9055" lon="0.21019">
        <ele>1686.2</ele>
        <time>2021-08-19T14:02:08.000Z</time>
      </trkpt>
      <trkpt lat="42.90557" lon="0.21028">
        <ele>1680.1</ele>
        <time>2021-08-19T14:02:28.000Z</time>
      </trkpt>
      <trkpt lat="42.90559" lon="0.21041">
        <ele>1676.2</ele>
        <time>2021-08-19T14:02:39.000Z</time>
      </trkpt>
      <trkpt lat="42.90565" lon="0.21051">
        <ele>1672.8</ele>
        <time>2021-08-19T14:02:47.000Z</time>
      </trkpt>
      <trkpt lat="42.90569" lon="0.21063">
        <ele>1669.8</ele>
        <time>2021-08-19T14:02:54.000Z</time>
      </trkpt>
      <trkpt lat="42.90572" lon="0.21075">
        <ele>1667.4</ele>
        <time>2021-08-19T14:03:02.000Z</time>
      </trkpt>
      <trkpt lat="42.90579" lon="0.21084">
        <ele>1665.3</ele>
        <time>2021-08-19T14:03:11.000Z</time>
      </trkpt>
      <trkpt lat="42.90584" lon="0.21093">
        <ele>1663.8</ele>
        <time>2021-08-19T14:03:22.000Z</time>
      </trkpt>
      <trkpt lat="42.90584" lon="0.21092">
        <ele>1663.5</ele>
        <time>2021-08-19T14:03:24.000Z</time>
      </trkpt>
      <trkpt lat="42.90584" lon="0.2109">
        <ele>1663.2</ele>
        <time>2021-08-19T14:03:29.000Z</time>
      </trkpt>
      <trkpt lat="42.90584" lon="0.21091">
        <ele>1663.2</ele>
        <time>2021-08-19T14:03:30.000Z</time>
      </trkpt>
      <trkpt lat="42.90593" lon="0.21096">
        <ele>1661.7</ele>
        <time>2021-08-19T14:03:38.000Z</time>
      </trkpt>
      <trkpt lat="42.90602" lon="0.21101">
        <ele>1659.2</ele>
        <time>2021-08-19T14:03:45.000Z</time>
      </trkpt>
      <trkpt lat="42.90612" lon="0.21104">
        <ele>1657</ele>
        <time>2021-08-19T14:03:52.000Z</time>
      </trkpt>
      <trkpt lat="42.90617" lon="0.21115">
        <ele>1654.4</ele>
        <time>2021-08-19T14:04:01.000Z</time>
      </trkpt>
      <trkpt lat="42.90626" lon="0.21119">
        <ele>1653.1</ele>
        <time>2021-08-19T14:04:08.000Z</time>
      </trkpt>
      <trkpt lat="42.90635" lon="0.21121">
        <ele>1652.9</ele>
        <time>2021-08-19T14:04:16.000Z</time>
      </trkpt>
      <trkpt lat="42.90644" lon="0.21122">
        <ele>1651.1</ele>
        <time>2021-08-19T14:04:24.000Z</time>
      </trkpt>
      <trkpt lat="42.90654" lon="0.21121">
        <ele>1649.6</ele>
        <time>2021-08-19T14:04:31.000Z</time>
      </trkpt>
      <trkpt lat="42.90664" lon="0.21124">
        <ele>1647.9</ele>
        <time>2021-08-19T14:04:40.000Z</time>
      </trkpt>
      <trkpt lat="42.90673" lon="0.21125">
        <ele>1646.9</ele>
        <time>2021-08-19T14:04:48.000Z</time>
      </trkpt>
      <trkpt lat="42.90683" lon="0.21124">
        <ele>1644.9</ele>
        <time>2021-08-19T14:04:56.000Z</time>
      </trkpt>
      <trkpt lat="42.90692" lon="0.21123">
        <ele>1643.3</ele>
        <time>2021-08-19T14:05:05.000Z</time>
      </trkpt>
      <trkpt lat="42.90701" lon="0.21128">
        <ele>1640.7</ele>
        <time>2021-08-19T14:05:14.000Z</time>
      </trkpt>
      <trkpt lat="42.90707" lon="0.21138">
        <ele>1638.1</ele>
        <time>2021-08-19T14:05:22.000Z</time>
      </trkpt>
      <trkpt lat="42.9071" lon="0.21151">
        <ele>1636</ele>
        <time>2021-08-19T14:05:32.000Z</time>
      </trkpt>
      <trkpt lat="42.90718" lon="0.21161">
        <ele>1633.7</ele>
        <time>2021-08-19T14:05:40.000Z</time>
      </trkpt>
      <trkpt lat="42.90722" lon="0.21172">
        <ele>1632.2</ele>
        <time>2021-08-19T14:05:48.000Z</time>
      </trkpt>
      <trkpt lat="42.90722" lon="0.21183">
        <ele>1632.1</ele>
        <time>2021-08-19T14:05:59.000Z</time>
      </trkpt>
      <trkpt lat="42.90722" lon="0.21184">
        <ele>1632</ele>
        <time>2021-08-19T14:06:00.000Z</time>
      </trkpt>
      <trkpt lat="42.9073" lon="0.21191">
        <ele>1631.8</ele>
        <time>2021-08-19T14:06:11.000Z</time>
      </trkpt>
      <trkpt lat="42.90737" lon="0.21201">
        <ele>1631.1</ele>
        <time>2021-08-19T14:06:20.000Z</time>
      </trkpt>
      <trkpt lat="42.90744" lon="0.2121">
        <ele>1630.4</ele>
        <time>2021-08-19T14:06:27.000Z</time>
      </trkpt>
      <trkpt lat="42.9075" lon="0.2122">
        <ele>1629.8</ele>
        <time>2021-08-19T14:06:34.000Z</time>
      </trkpt>
      <trkpt lat="42.90755" lon="0.21232">
        <ele>1629.2</ele>
        <time>2021-08-19T14:06:41.000Z</time>
      </trkpt>
      <trkpt lat="42.90757" lon="0.21245">
        <ele>1628.1</ele>
        <time>2021-08-19T14:06:48.000Z</time>
      </trkpt>
      <trkpt lat="42.90758" lon="0.21258">
        <ele>1627.6</ele>
        <time>2021-08-19T14:06:58.000Z</time>
      </trkpt>
      <trkpt lat="42.90761" lon="0.21271">
        <ele>1627.4</ele>
        <time>2021-08-19T14:07:07.000Z</time>
      </trkpt>
      <trkpt lat="42.90767" lon="0.21282">
        <ele>1627.1</ele>
        <time>2021-08-19T14:07:15.000Z</time>
      </trkpt>
      <trkpt lat="42.90776" lon="0.21286">
        <ele>1625.9</ele>
        <time>2021-08-19T14:07:24.000Z</time>
      </trkpt>
      <trkpt lat="42.90784" lon="0.21293">
        <ele>1624.4</ele>
        <time>2021-08-19T14:07:32.000Z</time>
      </trkpt>
      <trkpt lat="42.90793" lon="0.21298">
        <ele>1623.9</ele>
        <time>2021-08-19T14:07:39.000Z</time>
      </trkpt>
      <trkpt lat="42.90801" lon="0.21305">
        <ele>1625.4</ele>
        <time>2021-08-19T14:07:50.000Z</time>
      </trkpt>
      <trkpt lat="42.9081" lon="0.2131">
        <ele>1625.3</ele>
        <time>2021-08-19T14:07:58.000Z</time>
      </trkpt>
      <trkpt lat="42.90819" lon="0.21316">
        <ele>1624.3</ele>
        <time>2021-08-19T14:08:05.000Z</time>
      </trkpt>
      <trkpt lat="42.90824" lon="0.21327">
        <ele>1623.7</ele>
        <time>2021-08-19T14:08:13.000Z</time>
      </trkpt>
      <trkpt lat="42.90832" lon="0.21335">
        <ele>1622.2</ele>
        <time>2021-08-19T14:08:21.000Z</time>
      </trkpt>
      <trkpt lat="42.90839" lon="0.21343">
        <ele>1621.2</ele>
        <time>2021-08-19T14:08:30.000Z</time>
      </trkpt>
      <trkpt lat="42.90846" lon="0.21352">
        <ele>1620.9</ele>
        <time>2021-08-19T14:08:37.000Z</time>
      </trkpt>
      <trkpt lat="42.90854" lon="0.2136">
        <ele>1619.2</ele>
        <time>2021-08-19T14:08:45.000Z</time>
      </trkpt>
      <trkpt lat="42.90858" lon="0.21371">
        <ele>1618.7</ele>
        <time>2021-08-19T14:08:53.000Z</time>
      </trkpt>
      <trkpt lat="42.90864" lon="0.21382">
        <ele>1617.9</ele>
        <time>2021-08-19T14:09:03.000Z</time>
      </trkpt>
      <trkpt lat="42.90873" lon="0.21387">
        <ele>1617.2</ele>
        <time>2021-08-19T14:09:11.000Z</time>
      </trkpt>
      <trkpt lat="42.90882" lon="0.21391">
        <ele>1616.2</ele>
        <time>2021-08-19T14:09:23.000Z</time>
      </trkpt>
      <trkpt lat="42.9089" lon="0.21398">
        <ele>1614.8</ele>
        <time>2021-08-19T14:09:31.000Z</time>
      </trkpt>
      <trkpt lat="42.90895" lon="0.2141">
        <ele>1613.9</ele>
        <time>2021-08-19T14:09:41.000Z</time>
      </trkpt>
      <trkpt lat="42.90902" lon="0.21418">
        <ele>1613</ele>
        <time>2021-08-19T14:09:50.000Z</time>
      </trkpt>
      <trkpt lat="42.90911" lon="0.21426">
        <ele>1612.9</ele>
        <time>2021-08-19T14:10:02.000Z</time>
      </trkpt>
      <trkpt lat="42.90918" lon="0.21435">
        <ele>1613</ele>
        <time>2021-08-19T14:10:15.000Z</time>
      </trkpt>
      <trkpt lat="42.90927" lon="0.21439">
        <ele>1613</ele>
        <time>2021-08-19T14:10:25.000Z</time>
      </trkpt>
      <trkpt lat="42.90936" lon="0.21443">
        <ele>1611.7</ele>
        <time>2021-08-19T14:10:34.000Z</time>
      </trkpt>
      <trkpt lat="42.90944" lon="0.21447">
        <ele>1611.5</ele>
        <time>2021-08-19T14:10:43.000Z</time>
      </trkpt>
      <trkpt lat="42.90944" lon="0.21447">
        <ele>1611.3</ele>
        <time>2021-08-19T14:10:44.000Z</time>
      </trkpt>
      <trkpt lat="42.90952" lon="0.21453">
        <ele>1609.6</ele>
        <time>2021-08-19T14:10:53.000Z</time>
      </trkpt>
      <trkpt lat="42.9096" lon="0.2146">
        <ele>1608.7</ele>
        <time>2021-08-19T14:11:01.000Z</time>
      </trkpt>
      <trkpt lat="42.90968" lon="0.21467">
        <ele>1608</ele>
        <time>2021-08-19T14:11:10.000Z</time>
      </trkpt>
      <trkpt lat="42.90977" lon="0.21473">
        <ele>1606.9</ele>
        <time>2021-08-19T14:11:17.000Z</time>
      </trkpt>
      <trkpt lat="42.90984" lon="0.21475">
        <ele>1605.5</ele>
        <time>2021-08-19T14:11:23.000Z</time>
      </trkpt>
      <trkpt lat="42.90985" lon="0.21476">
        <ele>1605.4</ele>
        <time>2021-08-19T14:11:24.000Z</time>
      </trkpt>
      <trkpt lat="42.90991" lon="0.21485">
        <ele>1604.5</ele>
        <time>2021-08-19T14:11:34.000Z</time>
      </trkpt>
      <trkpt lat="42.90998" lon="0.21493">
        <ele>1605.1</ele>
        <time>2021-08-19T14:11:45.000Z</time>
      </trkpt>
      <trkpt lat="42.91008" lon="0.21497">
        <ele>1605</ele>
        <time>2021-08-19T14:11:54.000Z</time>
      </trkpt>
      <trkpt lat="42.91016" lon="0.21501">
        <ele>1603.5</ele>
        <time>2021-08-19T14:12:05.000Z</time>
      </trkpt>
      <trkpt lat="42.91026" lon="0.21506">
        <ele>1602.3</ele>
        <time>2021-08-19T14:12:15.000Z</time>
      </trkpt>
      <trkpt lat="42.91029" lon="0.2152">
        <ele>1600.8</ele>
        <time>2021-08-19T14:12:25.000Z</time>
      </trkpt>
      <trkpt lat="42.91037" lon="0.21525">
        <ele>1598.8</ele>
        <time>2021-08-19T14:12:45.000Z</time>
      </trkpt>
      <trkpt lat="42.91047" lon="0.21528">
        <ele>1598.4</ele>
        <time>2021-08-19T14:12:53.000Z</time>
      </trkpt>
      <trkpt lat="42.91055" lon="0.21532">
        <ele>1597</ele>
        <time>2021-08-19T14:13:04.000Z</time>
      </trkpt>
      <trkpt lat="42.91064" lon="0.21533">
        <ele>1594.6</ele>
        <time>2021-08-19T14:13:18.000Z</time>
      </trkpt>
      <trkpt lat="42.91074" lon="0.21534">
        <ele>1593.5</ele>
        <time>2021-08-19T14:13:30.000Z</time>
      </trkpt>
      <trkpt lat="42.91081" lon="0.21528">
        <ele>1593.4</ele>
        <time>2021-08-19T14:13:38.000Z</time>
      </trkpt>
      <trkpt lat="42.91087" lon="0.21516">
        <ele>1594.3</ele>
        <time>2021-08-19T14:13:47.000Z</time>
      </trkpt>
      <trkpt lat="42.91089" lon="0.21504">
        <ele>1597</ele>
        <time>2021-08-19T14:13:57.000Z</time>
      </trkpt>
      <trkpt lat="42.91095" lon="0.21494">
        <ele>1600.2</ele>
        <time>2021-08-19T14:14:12.000Z</time>
      </trkpt>
      <trkpt lat="42.91104" lon="0.21492">
        <ele>1600.7</ele>
        <time>2021-08-19T14:14:19.000Z</time>
      </trkpt>
      <trkpt lat="42.91112" lon="0.21484">
        <ele>1600.6</ele>
        <time>2021-08-19T14:14:26.000Z</time>
      </trkpt>
      <trkpt lat="42.91119" lon="0.21475">
        <ele>1601.8</ele>
        <time>2021-08-19T14:14:36.000Z</time>
      </trkpt>
      <trkpt lat="42.91128" lon="0.21475">
        <ele>1602.5</ele>
        <time>2021-08-19T14:14:51.000Z</time>
      </trkpt>
      <trkpt lat="42.91135" lon="0.21483">
        <ele>1600.9</ele>
        <time>2021-08-19T14:15:01.000Z</time>
      </trkpt>
      <trkpt lat="42.91143" lon="0.21491">
        <ele>1598.7</ele>
        <time>2021-08-19T14:15:12.000Z</time>
      </trkpt>
      <trkpt lat="42.9115" lon="0.21499">
        <ele>1597</ele>
        <time>2021-08-19T14:15:19.000Z</time>
      </trkpt>
      <trkpt lat="42.91158" lon="0.21506">
        <ele>1596.5</ele>
        <time>2021-08-19T14:15:26.000Z</time>
      </trkpt>
      <trkpt lat="42.91166" lon="0.21513">
        <ele>1596.2</ele>
        <time>2021-08-19T14:15:36.000Z</time>
      </trkpt>
      <trkpt lat="42.91174" lon="0.21521">
        <ele>1596.9</ele>
        <time>2021-08-19T14:15:44.000Z</time>
      </trkpt>
      <trkpt lat="42.91176" lon="0.21533">
        <ele>1596.8</ele>
        <time>2021-08-19T14:15:53.000Z</time>
      </trkpt>
      <trkpt lat="42.91184" lon="0.21539">
        <ele>1595.3</ele>
        <time>2021-08-19T14:16:03.000Z</time>
      </trkpt>
      <trkpt lat="42.91191" lon="0.21548">
        <ele>1594</ele>
        <time>2021-08-19T14:16:11.000Z</time>
      </trkpt>
      <trkpt lat="42.91199" lon="0.21559">
        <ele>1593.7</ele>
        <time>2021-08-19T14:16:18.000Z</time>
      </trkpt>
      <trkpt lat="42.91208" lon="0.21566">
        <ele>1592.8</ele>
        <time>2021-08-19T14:16:24.000Z</time>
      </trkpt>
      <trkpt lat="42.91217" lon="0.21571">
        <ele>1592.8</ele>
        <time>2021-08-19T14:16:32.000Z</time>
      </trkpt>
      <trkpt lat="42.91225" lon="0.21577">
        <ele>1593.5</ele>
        <time>2021-08-19T14:16:40.000Z</time>
      </trkpt>
      <trkpt lat="42.91234" lon="0.21583">
        <ele>1594.3</ele>
        <time>2021-08-19T14:16:48.000Z</time>
      </trkpt>
      <trkpt lat="42.91243" lon="0.21588">
        <ele>1595.1</ele>
        <time>2021-08-19T14:16:56.000Z</time>
      </trkpt>
      <trkpt lat="42.91251" lon="0.21594">
        <ele>1595.9</ele>
        <time>2021-08-19T14:17:03.000Z</time>
      </trkpt>
      <trkpt lat="42.9126" lon="0.21599">
        <ele>1596.2</ele>
        <time>2021-08-19T14:17:11.000Z</time>
      </trkpt>
      <trkpt lat="42.91269" lon="0.21604">
        <ele>1596.9</ele>
        <time>2021-08-19T14:17:18.000Z</time>
      </trkpt>
      <trkpt lat="42.91278" lon="0.21611">
        <ele>1596.8</ele>
        <time>2021-08-19T14:17:26.000Z</time>
      </trkpt>
      <trkpt lat="42.91286" lon="0.21617">
        <ele>1597.3</ele>
        <time>2021-08-19T14:17:33.000Z</time>
      </trkpt>
      <trkpt lat="42.91294" lon="0.21622">
        <ele>1597.5</ele>
        <time>2021-08-19T14:17:41.000Z</time>
      </trkpt>
      <trkpt lat="42.91304" lon="0.21623">
        <ele>1597</ele>
        <time>2021-08-19T14:17:49.000Z</time>
      </trkpt>
      <trkpt lat="42.91314" lon="0.21626">
        <ele>1597.2</ele>
        <time>2021-08-19T14:17:57.000Z</time>
      </trkpt>
      <trkpt lat="42.91323" lon="0.2163">
        <ele>1597.2</ele>
        <time>2021-08-19T14:18:02.000Z</time>
      </trkpt>
      <trkpt lat="42.91331" lon="0.21636">
        <ele>1597</ele>
        <time>2021-08-19T14:18:08.000Z</time>
      </trkpt>
      <trkpt lat="42.91341" lon="0.2164">
        <ele>1597.4</ele>
        <time>2021-08-19T14:18:17.000Z</time>
      </trkpt>
      <trkpt lat="42.91349" lon="0.21648">
        <ele>1598.5</ele>
        <time>2021-08-19T14:18:27.000Z</time>
      </trkpt>
      <trkpt lat="42.91358" lon="0.21654">
        <ele>1598.8</ele>
        <time>2021-08-19T14:18:36.000Z</time>
      </trkpt>
      <trkpt lat="42.91359" lon="0.21655">
        <ele>1598.8</ele>
        <time>2021-08-19T14:18:40.000Z</time>
      </trkpt>
      <trkpt lat="42.9136" lon="0.21655">
        <ele>1598.8</ele>
        <time>2021-08-19T14:18:41.000Z</time>
      </trkpt>
      <trkpt lat="42.9137" lon="0.21661">
        <ele>1598.3</ele>
        <time>2021-08-19T14:18:49.000Z</time>
      </trkpt>
      <trkpt lat="42.91379" lon="0.21666">
        <ele>1598.1</ele>
        <time>2021-08-19T14:18:55.000Z</time>
      </trkpt>
      <trkpt lat="42.9138" lon="0.21667">
        <ele>1597.6</ele>
        <time>2021-08-19T14:18:59.000Z</time>
      </trkpt>
      <trkpt lat="42.9138" lon="0.21667">
        <ele>1597.6</ele>
        <time>2021-08-19T14:19:00.000Z</time>
      </trkpt>
      <trkpt lat="42.91389" lon="0.21671">
        <ele>1596.9</ele>
        <time>2021-08-19T14:19:07.000Z</time>
      </trkpt>
      <trkpt lat="42.914" lon="0.21676">
        <ele>1596.3</ele>
        <time>2021-08-19T14:19:18.000Z</time>
      </trkpt>
      <trkpt lat="42.91409" lon="0.21677">
        <ele>1596.6</ele>
        <time>2021-08-19T14:19:23.000Z</time>
      </trkpt>
      <trkpt lat="42.91418" lon="0.21678">
        <ele>1595.9</ele>
        <time>2021-08-19T14:19:28.000Z</time>
      </trkpt>
      <trkpt lat="42.91428" lon="0.21676">
        <ele>1596.4</ele>
        <time>2021-08-19T14:19:33.000Z</time>
      </trkpt>
      <trkpt lat="42.91437" lon="0.21677">
        <ele>1596.4</ele>
        <time>2021-08-19T14:19:38.000Z</time>
      </trkpt>
      <trkpt lat="42.91448" lon="0.21675">
        <ele>1596.2</ele>
        <time>2021-08-19T14:19:45.000Z</time>
      </trkpt>
      <trkpt lat="42.91457" lon="0.21676">
        <ele>1596.2</ele>
        <time>2021-08-19T14:19:51.000Z</time>
      </trkpt>
      <trkpt lat="42.91466" lon="0.21671">
        <ele>1595.9</ele>
        <time>2021-08-19T14:19:58.000Z</time>
      </trkpt>
      <trkpt lat="42.91474" lon="0.21665">
        <ele>1596</ele>
        <time>2021-08-19T14:20:05.000Z</time>
      </trkpt>
      <trkpt lat="42.91482" lon="0.21656">
        <ele>1595.9</ele>
        <time>2021-08-19T14:20:13.000Z</time>
      </trkpt>
      <trkpt lat="42.9149" lon="0.21647">
        <ele>1595.1</ele>
        <time>2021-08-19T14:20:20.000Z</time>
      </trkpt>
      <trkpt lat="42.91497" lon="0.21638">
        <ele>1594.5</ele>
        <time>2021-08-19T14:20:26.000Z</time>
      </trkpt>
      <trkpt lat="42.91503" lon="0.21627">
        <ele>1594</ele>
        <time>2021-08-19T14:20:33.000Z</time>
      </trkpt>
      <trkpt lat="42.91509" lon="0.21617">
        <ele>1593.6</ele>
        <time>2021-08-19T14:20:40.000Z</time>
      </trkpt>
      <trkpt lat="42.91517" lon="0.21608">
        <ele>1594</ele>
        <time>2021-08-19T14:20:48.000Z</time>
      </trkpt>
      <trkpt lat="42.91522" lon="0.21597">
        <ele>1594</ele>
        <time>2021-08-19T14:20:56.000Z</time>
      </trkpt>
      <trkpt lat="42.91526" lon="0.21584">
        <ele>1594.1</ele>
        <time>2021-08-19T14:21:05.000Z</time>
      </trkpt>
      <trkpt lat="42.91531" lon="0.21574">
        <ele>1593.7</ele>
        <time>2021-08-19T14:21:12.000Z</time>
      </trkpt>
      <trkpt lat="42.91535" lon="0.21561">
        <ele>1593.5</ele>
        <time>2021-08-19T14:21:19.000Z</time>
      </trkpt>
      <trkpt lat="42.91539" lon="0.21549">
        <ele>1593.1</ele>
        <time>2021-08-19T14:21:27.000Z</time>
      </trkpt>
      <trkpt lat="42.91544" lon="0.21536">
        <ele>1592.6</ele>
        <time>2021-08-19T14:21:35.000Z</time>
      </trkpt>
      <trkpt lat="42.91546" lon="0.21524">
        <ele>1591.9</ele>
        <time>2021-08-19T14:21:42.000Z</time>
      </trkpt>
      <trkpt lat="42.91548" lon="0.21511">
        <ele>1590.2</ele>
        <time>2021-08-19T14:21:52.000Z</time>
      </trkpt>
      <trkpt lat="42.91554" lon="0.215">
        <ele>1589</ele>
        <time>2021-08-19T14:22:01.000Z</time>
      </trkpt>
      <trkpt lat="42.91558" lon="0.21489">
        <ele>1588.4</ele>
        <time>2021-08-19T14:22:09.000Z</time>
      </trkpt>
      <trkpt lat="42.91561" lon="0.21477">
        <ele>1588.1</ele>
        <time>2021-08-19T14:22:16.000Z</time>
      </trkpt>
      <trkpt lat="42.91564" lon="0.21465">
        <ele>1587.5</ele>
        <time>2021-08-19T14:22:23.000Z</time>
      </trkpt>
      <trkpt lat="42.91568" lon="0.21453">
        <ele>1586.5</ele>
        <time>2021-08-19T14:22:30.000Z</time>
      </trkpt>
      <trkpt lat="42.9157" lon="0.21441">
        <ele>1585</ele>
        <time>2021-08-19T14:22:39.000Z</time>
      </trkpt>
      <trkpt lat="42.91575" lon="0.2143">
        <ele>1583.3</ele>
        <time>2021-08-19T14:22:49.000Z</time>
      </trkpt>
      <trkpt lat="42.91579" lon="0.21417">
        <ele>1580.8</ele>
        <time>2021-08-19T14:22:58.000Z</time>
      </trkpt>
      <trkpt lat="42.91585" lon="0.21408">
        <ele>1578.4</ele>
        <time>2021-08-19T14:23:08.000Z</time>
      </trkpt>
      <trkpt lat="42.91589" lon="0.21397">
        <ele>1575.7</ele>
        <time>2021-08-19T14:23:19.000Z</time>
      </trkpt>
      <trkpt lat="42.91593" lon="0.21385">
        <ele>1572.7</ele>
        <time>2021-08-19T14:23:30.000Z</time>
      </trkpt>
      <trkpt lat="42.91593" lon="0.21381">
        <ele>1571.1</ele>
        <time>2021-08-19T14:23:37.000Z</time>
      </trkpt>
      <trkpt lat="42.91593" lon="0.2138">
        <ele>1571</ele>
        <time>2021-08-19T14:23:38.000Z</time>
      </trkpt>
      <trkpt lat="42.91596" lon="0.21368">
        <ele>1567.3</ele>
        <time>2021-08-19T14:23:53.000Z</time>
      </trkpt>
      <trkpt lat="42.91592" lon="0.21356">
        <ele>1563.4</ele>
        <time>2021-08-19T14:24:08.000Z</time>
      </trkpt>
      <trkpt lat="42.91596" lon="0.21345">
        <ele>1560.2</ele>
        <time>2021-08-19T14:24:22.000Z</time>
      </trkpt>
      <trkpt lat="42.91598" lon="0.21332">
        <ele>1555.6</ele>
        <time>2021-08-19T14:24:39.000Z</time>
      </trkpt>
      <trkpt lat="42.91594" lon="0.21326">
        <ele>1551.6</ele>
        <time>2021-08-19T14:24:55.000Z</time>
      </trkpt>
      <trkpt lat="42.91593" lon="0.21326">
        <ele>1551.3</ele>
        <time>2021-08-19T14:24:56.000Z</time>
      </trkpt>
      <trkpt lat="42.91586" lon="0.21317">
        <ele>1548.1</ele>
        <time>2021-08-19T14:25:13.000Z</time>
      </trkpt>
      <trkpt lat="42.91585" lon="0.21316">
        <ele>1547.6</ele>
        <time>2021-08-19T14:25:17.000Z</time>
      </trkpt>
      <trkpt lat="42.91585" lon="0.21316">
        <ele>1547.5</ele>
        <time>2021-08-19T14:25:18.000Z</time>
      </trkpt>
      <trkpt lat="42.91585" lon="0.21303">
        <ele>1543.3</ele>
        <time>2021-08-19T14:25:38.000Z</time>
      </trkpt>
      <trkpt lat="42.91579" lon="0.21293">
        <ele>1541</ele>
        <time>2021-08-19T14:25:49.000Z</time>
      </trkpt>
      <trkpt lat="42.91572" lon="0.21283">
        <ele>1538.4</ele>
        <time>2021-08-19T14:26:01.000Z</time>
      </trkpt>
      <trkpt lat="42.9157" lon="0.21282">
        <ele>1537.6</ele>
        <time>2021-08-19T14:26:06.000Z</time>
      </trkpt>
      <trkpt lat="42.9157" lon="0.21282">
        <ele>1537.6</ele>
        <time>2021-08-19T14:26:07.000Z</time>
      </trkpt>
      <trkpt lat="42.91568" lon="0.21269">
        <ele>1533.6</ele>
        <time>2021-08-19T14:26:21.000Z</time>
      </trkpt>
      <trkpt lat="42.91565" lon="0.21255">
        <ele>1530.4</ele>
        <time>2021-08-19T14:26:30.000Z</time>
      </trkpt>
      <trkpt lat="42.91561" lon="0.21244">
        <ele>1528.1</ele>
        <time>2021-08-19T14:26:38.000Z</time>
      </trkpt>
      <trkpt lat="42.91559" lon="0.21232">
        <ele>1527.1</ele>
        <time>2021-08-19T14:26:46.000Z</time>
      </trkpt>
      <trkpt lat="42.91568" lon="0.21228">
        <ele>1523.7</ele>
        <time>2021-08-19T14:27:05.000Z</time>
      </trkpt>
      <trkpt lat="42.91577" lon="0.21224">
        <ele>1521.7</ele>
        <time>2021-08-19T14:27:14.000Z</time>
      </trkpt>
      <trkpt lat="42.91573" lon="0.21213">
        <ele>1518.5</ele>
        <time>2021-08-19T14:27:28.000Z</time>
      </trkpt>
      <trkpt lat="42.91574" lon="0.21209">
        <ele>1517</ele>
        <time>2021-08-19T14:27:34.000Z</time>
      </trkpt>
      <trkpt lat="42.91573" lon="0.21209">
        <ele>1516.7</ele>
        <time>2021-08-19T14:27:35.000Z</time>
      </trkpt>
      <trkpt lat="42.91573" lon="0.21209">
        <ele>1516.5</ele>
        <time>2021-08-19T14:27:37.000Z</time>
      </trkpt>
      <trkpt lat="42.91573" lon="0.21209">
        <ele>1516.3</ele>
        <time>2021-08-19T14:27:38.000Z</time>
      </trkpt>
      <trkpt lat="42.91567" lon="0.212">
        <ele>1514.2</ele>
        <time>2021-08-19T14:27:48.000Z</time>
      </trkpt>
      <trkpt lat="42.91572" lon="0.21189">
        <ele>1509.5</ele>
        <time>2021-08-19T14:28:10.000Z</time>
      </trkpt>
      <trkpt lat="42.91569" lon="0.21176">
        <ele>1506</ele>
        <time>2021-08-19T14:28:25.000Z</time>
      </trkpt>
      <trkpt lat="42.91575" lon="0.21167">
        <ele>1502.7</ele>
        <time>2021-08-19T14:28:42.000Z</time>
      </trkpt>
      <trkpt lat="42.91575" lon="0.21166">
        <ele>1501.5</ele>
        <time>2021-08-19T14:28:45.000Z</time>
      </trkpt>
      <trkpt lat="42.91576" lon="0.21166">
        <ele>1501.4</ele>
        <time>2021-08-19T14:28:47.000Z</time>
      </trkpt>
      <trkpt lat="42.91583" lon="0.21158">
        <ele>1497.3</ele>
        <time>2021-08-19T14:29:08.000Z</time>
      </trkpt>
      <trkpt lat="42.91581" lon="0.21146">
        <ele>1494.6</ele>
        <time>2021-08-19T14:29:22.000Z</time>
      </trkpt>
      <trkpt lat="42.91588" lon="0.21138">
        <ele>1488.8</ele>
        <time>2021-08-19T14:29:45.000Z</time>
      </trkpt>
      <trkpt lat="42.9159" lon="0.21126">
        <ele>1484.6</ele>
        <time>2021-08-19T14:30:01.000Z</time>
      </trkpt>
      <trkpt lat="42.91593" lon="0.21112">
        <ele>1481.4</ele>
        <time>2021-08-19T14:30:12.000Z</time>
      </trkpt>
      <trkpt lat="42.91596" lon="0.211">
        <ele>1478.7</ele>
        <time>2021-08-19T14:30:21.000Z</time>
      </trkpt>
      <trkpt lat="42.91601" lon="0.21088">
        <ele>1477.4</ele>
        <time>2021-08-19T14:30:29.000Z</time>
      </trkpt>
      <trkpt lat="42.91602" lon="0.21074">
        <ele>1476</ele>
        <time>2021-08-19T14:30:36.000Z</time>
      </trkpt>
      <trkpt lat="42.91602" lon="0.21061">
        <ele>1474.3</ele>
        <time>2021-08-19T14:30:43.000Z</time>
      </trkpt>
      <trkpt lat="42.91605" lon="0.21049">
        <ele>1472.1</ele>
        <time>2021-08-19T14:30:51.000Z</time>
      </trkpt>
      <trkpt lat="42.91606" lon="0.21041">
        <ele>1470.2</ele>
        <time>2021-08-19T14:30:59.000Z</time>
      </trkpt>
      <trkpt lat="42.91606" lon="0.2104">
        <ele>1470.1</ele>
        <time>2021-08-19T14:31:00.000Z</time>
      </trkpt>
      <trkpt lat="42.91609" lon="0.21028">
        <ele>1468.3</ele>
        <time>2021-08-19T14:31:08.000Z</time>
      </trkpt>
      <trkpt lat="42.91609" lon="0.21028">
        <ele>1468.1</ele>
        <time>2021-08-19T14:31:10.000Z</time>
      </trkpt>
      <trkpt lat="42.91609" lon="0.21028">
        <ele>1468.1</ele>
        <time>2021-08-19T14:31:12.000Z</time>
      </trkpt>
      <trkpt lat="42.91614" lon="0.21016">
        <ele>1467.1</ele>
        <time>2021-08-19T14:31:20.000Z</time>
      </trkpt>
      <trkpt lat="42.91622" lon="0.21009">
        <ele>1467.5</ele>
        <time>2021-08-19T14:31:29.000Z</time>
      </trkpt>
      <trkpt lat="42.91627" lon="0.20998">
        <ele>1468.5</ele>
        <time>2021-08-19T14:31:40.000Z</time>
      </trkpt>
      <trkpt lat="42.91634" lon="0.20989">
        <ele>1466.2</ele>
        <time>2021-08-19T14:31:49.000Z</time>
      </trkpt>
      <trkpt lat="42.91641" lon="0.20981">
        <ele>1463.5</ele>
        <time>2021-08-19T14:31:58.000Z</time>
      </trkpt>
      <trkpt lat="42.91645" lon="0.20972">
        <ele>1462.9</ele>
        <time>2021-08-19T14:32:09.000Z</time>
      </trkpt>
      <trkpt lat="42.91645" lon="0.20972">
        <ele>1463</ele>
        <time>2021-08-19T14:32:10.000Z</time>
      </trkpt>
      <trkpt lat="42.91642" lon="0.2096">
        <ele>1461.3</ele>
        <time>2021-08-19T14:32:29.000Z</time>
      </trkpt>
      <trkpt lat="42.91637" lon="0.20948">
        <ele>1462.2</ele>
        <time>2021-08-19T14:32:36.000Z</time>
      </trkpt>
      <trkpt lat="42.91632" lon="0.20937">
        <ele>1463.7</ele>
        <time>2021-08-19T14:32:45.000Z</time>
      </trkpt>
      <trkpt lat="42.91634" lon="0.20924">
        <ele>1463.9</ele>
        <time>2021-08-19T14:32:53.000Z</time>
      </trkpt>
      <trkpt lat="42.91642" lon="0.20927">
        <ele>1462.7</ele>
        <time>2021-08-19T14:33:06.000Z</time>
      </trkpt>
      <trkpt lat="42.91651" lon="0.20933">
        <ele>1461.3</ele>
        <time>2021-08-19T14:33:14.000Z</time>
      </trkpt>
      <trkpt lat="42.91643" lon="0.20941">
        <ele>1458.5</ele>
        <time>2021-08-19T14:33:43.000Z</time>
      </trkpt>
      <trkpt lat="42.91653" lon="0.20942">
        <ele>1458.9</ele>
        <time>2021-08-19T14:34:08.000Z</time>
      </trkpt>
      <trkpt lat="42.91655" lon="0.20929">
        <ele>1460.6</ele>
        <time>2021-08-19T14:34:22.000Z</time>
      </trkpt>
      <trkpt lat="42.91653" lon="0.20916">
        <ele>1462.5</ele>
        <time>2021-08-19T14:34:32.000Z</time>
      </trkpt>
      <trkpt lat="42.91663" lon="0.20916">
        <ele>1466.2</ele>
        <time>2021-08-19T14:34:55.000Z</time>
      </trkpt>
      <trkpt lat="42.91664" lon="0.20929">
        <ele>1467.5</ele>
        <time>2021-08-19T14:35:03.000Z</time>
      </trkpt>
      <trkpt lat="42.91669" lon="0.2094">
        <ele>1467.8</ele>
        <time>2021-08-19T14:35:21.000Z</time>
      </trkpt>
      <trkpt lat="42.91677" lon="0.20945">
        <ele>1468.7</ele>
        <time>2021-08-19T14:35:33.000Z</time>
      </trkpt>
      <trkpt lat="42.91687" lon="0.20945">
        <ele>1467.9</ele>
        <time>2021-08-19T14:35:42.000Z</time>
      </trkpt>
      <trkpt lat="42.91696" lon="0.20946">
        <ele>1467.4</ele>
        <time>2021-08-19T14:35:51.000Z</time>
      </trkpt>
      <trkpt lat="42.91705" lon="0.20951">
        <ele>1466</ele>
        <time>2021-08-19T14:36:02.000Z</time>
      </trkpt>
      <trkpt lat="42.91714" lon="0.20953">
        <ele>1463.9</ele>
        <time>2021-08-19T14:36:15.000Z</time>
      </trkpt>
      <trkpt lat="42.91723" lon="0.20948">
        <ele>1462.8</ele>
        <time>2021-08-19T14:36:24.000Z</time>
      </trkpt>
      <trkpt lat="42.91732" lon="0.20942">
        <ele>1462.1</ele>
        <time>2021-08-19T14:36:32.000Z</time>
      </trkpt>
      <trkpt lat="42.91739" lon="0.20933">
        <ele>1461.4</ele>
        <time>2021-08-19T14:36:40.000Z</time>
      </trkpt>
      <trkpt lat="42.91748" lon="0.20926">
        <ele>1460.3</ele>
        <time>2021-08-19T14:36:47.000Z</time>
      </trkpt>
      <trkpt lat="42.91756" lon="0.20917">
        <ele>1461.2</ele>
        <time>2021-08-19T14:36:55.000Z</time>
      </trkpt>
      <trkpt lat="42.91759" lon="0.20908">
        <ele>1458.7</ele>
        <time>2021-08-19T14:37:08.000Z</time>
      </trkpt>
      <trkpt lat="42.91759" lon="0.20908">
        <ele>1458.7</ele>
        <time>2021-08-19T14:37:08.000Z</time>
      </trkpt>
      <trkpt lat="42.91759" lon="0.20908">
        <ele>1458.7</ele>
        <time>2021-08-19T14:37:08.000Z</time>
      </trkpt>
      <trkpt lat="42.91759" lon="0.20908">
        <ele>1458.7</ele>
        <time>2021-08-19T14:37:08.000Z</time>
      </trkpt>
    </trkseg>
  </trk>
</gpx>